<?xml version="1.0" encoding="UTF-8" standalone="no" ?>
<gpx xmlns="http://www.topografix.com/GPX/1/1" xmlns:xsi="http://www.w3.org/2001/XMLSchema-instance" xsi:schemaLocation="http://www.topografix.com/GPX/1/1 http://www.topografix.com/GPX/1/1/gpx.xsd" version="1.1" creator="VisuGPX - https://www.visugpx.com">
  <metadata>
    <name>Causswatts 2017</name>
  </metadata>
  <trk>
    <name><![CDATA[causwatts 06-champerboux...]]></name>
    <trkseg>
      <trkpt lat="44.40878" lon="3.41314">
        <ele>938</ele>
        <time>2017-02-27T14:52:59Z</time>
      </trkpt>
      <trkpt lat="44.4087" lon="3.4132">
        <ele>937</ele>
        <time>2017-02-27T14:54:59Z</time>
      </trkpt>
      <trkpt lat="44.40881" lon="3.41349">
        <ele>937</ele>
        <time>2017-02-27T14:56:59Z</time>
      </trkpt>
      <trkpt lat="44.40876" lon="3.41363">
        <ele>937</ele>
        <time>2017-02-27T14:58:59Z</time>
      </trkpt>
      <trkpt lat="44.40872" lon="3.41385">
        <ele>936</ele>
        <time>2017-02-27T15:00:59Z</time>
      </trkpt>
      <trkpt lat="44.40868" lon="3.41404">
        <ele>936</ele>
        <time>2017-02-27T15:02:59Z</time>
      </trkpt>
      <trkpt lat="44.40846" lon="3.41448">
        <ele>936</ele>
        <time>2017-02-27T15:04:59Z</time>
      </trkpt>
      <trkpt lat="44.40841" lon="3.41462">
        <ele>936</ele>
        <time>2017-02-27T15:06:59Z</time>
      </trkpt>
      <trkpt lat="44.4084" lon="3.41466">
        <ele>936</ele>
        <time>2017-02-27T15:08:59Z</time>
      </trkpt>
      <trkpt lat="44.40829" lon="3.41507">
        <ele>937</ele>
        <time>2017-02-27T15:10:59Z</time>
      </trkpt>
      <trkpt lat="44.40823" lon="3.41528">
        <ele>938</ele>
        <time>2017-02-27T15:12:59Z</time>
      </trkpt>
      <trkpt lat="44.40814" lon="3.41556">
        <ele>940</ele>
        <time>2017-02-27T15:14:59Z</time>
      </trkpt>
      <trkpt lat="44.40806" lon="3.4157">
        <ele>941</ele>
        <time>2017-02-27T15:16:59Z</time>
      </trkpt>
      <trkpt lat="44.40798" lon="3.41577">
        <ele>941</ele>
        <time>2017-02-27T15:18:59Z</time>
      </trkpt>
      <trkpt lat="44.40768" lon="3.41592">
        <ele>941</ele>
        <time>2017-02-27T15:20:59Z</time>
      </trkpt>
      <trkpt lat="44.40748" lon="3.41603">
        <ele>942</ele>
        <time>2017-02-27T15:22:59Z</time>
      </trkpt>
      <trkpt lat="44.40732" lon="3.41616">
        <ele>942</ele>
        <time>2017-02-27T15:24:59Z</time>
      </trkpt>
      <trkpt lat="44.40713" lon="3.41635">
        <ele>943</ele>
        <time>2017-02-27T15:26:59Z</time>
      </trkpt>
      <trkpt lat="44.40701" lon="3.41653">
        <ele>944</ele>
        <time>2017-02-27T15:28:59Z</time>
      </trkpt>
      <trkpt lat="44.40692" lon="3.41672">
        <ele>946</ele>
        <time>2017-02-27T15:30:59Z</time>
      </trkpt>
      <trkpt lat="44.40694" lon="3.41681">
        <ele>947</ele>
        <time>2017-02-27T15:32:59Z</time>
      </trkpt>
      <trkpt lat="44.40698" lon="3.4169">
        <ele>949</ele>
        <time>2017-02-27T15:34:59Z</time>
      </trkpt>
      <trkpt lat="44.40703" lon="3.41696">
        <ele>950</ele>
        <time>2017-02-27T15:36:59Z</time>
      </trkpt>
      <trkpt lat="44.40723" lon="3.41695">
        <ele>952</ele>
        <time>2017-02-27T15:38:59Z</time>
      </trkpt>
      <trkpt lat="44.4074" lon="3.41693">
        <ele>954</ele>
        <time>2017-02-27T15:40:59Z</time>
      </trkpt>
      <trkpt lat="44.4076" lon="3.41689">
        <ele>955</ele>
        <time>2017-02-27T15:42:59Z</time>
      </trkpt>
      <trkpt lat="44.40777" lon="3.41686">
        <ele>956</ele>
        <time>2017-02-27T15:44:59Z</time>
      </trkpt>
      <trkpt lat="44.40781" lon="3.41686">
        <ele>956</ele>
        <time>2017-02-27T15:46:59Z</time>
      </trkpt>
      <trkpt lat="44.40784" lon="3.41689">
        <ele>957</ele>
        <time>2017-02-27T15:48:59Z</time>
      </trkpt>
      <trkpt lat="44.40783" lon="3.41697">
        <ele>958</ele>
        <time>2017-02-27T15:50:59Z</time>
      </trkpt>
      <trkpt lat="44.4078" lon="3.41699">
        <ele>958</ele>
        <time>2017-02-27T15:52:59Z</time>
      </trkpt>
      <trkpt lat="44.4077" lon="3.41702">
        <ele>958</ele>
        <time>2017-02-27T15:54:59Z</time>
      </trkpt>
      <trkpt lat="44.4076" lon="3.41709">
        <ele>958</ele>
        <time>2017-02-27T15:56:59Z</time>
      </trkpt>
      <trkpt lat="44.40741" lon="3.41732">
        <ele>960</ele>
        <time>2017-02-27T15:58:59Z</time>
      </trkpt>
      <trkpt lat="44.40717" lon="3.41774">
        <ele>963</ele>
        <time>2017-02-27T16:00:59Z</time>
      </trkpt>
      <trkpt lat="44.407" lon="3.41817">
        <ele>967</ele>
        <time>2017-02-27T16:02:59Z</time>
      </trkpt>
      <trkpt lat="44.40688" lon="3.41844">
        <ele>969</ele>
        <time>2017-02-27T16:04:59Z</time>
      </trkpt>
      <trkpt lat="44.40672" lon="3.41877">
        <ele>970</ele>
        <time>2017-02-27T16:06:59Z</time>
      </trkpt>
      <trkpt lat="44.40661" lon="3.41905">
        <ele>973</ele>
        <time>2017-02-27T16:08:59Z</time>
      </trkpt>
      <trkpt lat="44.40652" lon="3.41937">
        <ele>976</ele>
        <time>2017-02-27T16:10:59Z</time>
      </trkpt>
      <trkpt lat="44.40641" lon="3.41956">
        <ele>978</ele>
        <time>2017-02-27T16:12:59Z</time>
      </trkpt>
      <trkpt lat="44.40633" lon="3.41964">
        <ele>979</ele>
        <time>2017-02-27T16:14:59Z</time>
      </trkpt>
      <trkpt lat="44.40621" lon="3.41971">
        <ele>979</ele>
        <time>2017-02-27T16:16:59Z</time>
      </trkpt>
      <trkpt lat="44.40615" lon="3.41976">
        <ele>980</ele>
        <time>2017-02-27T16:18:59Z</time>
      </trkpt>
      <trkpt lat="44.40609" lon="3.41984">
        <ele>980</ele>
        <time>2017-02-27T16:20:59Z</time>
      </trkpt>
      <trkpt lat="44.40599" lon="3.42008">
        <ele>982</ele>
        <time>2017-02-27T16:22:59Z</time>
      </trkpt>
      <trkpt lat="44.40594" lon="3.42029">
        <ele>983</ele>
        <time>2017-02-27T16:24:59Z</time>
      </trkpt>
      <trkpt lat="44.4059" lon="3.42059">
        <ele>984</ele>
        <time>2017-02-27T16:26:59Z</time>
      </trkpt>
      <trkpt lat="44.40576" lon="3.42143">
        <ele>985</ele>
        <time>2017-02-27T16:28:59Z</time>
      </trkpt>
      <trkpt lat="44.40565" lon="3.42171">
        <ele>985</ele>
        <time>2017-02-27T16:30:59Z</time>
      </trkpt>
      <trkpt lat="44.40553" lon="3.42201">
        <ele>985</ele>
        <time>2017-02-27T16:32:59Z</time>
      </trkpt>
      <trkpt lat="44.4055" lon="3.42214">
        <ele>985</ele>
        <time>2017-02-27T16:34:59Z</time>
      </trkpt>
      <trkpt lat="44.40543" lon="3.42253">
        <ele>985</ele>
        <time>2017-02-27T16:36:59Z</time>
      </trkpt>
      <trkpt lat="44.40536" lon="3.42276">
        <ele>985</ele>
        <time>2017-02-27T16:38:59Z</time>
      </trkpt>
      <trkpt lat="44.40525" lon="3.42301">
        <ele>984</ele>
        <time>2017-02-27T16:40:59Z</time>
      </trkpt>
      <trkpt lat="44.40508" lon="3.42342">
        <ele>982</ele>
        <time>2017-02-27T16:42:59Z</time>
      </trkpt>
      <trkpt lat="44.40498" lon="3.42363">
        <ele>982</ele>
        <time>2017-02-27T16:44:59Z</time>
      </trkpt>
      <trkpt lat="44.40494" lon="3.4238">
        <ele>981</ele>
        <time>2017-02-27T16:46:59Z</time>
      </trkpt>
      <trkpt lat="44.40487" lon="3.42415">
        <ele>981</ele>
        <time>2017-02-27T16:48:59Z</time>
      </trkpt>
      <trkpt lat="44.40487" lon="3.42423">
        <ele>981</ele>
        <time>2017-02-27T16:50:59Z</time>
      </trkpt>
      <trkpt lat="44.40489" lon="3.42492">
        <ele>981</ele>
        <time>2017-02-27T16:52:59Z</time>
      </trkpt>
      <trkpt lat="44.40492" lon="3.42612">
        <ele>979</ele>
        <time>2017-02-27T16:54:59Z</time>
      </trkpt>
      <trkpt lat="44.40495" lon="3.42655">
        <ele>980</ele>
        <time>2017-02-27T16:56:59Z</time>
      </trkpt>
      <trkpt lat="44.40498" lon="3.42686">
        <ele>979</ele>
        <time>2017-02-27T16:58:59Z</time>
      </trkpt>
      <trkpt lat="44.40503" lon="3.42706">
        <ele>978</ele>
        <time>2017-02-27T17:00:59Z</time>
      </trkpt>
      <trkpt lat="44.40511" lon="3.42725">
        <ele>978</ele>
        <time>2017-02-27T17:02:59Z</time>
      </trkpt>
      <trkpt lat="44.40532" lon="3.42762">
        <ele>978</ele>
        <time>2017-02-27T17:04:59Z</time>
      </trkpt>
      <trkpt lat="44.40557" lon="3.42807">
        <ele>979</ele>
        <time>2017-02-27T17:06:59Z</time>
      </trkpt>
      <trkpt lat="44.40567" lon="3.4283">
        <ele>978</ele>
        <time>2017-02-27T17:08:59Z</time>
      </trkpt>
      <trkpt lat="44.40571" lon="3.42844">
        <ele>979</ele>
        <time>2017-02-27T17:10:59Z</time>
      </trkpt>
      <trkpt lat="44.40571" lon="3.42859">
        <ele>979</ele>
        <time>2017-02-27T17:12:59Z</time>
      </trkpt>
      <trkpt lat="44.40568" lon="3.42875">
        <ele>978</ele>
        <time>2017-02-27T17:14:59Z</time>
      </trkpt>
      <trkpt lat="44.40562" lon="3.42889">
        <ele>978</ele>
        <time>2017-02-27T17:16:59Z</time>
      </trkpt>
      <trkpt lat="44.40549" lon="3.42903">
        <ele>977</ele>
        <time>2017-02-27T17:18:59Z</time>
      </trkpt>
      <trkpt lat="44.40558" lon="3.42956">
        <ele>978</ele>
        <time>2017-02-27T17:20:59Z</time>
      </trkpt>
      <trkpt lat="44.40569" lon="3.4301">
        <ele>979</ele>
        <time>2017-02-27T17:22:59Z</time>
      </trkpt>
      <trkpt lat="44.40572" lon="3.43043">
        <ele>977</ele>
        <time>2017-02-27T17:24:59Z</time>
      </trkpt>
      <trkpt lat="44.40606" lon="3.43082">
        <ele>977</ele>
        <time>2017-02-27T17:26:59Z</time>
      </trkpt>
      <trkpt lat="44.40645" lon="3.43111">
        <ele>977</ele>
        <time>2017-02-27T17:28:59Z</time>
      </trkpt>
      <trkpt lat="44.4069" lon="3.43137">
        <ele>980</ele>
        <time>2017-02-27T17:30:59Z</time>
      </trkpt>
      <trkpt lat="44.40718" lon="3.43137">
        <ele>984</ele>
        <time>2017-02-27T17:32:59Z</time>
      </trkpt>
      <trkpt lat="44.40758" lon="3.43149">
        <ele>989</ele>
        <time>2017-02-27T17:34:59Z</time>
      </trkpt>
      <trkpt lat="44.40853" lon="3.4319">
        <ele>1003</ele>
        <time>2017-02-27T17:36:59Z</time>
      </trkpt>
      <trkpt lat="44.40874" lon="3.43232">
        <ele>1007</ele>
        <time>2017-02-27T17:38:59Z</time>
      </trkpt>
      <trkpt lat="44.40916" lon="3.43289">
        <ele>1012</ele>
        <time>2017-02-27T17:40:59Z</time>
      </trkpt>
      <trkpt lat="44.40935" lon="3.43309">
        <ele>1014</ele>
        <time>2017-02-27T17:42:59Z</time>
      </trkpt>
      <trkpt lat="44.40942" lon="3.43336">
        <ele>1013</ele>
        <time>2017-02-27T17:44:59Z</time>
      </trkpt>
      <trkpt lat="44.40943" lon="3.43357">
        <ele>1012</ele>
        <time>2017-02-27T17:46:59Z</time>
      </trkpt>
      <trkpt lat="44.40945" lon="3.43365">
        <ele>1011</ele>
        <time>2017-02-27T17:48:59Z</time>
      </trkpt>
      <trkpt lat="44.40957" lon="3.43394">
        <ele>1010</ele>
        <time>2017-02-27T17:50:59Z</time>
      </trkpt>
      <trkpt lat="44.40966" lon="3.43425">
        <ele>1009</ele>
        <time>2017-02-27T17:52:59Z</time>
      </trkpt>
      <trkpt lat="44.4097" lon="3.43467">
        <ele>1009</ele>
        <time>2017-02-27T17:54:59Z</time>
      </trkpt>
      <trkpt lat="44.40968" lon="3.43484">
        <ele>1008</ele>
        <time>2017-02-27T17:56:59Z</time>
      </trkpt>
      <trkpt lat="44.40962" lon="3.4352">
        <ele>1007</ele>
        <time>2017-02-27T17:58:59Z</time>
      </trkpt>
      <trkpt lat="44.40961" lon="3.43541">
        <ele>1008</ele>
        <time>2017-02-27T18:00:59Z</time>
      </trkpt>
      <trkpt lat="44.40962" lon="3.43557">
        <ele>1008</ele>
        <time>2017-02-27T18:02:59Z</time>
      </trkpt>
      <trkpt lat="44.40974" lon="3.43589">
        <ele>1009</ele>
        <time>2017-02-27T18:04:59Z</time>
      </trkpt>
      <trkpt lat="44.40976" lon="3.436">
        <ele>1009</ele>
        <time>2017-02-27T18:06:59Z</time>
      </trkpt>
      <trkpt lat="44.40976" lon="3.43607">
        <ele>1009</ele>
        <time>2017-02-27T18:08:59Z</time>
      </trkpt>
      <trkpt lat="44.40974" lon="3.43618">
        <ele>1009</ele>
        <time>2017-02-27T18:10:59Z</time>
      </trkpt>
      <trkpt lat="44.40972" lon="3.43627">
        <ele>1009</ele>
        <time>2017-02-27T18:12:59Z</time>
      </trkpt>
      <trkpt lat="44.40971" lon="3.43635">
        <ele>1009</ele>
        <time>2017-02-27T18:14:59Z</time>
      </trkpt>
      <trkpt lat="44.40969" lon="3.43644">
        <ele>1009</ele>
        <time>2017-02-27T18:16:59Z</time>
      </trkpt>
      <trkpt lat="44.40956" lon="3.43671">
        <ele>1010</ele>
        <time>2017-02-27T18:18:59Z</time>
      </trkpt>
      <trkpt lat="44.40948" lon="3.43693">
        <ele>1010</ele>
        <time>2017-02-27T18:20:59Z</time>
      </trkpt>
      <trkpt lat="44.40944" lon="3.43725">
        <ele>1010</ele>
        <time>2017-02-27T18:22:59Z</time>
      </trkpt>
      <trkpt lat="44.40941" lon="3.43757">
        <ele>1011</ele>
        <time>2017-02-27T18:24:59Z</time>
      </trkpt>
      <trkpt lat="44.40929" lon="3.43805">
        <ele>1012</ele>
        <time>2017-02-27T18:26:59Z</time>
      </trkpt>
      <trkpt lat="44.40918" lon="3.4382">
        <ele>1013</ele>
        <time>2017-02-27T18:28:59Z</time>
      </trkpt>
      <trkpt lat="44.40904" lon="3.43845">
        <ele>1013</ele>
        <time>2017-02-27T18:30:59Z</time>
      </trkpt>
      <trkpt lat="44.40896" lon="3.4385">
        <ele>1013</ele>
        <time>2017-02-27T18:32:59Z</time>
      </trkpt>
      <trkpt lat="44.4088" lon="3.43858">
        <ele>1014</ele>
        <time>2017-02-27T18:34:59Z</time>
      </trkpt>
      <trkpt lat="44.40862" lon="3.4387">
        <ele>1014</ele>
        <time>2017-02-27T18:36:59Z</time>
      </trkpt>
      <trkpt lat="44.40851" lon="3.43883">
        <ele>1015</ele>
        <time>2017-02-27T18:38:59Z</time>
      </trkpt>
      <trkpt lat="44.40851" lon="3.43896">
        <ele>1015</ele>
        <time>2017-02-27T18:40:59Z</time>
      </trkpt>
      <trkpt lat="44.40853" lon="3.43919">
        <ele>1015</ele>
        <time>2017-02-27T18:42:59Z</time>
      </trkpt>
      <trkpt lat="44.40858" lon="3.43942">
        <ele>1014</ele>
        <time>2017-02-27T18:44:59Z</time>
      </trkpt>
      <trkpt lat="44.40859" lon="3.43946">
        <ele>1014</ele>
        <time>2017-02-27T18:46:59Z</time>
      </trkpt>
      <trkpt lat="44.40867" lon="3.43968">
        <ele>1012</ele>
        <time>2017-02-27T18:48:59Z</time>
      </trkpt>
      <trkpt lat="44.40874" lon="3.43979">
        <ele>1011</ele>
        <time>2017-02-27T18:50:59Z</time>
      </trkpt>
      <trkpt lat="44.40878" lon="3.43982">
        <ele>1011</ele>
        <time>2017-02-27T18:52:59Z</time>
      </trkpt>
      <trkpt lat="44.40878" lon="3.44014">
        <ele>1010</ele>
        <time>2017-02-27T18:54:59Z</time>
      </trkpt>
      <trkpt lat="44.40875" lon="3.44042">
        <ele>1010</ele>
        <time>2017-02-27T18:56:59Z</time>
      </trkpt>
      <trkpt lat="44.40873" lon="3.44058">
        <ele>1010</ele>
        <time>2017-02-27T18:58:59Z</time>
      </trkpt>
      <trkpt lat="44.40871" lon="3.44062">
        <ele>1010</ele>
        <time>2017-02-27T19:00:59Z</time>
      </trkpt>
      <trkpt lat="44.40891" lon="3.44078">
        <ele>1009</ele>
        <time>2017-02-27T19:02:59Z</time>
      </trkpt>
      <trkpt lat="44.40905" lon="3.44099">
        <ele>1008</ele>
        <time>2017-02-27T19:04:59Z</time>
      </trkpt>
      <trkpt lat="44.40908" lon="3.4411">
        <ele>1008</ele>
        <time>2017-02-27T19:06:59Z</time>
      </trkpt>
      <trkpt lat="44.40908" lon="3.44123">
        <ele>1008</ele>
        <time>2017-02-27T19:08:59Z</time>
      </trkpt>
      <trkpt lat="44.40908" lon="3.44131">
        <ele>1008</ele>
        <time>2017-02-27T19:10:59Z</time>
      </trkpt>
      <trkpt lat="44.40879" lon="3.44126">
        <ele>1008</ele>
        <time>2017-02-27T19:12:59Z</time>
      </trkpt>
      <trkpt lat="44.40908" lon="3.44131">
        <ele>1008</ele>
        <time>2017-02-27T19:14:59Z</time>
      </trkpt>
      <trkpt lat="44.40908" lon="3.44123">
        <ele>1008</ele>
        <time>2017-02-27T19:16:59Z</time>
      </trkpt>
      <trkpt lat="44.40908" lon="3.4411">
        <ele>1008</ele>
        <time>2017-02-27T19:18:59Z</time>
      </trkpt>
      <trkpt lat="44.40905" lon="3.44099">
        <ele>1008</ele>
        <time>2017-02-27T19:20:59Z</time>
      </trkpt>
      <trkpt lat="44.40891" lon="3.44078">
        <ele>1009</ele>
        <time>2017-02-27T19:22:59Z</time>
      </trkpt>
      <trkpt lat="44.40871" lon="3.44062">
        <ele>1010</ele>
        <time>2017-02-27T19:24:59Z</time>
      </trkpt>
      <trkpt lat="44.40869" lon="3.44067">
        <ele>1010</ele>
        <time>2017-02-27T19:26:59Z</time>
      </trkpt>
      <trkpt lat="44.40864" lon="3.44072">
        <ele>1011</ele>
        <time>2017-02-27T19:28:59Z</time>
      </trkpt>
      <trkpt lat="44.40854" lon="3.44075">
        <ele>1011</ele>
        <time>2017-02-27T19:30:59Z</time>
      </trkpt>
      <trkpt lat="44.40841" lon="3.44075">
        <ele>1012</ele>
        <time>2017-02-27T19:32:59Z</time>
      </trkpt>
      <trkpt lat="44.40828" lon="3.44071">
        <ele>1012</ele>
        <time>2017-02-27T19:34:59Z</time>
      </trkpt>
      <trkpt lat="44.40822" lon="3.4407">
        <ele>1012</ele>
        <time>2017-02-27T19:36:59Z</time>
      </trkpt>
      <trkpt lat="44.4081" lon="3.44074">
        <ele>1012</ele>
        <time>2017-02-27T19:38:59Z</time>
      </trkpt>
      <trkpt lat="44.40788" lon="3.44078">
        <ele>1011</ele>
        <time>2017-02-27T19:40:59Z</time>
      </trkpt>
      <trkpt lat="44.40761" lon="3.44079">
        <ele>1010</ele>
        <time>2017-02-27T19:42:59Z</time>
      </trkpt>
      <trkpt lat="44.40739" lon="3.44081">
        <ele>1010</ele>
        <time>2017-02-27T19:44:59Z</time>
      </trkpt>
      <trkpt lat="44.4072" lon="3.44088">
        <ele>1010</ele>
        <time>2017-02-27T19:46:59Z</time>
      </trkpt>
      <trkpt lat="44.40716" lon="3.44092">
        <ele>1010</ele>
        <time>2017-02-27T19:48:59Z</time>
      </trkpt>
      <trkpt lat="44.40699" lon="3.44089">
        <ele>1012</ele>
        <time>2017-02-27T19:50:59Z</time>
      </trkpt>
      <trkpt lat="44.4068" lon="3.44081">
        <ele>1013</ele>
        <time>2017-02-27T19:52:59Z</time>
      </trkpt>
      <trkpt lat="44.40666" lon="3.44073">
        <ele>1014</ele>
        <time>2017-02-27T19:54:59Z</time>
      </trkpt>
      <trkpt lat="44.40658" lon="3.4406">
        <ele>1015</ele>
        <time>2017-02-27T19:56:59Z</time>
      </trkpt>
      <trkpt lat="44.40643" lon="3.44028">
        <ele>1017</ele>
        <time>2017-02-27T19:58:59Z</time>
      </trkpt>
      <trkpt lat="44.40633" lon="3.4402">
        <ele>1018</ele>
        <time>2017-02-27T20:00:59Z</time>
      </trkpt>
      <trkpt lat="44.40622" lon="3.44018">
        <ele>1019</ele>
        <time>2017-02-27T20:02:59Z</time>
      </trkpt>
      <trkpt lat="44.40609" lon="3.44021">
        <ele>1021</ele>
        <time>2017-02-27T20:04:59Z</time>
      </trkpt>
      <trkpt lat="44.40594" lon="3.4403">
        <ele>1022</ele>
        <time>2017-02-27T20:06:59Z</time>
      </trkpt>
      <trkpt lat="44.40577" lon="3.44038">
        <ele>1024</ele>
        <time>2017-02-27T20:08:59Z</time>
      </trkpt>
      <trkpt lat="44.40563" lon="3.44042">
        <ele>1025</ele>
        <time>2017-02-27T20:10:59Z</time>
      </trkpt>
      <trkpt lat="44.40535" lon="3.44047">
        <ele>1026</ele>
        <time>2017-02-27T20:12:59Z</time>
      </trkpt>
      <trkpt lat="44.4052" lon="3.44043">
        <ele>1027</ele>
        <time>2017-02-27T20:14:59Z</time>
      </trkpt>
      <trkpt lat="44.40507" lon="3.44038">
        <ele>1028</ele>
        <time>2017-02-27T20:16:59Z</time>
      </trkpt>
      <trkpt lat="44.40486" lon="3.44038">
        <ele>1029</ele>
        <time>2017-02-27T20:18:59Z</time>
      </trkpt>
      <trkpt lat="44.40445" lon="3.44027">
        <ele>1030</ele>
        <time>2017-02-27T20:20:59Z</time>
      </trkpt>
      <trkpt lat="44.40431" lon="3.44019">
        <ele>1030</ele>
        <time>2017-02-27T20:22:59Z</time>
      </trkpt>
      <trkpt lat="44.40413" lon="3.44007">
        <ele>1030</ele>
        <time>2017-02-27T20:24:59Z</time>
      </trkpt>
      <trkpt lat="44.40396" lon="3.43993">
        <ele>1029</ele>
        <time>2017-02-27T20:26:59Z</time>
      </trkpt>
      <trkpt lat="44.40384" lon="3.43985">
        <ele>1028</ele>
        <time>2017-02-27T20:28:59Z</time>
      </trkpt>
      <trkpt lat="44.40372" lon="3.43983">
        <ele>1029</ele>
        <time>2017-02-27T20:30:59Z</time>
      </trkpt>
      <trkpt lat="44.40352" lon="3.43987">
        <ele>1030</ele>
        <time>2017-02-27T20:32:59Z</time>
      </trkpt>
      <trkpt lat="44.4033" lon="3.43996">
        <ele>1031</ele>
        <time>2017-02-27T20:34:59Z</time>
      </trkpt>
      <trkpt lat="44.40301" lon="3.44012">
        <ele>1031</ele>
        <time>2017-02-27T20:36:59Z</time>
      </trkpt>
      <trkpt lat="44.40288" lon="3.44017">
        <ele>1031</ele>
        <time>2017-02-27T20:38:59Z</time>
      </trkpt>
      <trkpt lat="44.40265" lon="3.44023">
        <ele>1030</ele>
        <time>2017-02-27T20:40:59Z</time>
      </trkpt>
      <trkpt lat="44.40242" lon="3.44035">
        <ele>1030</ele>
        <time>2017-02-27T20:42:59Z</time>
      </trkpt>
      <trkpt lat="44.40197" lon="3.44067">
        <ele>1031</ele>
        <time>2017-02-27T20:44:59Z</time>
      </trkpt>
      <trkpt lat="44.40186" lon="3.44071">
        <ele>1031</ele>
        <time>2017-02-27T20:46:59Z</time>
      </trkpt>
      <trkpt lat="44.40178" lon="3.4407">
        <ele>1030</ele>
        <time>2017-02-27T20:48:59Z</time>
      </trkpt>
      <trkpt lat="44.40157" lon="3.44062">
        <ele>1028</ele>
        <time>2017-02-27T20:50:59Z</time>
      </trkpt>
      <trkpt lat="44.40138" lon="3.44057">
        <ele>1027</ele>
        <time>2017-02-27T20:52:59Z</time>
      </trkpt>
      <trkpt lat="44.40127" lon="3.44057">
        <ele>1027</ele>
        <time>2017-02-27T20:54:59Z</time>
      </trkpt>
      <trkpt lat="44.40109" lon="3.44062">
        <ele>1027</ele>
        <time>2017-02-27T20:56:59Z</time>
      </trkpt>
      <trkpt lat="44.40091" lon="3.44069">
        <ele>1028</ele>
        <time>2017-02-27T20:58:59Z</time>
      </trkpt>
      <trkpt lat="44.40074" lon="3.44072">
        <ele>1027</ele>
        <time>2017-02-27T21:00:59Z</time>
      </trkpt>
      <trkpt lat="44.40056" lon="3.44073">
        <ele>1026</ele>
        <time>2017-02-27T21:02:59Z</time>
      </trkpt>
      <trkpt lat="44.40034" lon="3.4408">
        <ele>1026</ele>
        <time>2017-02-27T21:04:59Z</time>
      </trkpt>
      <trkpt lat="44.40013" lon="3.44087">
        <ele>1025</ele>
        <time>2017-02-27T21:06:59Z</time>
      </trkpt>
      <trkpt lat="44.39986" lon="3.44094">
        <ele>1023</ele>
        <time>2017-02-27T21:08:59Z</time>
      </trkpt>
      <trkpt lat="44.39959" lon="3.44103">
        <ele>1021</ele>
        <time>2017-02-27T21:10:59Z</time>
      </trkpt>
      <trkpt lat="44.3995" lon="3.44104">
        <ele>1020</ele>
        <time>2017-02-27T21:12:59Z</time>
      </trkpt>
      <trkpt lat="44.39937" lon="3.44098">
        <ele>1018</ele>
        <time>2017-02-27T21:14:59Z</time>
      </trkpt>
      <trkpt lat="44.39912" lon="3.44094">
        <ele>1015</ele>
        <time>2017-02-27T21:16:59Z</time>
      </trkpt>
      <trkpt lat="44.39879" lon="3.44094">
        <ele>1012</ele>
        <time>2017-02-27T21:18:59Z</time>
      </trkpt>
      <trkpt lat="44.39857" lon="3.44096">
        <ele>1010</ele>
        <time>2017-02-27T21:20:59Z</time>
      </trkpt>
      <trkpt lat="44.39807" lon="3.44111">
        <ele>1008</ele>
        <time>2017-02-27T21:22:59Z</time>
      </trkpt>
      <trkpt lat="44.39796" lon="3.44111">
        <ele>1007</ele>
        <time>2017-02-27T21:24:59Z</time>
      </trkpt>
      <trkpt lat="44.39789" lon="3.44112">
        <ele>1007</ele>
        <time>2017-02-27T21:26:59Z</time>
      </trkpt>
      <trkpt lat="44.39763" lon="3.44105">
        <ele>1006</ele>
        <time>2017-02-27T21:28:59Z</time>
      </trkpt>
      <trkpt lat="44.39728" lon="3.44095">
        <ele>1006</ele>
        <time>2017-02-27T21:30:59Z</time>
      </trkpt>
      <trkpt lat="44.39684" lon="3.44076">
        <ele>1007</ele>
        <time>2017-02-27T21:32:59Z</time>
      </trkpt>
      <trkpt lat="44.39669" lon="3.44068">
        <ele>1008</ele>
        <time>2017-02-27T21:34:59Z</time>
      </trkpt>
      <trkpt lat="44.39653" lon="3.44053">
        <ele>1008</ele>
        <time>2017-02-27T21:36:59Z</time>
      </trkpt>
      <trkpt lat="44.39636" lon="3.44037">
        <ele>1008</ele>
        <time>2017-02-27T21:38:59Z</time>
      </trkpt>
      <trkpt lat="44.39617" lon="3.44026">
        <ele>1009</ele>
        <time>2017-02-27T21:40:59Z</time>
      </trkpt>
      <trkpt lat="44.396" lon="3.44021">
        <ele>1009</ele>
        <time>2017-02-27T21:42:59Z</time>
      </trkpt>
      <trkpt lat="44.39566" lon="3.44015">
        <ele>1011</ele>
        <time>2017-02-27T21:44:59Z</time>
      </trkpt>
      <trkpt lat="44.39524" lon="3.44003">
        <ele>1013</ele>
        <time>2017-02-27T21:46:59Z</time>
      </trkpt>
      <trkpt lat="44.39504" lon="3.43995">
        <ele>1014</ele>
        <time>2017-02-27T21:48:59Z</time>
      </trkpt>
      <trkpt lat="44.39464" lon="3.43988">
        <ele>1019</ele>
        <time>2017-02-27T21:50:59Z</time>
      </trkpt>
      <trkpt lat="44.39452" lon="3.43984">
        <ele>1021</ele>
        <time>2017-02-27T21:52:59Z</time>
      </trkpt>
      <trkpt lat="44.3944" lon="3.43986">
        <ele>1022</ele>
        <time>2017-02-27T21:54:59Z</time>
      </trkpt>
      <trkpt lat="44.39376" lon="3.43983">
        <ele>1025</ele>
        <time>2017-02-27T21:56:59Z</time>
      </trkpt>
      <trkpt lat="44.39359" lon="3.43978">
        <ele>1026</ele>
        <time>2017-02-27T21:58:59Z</time>
      </trkpt>
      <trkpt lat="44.39332" lon="3.43969">
        <ele>1028</ele>
        <time>2017-02-27T22:00:59Z</time>
      </trkpt>
      <trkpt lat="44.39306" lon="3.43965">
        <ele>1029</ele>
        <time>2017-02-27T22:02:59Z</time>
      </trkpt>
      <trkpt lat="44.39284" lon="3.43966">
        <ele>1030</ele>
        <time>2017-02-27T22:04:59Z</time>
      </trkpt>
      <trkpt lat="44.39255" lon="3.43972">
        <ele>1030</ele>
        <time>2017-02-27T22:06:59Z</time>
      </trkpt>
      <trkpt lat="44.39214" lon="3.43977">
        <ele>1031</ele>
        <time>2017-02-27T22:08:59Z</time>
      </trkpt>
      <trkpt lat="44.39195" lon="3.43974">
        <ele>1032</ele>
        <time>2017-02-27T22:10:59Z</time>
      </trkpt>
      <trkpt lat="44.39176" lon="3.43968">
        <ele>1033</ele>
        <time>2017-02-27T22:12:59Z</time>
      </trkpt>
      <trkpt lat="44.39156" lon="3.43957">
        <ele>1035</ele>
        <time>2017-02-27T22:14:59Z</time>
      </trkpt>
      <trkpt lat="44.39138" lon="3.43952">
        <ele>1036</ele>
        <time>2017-02-27T22:16:59Z</time>
      </trkpt>
      <trkpt lat="44.39127" lon="3.43953">
        <ele>1036</ele>
        <time>2017-02-27T22:18:59Z</time>
      </trkpt>
      <trkpt lat="44.39124" lon="3.43955">
        <ele>1036</ele>
        <time>2017-02-27T22:20:59Z</time>
      </trkpt>
      <trkpt lat="44.39106" lon="3.43954">
        <ele>1037</ele>
        <time>2017-02-27T22:22:59Z</time>
      </trkpt>
      <trkpt lat="44.39084" lon="3.43951">
        <ele>1038</ele>
        <time>2017-02-27T22:24:59Z</time>
      </trkpt>
      <trkpt lat="44.39059" lon="3.43945">
        <ele>1041</ele>
        <time>2017-02-27T22:26:59Z</time>
      </trkpt>
      <trkpt lat="44.39037" lon="3.43936">
        <ele>1044</ele>
        <time>2017-02-27T22:28:59Z</time>
      </trkpt>
      <trkpt lat="44.39022" lon="3.43927">
        <ele>1046</ele>
        <time>2017-02-27T22:30:59Z</time>
      </trkpt>
      <trkpt lat="44.39011" lon="3.43913">
        <ele>1047</ele>
        <time>2017-02-27T22:32:59Z</time>
      </trkpt>
      <trkpt lat="44.38998" lon="3.43881">
        <ele>1047</ele>
        <time>2017-02-27T22:34:59Z</time>
      </trkpt>
      <trkpt lat="44.38993" lon="3.43863">
        <ele>1047</ele>
        <time>2017-02-27T22:36:59Z</time>
      </trkpt>
      <trkpt lat="44.38981" lon="3.43777">
        <ele>1047</ele>
        <time>2017-02-27T22:38:59Z</time>
      </trkpt>
      <trkpt lat="44.38979" lon="3.43767">
        <ele>1048</ele>
        <time>2017-02-27T22:40:59Z</time>
      </trkpt>
      <trkpt lat="44.38974" lon="3.43763">
        <ele>1048</ele>
        <time>2017-02-27T22:42:59Z</time>
      </trkpt>
      <trkpt lat="44.38956" lon="3.43755">
        <ele>1049</ele>
        <time>2017-02-27T22:44:59Z</time>
      </trkpt>
      <trkpt lat="44.38934" lon="3.43742">
        <ele>1051</ele>
        <time>2017-02-27T22:46:59Z</time>
      </trkpt>
      <trkpt lat="44.38911" lon="3.43727">
        <ele>1051</ele>
        <time>2017-02-27T22:48:59Z</time>
      </trkpt>
      <trkpt lat="44.38892" lon="3.43711">
        <ele>1051</ele>
        <time>2017-02-27T22:50:59Z</time>
      </trkpt>
      <trkpt lat="44.38882" lon="3.437">
        <ele>1050</ele>
        <time>2017-02-27T22:52:59Z</time>
      </trkpt>
      <trkpt lat="44.38866" lon="3.43675">
        <ele>1049</ele>
        <time>2017-02-27T22:54:59Z</time>
      </trkpt>
      <trkpt lat="44.38855" lon="3.43667">
        <ele>1048</ele>
        <time>2017-02-27T22:56:59Z</time>
      </trkpt>
      <trkpt lat="44.38826" lon="3.43651">
        <ele>1046</ele>
        <time>2017-02-27T22:58:59Z</time>
      </trkpt>
      <trkpt lat="44.38812" lon="3.43649">
        <ele>1044</ele>
        <time>2017-02-27T23:00:59Z</time>
      </trkpt>
      <trkpt lat="44.38785" lon="3.43656">
        <ele>1041</ele>
        <time>2017-02-27T23:02:59Z</time>
      </trkpt>
      <trkpt lat="44.38782" lon="3.43658">
        <ele>1040</ele>
        <time>2017-02-27T23:04:59Z</time>
      </trkpt>
      <trkpt lat="44.38776" lon="3.43657">
        <ele>1040</ele>
        <time>2017-02-27T23:06:59Z</time>
      </trkpt>
      <trkpt lat="44.38771" lon="3.43657">
        <ele>1039</ele>
        <time>2017-02-27T23:08:59Z</time>
      </trkpt>
      <trkpt lat="44.38763" lon="3.43659">
        <ele>1038</ele>
        <time>2017-02-27T23:10:59Z</time>
      </trkpt>
      <trkpt lat="44.38735" lon="3.43668">
        <ele>1035</ele>
        <time>2017-02-27T23:12:59Z</time>
      </trkpt>
      <trkpt lat="44.38727" lon="3.43673">
        <ele>1034</ele>
        <time>2017-02-27T23:14:59Z</time>
      </trkpt>
      <trkpt lat="44.38717" lon="3.43678">
        <ele>1033</ele>
        <time>2017-02-27T23:16:59Z</time>
      </trkpt>
      <trkpt lat="44.3871" lon="3.43681">
        <ele>1032</ele>
        <time>2017-02-27T23:18:59Z</time>
      </trkpt>
      <trkpt lat="44.38694" lon="3.43685">
        <ele>1030</ele>
        <time>2017-02-27T23:20:59Z</time>
      </trkpt>
      <trkpt lat="44.38683" lon="3.43692">
        <ele>1029</ele>
        <time>2017-02-27T23:22:59Z</time>
      </trkpt>
      <trkpt lat="44.38667" lon="3.437">
        <ele>1027</ele>
        <time>2017-02-27T23:24:59Z</time>
      </trkpt>
      <trkpt lat="44.38653" lon="3.43705">
        <ele>1026</ele>
        <time>2017-02-27T23:26:59Z</time>
      </trkpt>
      <trkpt lat="44.38648" lon="3.43708">
        <ele>1025</ele>
        <time>2017-02-27T23:28:59Z</time>
      </trkpt>
      <trkpt lat="44.38637" lon="3.43717">
        <ele>1024</ele>
        <time>2017-02-27T23:30:59Z</time>
      </trkpt>
      <trkpt lat="44.38633" lon="3.4372">
        <ele>1023</ele>
        <time>2017-02-27T23:32:59Z</time>
      </trkpt>
      <trkpt lat="44.3863" lon="3.43721">
        <ele>1023</ele>
        <time>2017-02-27T23:34:59Z</time>
      </trkpt>
      <trkpt lat="44.38615" lon="3.43719">
        <ele>1020</ele>
        <time>2017-02-27T23:36:59Z</time>
      </trkpt>
      <trkpt lat="44.38608" lon="3.43717">
        <ele>1019</ele>
        <time>2017-02-27T23:38:59Z</time>
      </trkpt>
      <trkpt lat="44.38604" lon="3.43717">
        <ele>1018</ele>
        <time>2017-02-27T23:40:59Z</time>
      </trkpt>
      <trkpt lat="44.386" lon="3.43717">
        <ele>1018</ele>
        <time>2017-02-27T23:42:59Z</time>
      </trkpt>
      <trkpt lat="44.38597" lon="3.43719">
        <ele>1017</ele>
        <time>2017-02-27T23:44:59Z</time>
      </trkpt>
      <trkpt lat="44.38589" lon="3.43723">
        <ele>1016</ele>
        <time>2017-02-27T23:46:59Z</time>
      </trkpt>
      <trkpt lat="44.38585" lon="3.43725">
        <ele>1016</ele>
        <time>2017-02-27T23:48:59Z</time>
      </trkpt>
      <trkpt lat="44.38567" lon="3.43723">
        <ele>1013</ele>
        <time>2017-02-27T23:50:59Z</time>
      </trkpt>
      <trkpt lat="44.38552" lon="3.43721">
        <ele>1010</ele>
        <time>2017-02-27T23:52:59Z</time>
      </trkpt>
      <trkpt lat="44.38523" lon="3.43712">
        <ele>1005</ele>
        <time>2017-02-27T23:54:59Z</time>
      </trkpt>
      <trkpt lat="44.38509" lon="3.43707">
        <ele>1002</ele>
        <time>2017-02-27T23:56:59Z</time>
      </trkpt>
      <trkpt lat="44.38494" lon="3.43701">
        <ele>1000</ele>
        <time>2017-02-27T23:58:59Z</time>
      </trkpt>
      <trkpt lat="44.38468" lon="3.43689">
        <ele>996</ele>
        <time>2017-02-28T00:00:59Z</time>
      </trkpt>
      <trkpt lat="44.38451" lon="3.43679">
        <ele>993</ele>
        <time>2017-02-28T00:02:59Z</time>
      </trkpt>
      <trkpt lat="44.38439" lon="3.43671">
        <ele>991</ele>
        <time>2017-02-28T00:04:59Z</time>
      </trkpt>
      <trkpt lat="44.38433" lon="3.43664">
        <ele>990</ele>
        <time>2017-02-28T00:06:59Z</time>
      </trkpt>
      <trkpt lat="44.38427" lon="3.4366">
        <ele>989</ele>
        <time>2017-02-28T00:08:59Z</time>
      </trkpt>
      <trkpt lat="44.38419" lon="3.43656">
        <ele>987</ele>
        <time>2017-02-28T00:10:59Z</time>
      </trkpt>
      <trkpt lat="44.38411" lon="3.43651">
        <ele>986</ele>
        <time>2017-02-28T00:12:59Z</time>
      </trkpt>
      <trkpt lat="44.38405" lon="3.43645">
        <ele>986</ele>
        <time>2017-02-28T00:14:59Z</time>
      </trkpt>
      <trkpt lat="44.38399" lon="3.43639">
        <ele>985</ele>
        <time>2017-02-28T00:16:59Z</time>
      </trkpt>
      <trkpt lat="44.38389" lon="3.43626">
        <ele>984</ele>
        <time>2017-02-28T00:18:59Z</time>
      </trkpt>
      <trkpt lat="44.38391" lon="3.4362">
        <ele>985</ele>
        <time>2017-02-28T00:20:59Z</time>
      </trkpt>
      <trkpt lat="44.38391" lon="3.43613">
        <ele>985</ele>
        <time>2017-02-28T00:22:59Z</time>
      </trkpt>
      <trkpt lat="44.3839" lon="3.43609">
        <ele>985</ele>
        <time>2017-02-28T00:24:59Z</time>
      </trkpt>
      <trkpt lat="44.38381" lon="3.43601">
        <ele>985</ele>
        <time>2017-02-28T00:26:59Z</time>
      </trkpt>
      <trkpt lat="44.38373" lon="3.43602">
        <ele>985</ele>
        <time>2017-02-28T00:28:59Z</time>
      </trkpt>
      <trkpt lat="44.38326" lon="3.43617">
        <ele>981</ele>
        <time>2017-02-28T00:30:59Z</time>
      </trkpt>
      <trkpt lat="44.3829" lon="3.43627">
        <ele>979</ele>
        <time>2017-02-28T00:32:59Z</time>
      </trkpt>
      <trkpt lat="44.38253" lon="3.43633">
        <ele>978</ele>
        <time>2017-02-28T00:34:59Z</time>
      </trkpt>
      <trkpt lat="44.38221" lon="3.43634">
        <ele>977</ele>
        <time>2017-02-28T00:36:59Z</time>
      </trkpt>
      <trkpt lat="44.38183" lon="3.43632">
        <ele>976</ele>
        <time>2017-02-28T00:38:59Z</time>
      </trkpt>
      <trkpt lat="44.38138" lon="3.43629">
        <ele>975</ele>
        <time>2017-02-28T00:40:59Z</time>
      </trkpt>
      <trkpt lat="44.38091" lon="3.43623">
        <ele>973</ele>
        <time>2017-02-28T00:42:59Z</time>
      </trkpt>
      <trkpt lat="44.38073" lon="3.43619">
        <ele>971</ele>
        <time>2017-02-28T00:44:59Z</time>
      </trkpt>
      <trkpt lat="44.38062" lon="3.43612">
        <ele>971</ele>
        <time>2017-02-28T00:46:59Z</time>
      </trkpt>
      <trkpt lat="44.38043" lon="3.43596">
        <ele>970</ele>
        <time>2017-02-28T00:48:59Z</time>
      </trkpt>
      <trkpt lat="44.38025" lon="3.43575">
        <ele>970</ele>
        <time>2017-02-28T00:50:59Z</time>
      </trkpt>
      <trkpt lat="44.37999" lon="3.43537">
        <ele>970</ele>
        <time>2017-02-28T00:52:59Z</time>
      </trkpt>
      <trkpt lat="44.37982" lon="3.43517">
        <ele>969</ele>
        <time>2017-02-28T00:54:59Z</time>
      </trkpt>
      <trkpt lat="44.37963" lon="3.43502">
        <ele>967</ele>
        <time>2017-02-28T00:56:59Z</time>
      </trkpt>
      <trkpt lat="44.37944" lon="3.43493">
        <ele>965</ele>
        <time>2017-02-28T00:58:59Z</time>
      </trkpt>
      <trkpt lat="44.37913" lon="3.43474">
        <ele>962</ele>
        <time>2017-02-28T01:00:59Z</time>
      </trkpt>
      <trkpt lat="44.37886" lon="3.43455">
        <ele>958</ele>
        <time>2017-02-28T01:02:59Z</time>
      </trkpt>
      <trkpt lat="44.37867" lon="3.43438">
        <ele>955</ele>
        <time>2017-02-28T01:04:59Z</time>
      </trkpt>
      <trkpt lat="44.37852" lon="3.43418">
        <ele>954</ele>
        <time>2017-02-28T01:06:59Z</time>
      </trkpt>
      <trkpt lat="44.37836" lon="3.43387">
        <ele>951</ele>
        <time>2017-02-28T01:08:59Z</time>
      </trkpt>
      <trkpt lat="44.37826" lon="3.4336">
        <ele>949</ele>
        <time>2017-02-28T01:10:59Z</time>
      </trkpt>
      <trkpt lat="44.3782" lon="3.43327">
        <ele>948</ele>
        <time>2017-02-28T01:12:59Z</time>
      </trkpt>
      <trkpt lat="44.37818" lon="3.43297">
        <ele>946</ele>
        <time>2017-02-28T01:14:59Z</time>
      </trkpt>
      <trkpt lat="44.37818" lon="3.43259">
        <ele>945</ele>
        <time>2017-02-28T01:16:59Z</time>
      </trkpt>
      <trkpt lat="44.37817" lon="3.43217">
        <ele>942</ele>
        <time>2017-02-28T01:18:59Z</time>
      </trkpt>
      <trkpt lat="44.3782" lon="3.43176">
        <ele>940</ele>
        <time>2017-02-28T01:20:59Z</time>
      </trkpt>
      <trkpt lat="44.37822" lon="3.43126">
        <ele>937</ele>
        <time>2017-02-28T01:22:59Z</time>
      </trkpt>
      <trkpt lat="44.37824" lon="3.43097">
        <ele>936</ele>
        <time>2017-02-28T01:24:59Z</time>
      </trkpt>
      <trkpt lat="44.37828" lon="3.4308">
        <ele>935</ele>
        <time>2017-02-28T01:26:59Z</time>
      </trkpt>
      <trkpt lat="44.37839" lon="3.43048">
        <ele>933</ele>
        <time>2017-02-28T01:28:59Z</time>
      </trkpt>
      <trkpt lat="44.37853" lon="3.43021">
        <ele>930</ele>
        <time>2017-02-28T01:30:59Z</time>
      </trkpt>
      <trkpt lat="44.3787" lon="3.42996">
        <ele>928</ele>
        <time>2017-02-28T01:32:59Z</time>
      </trkpt>
      <trkpt lat="44.3789" lon="3.42972">
        <ele>926</ele>
        <time>2017-02-28T01:34:59Z</time>
      </trkpt>
      <trkpt lat="44.37907" lon="3.42949">
        <ele>923</ele>
        <time>2017-02-28T01:36:59Z</time>
      </trkpt>
      <trkpt lat="44.37925" lon="3.42921">
        <ele>920</ele>
        <time>2017-02-28T01:38:59Z</time>
      </trkpt>
      <trkpt lat="44.37943" lon="3.42893">
        <ele>920</ele>
        <time>2017-02-28T01:40:59Z</time>
      </trkpt>
      <trkpt lat="44.37947" lon="3.42874">
        <ele>919</ele>
        <time>2017-02-28T01:42:59Z</time>
      </trkpt>
      <trkpt lat="44.37943" lon="3.4288">
        <ele>919</ele>
        <time>2017-02-28T01:44:59Z</time>
      </trkpt>
      <trkpt lat="44.37934" lon="3.42886">
        <ele>918</ele>
        <time>2017-02-28T01:46:59Z</time>
      </trkpt>
      <trkpt lat="44.37906" lon="3.42886">
        <ele>916</ele>
        <time>2017-02-28T01:48:59Z</time>
      </trkpt>
      <trkpt lat="44.37877" lon="3.42895">
        <ele>917</ele>
        <time>2017-02-28T01:50:59Z</time>
      </trkpt>
      <trkpt lat="44.37852" lon="3.42903">
        <ele>917</ele>
        <time>2017-02-28T01:52:59Z</time>
      </trkpt>
      <trkpt lat="44.37833" lon="3.42905">
        <ele>917</ele>
        <time>2017-02-28T01:54:59Z</time>
      </trkpt>
      <trkpt lat="44.37818" lon="3.42903">
        <ele>918</ele>
        <time>2017-02-28T01:56:59Z</time>
      </trkpt>
      <trkpt lat="44.37812" lon="3.42898">
        <ele>918</ele>
        <time>2017-02-28T01:58:59Z</time>
      </trkpt>
      <trkpt lat="44.37809" lon="3.42893">
        <ele>918</ele>
        <time>2017-02-28T02:00:59Z</time>
      </trkpt>
      <trkpt lat="44.3781" lon="3.42886">
        <ele>918</ele>
        <time>2017-02-28T02:02:59Z</time>
      </trkpt>
      <trkpt lat="44.37814" lon="3.42878">
        <ele>917</ele>
        <time>2017-02-28T02:04:59Z</time>
      </trkpt>
      <trkpt lat="44.37824" lon="3.42856">
        <ele>915</ele>
        <time>2017-02-28T02:06:59Z</time>
      </trkpt>
      <trkpt lat="44.37826" lon="3.42849">
        <ele>915</ele>
        <time>2017-02-28T02:08:59Z</time>
      </trkpt>
      <trkpt lat="44.37831" lon="3.42826">
        <ele>914</ele>
        <time>2017-02-28T02:10:59Z</time>
      </trkpt>
      <trkpt lat="44.37836" lon="3.42815">
        <ele>914</ele>
        <time>2017-02-28T02:12:59Z</time>
      </trkpt>
      <trkpt lat="44.37837" lon="3.42815">
        <ele>914</ele>
        <time>2017-02-28T02:14:59Z</time>
      </trkpt>
      <trkpt lat="44.37853" lon="3.42902">
        <ele>917</ele>
        <time>2017-02-28T02:16:59Z</time>
      </trkpt>
      <trkpt lat="44.37833" lon="3.42905">
        <ele>917</ele>
        <time>2017-02-28T02:18:59Z</time>
      </trkpt>
      <trkpt lat="44.37818" lon="3.42903">
        <ele>918</ele>
        <time>2017-02-28T02:20:59Z</time>
      </trkpt>
      <trkpt lat="44.37812" lon="3.42898">
        <ele>918</ele>
        <time>2017-02-28T02:22:59Z</time>
      </trkpt>
      <trkpt lat="44.3781" lon="3.42893">
        <ele>918</ele>
        <time>2017-02-28T02:24:59Z</time>
      </trkpt>
      <trkpt lat="44.3781" lon="3.42886">
        <ele>918</ele>
        <time>2017-02-28T02:26:59Z</time>
      </trkpt>
      <trkpt lat="44.37814" lon="3.42877">
        <ele>917</ele>
        <time>2017-02-28T02:28:59Z</time>
      </trkpt>
      <trkpt lat="44.37824" lon="3.42856">
        <ele>915</ele>
        <time>2017-02-28T02:30:59Z</time>
      </trkpt>
      <trkpt lat="44.37827" lon="3.42848">
        <ele>915</ele>
        <time>2017-02-28T02:32:59Z</time>
      </trkpt>
      <trkpt lat="44.37832" lon="3.42826">
        <ele>914</ele>
        <time>2017-02-28T02:34:59Z</time>
      </trkpt>
      <trkpt lat="44.37837" lon="3.42815">
        <ele>914</ele>
        <time>2017-02-28T02:36:59Z</time>
      </trkpt>
      <trkpt lat="44.37848" lon="3.42787">
        <ele>914</ele>
        <time>2017-02-28T02:38:59Z</time>
      </trkpt>
      <trkpt lat="44.37861" lon="3.42758">
        <ele>913</ele>
        <time>2017-02-28T02:40:59Z</time>
      </trkpt>
      <trkpt lat="44.37882" lon="3.42705">
        <ele>908</ele>
        <time>2017-02-28T02:42:59Z</time>
      </trkpt>
      <trkpt lat="44.37885" lon="3.42686">
        <ele>906</ele>
        <time>2017-02-28T02:44:59Z</time>
      </trkpt>
      <trkpt lat="44.37883" lon="3.42663">
        <ele>905</ele>
        <time>2017-02-28T02:46:59Z</time>
      </trkpt>
      <trkpt lat="44.37884" lon="3.4263">
        <ele>901</ele>
        <time>2017-02-28T02:48:59Z</time>
      </trkpt>
      <trkpt lat="44.37883" lon="3.42593">
        <ele>897</ele>
        <time>2017-02-28T02:50:59Z</time>
      </trkpt>
      <trkpt lat="44.37877" lon="3.42563">
        <ele>893</ele>
        <time>2017-02-28T02:52:59Z</time>
      </trkpt>
      <trkpt lat="44.37863" lon="3.42514">
        <ele>888</ele>
        <time>2017-02-28T02:54:59Z</time>
      </trkpt>
      <trkpt lat="44.37849" lon="3.42472">
        <ele>885</ele>
        <time>2017-02-28T02:56:59Z</time>
      </trkpt>
      <trkpt lat="44.37827" lon="3.42418">
        <ele>881</ele>
        <time>2017-02-28T02:58:59Z</time>
      </trkpt>
      <trkpt lat="44.37811" lon="3.42378">
        <ele>877</ele>
        <time>2017-02-28T03:00:59Z</time>
      </trkpt>
      <trkpt lat="44.37797" lon="3.42355">
        <ele>875</ele>
        <time>2017-02-28T03:02:59Z</time>
      </trkpt>
      <trkpt lat="44.3778" lon="3.42333">
        <ele>874</ele>
        <time>2017-02-28T03:04:59Z</time>
      </trkpt>
      <trkpt lat="44.37746" lon="3.42298">
        <ele>873</ele>
        <time>2017-02-28T03:06:59Z</time>
      </trkpt>
      <trkpt lat="44.37711" lon="3.42268">
        <ele>871</ele>
        <time>2017-02-28T03:08:59Z</time>
      </trkpt>
      <trkpt lat="44.37684" lon="3.42247">
        <ele>869</ele>
        <time>2017-02-28T03:10:59Z</time>
      </trkpt>
      <trkpt lat="44.37668" lon="3.42235">
        <ele>867</ele>
        <time>2017-02-28T03:12:59Z</time>
      </trkpt>
      <trkpt lat="44.37638" lon="3.42205">
        <ele>863</ele>
        <time>2017-02-28T03:14:59Z</time>
      </trkpt>
      <trkpt lat="44.37622" lon="3.42191">
        <ele>862</ele>
        <time>2017-02-28T03:16:59Z</time>
      </trkpt>
      <trkpt lat="44.37608" lon="3.42186">
        <ele>863</ele>
        <time>2017-02-28T03:18:59Z</time>
      </trkpt>
      <trkpt lat="44.37565" lon="3.42184">
        <ele>868</ele>
        <time>2017-02-28T03:20:59Z</time>
      </trkpt>
      <trkpt lat="44.37565" lon="3.4219">
        <ele>870</ele>
        <time>2017-02-28T03:22:59Z</time>
      </trkpt>
      <trkpt lat="44.37546" lon="3.41993">
        <ele>795</ele>
        <time>2017-02-28T03:24:59Z</time>
      </trkpt>
      <trkpt lat="44.37105" lon="3.42061">
        <ele>830</ele>
        <time>2017-02-28T03:26:59Z</time>
      </trkpt>
      <trkpt lat="44.37049" lon="3.42688">
        <ele>789</ele>
        <time>2017-02-28T03:28:59Z</time>
      </trkpt>
      <trkpt lat="44.37047" lon="3.42692">
        <ele>787</ele>
        <time>2017-02-28T03:30:59Z</time>
      </trkpt>
      <trkpt lat="44.37031" lon="3.42683">
        <ele>780</ele>
        <time>2017-02-28T03:32:59Z</time>
      </trkpt>
      <trkpt lat="44.37014" lon="3.42674">
        <ele>772</ele>
        <time>2017-02-28T03:34:59Z</time>
      </trkpt>
      <trkpt lat="44.36999" lon="3.42664">
        <ele>766</ele>
        <time>2017-02-28T03:36:59Z</time>
      </trkpt>
      <trkpt lat="44.3698" lon="3.42653">
        <ele>763</ele>
        <time>2017-02-28T03:38:59Z</time>
      </trkpt>
      <trkpt lat="44.36971" lon="3.42647">
        <ele>762</ele>
        <time>2017-02-28T03:40:59Z</time>
      </trkpt>
      <trkpt lat="44.3697" lon="3.42645">
        <ele>763</ele>
        <time>2017-02-28T03:42:59Z</time>
      </trkpt>
      <trkpt lat="44.36968" lon="3.42627">
        <ele>770</ele>
        <time>2017-02-28T03:44:59Z</time>
      </trkpt>
      <trkpt lat="44.36965" lon="3.42612">
        <ele>776</ele>
        <time>2017-02-28T03:46:59Z</time>
      </trkpt>
      <trkpt lat="44.36962" lon="3.42607">
        <ele>777</ele>
        <time>2017-02-28T03:48:59Z</time>
      </trkpt>
      <trkpt lat="44.36943" lon="3.42592">
        <ele>776</ele>
        <time>2017-02-28T03:50:59Z</time>
      </trkpt>
      <trkpt lat="44.36937" lon="3.42585">
        <ele>777</ele>
        <time>2017-02-28T03:52:59Z</time>
      </trkpt>
      <trkpt lat="44.36923" lon="3.42572">
        <ele>773</ele>
        <time>2017-02-28T03:54:59Z</time>
      </trkpt>
      <trkpt lat="44.36909" lon="3.4256">
        <ele>765</ele>
        <time>2017-02-28T03:56:59Z</time>
      </trkpt>
      <trkpt lat="44.36904" lon="3.4255">
        <ele>762</ele>
        <time>2017-02-28T03:58:59Z</time>
      </trkpt>
      <trkpt lat="44.36902" lon="3.4253">
        <ele>761</ele>
        <time>2017-02-28T04:00:59Z</time>
      </trkpt>
      <trkpt lat="44.36902" lon="3.4251">
        <ele>761</ele>
        <time>2017-02-28T04:02:59Z</time>
      </trkpt>
      <trkpt lat="44.36904" lon="3.42494">
        <ele>760</ele>
        <time>2017-02-28T04:04:59Z</time>
      </trkpt>
      <trkpt lat="44.36905" lon="3.42489">
        <ele>759</ele>
        <time>2017-02-28T04:06:59Z</time>
      </trkpt>
      <trkpt lat="44.36917" lon="3.42478">
        <ele>764</ele>
        <time>2017-02-28T04:08:59Z</time>
      </trkpt>
      <trkpt lat="44.36919" lon="3.42462">
        <ele>759</ele>
        <time>2017-02-28T04:10:59Z</time>
      </trkpt>
      <trkpt lat="44.36918" lon="3.42454">
        <ele>756</ele>
        <time>2017-02-28T04:12:59Z</time>
      </trkpt>
      <trkpt lat="44.36914" lon="3.42439">
        <ele>748</ele>
        <time>2017-02-28T04:14:59Z</time>
      </trkpt>
      <trkpt lat="44.36914" lon="3.42436">
        <ele>747</ele>
        <time>2017-02-28T04:16:59Z</time>
      </trkpt>
      <trkpt lat="44.36922" lon="3.42416">
        <ele>745</ele>
        <time>2017-02-28T04:18:59Z</time>
      </trkpt>
      <trkpt lat="44.36928" lon="3.42403">
        <ele>745</ele>
        <time>2017-02-28T04:20:59Z</time>
      </trkpt>
      <trkpt lat="44.36931" lon="3.42398">
        <ele>746</ele>
        <time>2017-02-28T04:22:59Z</time>
      </trkpt>
      <trkpt lat="44.36939" lon="3.42395">
        <ele>750</ele>
        <time>2017-02-28T04:24:59Z</time>
      </trkpt>
      <trkpt lat="44.36955" lon="3.42388">
        <ele>759</ele>
        <time>2017-02-28T04:26:59Z</time>
      </trkpt>
      <trkpt lat="44.36955" lon="3.42386">
        <ele>758</ele>
        <time>2017-02-28T04:28:59Z</time>
      </trkpt>
      <trkpt lat="44.36954" lon="3.4238">
        <ele>756</ele>
        <time>2017-02-28T04:30:59Z</time>
      </trkpt>
      <trkpt lat="44.36948" lon="3.42358">
        <ele>746</ele>
        <time>2017-02-28T04:32:59Z</time>
      </trkpt>
      <trkpt lat="44.36946" lon="3.42356">
        <ele>744</ele>
        <time>2017-02-28T04:34:59Z</time>
      </trkpt>
      <trkpt lat="44.36941" lon="3.42354">
        <ele>740</ele>
        <time>2017-02-28T04:36:59Z</time>
      </trkpt>
      <trkpt lat="44.3694" lon="3.42352">
        <ele>739</ele>
        <time>2017-02-28T04:38:59Z</time>
      </trkpt>
      <trkpt lat="44.36939" lon="3.4234">
        <ele>735</ele>
        <time>2017-02-28T04:40:59Z</time>
      </trkpt>
      <trkpt lat="44.36939" lon="3.42315">
        <ele>732</ele>
        <time>2017-02-28T04:42:59Z</time>
      </trkpt>
      <trkpt lat="44.36937" lon="3.42292">
        <ele>730</ele>
        <time>2017-02-28T04:44:59Z</time>
      </trkpt>
      <trkpt lat="44.3693" lon="3.42269">
        <ele>724</ele>
        <time>2017-02-28T04:46:59Z</time>
      </trkpt>
      <trkpt lat="44.36927" lon="3.42256">
        <ele>722</ele>
        <time>2017-02-28T04:48:59Z</time>
      </trkpt>
      <trkpt lat="44.36917" lon="3.42243">
        <ele>715</ele>
        <time>2017-02-28T04:50:59Z</time>
      </trkpt>
      <trkpt lat="44.36903" lon="3.42224">
        <ele>707</ele>
        <time>2017-02-28T04:52:59Z</time>
      </trkpt>
      <trkpt lat="44.36899" lon="3.42216">
        <ele>705</ele>
        <time>2017-02-28T04:54:59Z</time>
      </trkpt>
      <trkpt lat="44.36898" lon="3.42199">
        <ele>705</ele>
        <time>2017-02-28T04:56:59Z</time>
      </trkpt>
      <trkpt lat="44.36901" lon="3.42186">
        <ele>708</ele>
        <time>2017-02-28T04:58:59Z</time>
      </trkpt>
      <trkpt lat="44.36903" lon="3.42169">
        <ele>710</ele>
        <time>2017-02-28T05:00:59Z</time>
      </trkpt>
      <trkpt lat="44.36901" lon="3.42156">
        <ele>708</ele>
        <time>2017-02-28T05:02:59Z</time>
      </trkpt>
      <trkpt lat="44.3689" lon="3.42123">
        <ele>699</ele>
        <time>2017-02-28T05:04:59Z</time>
      </trkpt>
      <trkpt lat="44.36887" lon="3.42073">
        <ele>696</ele>
        <time>2017-02-28T05:06:59Z</time>
      </trkpt>
      <trkpt lat="44.36879" lon="3.42052">
        <ele>692</ele>
        <time>2017-02-28T05:08:59Z</time>
      </trkpt>
      <trkpt lat="44.36868" lon="3.4203">
        <ele>687</ele>
        <time>2017-02-28T05:10:59Z</time>
      </trkpt>
      <trkpt lat="44.36863" lon="3.42019">
        <ele>684</ele>
        <time>2017-02-28T05:12:59Z</time>
      </trkpt>
      <trkpt lat="44.36862" lon="3.42008">
        <ele>684</ele>
        <time>2017-02-28T05:14:59Z</time>
      </trkpt>
      <trkpt lat="44.36864" lon="3.41992">
        <ele>685</ele>
        <time>2017-02-28T05:16:59Z</time>
      </trkpt>
      <trkpt lat="44.3687" lon="3.41969">
        <ele>687</ele>
        <time>2017-02-28T05:18:59Z</time>
      </trkpt>
      <trkpt lat="44.36875" lon="3.41953">
        <ele>688</ele>
        <time>2017-02-28T05:20:59Z</time>
      </trkpt>
      <trkpt lat="44.36875" lon="3.41907">
        <ele>683</ele>
        <time>2017-02-28T05:22:59Z</time>
      </trkpt>
      <trkpt lat="44.36873" lon="3.41885">
        <ele>679</ele>
        <time>2017-02-28T05:24:59Z</time>
      </trkpt>
      <trkpt lat="44.36871" lon="3.41872">
        <ele>675</ele>
        <time>2017-02-28T05:26:59Z</time>
      </trkpt>
      <trkpt lat="44.36867" lon="3.41853">
        <ele>670</ele>
        <time>2017-02-28T05:28:59Z</time>
      </trkpt>
      <trkpt lat="44.36864" lon="3.41842">
        <ele>666</ele>
        <time>2017-02-28T05:30:59Z</time>
      </trkpt>
      <trkpt lat="44.36862" lon="3.41828">
        <ele>663</ele>
        <time>2017-02-28T05:32:59Z</time>
      </trkpt>
      <trkpt lat="44.36858" lon="3.41809">
        <ele>658</ele>
        <time>2017-02-28T05:34:59Z</time>
      </trkpt>
      <trkpt lat="44.36853" lon="3.41797">
        <ele>653</ele>
        <time>2017-02-28T05:36:59Z</time>
      </trkpt>
      <trkpt lat="44.36847" lon="3.41786">
        <ele>648</ele>
        <time>2017-02-28T05:38:59Z</time>
      </trkpt>
      <trkpt lat="44.36846" lon="3.41785">
        <ele>647</ele>
        <time>2017-02-28T05:40:59Z</time>
      </trkpt>
      <trkpt lat="44.36841" lon="3.41778">
        <ele>643</ele>
        <time>2017-02-28T05:42:59Z</time>
      </trkpt>
      <trkpt lat="44.36839" lon="3.41776">
        <ele>641</ele>
        <time>2017-02-28T05:44:59Z</time>
      </trkpt>
      <trkpt lat="44.36836" lon="3.4177">
        <ele>638</ele>
        <time>2017-02-28T05:46:59Z</time>
      </trkpt>
      <trkpt lat="44.36835" lon="3.41769">
        <ele>637</ele>
        <time>2017-02-28T05:48:59Z</time>
      </trkpt>
      <trkpt lat="44.36835" lon="3.41767">
        <ele>637</ele>
        <time>2017-02-28T05:50:59Z</time>
      </trkpt>
      <trkpt lat="44.36834" lon="3.41767">
        <ele>637</ele>
        <time>2017-02-28T05:52:59Z</time>
      </trkpt>
      <trkpt lat="44.36832" lon="3.41765">
        <ele>635</ele>
        <time>2017-02-28T05:54:59Z</time>
      </trkpt>
      <trkpt lat="44.36832" lon="3.41764">
        <ele>635</ele>
        <time>2017-02-28T05:56:59Z</time>
      </trkpt>
      <trkpt lat="44.36831" lon="3.41762">
        <ele>634</ele>
        <time>2017-02-28T05:58:59Z</time>
      </trkpt>
      <trkpt lat="44.36831" lon="3.41761">
        <ele>634</ele>
        <time>2017-02-28T06:00:59Z</time>
      </trkpt>
      <trkpt lat="44.3683" lon="3.41759">
        <ele>633</ele>
        <time>2017-02-28T06:02:59Z</time>
      </trkpt>
      <trkpt lat="44.3683" lon="3.41749">
        <ele>632</ele>
        <time>2017-02-28T06:04:59Z</time>
      </trkpt>
      <trkpt lat="44.36831" lon="3.41746">
        <ele>633</ele>
        <time>2017-02-28T06:06:59Z</time>
      </trkpt>
      <trkpt lat="44.36831" lon="3.4174">
        <ele>633</ele>
        <time>2017-02-28T06:08:59Z</time>
      </trkpt>
      <trkpt lat="44.36834" lon="3.41734">
        <ele>634</ele>
        <time>2017-02-28T06:10:59Z</time>
      </trkpt>
      <trkpt lat="44.36835" lon="3.41731">
        <ele>635</ele>
        <time>2017-02-28T06:12:59Z</time>
      </trkpt>
      <trkpt lat="44.36837" lon="3.41729">
        <ele>636</ele>
        <time>2017-02-28T06:14:59Z</time>
      </trkpt>
      <trkpt lat="44.36839" lon="3.41725">
        <ele>637</ele>
        <time>2017-02-28T06:16:59Z</time>
      </trkpt>
      <trkpt lat="44.3684" lon="3.41722">
        <ele>638</ele>
        <time>2017-02-28T06:18:59Z</time>
      </trkpt>
      <trkpt lat="44.36842" lon="3.41719">
        <ele>639</ele>
        <time>2017-02-28T06:20:59Z</time>
      </trkpt>
      <trkpt lat="44.36843" lon="3.41714">
        <ele>640</ele>
        <time>2017-02-28T06:22:59Z</time>
      </trkpt>
      <trkpt lat="44.36845" lon="3.41711">
        <ele>641</ele>
        <time>2017-02-28T06:24:59Z</time>
      </trkpt>
      <trkpt lat="44.36845" lon="3.41707">
        <ele>641</ele>
        <time>2017-02-28T06:26:59Z</time>
      </trkpt>
      <trkpt lat="44.36846" lon="3.41703">
        <ele>641</ele>
        <time>2017-02-28T06:28:59Z</time>
      </trkpt>
      <trkpt lat="44.36846" lon="3.41701">
        <ele>641</ele>
        <time>2017-02-28T06:30:59Z</time>
      </trkpt>
      <trkpt lat="44.36845" lon="3.41698">
        <ele>640</ele>
        <time>2017-02-28T06:32:59Z</time>
      </trkpt>
      <trkpt lat="44.36846" lon="3.41694">
        <ele>640</ele>
        <time>2017-02-28T06:34:59Z</time>
      </trkpt>
      <trkpt lat="44.36845" lon="3.41685">
        <ele>639</ele>
        <time>2017-02-28T06:36:59Z</time>
      </trkpt>
      <trkpt lat="44.36845" lon="3.41672">
        <ele>638</ele>
        <time>2017-02-28T06:38:59Z</time>
      </trkpt>
      <trkpt lat="44.36844" lon="3.41668">
        <ele>637</ele>
        <time>2017-02-28T06:40:59Z</time>
      </trkpt>
      <trkpt lat="44.36842" lon="3.41662">
        <ele>635</ele>
        <time>2017-02-28T06:42:59Z</time>
      </trkpt>
      <trkpt lat="44.36842" lon="3.41658">
        <ele>635</ele>
        <time>2017-02-28T06:44:59Z</time>
      </trkpt>
      <trkpt lat="44.3684" lon="3.41656">
        <ele>633</ele>
        <time>2017-02-28T06:46:59Z</time>
      </trkpt>
      <trkpt lat="44.36839" lon="3.41654">
        <ele>632</ele>
        <time>2017-02-28T06:48:59Z</time>
      </trkpt>
      <trkpt lat="44.36838" lon="3.41651">
        <ele>632</ele>
        <time>2017-02-28T06:50:59Z</time>
      </trkpt>
      <trkpt lat="44.36837" lon="3.4165">
        <ele>631</ele>
        <time>2017-02-28T06:52:59Z</time>
      </trkpt>
      <trkpt lat="44.36836" lon="3.41647">
        <ele>630</ele>
        <time>2017-02-28T06:54:59Z</time>
      </trkpt>
      <trkpt lat="44.36827" lon="3.41638">
        <ele>624</ele>
        <time>2017-02-28T06:56:59Z</time>
      </trkpt>
      <trkpt lat="44.36825" lon="3.41638">
        <ele>623</ele>
        <time>2017-02-28T06:58:59Z</time>
      </trkpt>
      <trkpt lat="44.36823" lon="3.41636">
        <ele>622</ele>
        <time>2017-02-28T07:00:59Z</time>
      </trkpt>
      <trkpt lat="44.36822" lon="3.41634">
        <ele>621</ele>
        <time>2017-02-28T07:02:59Z</time>
      </trkpt>
      <trkpt lat="44.36821" lon="3.41631">
        <ele>620</ele>
        <time>2017-02-28T07:04:59Z</time>
      </trkpt>
      <trkpt lat="44.3682" lon="3.4163">
        <ele>620</ele>
        <time>2017-02-28T07:06:59Z</time>
      </trkpt>
      <trkpt lat="44.36817" lon="3.4163">
        <ele>618</ele>
        <time>2017-02-28T07:08:59Z</time>
      </trkpt>
      <trkpt lat="44.36817" lon="3.41633">
        <ele>618</ele>
        <time>2017-02-28T07:10:59Z</time>
      </trkpt>
      <trkpt lat="44.36816" lon="3.41635">
        <ele>617</ele>
        <time>2017-02-28T07:12:59Z</time>
      </trkpt>
      <trkpt lat="44.36815" lon="3.41636">
        <ele>617</ele>
        <time>2017-02-28T07:14:59Z</time>
      </trkpt>
      <trkpt lat="44.36814" lon="3.41636">
        <ele>616</ele>
        <time>2017-02-28T07:16:59Z</time>
      </trkpt>
      <trkpt lat="44.36812" lon="3.41634">
        <ele>615</ele>
        <time>2017-02-28T07:18:59Z</time>
      </trkpt>
      <trkpt lat="44.36811" lon="3.41632">
        <ele>614</ele>
        <time>2017-02-28T07:20:59Z</time>
      </trkpt>
      <trkpt lat="44.36809" lon="3.41631">
        <ele>613</ele>
        <time>2017-02-28T07:22:59Z</time>
      </trkpt>
      <trkpt lat="44.368" lon="3.41628">
        <ele>607</ele>
        <time>2017-02-28T07:24:59Z</time>
      </trkpt>
      <trkpt lat="44.36798" lon="3.41627">
        <ele>606</ele>
        <time>2017-02-28T07:26:59Z</time>
      </trkpt>
      <trkpt lat="44.36797" lon="3.41626">
        <ele>605</ele>
        <time>2017-02-28T07:28:59Z</time>
      </trkpt>
      <trkpt lat="44.36791" lon="3.41622">
        <ele>601</ele>
        <time>2017-02-28T07:30:59Z</time>
      </trkpt>
      <trkpt lat="44.3679" lon="3.41622">
        <ele>601</ele>
        <time>2017-02-28T07:32:59Z</time>
      </trkpt>
      <trkpt lat="44.36788" lon="3.4162">
        <ele>599</ele>
        <time>2017-02-28T07:34:59Z</time>
      </trkpt>
      <trkpt lat="44.36785" lon="3.41612">
        <ele>598</ele>
        <time>2017-02-28T07:36:59Z</time>
      </trkpt>
      <trkpt lat="44.36784" lon="3.41606">
        <ele>597</ele>
        <time>2017-02-28T07:38:59Z</time>
      </trkpt>
      <trkpt lat="44.36783" lon="3.41603">
        <ele>597</ele>
        <time>2017-02-28T07:40:59Z</time>
      </trkpt>
      <trkpt lat="44.36783" lon="3.41596">
        <ele>597</ele>
        <time>2017-02-28T07:42:59Z</time>
      </trkpt>
      <trkpt lat="44.36786" lon="3.4158">
        <ele>598</ele>
        <time>2017-02-28T07:44:59Z</time>
      </trkpt>
      <trkpt lat="44.36786" lon="3.41573">
        <ele>597</ele>
        <time>2017-02-28T07:46:59Z</time>
      </trkpt>
      <trkpt lat="44.36782" lon="3.41558">
        <ele>592</ele>
        <time>2017-02-28T07:48:59Z</time>
      </trkpt>
      <trkpt lat="44.36774" lon="3.41505">
        <ele>580</ele>
        <time>2017-02-28T07:50:59Z</time>
      </trkpt>
      <trkpt lat="44.36771" lon="3.41494">
        <ele>576</ele>
        <time>2017-02-28T07:52:59Z</time>
      </trkpt>
      <trkpt lat="44.36771" lon="3.41493">
        <ele>576</ele>
        <time>2017-02-28T07:54:59Z</time>
      </trkpt>
      <trkpt lat="44.3677" lon="3.41492">
        <ele>575</ele>
        <time>2017-02-28T07:56:59Z</time>
      </trkpt>
      <trkpt lat="44.36768" lon="3.41493">
        <ele>574</ele>
        <time>2017-02-28T07:58:59Z</time>
      </trkpt>
      <trkpt lat="44.36767" lon="3.41492">
        <ele>573</ele>
        <time>2017-02-28T08:00:59Z</time>
      </trkpt>
      <trkpt lat="44.36767" lon="3.41491">
        <ele>573</ele>
        <time>2017-02-28T08:02:59Z</time>
      </trkpt>
      <trkpt lat="44.36763" lon="3.41471">
        <ele>566</ele>
        <time>2017-02-28T08:04:59Z</time>
      </trkpt>
      <trkpt lat="44.36759" lon="3.41461">
        <ele>562</ele>
        <time>2017-02-28T08:06:59Z</time>
      </trkpt>
      <trkpt lat="44.36757" lon="3.41454">
        <ele>559</ele>
        <time>2017-02-28T08:08:59Z</time>
      </trkpt>
      <trkpt lat="44.36756" lon="3.41447">
        <ele>557</ele>
        <time>2017-02-28T08:10:59Z</time>
      </trkpt>
      <trkpt lat="44.36754" lon="3.41436">
        <ele>554</ele>
        <time>2017-02-28T08:12:59Z</time>
      </trkpt>
      <trkpt lat="44.36754" lon="3.41411">
        <ele>547</ele>
        <time>2017-02-28T08:14:59Z</time>
      </trkpt>
      <trkpt lat="44.36753" lon="3.41408">
        <ele>546</ele>
        <time>2017-02-28T08:16:59Z</time>
      </trkpt>
      <trkpt lat="44.36753" lon="3.41405">
        <ele>545</ele>
        <time>2017-02-28T08:18:59Z</time>
      </trkpt>
      <trkpt lat="44.36752" lon="3.41403">
        <ele>544</ele>
        <time>2017-02-28T08:20:59Z</time>
      </trkpt>
      <trkpt lat="44.36751" lon="3.41402">
        <ele>543</ele>
        <time>2017-02-28T08:22:59Z</time>
      </trkpt>
      <trkpt lat="44.36749" lon="3.41398">
        <ele>541</ele>
        <time>2017-02-28T08:24:59Z</time>
      </trkpt>
      <trkpt lat="44.36749" lon="3.41395">
        <ele>540</ele>
        <time>2017-02-28T08:26:59Z</time>
      </trkpt>
      <trkpt lat="44.36748" lon="3.41392">
        <ele>539</ele>
        <time>2017-02-28T08:28:59Z</time>
      </trkpt>
      <trkpt lat="44.36747" lon="3.41391">
        <ele>538</ele>
        <time>2017-02-28T08:30:59Z</time>
      </trkpt>
      <trkpt lat="44.36745" lon="3.41387">
        <ele>536</ele>
        <time>2017-02-28T08:32:59Z</time>
      </trkpt>
      <trkpt lat="44.36746" lon="3.41382">
        <ele>534</ele>
        <time>2017-02-28T08:34:59Z</time>
      </trkpt>
      <trkpt lat="44.36746" lon="3.41378">
        <ele>533</ele>
        <time>2017-02-28T08:36:59Z</time>
      </trkpt>
      <trkpt lat="44.36744" lon="3.41368">
        <ele>529</ele>
        <time>2017-02-28T08:38:59Z</time>
      </trkpt>
      <trkpt lat="44.36742" lon="3.41364">
        <ele>527</ele>
        <time>2017-02-28T08:40:59Z</time>
      </trkpt>
      <trkpt lat="44.36741" lon="3.41358">
        <ele>525</ele>
        <time>2017-02-28T08:42:59Z</time>
      </trkpt>
      <trkpt lat="44.36736" lon="3.41348">
        <ele>520</ele>
        <time>2017-02-28T08:44:59Z</time>
      </trkpt>
      <trkpt lat="44.36735" lon="3.41345">
        <ele>519</ele>
        <time>2017-02-28T08:46:59Z</time>
      </trkpt>
      <trkpt lat="44.36734" lon="3.41343">
        <ele>518</ele>
        <time>2017-02-28T08:48:59Z</time>
      </trkpt>
      <trkpt lat="44.36732" lon="3.4134">
        <ele>517</ele>
        <time>2017-02-28T08:50:59Z</time>
      </trkpt>
      <trkpt lat="44.36731" lon="3.41336">
        <ele>515</ele>
        <time>2017-02-28T08:52:59Z</time>
      </trkpt>
      <trkpt lat="44.36729" lon="3.41332">
        <ele>514</ele>
        <time>2017-02-28T08:54:59Z</time>
      </trkpt>
      <trkpt lat="44.36717" lon="3.4132">
        <ele>509</ele>
        <time>2017-02-28T08:56:59Z</time>
      </trkpt>
      <trkpt lat="44.36715" lon="3.41319">
        <ele>509</ele>
        <time>2017-02-28T08:58:59Z</time>
      </trkpt>
      <trkpt lat="44.36712" lon="3.41319">
        <ele>508</ele>
        <time>2017-02-28T09:00:59Z</time>
      </trkpt>
      <trkpt lat="44.3671" lon="3.4132">
        <ele>508</ele>
        <time>2017-02-28T09:02:59Z</time>
      </trkpt>
      <trkpt lat="44.36708" lon="3.41323">
        <ele>508</ele>
        <time>2017-02-28T09:04:59Z</time>
      </trkpt>
      <trkpt lat="44.36706" lon="3.4133">
        <ele>508</ele>
        <time>2017-02-28T09:06:59Z</time>
      </trkpt>
      <trkpt lat="44.36703" lon="3.41337">
        <ele>509</ele>
        <time>2017-02-28T09:08:59Z</time>
      </trkpt>
      <trkpt lat="44.36702" lon="3.41341">
        <ele>509</ele>
        <time>2017-02-28T09:10:59Z</time>
      </trkpt>
      <trkpt lat="44.367" lon="3.41343">
        <ele>509</ele>
        <time>2017-02-28T09:12:59Z</time>
      </trkpt>
      <trkpt lat="44.36698" lon="3.41344">
        <ele>509</ele>
        <time>2017-02-28T09:14:59Z</time>
      </trkpt>
      <trkpt lat="44.36694" lon="3.41343">
        <ele>508</ele>
        <time>2017-02-28T09:16:59Z</time>
      </trkpt>
      <trkpt lat="44.36694" lon="3.41326">
        <ele>505</ele>
        <time>2017-02-28T09:18:59Z</time>
      </trkpt>
      <trkpt lat="44.36693" lon="3.41323">
        <ele>504</ele>
        <time>2017-02-28T09:20:59Z</time>
      </trkpt>
      <trkpt lat="44.36693" lon="3.41318">
        <ele>504</ele>
        <time>2017-02-28T09:22:59Z</time>
      </trkpt>
      <trkpt lat="44.36692" lon="3.41316">
        <ele>503</ele>
        <time>2017-02-28T09:24:59Z</time>
      </trkpt>
      <trkpt lat="44.3669" lon="3.41315">
        <ele>503</ele>
        <time>2017-02-28T09:26:59Z</time>
      </trkpt>
      <trkpt lat="44.36689" lon="3.41314">
        <ele>502</ele>
        <time>2017-02-28T09:28:59Z</time>
      </trkpt>
      <trkpt lat="44.36689" lon="3.41313">
        <ele>502</ele>
        <time>2017-02-28T09:30:59Z</time>
      </trkpt>
      <trkpt lat="44.36688" lon="3.41311">
        <ele>502</ele>
        <time>2017-02-28T09:32:59Z</time>
      </trkpt>
      <trkpt lat="44.36688" lon="3.41309">
        <ele>501</ele>
        <time>2017-02-28T09:34:59Z</time>
      </trkpt>
      <trkpt lat="44.36689" lon="3.41306">
        <ele>501</ele>
        <time>2017-02-28T09:36:59Z</time>
      </trkpt>
      <trkpt lat="44.36689" lon="3.41304">
        <ele>501</ele>
        <time>2017-02-28T09:38:59Z</time>
      </trkpt>
      <trkpt lat="44.36687" lon="3.413">
        <ele>500</ele>
        <time>2017-02-28T09:40:59Z</time>
      </trkpt>
      <trkpt lat="44.36686" lon="3.41297">
        <ele>499</ele>
        <time>2017-02-28T09:42:59Z</time>
      </trkpt>
      <trkpt lat="44.36685" lon="3.41296">
        <ele>499</ele>
        <time>2017-02-28T09:44:59Z</time>
      </trkpt>
      <trkpt lat="44.36683" lon="3.41295">
        <ele>498</ele>
        <time>2017-02-28T09:46:59Z</time>
      </trkpt>
      <trkpt lat="44.36679" lon="3.41295">
        <ele>498</ele>
        <time>2017-02-28T09:48:59Z</time>
      </trkpt>
      <trkpt lat="44.36676" lon="3.41292">
        <ele>497</ele>
        <time>2017-02-28T09:50:59Z</time>
      </trkpt>
      <trkpt lat="44.36676" lon="3.4129">
        <ele>496</ele>
        <time>2017-02-28T09:52:59Z</time>
      </trkpt>
      <trkpt lat="44.36675" lon="3.41288">
        <ele>496</ele>
        <time>2017-02-28T09:54:59Z</time>
      </trkpt>
      <trkpt lat="44.36675" lon="3.41286">
        <ele>496</ele>
        <time>2017-02-28T09:56:59Z</time>
      </trkpt>
      <trkpt lat="44.36676" lon="3.41282">
        <ele>495</ele>
        <time>2017-02-28T09:58:59Z</time>
      </trkpt>
      <trkpt lat="44.36681" lon="3.41279">
        <ele>496</ele>
        <time>2017-02-28T10:00:59Z</time>
      </trkpt>
      <trkpt lat="44.36684" lon="3.41276">
        <ele>496</ele>
        <time>2017-02-28T10:02:59Z</time>
      </trkpt>
      <trkpt lat="44.36691" lon="3.41265">
        <ele>495</ele>
        <time>2017-02-28T10:04:59Z</time>
      </trkpt>
      <trkpt lat="44.36693" lon="3.41265">
        <ele>496</ele>
        <time>2017-02-28T10:06:59Z</time>
      </trkpt>
      <trkpt lat="44.36698" lon="3.41262">
        <ele>496</ele>
        <time>2017-02-28T10:08:59Z</time>
      </trkpt>
      <trkpt lat="44.36701" lon="3.41259">
        <ele>496</ele>
        <time>2017-02-28T10:10:59Z</time>
      </trkpt>
      <trkpt lat="44.36704" lon="3.41258">
        <ele>496</ele>
        <time>2017-02-28T10:12:59Z</time>
      </trkpt>
      <trkpt lat="44.36708" lon="3.41256">
        <ele>496</ele>
        <time>2017-02-28T10:14:59Z</time>
      </trkpt>
      <trkpt lat="44.3671" lon="3.41254">
        <ele>496</ele>
        <time>2017-02-28T10:16:59Z</time>
      </trkpt>
      <trkpt lat="44.36711" lon="3.41251">
        <ele>496</ele>
        <time>2017-02-28T10:18:59Z</time>
      </trkpt>
      <trkpt lat="44.36715" lon="3.41245">
        <ele>497</ele>
        <time>2017-02-28T10:20:59Z</time>
      </trkpt>
      <trkpt lat="44.36717" lon="3.41243">
        <ele>497</ele>
        <time>2017-02-28T10:22:59Z</time>
      </trkpt>
      <trkpt lat="44.3672" lon="3.41241">
        <ele>498</ele>
        <time>2017-02-28T10:24:59Z</time>
      </trkpt>
      <trkpt lat="44.36723" lon="3.41241">
        <ele>498</ele>
        <time>2017-02-28T10:26:59Z</time>
      </trkpt>
      <trkpt lat="44.36725" lon="3.41242">
        <ele>498</ele>
        <time>2017-02-28T10:28:59Z</time>
      </trkpt>
      <trkpt lat="44.36732" lon="3.41242">
        <ele>499</ele>
        <time>2017-02-28T10:30:59Z</time>
      </trkpt>
      <trkpt lat="44.36735" lon="3.41241">
        <ele>500</ele>
        <time>2017-02-28T10:32:59Z</time>
      </trkpt>
      <trkpt lat="44.36741" lon="3.41235">
        <ele>501</ele>
        <time>2017-02-28T10:34:59Z</time>
      </trkpt>
      <trkpt lat="44.36753" lon="3.41256">
        <ele>503</ele>
        <time>2017-02-28T10:36:59Z</time>
      </trkpt>
      <trkpt lat="44.36755" lon="3.41262">
        <ele>504</ele>
        <time>2017-02-28T10:38:59Z</time>
      </trkpt>
      <trkpt lat="44.36758" lon="3.41267">
        <ele>506</ele>
        <time>2017-02-28T10:40:59Z</time>
      </trkpt>
      <trkpt lat="44.36762" lon="3.41272">
        <ele>508</ele>
        <time>2017-02-28T10:42:59Z</time>
      </trkpt>
      <trkpt lat="44.36766" lon="3.41274">
        <ele>509</ele>
        <time>2017-02-28T10:44:59Z</time>
      </trkpt>
      <trkpt lat="44.36771" lon="3.41276">
        <ele>510</ele>
        <time>2017-02-28T10:46:59Z</time>
      </trkpt>
      <trkpt lat="44.36778" lon="3.41278">
        <ele>511</ele>
        <time>2017-02-28T10:48:59Z</time>
      </trkpt>
      <trkpt lat="44.36794" lon="3.41281">
        <ele>514</ele>
        <time>2017-02-28T10:50:59Z</time>
      </trkpt>
      <trkpt lat="44.36819" lon="3.41284">
        <ele>518</ele>
        <time>2017-02-28T10:52:59Z</time>
      </trkpt>
      <trkpt lat="44.36821" lon="3.41284">
        <ele>518</ele>
        <time>2017-02-28T10:54:59Z</time>
      </trkpt>
      <trkpt lat="44.36823" lon="3.41282">
        <ele>518</ele>
        <time>2017-02-28T10:56:59Z</time>
      </trkpt>
      <trkpt lat="44.36823" lon="3.4128">
        <ele>518</ele>
        <time>2017-02-28T10:58:59Z</time>
      </trkpt>
      <trkpt lat="44.36822" lon="3.41276">
        <ele>517</ele>
        <time>2017-02-28T11:00:59Z</time>
      </trkpt>
      <trkpt lat="44.36821" lon="3.41274">
        <ele>517</ele>
        <time>2017-02-28T11:02:59Z</time>
      </trkpt>
      <trkpt lat="44.368" lon="3.41269">
        <ele>512</ele>
        <time>2017-02-28T11:04:59Z</time>
      </trkpt>
      <trkpt lat="44.36794" lon="3.41265">
        <ele>511</ele>
        <time>2017-02-28T11:06:59Z</time>
      </trkpt>
      <trkpt lat="44.36785" lon="3.41256">
        <ele>508</ele>
        <time>2017-02-28T11:08:59Z</time>
      </trkpt>
      <trkpt lat="44.36781" lon="3.4125">
        <ele>506</ele>
        <time>2017-02-28T11:10:59Z</time>
      </trkpt>
      <trkpt lat="44.36778" lon="3.41246">
        <ele>506</ele>
        <time>2017-02-28T11:12:59Z</time>
      </trkpt>
      <trkpt lat="44.36776" lon="3.4124">
        <ele>507</ele>
        <time>2017-02-28T11:14:59Z</time>
      </trkpt>
      <trkpt lat="44.36768" lon="3.4122">
        <ele>508</ele>
        <time>2017-02-28T11:16:59Z</time>
      </trkpt>
      <trkpt lat="44.36765" lon="3.41209">
        <ele>509</ele>
        <time>2017-02-28T11:18:59Z</time>
      </trkpt>
      <trkpt lat="44.36764" lon="3.41206">
        <ele>509</ele>
        <time>2017-02-28T11:20:59Z</time>
      </trkpt>
      <trkpt lat="44.36758" lon="3.41195">
        <ele>508</ele>
        <time>2017-02-28T11:22:59Z</time>
      </trkpt>
      <trkpt lat="44.36749" lon="3.41183">
        <ele>507</ele>
        <time>2017-02-28T11:24:59Z</time>
      </trkpt>
      <trkpt lat="44.36743" lon="3.41176">
        <ele>507</ele>
        <time>2017-02-28T11:26:59Z</time>
      </trkpt>
      <trkpt lat="44.36738" lon="3.41171">
        <ele>507</ele>
        <time>2017-02-28T11:28:59Z</time>
      </trkpt>
      <trkpt lat="44.3673" lon="3.41165">
        <ele>506</ele>
        <time>2017-02-28T11:30:59Z</time>
      </trkpt>
      <trkpt lat="44.36727" lon="3.41161">
        <ele>505</ele>
        <time>2017-02-28T11:32:59Z</time>
      </trkpt>
      <trkpt lat="44.36726" lon="3.41157">
        <ele>505</ele>
        <time>2017-02-28T11:34:59Z</time>
      </trkpt>
      <trkpt lat="44.36725" lon="3.41151">
        <ele>505</ele>
        <time>2017-02-28T11:36:59Z</time>
      </trkpt>
      <trkpt lat="44.36725" lon="3.41121">
        <ele>504</ele>
        <time>2017-02-28T11:38:59Z</time>
      </trkpt>
      <trkpt lat="44.36727" lon="3.41111">
        <ele>504</ele>
        <time>2017-02-28T11:40:59Z</time>
      </trkpt>
      <trkpt lat="44.36728" lon="3.41109">
        <ele>504</ele>
        <time>2017-02-28T11:42:59Z</time>
      </trkpt>
      <trkpt lat="44.36732" lon="3.41105">
        <ele>504</ele>
        <time>2017-02-28T11:44:59Z</time>
      </trkpt>
      <trkpt lat="44.36742" lon="3.41091">
        <ele>506</ele>
        <time>2017-02-28T11:46:59Z</time>
      </trkpt>
      <trkpt lat="44.3675" lon="3.41081">
        <ele>508</ele>
        <time>2017-02-28T11:48:59Z</time>
      </trkpt>
      <trkpt lat="44.36752" lon="3.41088">
        <ele>509</ele>
        <time>2017-02-28T11:50:59Z</time>
      </trkpt>
      <trkpt lat="44.36752" lon="3.4111">
        <ele>509</ele>
        <time>2017-02-28T11:52:59Z</time>
      </trkpt>
      <trkpt lat="44.36751" lon="3.41133">
        <ele>509</ele>
        <time>2017-02-28T11:54:59Z</time>
      </trkpt>
      <trkpt lat="44.36751" lon="3.41138">
        <ele>509</ele>
        <time>2017-02-28T11:56:59Z</time>
      </trkpt>
      <trkpt lat="44.36752" lon="3.41143">
        <ele>509</ele>
        <time>2017-02-28T11:58:59Z</time>
      </trkpt>
      <trkpt lat="44.36758" lon="3.41153">
        <ele>512</ele>
        <time>2017-02-28T12:00:59Z</time>
      </trkpt>
      <trkpt lat="44.36801" lon="3.41218">
        <ele>515</ele>
        <time>2017-02-28T12:02:59Z</time>
      </trkpt>
      <trkpt lat="44.36806" lon="3.41226">
        <ele>515</ele>
        <time>2017-02-28T12:04:59Z</time>
      </trkpt>
      <trkpt lat="44.36812" lon="3.41232">
        <ele>515</ele>
        <time>2017-02-28T12:06:59Z</time>
      </trkpt>
      <trkpt lat="44.36815" lon="3.41234">
        <ele>515</ele>
        <time>2017-02-28T12:08:59Z</time>
      </trkpt>
      <trkpt lat="44.36818" lon="3.41234">
        <ele>515</ele>
        <time>2017-02-28T12:10:59Z</time>
      </trkpt>
      <trkpt lat="44.36823" lon="3.41233">
        <ele>517</ele>
        <time>2017-02-28T12:12:59Z</time>
      </trkpt>
      <trkpt lat="44.36826" lon="3.4123">
        <ele>518</ele>
        <time>2017-02-28T12:14:59Z</time>
      </trkpt>
      <trkpt lat="44.36829" lon="3.41226">
        <ele>519</ele>
        <time>2017-02-28T12:16:59Z</time>
      </trkpt>
      <trkpt lat="44.36832" lon="3.41218">
        <ele>522</ele>
        <time>2017-02-28T12:18:59Z</time>
      </trkpt>
      <trkpt lat="44.36841" lon="3.41209">
        <ele>527</ele>
        <time>2017-02-28T12:20:59Z</time>
      </trkpt>
      <trkpt lat="44.36846" lon="3.41207">
        <ele>530</ele>
        <time>2017-02-28T12:22:59Z</time>
      </trkpt>
      <trkpt lat="44.36852" lon="3.41203">
        <ele>533</ele>
        <time>2017-02-28T12:24:59Z</time>
      </trkpt>
      <trkpt lat="44.36859" lon="3.41201">
        <ele>536</ele>
        <time>2017-02-28T12:26:59Z</time>
      </trkpt>
      <trkpt lat="44.36865" lon="3.412">
        <ele>538</ele>
        <time>2017-02-28T12:28:59Z</time>
      </trkpt>
      <trkpt lat="44.36877" lon="3.41202">
        <ele>542</ele>
        <time>2017-02-28T12:30:59Z</time>
      </trkpt>
      <trkpt lat="44.3688" lon="3.41203">
        <ele>542</ele>
        <time>2017-02-28T12:32:59Z</time>
      </trkpt>
      <trkpt lat="44.36884" lon="3.41206">
        <ele>543</ele>
        <time>2017-02-28T12:34:59Z</time>
      </trkpt>
      <trkpt lat="44.36892" lon="3.41211">
        <ele>544</ele>
        <time>2017-02-28T12:36:59Z</time>
      </trkpt>
      <trkpt lat="44.36914" lon="3.41227">
        <ele>545</ele>
        <time>2017-02-28T12:38:59Z</time>
      </trkpt>
      <trkpt lat="44.36925" lon="3.41239">
        <ele>545</ele>
        <time>2017-02-28T12:40:59Z</time>
      </trkpt>
      <trkpt lat="44.36931" lon="3.41247">
        <ele>545</ele>
        <time>2017-02-28T12:42:59Z</time>
      </trkpt>
      <trkpt lat="44.36934" lon="3.41253">
        <ele>545</ele>
        <time>2017-02-28T12:44:59Z</time>
      </trkpt>
      <trkpt lat="44.36939" lon="3.41262">
        <ele>546</ele>
        <time>2017-02-28T12:46:59Z</time>
      </trkpt>
      <trkpt lat="44.36946" lon="3.41282">
        <ele>548</ele>
        <time>2017-02-28T12:48:59Z</time>
      </trkpt>
      <trkpt lat="44.36952" lon="3.41309">
        <ele>548</ele>
        <time>2017-02-28T12:50:59Z</time>
      </trkpt>
      <trkpt lat="44.36955" lon="3.41325">
        <ele>548</ele>
        <time>2017-02-28T12:52:59Z</time>
      </trkpt>
      <trkpt lat="44.36957" lon="3.41334">
        <ele>548</ele>
        <time>2017-02-28T12:54:59Z</time>
      </trkpt>
      <trkpt lat="44.36959" lon="3.4134">
        <ele>551</ele>
        <time>2017-02-28T12:56:59Z</time>
      </trkpt>
      <trkpt lat="44.36961" lon="3.41345">
        <ele>553</ele>
        <time>2017-02-28T12:58:59Z</time>
      </trkpt>
      <trkpt lat="44.36967" lon="3.41349">
        <ele>555</ele>
        <time>2017-02-28T13:00:59Z</time>
      </trkpt>
      <trkpt lat="44.3697" lon="3.41349">
        <ele>556</ele>
        <time>2017-02-28T13:02:59Z</time>
      </trkpt>
      <trkpt lat="44.36975" lon="3.41348">
        <ele>557</ele>
        <time>2017-02-28T13:04:59Z</time>
      </trkpt>
      <trkpt lat="44.36978" lon="3.41347">
        <ele>557</ele>
        <time>2017-02-28T13:06:59Z</time>
      </trkpt>
      <trkpt lat="44.36993" lon="3.41347">
        <ele>560</ele>
        <time>2017-02-28T13:08:59Z</time>
      </trkpt>
      <trkpt lat="44.37017" lon="3.41345">
        <ele>564</ele>
        <time>2017-02-28T13:10:59Z</time>
      </trkpt>
      <trkpt lat="44.37026" lon="3.41345">
        <ele>566</ele>
        <time>2017-02-28T13:12:59Z</time>
      </trkpt>
      <trkpt lat="44.37034" lon="3.41343">
        <ele>567</ele>
        <time>2017-02-28T13:14:59Z</time>
      </trkpt>
      <trkpt lat="44.37058" lon="3.41338">
        <ele>571</ele>
        <time>2017-02-28T13:16:59Z</time>
      </trkpt>
      <trkpt lat="44.37065" lon="3.41336">
        <ele>572</ele>
        <time>2017-02-28T13:18:59Z</time>
      </trkpt>
      <trkpt lat="44.37068" lon="3.41334">
        <ele>573</ele>
        <time>2017-02-28T13:20:59Z</time>
      </trkpt>
      <trkpt lat="44.37069" lon="3.41333">
        <ele>573</ele>
        <time>2017-02-28T13:22:59Z</time>
      </trkpt>
      <trkpt lat="44.37069" lon="3.41331">
        <ele>574</ele>
        <time>2017-02-28T13:24:59Z</time>
      </trkpt>
      <trkpt lat="44.3707" lon="3.41329">
        <ele>574</ele>
        <time>2017-02-28T13:26:59Z</time>
      </trkpt>
      <trkpt lat="44.37069" lon="3.41328">
        <ele>574</ele>
        <time>2017-02-28T13:28:59Z</time>
      </trkpt>
      <trkpt lat="44.37069" lon="3.41325">
        <ele>575</ele>
        <time>2017-02-28T13:30:59Z</time>
      </trkpt>
      <trkpt lat="44.37067" lon="3.41323">
        <ele>575</ele>
        <time>2017-02-28T13:32:59Z</time>
      </trkpt>
      <trkpt lat="44.37053" lon="3.41315">
        <ele>574</ele>
        <time>2017-02-28T13:34:59Z</time>
      </trkpt>
      <trkpt lat="44.37035" lon="3.41306">
        <ele>572</ele>
        <time>2017-02-28T13:36:59Z</time>
      </trkpt>
      <trkpt lat="44.37033" lon="3.41304">
        <ele>572</ele>
        <time>2017-02-28T13:38:59Z</time>
      </trkpt>
      <trkpt lat="44.3703" lon="3.41303">
        <ele>571</ele>
        <time>2017-02-28T13:40:59Z</time>
      </trkpt>
      <trkpt lat="44.3702" lon="3.41303">
        <ele>569</ele>
        <time>2017-02-28T13:42:59Z</time>
      </trkpt>
      <trkpt lat="44.3701" lon="3.413">
        <ele>567</ele>
        <time>2017-02-28T13:44:59Z</time>
      </trkpt>
      <trkpt lat="44.37006" lon="3.41298">
        <ele>566</ele>
        <time>2017-02-28T13:46:59Z</time>
      </trkpt>
      <trkpt lat="44.37002" lon="3.41293">
        <ele>566</ele>
        <time>2017-02-28T13:48:59Z</time>
      </trkpt>
      <trkpt lat="44.3698" lon="3.41269">
        <ele>562</ele>
        <time>2017-02-28T13:50:59Z</time>
      </trkpt>
      <trkpt lat="44.36978" lon="3.41263">
        <ele>562</ele>
        <time>2017-02-28T13:52:59Z</time>
      </trkpt>
      <trkpt lat="44.36977" lon="3.41258">
        <ele>563</ele>
        <time>2017-02-28T13:54:59Z</time>
      </trkpt>
      <trkpt lat="44.36978" lon="3.41253">
        <ele>564</ele>
        <time>2017-02-28T13:56:59Z</time>
      </trkpt>
      <trkpt lat="44.36979" lon="3.41251">
        <ele>565</ele>
        <time>2017-02-28T13:58:59Z</time>
      </trkpt>
      <trkpt lat="44.36981" lon="3.41248">
        <ele>566</ele>
        <time>2017-02-28T14:00:59Z</time>
      </trkpt>
      <trkpt lat="44.36983" lon="3.41247">
        <ele>568</ele>
        <time>2017-02-28T14:02:59Z</time>
      </trkpt>
      <trkpt lat="44.36986" lon="3.41247">
        <ele>569</ele>
        <time>2017-02-28T14:04:59Z</time>
      </trkpt>
      <trkpt lat="44.36991" lon="3.41249">
        <ele>570</ele>
        <time>2017-02-28T14:06:59Z</time>
      </trkpt>
      <trkpt lat="44.37002" lon="3.41258">
        <ele>573</ele>
        <time>2017-02-28T14:08:59Z</time>
      </trkpt>
      <trkpt lat="44.37008" lon="3.4126">
        <ele>574</ele>
        <time>2017-02-28T14:10:59Z</time>
      </trkpt>
      <trkpt lat="44.37015" lon="3.41261">
        <ele>576</ele>
        <time>2017-02-28T14:12:59Z</time>
      </trkpt>
      <trkpt lat="44.37023" lon="3.4126">
        <ele>579</ele>
        <time>2017-02-28T14:14:59Z</time>
      </trkpt>
      <trkpt lat="44.3704" lon="3.41255">
        <ele>585</ele>
        <time>2017-02-28T14:16:59Z</time>
      </trkpt>
      <trkpt lat="44.37045" lon="3.41255">
        <ele>586</ele>
        <time>2017-02-28T14:18:59Z</time>
      </trkpt>
      <trkpt lat="44.37049" lon="3.41256">
        <ele>587</ele>
        <time>2017-02-28T14:20:59Z</time>
      </trkpt>
      <trkpt lat="44.37056" lon="3.41261">
        <ele>588</ele>
        <time>2017-02-28T14:22:59Z</time>
      </trkpt>
      <trkpt lat="44.37071" lon="3.4127">
        <ele>590</ele>
        <time>2017-02-28T14:24:59Z</time>
      </trkpt>
      <trkpt lat="44.37087" lon="3.41279">
        <ele>593</ele>
        <time>2017-02-28T14:26:59Z</time>
      </trkpt>
      <trkpt lat="44.37109" lon="3.41293">
        <ele>600</ele>
        <time>2017-02-28T14:28:59Z</time>
      </trkpt>
      <trkpt lat="44.37119" lon="3.41302">
        <ele>602</ele>
        <time>2017-02-28T14:30:59Z</time>
      </trkpt>
      <trkpt lat="44.37128" lon="3.41311">
        <ele>604</ele>
        <time>2017-02-28T14:32:59Z</time>
      </trkpt>
      <trkpt lat="44.37139" lon="3.41325">
        <ele>605</ele>
        <time>2017-02-28T14:34:59Z</time>
      </trkpt>
      <trkpt lat="44.3715" lon="3.41338">
        <ele>607</ele>
        <time>2017-02-28T14:36:59Z</time>
      </trkpt>
      <trkpt lat="44.3716" lon="3.41355">
        <ele>609</ele>
        <time>2017-02-28T14:38:59Z</time>
      </trkpt>
      <trkpt lat="44.37167" lon="3.4137">
        <ele>610</ele>
        <time>2017-02-28T14:40:59Z</time>
      </trkpt>
      <trkpt lat="44.37188" lon="3.41423">
        <ele>614</ele>
        <time>2017-02-28T14:42:59Z</time>
      </trkpt>
      <trkpt lat="44.3719" lon="3.41433">
        <ele>615</ele>
        <time>2017-02-28T14:44:59Z</time>
      </trkpt>
      <trkpt lat="44.37193" lon="3.41446">
        <ele>617</ele>
        <time>2017-02-28T14:46:59Z</time>
      </trkpt>
      <trkpt lat="44.37195" lon="3.41459">
        <ele>618</ele>
        <time>2017-02-28T14:48:59Z</time>
      </trkpt>
      <trkpt lat="44.37197" lon="3.41464">
        <ele>619</ele>
        <time>2017-02-28T14:50:59Z</time>
      </trkpt>
      <trkpt lat="44.37201" lon="3.4147">
        <ele>621</ele>
        <time>2017-02-28T14:52:59Z</time>
      </trkpt>
      <trkpt lat="44.37203" lon="3.4147">
        <ele>622</ele>
        <time>2017-02-28T14:54:59Z</time>
      </trkpt>
      <trkpt lat="44.37206" lon="3.41469">
        <ele>623</ele>
        <time>2017-02-28T14:56:59Z</time>
      </trkpt>
      <trkpt lat="44.37209" lon="3.41466">
        <ele>624</ele>
        <time>2017-02-28T14:58:59Z</time>
      </trkpt>
      <trkpt lat="44.37209" lon="3.41454">
        <ele>625</ele>
        <time>2017-02-28T15:00:59Z</time>
      </trkpt>
      <trkpt lat="44.37202" lon="3.41412">
        <ele>623</ele>
        <time>2017-02-28T15:02:59Z</time>
      </trkpt>
      <trkpt lat="44.37192" lon="3.41363">
        <ele>626</ele>
        <time>2017-02-28T15:04:59Z</time>
      </trkpt>
      <trkpt lat="44.37182" lon="3.41329">
        <ele>627</ele>
        <time>2017-02-28T15:06:59Z</time>
      </trkpt>
      <trkpt lat="44.37162" lon="3.41266">
        <ele>634</ele>
        <time>2017-02-28T15:08:59Z</time>
      </trkpt>
      <trkpt lat="44.37157" lon="3.41256">
        <ele>634</ele>
        <time>2017-02-28T15:10:59Z</time>
      </trkpt>
      <trkpt lat="44.37152" lon="3.41247">
        <ele>634</ele>
        <time>2017-02-28T15:12:59Z</time>
      </trkpt>
      <trkpt lat="44.37143" lon="3.41233">
        <ele>634</ele>
        <time>2017-02-28T15:14:59Z</time>
      </trkpt>
      <trkpt lat="44.37137" lon="3.41221">
        <ele>634</ele>
        <time>2017-02-28T15:16:59Z</time>
      </trkpt>
      <trkpt lat="44.37135" lon="3.4121">
        <ele>636</ele>
        <time>2017-02-28T15:18:59Z</time>
      </trkpt>
      <trkpt lat="44.37135" lon="3.41202">
        <ele>638</ele>
        <time>2017-02-28T15:20:59Z</time>
      </trkpt>
      <trkpt lat="44.37136" lon="3.41193">
        <ele>641</ele>
        <time>2017-02-28T15:22:59Z</time>
      </trkpt>
      <trkpt lat="44.37139" lon="3.41177">
        <ele>647</ele>
        <time>2017-02-28T15:24:59Z</time>
      </trkpt>
      <trkpt lat="44.3714" lon="3.41163">
        <ele>651</ele>
        <time>2017-02-28T15:26:59Z</time>
      </trkpt>
      <trkpt lat="44.3714" lon="3.41157">
        <ele>653</ele>
        <time>2017-02-28T15:28:59Z</time>
      </trkpt>
      <trkpt lat="44.37139" lon="3.41152">
        <ele>654</ele>
        <time>2017-02-28T15:30:59Z</time>
      </trkpt>
      <trkpt lat="44.37139" lon="3.41149">
        <ele>655</ele>
        <time>2017-02-28T15:32:59Z</time>
      </trkpt>
      <trkpt lat="44.37138" lon="3.41145">
        <ele>656</ele>
        <time>2017-02-28T15:34:59Z</time>
      </trkpt>
      <trkpt lat="44.37136" lon="3.41142">
        <ele>657</ele>
        <time>2017-02-28T15:36:59Z</time>
      </trkpt>
      <trkpt lat="44.37135" lon="3.41138">
        <ele>658</ele>
        <time>2017-02-28T15:38:59Z</time>
      </trkpt>
      <trkpt lat="44.37132" lon="3.41135">
        <ele>658</ele>
        <time>2017-02-28T15:40:59Z</time>
      </trkpt>
      <trkpt lat="44.37128" lon="3.41132">
        <ele>657</ele>
        <time>2017-02-28T15:42:59Z</time>
      </trkpt>
      <trkpt lat="44.37123" lon="3.41131">
        <ele>656</ele>
        <time>2017-02-28T15:44:59Z</time>
      </trkpt>
      <trkpt lat="44.37112" lon="3.4113">
        <ele>653</ele>
        <time>2017-02-28T15:46:59Z</time>
      </trkpt>
      <trkpt lat="44.37093" lon="3.41131">
        <ele>646</ele>
        <time>2017-02-28T15:48:59Z</time>
      </trkpt>
      <trkpt lat="44.37089" lon="3.4113">
        <ele>645</ele>
        <time>2017-02-28T15:50:59Z</time>
      </trkpt>
      <trkpt lat="44.37087" lon="3.41129">
        <ele>645</ele>
        <time>2017-02-28T15:52:59Z</time>
      </trkpt>
      <trkpt lat="44.37085" lon="3.41125">
        <ele>646</ele>
        <time>2017-02-28T15:54:59Z</time>
      </trkpt>
      <trkpt lat="44.37084" lon="3.4112">
        <ele>648</ele>
        <time>2017-02-28T15:56:59Z</time>
      </trkpt>
      <trkpt lat="44.37084" lon="3.41118">
        <ele>648</ele>
        <time>2017-02-28T15:58:59Z</time>
      </trkpt>
      <trkpt lat="44.37085" lon="3.41114">
        <ele>650</ele>
        <time>2017-02-28T16:00:59Z</time>
      </trkpt>
      <trkpt lat="44.37087" lon="3.41112">
        <ele>652</ele>
        <time>2017-02-28T16:02:59Z</time>
      </trkpt>
      <trkpt lat="44.37089" lon="3.41111">
        <ele>653</ele>
        <time>2017-02-28T16:04:59Z</time>
      </trkpt>
      <trkpt lat="44.37096" lon="3.4111">
        <ele>655</ele>
        <time>2017-02-28T16:06:59Z</time>
      </trkpt>
      <trkpt lat="44.37147" lon="3.41111">
        <ele>670</ele>
        <time>2017-02-28T16:08:59Z</time>
      </trkpt>
      <trkpt lat="44.37162" lon="3.41112">
        <ele>674</ele>
        <time>2017-02-28T16:10:59Z</time>
      </trkpt>
      <trkpt lat="44.37168" lon="3.41117">
        <ele>675</ele>
        <time>2017-02-28T16:12:59Z</time>
      </trkpt>
      <trkpt lat="44.37171" lon="3.41122">
        <ele>675</ele>
        <time>2017-02-28T16:14:59Z</time>
      </trkpt>
      <trkpt lat="44.37173" lon="3.41129">
        <ele>674</ele>
        <time>2017-02-28T16:16:59Z</time>
      </trkpt>
      <trkpt lat="44.37174" lon="3.41136">
        <ele>673</ele>
        <time>2017-02-28T16:18:59Z</time>
      </trkpt>
      <trkpt lat="44.37172" lon="3.4115">
        <ele>668</ele>
        <time>2017-02-28T16:20:59Z</time>
      </trkpt>
      <trkpt lat="44.37169" lon="3.41166">
        <ele>662</ele>
        <time>2017-02-28T16:22:59Z</time>
      </trkpt>
      <trkpt lat="44.37169" lon="3.41173">
        <ele>660</ele>
        <time>2017-02-28T16:24:59Z</time>
      </trkpt>
      <trkpt lat="44.3717" lon="3.4118">
        <ele>659</ele>
        <time>2017-02-28T16:26:59Z</time>
      </trkpt>
      <trkpt lat="44.37172" lon="3.41191">
        <ele>658</ele>
        <time>2017-02-28T16:28:59Z</time>
      </trkpt>
      <trkpt lat="44.37182" lon="3.41206">
        <ele>660</ele>
        <time>2017-02-28T16:30:59Z</time>
      </trkpt>
      <trkpt lat="44.37214" lon="3.41247">
        <ele>670</ele>
        <time>2017-02-28T16:32:59Z</time>
      </trkpt>
      <trkpt lat="44.37244" lon="3.41292">
        <ele>675</ele>
        <time>2017-02-28T16:34:59Z</time>
      </trkpt>
      <trkpt lat="44.37269" lon="3.41328">
        <ele>681</ele>
        <time>2017-02-28T16:36:59Z</time>
      </trkpt>
      <trkpt lat="44.3728" lon="3.41348">
        <ele>685</ele>
        <time>2017-02-28T16:38:59Z</time>
      </trkpt>
      <trkpt lat="44.37285" lon="3.41367">
        <ele>685</ele>
        <time>2017-02-28T16:40:59Z</time>
      </trkpt>
      <trkpt lat="44.37291" lon="3.41399">
        <ele>684</ele>
        <time>2017-02-28T16:42:59Z</time>
      </trkpt>
      <trkpt lat="44.37299" lon="3.41446">
        <ele>681</ele>
        <time>2017-02-28T16:44:59Z</time>
      </trkpt>
      <trkpt lat="44.37303" lon="3.41462">
        <ele>680</ele>
        <time>2017-02-28T16:46:59Z</time>
      </trkpt>
      <trkpt lat="44.37306" lon="3.4147">
        <ele>681</ele>
        <time>2017-02-28T16:48:59Z</time>
      </trkpt>
      <trkpt lat="44.37328" lon="3.41498">
        <ele>691</ele>
        <time>2017-02-28T16:50:59Z</time>
      </trkpt>
      <trkpt lat="44.37347" lon="3.41521">
        <ele>696</ele>
        <time>2017-02-28T16:52:59Z</time>
      </trkpt>
      <trkpt lat="44.37375" lon="3.41554">
        <ele>703</ele>
        <time>2017-02-28T16:54:59Z</time>
      </trkpt>
      <trkpt lat="44.37383" lon="3.41566">
        <ele>704</ele>
        <time>2017-02-28T16:56:59Z</time>
      </trkpt>
      <trkpt lat="44.3739" lon="3.41578">
        <ele>704</ele>
        <time>2017-02-28T16:58:59Z</time>
      </trkpt>
      <trkpt lat="44.37399" lon="3.416">
        <ele>705</ele>
        <time>2017-02-28T17:00:59Z</time>
      </trkpt>
      <trkpt lat="44.3741" lon="3.41628">
        <ele>706</ele>
        <time>2017-02-28T17:02:59Z</time>
      </trkpt>
      <trkpt lat="44.37413" lon="3.41635">
        <ele>706</ele>
        <time>2017-02-28T17:04:59Z</time>
      </trkpt>
      <trkpt lat="44.37418" lon="3.4164">
        <ele>707</ele>
        <time>2017-02-28T17:06:59Z</time>
      </trkpt>
      <trkpt lat="44.37439" lon="3.41664">
        <ele>709</ele>
        <time>2017-02-28T17:08:59Z</time>
      </trkpt>
      <trkpt lat="44.37457" lon="3.41686">
        <ele>710</ele>
        <time>2017-02-28T17:10:59Z</time>
      </trkpt>
      <trkpt lat="44.37466" lon="3.41692">
        <ele>711</ele>
        <time>2017-02-28T17:12:59Z</time>
      </trkpt>
      <trkpt lat="44.37495" lon="3.41707">
        <ele>716</ele>
        <time>2017-02-28T17:14:59Z</time>
      </trkpt>
      <trkpt lat="44.37552" lon="3.41734">
        <ele>724</ele>
        <time>2017-02-28T17:16:59Z</time>
      </trkpt>
      <trkpt lat="44.37583" lon="3.41736">
        <ele>732</ele>
        <time>2017-02-28T17:18:59Z</time>
      </trkpt>
      <trkpt lat="44.37595" lon="3.41738">
        <ele>736</ele>
        <time>2017-02-28T17:20:59Z</time>
      </trkpt>
      <trkpt lat="44.37615" lon="3.41749">
        <ele>740</ele>
        <time>2017-02-28T17:22:59Z</time>
      </trkpt>
      <trkpt lat="44.37656" lon="3.41779">
        <ele>746</ele>
        <time>2017-02-28T17:24:59Z</time>
      </trkpt>
      <trkpt lat="44.37686" lon="3.41803">
        <ele>748</ele>
        <time>2017-02-28T17:26:59Z</time>
      </trkpt>
      <trkpt lat="44.37698" lon="3.41819">
        <ele>747</ele>
        <time>2017-02-28T17:28:59Z</time>
      </trkpt>
      <trkpt lat="44.37705" lon="3.41841">
        <ele>744</ele>
        <time>2017-02-28T17:30:59Z</time>
      </trkpt>
      <trkpt lat="44.37711" lon="3.41858">
        <ele>744</ele>
        <time>2017-02-28T17:32:59Z</time>
      </trkpt>
      <trkpt lat="44.37722" lon="3.4187">
        <ele>746</ele>
        <time>2017-02-28T17:34:59Z</time>
      </trkpt>
      <trkpt lat="44.37741" lon="3.41881">
        <ele>749</ele>
        <time>2017-02-28T17:36:59Z</time>
      </trkpt>
      <trkpt lat="44.37764" lon="3.41895">
        <ele>752</ele>
        <time>2017-02-28T17:38:59Z</time>
      </trkpt>
      <trkpt lat="44.37787" lon="3.41916">
        <ele>755</ele>
        <time>2017-02-28T17:40:59Z</time>
      </trkpt>
      <trkpt lat="44.37808" lon="3.4194">
        <ele>761</ele>
        <time>2017-02-28T17:42:59Z</time>
      </trkpt>
      <trkpt lat="44.37826" lon="3.41969">
        <ele>762</ele>
        <time>2017-02-28T17:44:59Z</time>
      </trkpt>
      <trkpt lat="44.37847" lon="3.41997">
        <ele>764</ele>
        <time>2017-02-28T17:46:59Z</time>
      </trkpt>
      <trkpt lat="44.37874" lon="3.42041">
        <ele>774</ele>
        <time>2017-02-28T17:48:59Z</time>
      </trkpt>
      <trkpt lat="44.37875" lon="3.42042">
        <ele>774</ele>
        <time>2017-02-28T17:50:59Z</time>
      </trkpt>
      <trkpt lat="44.37878" lon="3.42044">
        <ele>775</ele>
        <time>2017-02-28T17:52:59Z</time>
      </trkpt>
      <trkpt lat="44.3788" lon="3.42064">
        <ele>775</ele>
        <time>2017-02-28T17:54:59Z</time>
      </trkpt>
      <trkpt lat="44.37885" lon="3.42086">
        <ele>775</ele>
        <time>2017-02-28T17:56:59Z</time>
      </trkpt>
      <trkpt lat="44.37896" lon="3.42115">
        <ele>778</ele>
        <time>2017-02-28T17:58:59Z</time>
      </trkpt>
      <trkpt lat="44.37899" lon="3.42124">
        <ele>778</ele>
        <time>2017-02-28T18:00:59Z</time>
      </trkpt>
      <trkpt lat="44.37899" lon="3.4213">
        <ele>778</ele>
        <time>2017-02-28T18:02:59Z</time>
      </trkpt>
      <trkpt lat="44.37898" lon="3.42142">
        <ele>779</ele>
        <time>2017-02-28T18:04:59Z</time>
      </trkpt>
      <trkpt lat="44.37892" lon="3.42138">
        <ele>780</ele>
        <time>2017-02-28T18:06:59Z</time>
      </trkpt>
      <trkpt lat="44.3789" lon="3.42137">
        <ele>780</ele>
        <time>2017-02-28T18:08:59Z</time>
      </trkpt>
      <trkpt lat="44.37882" lon="3.42128">
        <ele>781</ele>
        <time>2017-02-28T18:10:59Z</time>
      </trkpt>
      <trkpt lat="44.37859" lon="3.4211">
        <ele>780</ele>
        <time>2017-02-28T18:12:59Z</time>
      </trkpt>
      <trkpt lat="44.3784" lon="3.42085">
        <ele>774</ele>
        <time>2017-02-28T18:14:59Z</time>
      </trkpt>
      <trkpt lat="44.37825" lon="3.42072">
        <ele>773</ele>
        <time>2017-02-28T18:16:59Z</time>
      </trkpt>
      <trkpt lat="44.3782" lon="3.42069">
        <ele>774</ele>
        <time>2017-02-28T18:18:59Z</time>
      </trkpt>
      <trkpt lat="44.37817" lon="3.42068">
        <ele>775</ele>
        <time>2017-02-28T18:20:59Z</time>
      </trkpt>
      <trkpt lat="44.37812" lon="3.42067">
        <ele>776</ele>
        <time>2017-02-28T18:22:59Z</time>
      </trkpt>
      <trkpt lat="44.37835" lon="3.42099">
        <ele>779</ele>
        <time>2017-02-28T18:24:59Z</time>
      </trkpt>
      <trkpt lat="44.37847" lon="3.42123">
        <ele>785</ele>
        <time>2017-02-28T18:26:59Z</time>
      </trkpt>
      <trkpt lat="44.37862" lon="3.42154">
        <ele>790</ele>
        <time>2017-02-28T18:28:59Z</time>
      </trkpt>
      <trkpt lat="44.37873" lon="3.4218">
        <ele>794</ele>
        <time>2017-02-28T18:30:59Z</time>
      </trkpt>
      <trkpt lat="44.37886" lon="3.42198">
        <ele>795</ele>
        <time>2017-02-28T18:32:59Z</time>
      </trkpt>
      <trkpt lat="44.37908" lon="3.42225">
        <ele>795</ele>
        <time>2017-02-28T18:34:59Z</time>
      </trkpt>
      <trkpt lat="44.37912" lon="3.42234">
        <ele>796</ele>
        <time>2017-02-28T18:36:59Z</time>
      </trkpt>
      <trkpt lat="44.37919" lon="3.42261">
        <ele>803</ele>
        <time>2017-02-28T18:38:59Z</time>
      </trkpt>
      <trkpt lat="44.37927" lon="3.42287">
        <ele>813</ele>
        <time>2017-02-28T18:40:59Z</time>
      </trkpt>
      <trkpt lat="44.37933" lon="3.42293">
        <ele>816</ele>
        <time>2017-02-28T18:42:59Z</time>
      </trkpt>
      <trkpt lat="44.37934" lon="3.42293">
        <ele>816</ele>
        <time>2017-02-28T18:44:59Z</time>
      </trkpt>
      <trkpt lat="44.37937" lon="3.42295">
        <ele>817</ele>
        <time>2017-02-28T18:46:59Z</time>
      </trkpt>
      <trkpt lat="44.3794" lon="3.42293">
        <ele>816</ele>
        <time>2017-02-28T18:48:59Z</time>
      </trkpt>
      <trkpt lat="44.37961" lon="3.42268">
        <ele>807</ele>
        <time>2017-02-28T18:50:59Z</time>
      </trkpt>
      <trkpt lat="44.37971" lon="3.42261">
        <ele>805</ele>
        <time>2017-02-28T18:52:59Z</time>
      </trkpt>
      <trkpt lat="44.3798" lon="3.4226">
        <ele>805</ele>
        <time>2017-02-28T18:54:59Z</time>
      </trkpt>
      <trkpt lat="44.37995" lon="3.42264">
        <ele>807</ele>
        <time>2017-02-28T18:56:59Z</time>
      </trkpt>
      <trkpt lat="44.38008" lon="3.42266">
        <ele>809</ele>
        <time>2017-02-28T18:58:59Z</time>
      </trkpt>
      <trkpt lat="44.38028" lon="3.42265">
        <ele>813</ele>
        <time>2017-02-28T19:00:59Z</time>
      </trkpt>
      <trkpt lat="44.38042" lon="3.42262">
        <ele>814</ele>
        <time>2017-02-28T19:02:59Z</time>
      </trkpt>
      <trkpt lat="44.38065" lon="3.42252">
        <ele>814</ele>
        <time>2017-02-28T19:04:59Z</time>
      </trkpt>
      <trkpt lat="44.38088" lon="3.42244">
        <ele>816</ele>
        <time>2017-02-28T19:06:59Z</time>
      </trkpt>
      <trkpt lat="44.38112" lon="3.42239">
        <ele>818</ele>
        <time>2017-02-28T19:08:59Z</time>
      </trkpt>
      <trkpt lat="44.38124" lon="3.42235">
        <ele>819</ele>
        <time>2017-02-28T19:10:59Z</time>
      </trkpt>
      <trkpt lat="44.38148" lon="3.42225">
        <ele>821</ele>
        <time>2017-02-28T19:12:59Z</time>
      </trkpt>
      <trkpt lat="44.3816" lon="3.42223">
        <ele>822</ele>
        <time>2017-02-28T19:14:59Z</time>
      </trkpt>
      <trkpt lat="44.38173" lon="3.42226">
        <ele>824</ele>
        <time>2017-02-28T19:16:59Z</time>
      </trkpt>
      <trkpt lat="44.38186" lon="3.42234">
        <ele>827</ele>
        <time>2017-02-28T19:18:59Z</time>
      </trkpt>
      <trkpt lat="44.38201" lon="3.42239">
        <ele>830</ele>
        <time>2017-02-28T19:20:59Z</time>
      </trkpt>
      <trkpt lat="44.3823" lon="3.42244">
        <ele>833</ele>
        <time>2017-02-28T19:22:59Z</time>
      </trkpt>
      <trkpt lat="44.3827" lon="3.42256">
        <ele>839</ele>
        <time>2017-02-28T19:24:59Z</time>
      </trkpt>
      <trkpt lat="44.38281" lon="3.42257">
        <ele>840</ele>
        <time>2017-02-28T19:26:59Z</time>
      </trkpt>
      <trkpt lat="44.38309" lon="3.42255">
        <ele>841</ele>
        <time>2017-02-28T19:28:59Z</time>
      </trkpt>
      <trkpt lat="44.38344" lon="3.42253">
        <ele>842</ele>
        <time>2017-02-28T19:30:59Z</time>
      </trkpt>
      <trkpt lat="44.38371" lon="3.42254">
        <ele>844</ele>
        <time>2017-02-28T19:32:59Z</time>
      </trkpt>
      <trkpt lat="44.38396" lon="3.42257">
        <ele>847</ele>
        <time>2017-02-28T19:34:59Z</time>
      </trkpt>
      <trkpt lat="44.38427" lon="3.42265">
        <ele>851</ele>
        <time>2017-02-28T19:36:59Z</time>
      </trkpt>
      <trkpt lat="44.38457" lon="3.42276">
        <ele>852</ele>
        <time>2017-02-28T19:38:59Z</time>
      </trkpt>
      <trkpt lat="44.38478" lon="3.42287">
        <ele>854</ele>
        <time>2017-02-28T19:40:59Z</time>
      </trkpt>
      <trkpt lat="44.38496" lon="3.42302">
        <ele>856</ele>
        <time>2017-02-28T19:42:59Z</time>
      </trkpt>
      <trkpt lat="44.38523" lon="3.42331">
        <ele>859</ele>
        <time>2017-02-28T19:44:59Z</time>
      </trkpt>
      <trkpt lat="44.38565" lon="3.42373">
        <ele>858</ele>
        <time>2017-02-28T19:46:59Z</time>
      </trkpt>
      <trkpt lat="44.38586" lon="3.42395">
        <ele>858</ele>
        <time>2017-02-28T19:48:59Z</time>
      </trkpt>
      <trkpt lat="44.38597" lon="3.4241">
        <ele>861</ele>
        <time>2017-02-28T19:50:59Z</time>
      </trkpt>
      <trkpt lat="44.38604" lon="3.42428">
        <ele>865</ele>
        <time>2017-02-28T19:52:59Z</time>
      </trkpt>
      <trkpt lat="44.38616" lon="3.42466">
        <ele>872</ele>
        <time>2017-02-28T19:54:59Z</time>
      </trkpt>
      <trkpt lat="44.38629" lon="3.42502">
        <ele>878</ele>
        <time>2017-02-28T19:56:59Z</time>
      </trkpt>
      <trkpt lat="44.38634" lon="3.42512">
        <ele>879</ele>
        <time>2017-02-28T19:58:59Z</time>
      </trkpt>
      <trkpt lat="44.38639" lon="3.42516">
        <ele>879</ele>
        <time>2017-02-28T20:00:59Z</time>
      </trkpt>
      <trkpt lat="44.38643" lon="3.42516">
        <ele>879</ele>
        <time>2017-02-28T20:02:59Z</time>
      </trkpt>
      <trkpt lat="44.38648" lon="3.42513">
        <ele>878</ele>
        <time>2017-02-28T20:04:59Z</time>
      </trkpt>
      <trkpt lat="44.38651" lon="3.42509">
        <ele>877</ele>
        <time>2017-02-28T20:06:59Z</time>
      </trkpt>
      <trkpt lat="44.38665" lon="3.42469">
        <ele>871</ele>
        <time>2017-02-28T20:08:59Z</time>
      </trkpt>
      <trkpt lat="44.38678" lon="3.42439">
        <ele>870</ele>
        <time>2017-02-28T20:10:59Z</time>
      </trkpt>
      <trkpt lat="44.38684" lon="3.42427">
        <ele>869</ele>
        <time>2017-02-28T20:12:59Z</time>
      </trkpt>
      <trkpt lat="44.38691" lon="3.42416">
        <ele>869</ele>
        <time>2017-02-28T20:14:59Z</time>
      </trkpt>
      <trkpt lat="44.38703" lon="3.42398">
        <ele>868</ele>
        <time>2017-02-28T20:16:59Z</time>
      </trkpt>
      <trkpt lat="44.38712" lon="3.42387">
        <ele>868</ele>
        <time>2017-02-28T20:18:59Z</time>
      </trkpt>
      <trkpt lat="44.3872" lon="3.42378">
        <ele>868</ele>
        <time>2017-02-28T20:20:59Z</time>
      </trkpt>
      <trkpt lat="44.38723" lon="3.42375">
        <ele>868</ele>
        <time>2017-02-28T20:22:59Z</time>
      </trkpt>
      <trkpt lat="44.38726" lon="3.42374">
        <ele>868</ele>
        <time>2017-02-28T20:24:59Z</time>
      </trkpt>
      <trkpt lat="44.38734" lon="3.4237">
        <ele>869</ele>
        <time>2017-02-28T20:26:59Z</time>
      </trkpt>
      <trkpt lat="44.38756" lon="3.42351">
        <ele>869</ele>
        <time>2017-02-28T20:28:59Z</time>
      </trkpt>
      <trkpt lat="44.38789" lon="3.42329">
        <ele>867</ele>
        <time>2017-02-28T20:30:59Z</time>
      </trkpt>
      <trkpt lat="44.38828" lon="3.42308">
        <ele>866</ele>
        <time>2017-02-28T20:32:59Z</time>
      </trkpt>
      <trkpt lat="44.38844" lon="3.42306">
        <ele>866</ele>
        <time>2017-02-28T20:34:59Z</time>
      </trkpt>
      <trkpt lat="44.38857" lon="3.42307">
        <ele>866</ele>
        <time>2017-02-28T20:36:59Z</time>
      </trkpt>
      <trkpt lat="44.38894" lon="3.42314">
        <ele>867</ele>
        <time>2017-02-28T20:38:59Z</time>
      </trkpt>
      <trkpt lat="44.38906" lon="3.42319">
        <ele>867</ele>
        <time>2017-02-28T20:40:59Z</time>
      </trkpt>
      <trkpt lat="44.38921" lon="3.42327">
        <ele>868</ele>
        <time>2017-02-28T20:42:59Z</time>
      </trkpt>
      <trkpt lat="44.38929" lon="3.42327">
        <ele>868</ele>
        <time>2017-02-28T20:44:59Z</time>
      </trkpt>
      <trkpt lat="44.38937" lon="3.42322">
        <ele>868</ele>
        <time>2017-02-28T20:46:59Z</time>
      </trkpt>
      <trkpt lat="44.38949" lon="3.42306">
        <ele>866</ele>
        <time>2017-02-28T20:48:59Z</time>
      </trkpt>
      <trkpt lat="44.38959" lon="3.42299">
        <ele>866</ele>
        <time>2017-02-28T20:50:59Z</time>
      </trkpt>
      <trkpt lat="44.38966" lon="3.42298">
        <ele>866</ele>
        <time>2017-02-28T20:52:59Z</time>
      </trkpt>
      <trkpt lat="44.3898" lon="3.42292">
        <ele>865</ele>
        <time>2017-02-28T20:54:59Z</time>
      </trkpt>
      <trkpt lat="44.38985" lon="3.42288">
        <ele>865</ele>
        <time>2017-02-28T20:56:59Z</time>
      </trkpt>
      <trkpt lat="44.38988" lon="3.42285">
        <ele>865</ele>
        <time>2017-02-28T20:58:59Z</time>
      </trkpt>
      <trkpt lat="44.38995" lon="3.42281">
        <ele>865</ele>
        <time>2017-02-28T21:00:59Z</time>
      </trkpt>
      <trkpt lat="44.38979" lon="3.4225">
        <ele>861</ele>
        <time>2017-02-28T21:02:59Z</time>
      </trkpt>
      <trkpt lat="44.38976" lon="3.42243">
        <ele>862</ele>
        <time>2017-02-28T21:04:59Z</time>
      </trkpt>
      <trkpt lat="44.38971" lon="3.42235">
        <ele>862</ele>
        <time>2017-02-28T21:06:59Z</time>
      </trkpt>
      <trkpt lat="44.3899" lon="3.42225">
        <ele>864</ele>
        <time>2017-02-28T21:08:59Z</time>
      </trkpt>
      <trkpt lat="44.39003" lon="3.42215">
        <ele>865</ele>
        <time>2017-02-28T21:10:59Z</time>
      </trkpt>
      <trkpt lat="44.39009" lon="3.42206">
        <ele>867</ele>
        <time>2017-02-28T21:12:59Z</time>
      </trkpt>
      <trkpt lat="44.3901" lon="3.42197">
        <ele>868</ele>
        <time>2017-02-28T21:14:59Z</time>
      </trkpt>
      <trkpt lat="44.39014" lon="3.42191">
        <ele>868</ele>
        <time>2017-02-28T21:16:59Z</time>
      </trkpt>
      <trkpt lat="44.39019" lon="3.42181">
        <ele>870</ele>
        <time>2017-02-28T21:18:59Z</time>
      </trkpt>
      <trkpt lat="44.39025" lon="3.42174">
        <ele>871</ele>
        <time>2017-02-28T21:20:59Z</time>
      </trkpt>
      <trkpt lat="44.39027" lon="3.42174">
        <ele>872</ele>
        <time>2017-02-28T21:22:59Z</time>
      </trkpt>
      <trkpt lat="44.3903" lon="3.42177">
        <ele>872</ele>
        <time>2017-02-28T21:24:59Z</time>
      </trkpt>
      <trkpt lat="44.39039" lon="3.4219">
        <ele>871</ele>
        <time>2017-02-28T21:26:59Z</time>
      </trkpt>
      <trkpt lat="44.39047" lon="3.42197">
        <ele>871</ele>
        <time>2017-02-28T21:28:59Z</time>
      </trkpt>
      <trkpt lat="44.39049" lon="3.42197">
        <ele>872</ele>
        <time>2017-02-28T21:30:59Z</time>
      </trkpt>
      <trkpt lat="44.3905" lon="3.42195">
        <ele>872</ele>
        <time>2017-02-28T21:32:59Z</time>
      </trkpt>
      <trkpt lat="44.39056" lon="3.42146">
        <ele>878</ele>
        <time>2017-02-28T21:34:59Z</time>
      </trkpt>
      <trkpt lat="44.39064" lon="3.42134">
        <ele>880</ele>
        <time>2017-02-28T21:36:59Z</time>
      </trkpt>
      <trkpt lat="44.39071" lon="3.42119">
        <ele>882</ele>
        <time>2017-02-28T21:38:59Z</time>
      </trkpt>
      <trkpt lat="44.39088" lon="3.42072">
        <ele>887</ele>
        <time>2017-02-28T21:40:59Z</time>
      </trkpt>
      <trkpt lat="44.39096" lon="3.42049">
        <ele>890</ele>
        <time>2017-02-28T21:42:59Z</time>
      </trkpt>
      <trkpt lat="44.39104" lon="3.42036">
        <ele>892</ele>
        <time>2017-02-28T21:44:59Z</time>
      </trkpt>
      <trkpt lat="44.39123" lon="3.42016">
        <ele>896</ele>
        <time>2017-02-28T21:46:59Z</time>
      </trkpt>
      <trkpt lat="44.3915" lon="3.4199">
        <ele>901</ele>
        <time>2017-02-28T21:48:59Z</time>
      </trkpt>
      <trkpt lat="44.39177" lon="3.4196">
        <ele>905</ele>
        <time>2017-02-28T21:50:59Z</time>
      </trkpt>
      <trkpt lat="44.39198" lon="3.41934">
        <ele>909</ele>
        <time>2017-02-28T21:52:59Z</time>
      </trkpt>
      <trkpt lat="44.3922" lon="3.41905">
        <ele>912</ele>
        <time>2017-02-28T21:54:59Z</time>
      </trkpt>
      <trkpt lat="44.39234" lon="3.41885">
        <ele>915</ele>
        <time>2017-02-28T21:56:59Z</time>
      </trkpt>
      <trkpt lat="44.39252" lon="3.41851">
        <ele>918</ele>
        <time>2017-02-28T21:58:59Z</time>
      </trkpt>
      <trkpt lat="44.39266" lon="3.41812">
        <ele>921</ele>
        <time>2017-02-28T22:00:59Z</time>
      </trkpt>
      <trkpt lat="44.39252" lon="3.41797">
        <ele>921</ele>
        <time>2017-02-28T22:02:59Z</time>
      </trkpt>
      <trkpt lat="44.39242" lon="3.41789">
        <ele>921</ele>
        <time>2017-02-28T22:04:59Z</time>
      </trkpt>
      <trkpt lat="44.39254" lon="3.41775">
        <ele>922</ele>
        <time>2017-02-28T22:06:59Z</time>
      </trkpt>
      <trkpt lat="44.3896" lon="3.41476">
        <ele>973</ele>
        <time>2017-02-28T22:08:59Z</time>
      </trkpt>
      <trkpt lat="44.38853" lon="3.41327">
        <ele>984</ele>
        <time>2017-02-28T22:10:59Z</time>
      </trkpt>
      <trkpt lat="44.38794" lon="3.41223">
        <ele>971</ele>
        <time>2017-02-28T22:12:59Z</time>
      </trkpt>
      <trkpt lat="44.38718" lon="3.41119">
        <ele>959</ele>
        <time>2017-02-28T22:14:59Z</time>
      </trkpt>
      <trkpt lat="44.38484" lon="3.40781">
        <ele>931</ele>
        <time>2017-02-28T22:16:59Z</time>
      </trkpt>
      <trkpt lat="44.38417" lon="3.40703">
        <ele>919</ele>
        <time>2017-02-28T22:18:59Z</time>
      </trkpt>
      <trkpt lat="44.3839" lon="3.40657">
        <ele>918</ele>
        <time>2017-02-28T22:20:59Z</time>
      </trkpt>
      <trkpt lat="44.38372" lon="3.40612">
        <ele>917</ele>
        <time>2017-02-28T22:22:59Z</time>
      </trkpt>
      <trkpt lat="44.38354" lon="3.40491">
        <ele>915</ele>
        <time>2017-02-28T22:24:59Z</time>
      </trkpt>
      <trkpt lat="44.38347" lon="3.40498">
        <ele>916</ele>
        <time>2017-02-28T22:26:59Z</time>
      </trkpt>
      <trkpt lat="44.38322" lon="3.40534">
        <ele>916</ele>
        <time>2017-02-28T22:28:59Z</time>
      </trkpt>
      <trkpt lat="44.383" lon="3.40565">
        <ele>915</ele>
        <time>2017-02-28T22:30:59Z</time>
      </trkpt>
      <trkpt lat="44.3828" lon="3.40586">
        <ele>913</ele>
        <time>2017-02-28T22:32:59Z</time>
      </trkpt>
      <trkpt lat="44.38263" lon="3.40601">
        <ele>911</ele>
        <time>2017-02-28T22:34:59Z</time>
      </trkpt>
      <trkpt lat="44.3825" lon="3.40614">
        <ele>909</ele>
        <time>2017-02-28T22:36:59Z</time>
      </trkpt>
      <trkpt lat="44.38234" lon="3.40624">
        <ele>907</ele>
        <time>2017-02-28T22:38:59Z</time>
      </trkpt>
      <trkpt lat="44.38223" lon="3.40624">
        <ele>906</ele>
        <time>2017-02-28T22:40:59Z</time>
      </trkpt>
      <trkpt lat="44.3821" lon="3.40621">
        <ele>905</ele>
        <time>2017-02-28T22:42:59Z</time>
      </trkpt>
      <trkpt lat="44.38202" lon="3.40622">
        <ele>904</ele>
        <time>2017-02-28T22:44:59Z</time>
      </trkpt>
      <trkpt lat="44.3819" lon="3.4063">
        <ele>903</ele>
        <time>2017-02-28T22:46:59Z</time>
      </trkpt>
      <trkpt lat="44.38172" lon="3.40637">
        <ele>901</ele>
        <time>2017-02-28T22:48:59Z</time>
      </trkpt>
      <trkpt lat="44.3814" lon="3.40653">
        <ele>899</ele>
        <time>2017-02-28T22:50:59Z</time>
      </trkpt>
      <trkpt lat="44.38116" lon="3.4066">
        <ele>897</ele>
        <time>2017-02-28T22:52:59Z</time>
      </trkpt>
      <trkpt lat="44.38089" lon="3.40665">
        <ele>896</ele>
        <time>2017-02-28T22:54:59Z</time>
      </trkpt>
      <trkpt lat="44.38068" lon="3.40674">
        <ele>896</ele>
        <time>2017-02-28T22:56:59Z</time>
      </trkpt>
      <trkpt lat="44.38046" lon="3.40679">
        <ele>897</ele>
        <time>2017-02-28T22:58:59Z</time>
      </trkpt>
      <trkpt lat="44.38027" lon="3.40689">
        <ele>897</ele>
        <time>2017-02-28T23:00:59Z</time>
      </trkpt>
      <trkpt lat="44.38003" lon="3.40706">
        <ele>897</ele>
        <time>2017-02-28T23:02:59Z</time>
      </trkpt>
      <trkpt lat="44.37979" lon="3.40721">
        <ele>897</ele>
        <time>2017-02-28T23:04:59Z</time>
      </trkpt>
      <trkpt lat="44.37966" lon="3.40727">
        <ele>898</ele>
        <time>2017-02-28T23:06:59Z</time>
      </trkpt>
      <trkpt lat="44.37947" lon="3.40728">
        <ele>898</ele>
        <time>2017-02-28T23:08:59Z</time>
      </trkpt>
      <trkpt lat="44.37932" lon="3.40726">
        <ele>899</ele>
        <time>2017-02-28T23:10:59Z</time>
      </trkpt>
      <trkpt lat="44.37923" lon="3.40721">
        <ele>899</ele>
        <time>2017-02-28T23:12:59Z</time>
      </trkpt>
      <trkpt lat="44.37914" lon="3.40709">
        <ele>900</ele>
        <time>2017-02-28T23:14:59Z</time>
      </trkpt>
      <trkpt lat="44.37856" lon="3.40674">
        <ele>898</ele>
        <time>2017-02-28T23:16:59Z</time>
      </trkpt>
      <trkpt lat="44.37838" lon="3.40659">
        <ele>897</ele>
        <time>2017-02-28T23:18:59Z</time>
      </trkpt>
      <trkpt lat="44.37825" lon="3.40647">
        <ele>897</ele>
        <time>2017-02-28T23:20:59Z</time>
      </trkpt>
      <trkpt lat="44.37819" lon="3.40641">
        <ele>896</ele>
        <time>2017-02-28T23:22:59Z</time>
      </trkpt>
      <trkpt lat="44.37805" lon="3.40637">
        <ele>896</ele>
        <time>2017-02-28T23:24:59Z</time>
      </trkpt>
      <trkpt lat="44.37778" lon="3.40632">
        <ele>895</ele>
        <time>2017-02-28T23:26:59Z</time>
      </trkpt>
      <trkpt lat="44.37763" lon="3.40632">
        <ele>894</ele>
        <time>2017-02-28T23:28:59Z</time>
      </trkpt>
      <trkpt lat="44.37751" lon="3.4064">
        <ele>894</ele>
        <time>2017-02-28T23:30:59Z</time>
      </trkpt>
      <trkpt lat="44.3774" lon="3.40653">
        <ele>893</ele>
        <time>2017-02-28T23:32:59Z</time>
      </trkpt>
      <trkpt lat="44.37732" lon="3.40657">
        <ele>893</ele>
        <time>2017-02-28T23:34:59Z</time>
      </trkpt>
      <trkpt lat="44.37733" lon="3.40646">
        <ele>893</ele>
        <time>2017-02-28T23:36:59Z</time>
      </trkpt>
      <trkpt lat="44.37734" lon="3.4063">
        <ele>892</ele>
        <time>2017-02-28T23:38:59Z</time>
      </trkpt>
      <trkpt lat="44.37733" lon="3.40617">
        <ele>892</ele>
        <time>2017-02-28T23:40:59Z</time>
      </trkpt>
      <trkpt lat="44.37733" lon="3.40609">
        <ele>892</ele>
        <time>2017-02-28T23:42:59Z</time>
      </trkpt>
      <trkpt lat="44.37731" lon="3.40596">
        <ele>892</ele>
        <time>2017-02-28T23:44:59Z</time>
      </trkpt>
      <trkpt lat="44.37727" lon="3.40588">
        <ele>891</ele>
        <time>2017-02-28T23:46:59Z</time>
      </trkpt>
      <trkpt lat="44.37718" lon="3.40579">
        <ele>891</ele>
        <time>2017-02-28T23:48:59Z</time>
      </trkpt>
      <trkpt lat="44.37715" lon="3.40544">
        <ele>890</ele>
        <time>2017-02-28T23:50:59Z</time>
      </trkpt>
      <trkpt lat="44.37713" lon="3.40501">
        <ele>890</ele>
        <time>2017-02-28T23:52:59Z</time>
      </trkpt>
      <trkpt lat="44.37711" lon="3.40475">
        <ele>891</ele>
        <time>2017-02-28T23:54:59Z</time>
      </trkpt>
      <trkpt lat="44.37707" lon="3.40459">
        <ele>892</ele>
        <time>2017-02-28T23:56:59Z</time>
      </trkpt>
      <trkpt lat="44.37698" lon="3.40441">
        <ele>893</ele>
        <time>2017-02-28T23:58:59Z</time>
      </trkpt>
      <trkpt lat="44.37682" lon="3.4042">
        <ele>893</ele>
        <time>2017-03-01T00:00:59Z</time>
      </trkpt>
      <trkpt lat="44.37657" lon="3.40401">
        <ele>895</ele>
        <time>2017-03-01T00:02:59Z</time>
      </trkpt>
      <trkpt lat="44.3762" lon="3.40374">
        <ele>899</ele>
        <time>2017-03-01T00:04:59Z</time>
      </trkpt>
      <trkpt lat="44.37587" lon="3.40353">
        <ele>903</ele>
        <time>2017-03-01T00:06:59Z</time>
      </trkpt>
      <trkpt lat="44.37514" lon="3.40304">
        <ele>914</ele>
        <time>2017-03-01T00:08:59Z</time>
      </trkpt>
      <trkpt lat="44.37504" lon="3.40293">
        <ele>915</ele>
        <time>2017-03-01T00:10:59Z</time>
      </trkpt>
      <trkpt lat="44.37493" lon="3.40277">
        <ele>917</ele>
        <time>2017-03-01T00:12:59Z</time>
      </trkpt>
      <trkpt lat="44.3748" lon="3.40253">
        <ele>918</ele>
        <time>2017-03-01T00:14:59Z</time>
      </trkpt>
      <trkpt lat="44.37458" lon="3.40211">
        <ele>921</ele>
        <time>2017-03-01T00:16:59Z</time>
      </trkpt>
      <trkpt lat="44.37452" lon="3.40203">
        <ele>921</ele>
        <time>2017-03-01T00:18:59Z</time>
      </trkpt>
      <trkpt lat="44.37436" lon="3.40189">
        <ele>922</ele>
        <time>2017-03-01T00:20:59Z</time>
      </trkpt>
      <trkpt lat="44.37421" lon="3.40177">
        <ele>922</ele>
        <time>2017-03-01T00:22:59Z</time>
      </trkpt>
      <trkpt lat="44.37396" lon="3.40154">
        <ele>924</ele>
        <time>2017-03-01T00:24:59Z</time>
      </trkpt>
      <trkpt lat="44.37382" lon="3.40144">
        <ele>925</ele>
        <time>2017-03-01T00:26:59Z</time>
      </trkpt>
      <trkpt lat="44.37361" lon="3.40128">
        <ele>927</ele>
        <time>2017-03-01T00:28:59Z</time>
      </trkpt>
      <trkpt lat="44.3735" lon="3.40117">
        <ele>928</ele>
        <time>2017-03-01T00:30:59Z</time>
      </trkpt>
      <trkpt lat="44.37341" lon="3.40107">
        <ele>930</ele>
        <time>2017-03-01T00:32:59Z</time>
      </trkpt>
      <trkpt lat="44.37328" lon="3.40094">
        <ele>931</ele>
        <time>2017-03-01T00:34:59Z</time>
      </trkpt>
      <trkpt lat="44.3732" lon="3.40083">
        <ele>933</ele>
        <time>2017-03-01T00:36:59Z</time>
      </trkpt>
      <trkpt lat="44.37311" lon="3.40073">
        <ele>933</ele>
        <time>2017-03-01T00:38:59Z</time>
      </trkpt>
      <trkpt lat="44.37301" lon="3.40066">
        <ele>934</ele>
        <time>2017-03-01T00:40:59Z</time>
      </trkpt>
      <trkpt lat="44.3729" lon="3.40057">
        <ele>934</ele>
        <time>2017-03-01T00:42:59Z</time>
      </trkpt>
      <trkpt lat="44.37275" lon="3.4005">
        <ele>935</ele>
        <time>2017-03-01T00:44:59Z</time>
      </trkpt>
      <trkpt lat="44.37256" lon="3.40043">
        <ele>935</ele>
        <time>2017-03-01T00:46:59Z</time>
      </trkpt>
      <trkpt lat="44.37243" lon="3.4004">
        <ele>936</ele>
        <time>2017-03-01T00:48:59Z</time>
      </trkpt>
      <trkpt lat="44.37212" lon="3.40036">
        <ele>936</ele>
        <time>2017-03-01T00:50:59Z</time>
      </trkpt>
      <trkpt lat="44.372" lon="3.40033">
        <ele>936</ele>
        <time>2017-03-01T00:52:59Z</time>
      </trkpt>
      <trkpt lat="44.37189" lon="3.40031">
        <ele>936</ele>
        <time>2017-03-01T00:54:59Z</time>
      </trkpt>
      <trkpt lat="44.37183" lon="3.40029">
        <ele>936</ele>
        <time>2017-03-01T00:56:59Z</time>
      </trkpt>
      <trkpt lat="44.37178" lon="3.40025">
        <ele>935</ele>
        <time>2017-03-01T00:58:59Z</time>
      </trkpt>
      <trkpt lat="44.37174" lon="3.40019">
        <ele>935</ele>
        <time>2017-03-01T01:00:59Z</time>
      </trkpt>
      <trkpt lat="44.37167" lon="3.40001">
        <ele>935</ele>
        <time>2017-03-01T01:02:59Z</time>
      </trkpt>
      <trkpt lat="44.37161" lon="3.39987">
        <ele>934</ele>
        <time>2017-03-01T01:04:59Z</time>
      </trkpt>
      <trkpt lat="44.37155" lon="3.39982">
        <ele>934</ele>
        <time>2017-03-01T01:06:59Z</time>
      </trkpt>
      <trkpt lat="44.37149" lon="3.3998">
        <ele>934</ele>
        <time>2017-03-01T01:08:59Z</time>
      </trkpt>
      <trkpt lat="44.37138" lon="3.39983">
        <ele>933</ele>
        <time>2017-03-01T01:10:59Z</time>
      </trkpt>
      <trkpt lat="44.37126" lon="3.39985">
        <ele>933</ele>
        <time>2017-03-01T01:12:59Z</time>
      </trkpt>
      <trkpt lat="44.37112" lon="3.39985">
        <ele>933</ele>
        <time>2017-03-01T01:14:59Z</time>
      </trkpt>
      <trkpt lat="44.37096" lon="3.39984">
        <ele>932</ele>
        <time>2017-03-01T01:16:59Z</time>
      </trkpt>
      <trkpt lat="44.37083" lon="3.39981">
        <ele>932</ele>
        <time>2017-03-01T01:18:59Z</time>
      </trkpt>
      <trkpt lat="44.37071" lon="3.39976">
        <ele>931</ele>
        <time>2017-03-01T01:20:59Z</time>
      </trkpt>
      <trkpt lat="44.37058" lon="3.39972">
        <ele>931</ele>
        <time>2017-03-01T01:22:59Z</time>
      </trkpt>
      <trkpt lat="44.37042" lon="3.3997">
        <ele>931</ele>
        <time>2017-03-01T01:24:59Z</time>
      </trkpt>
      <trkpt lat="44.37026" lon="3.39966">
        <ele>930</ele>
        <time>2017-03-01T01:26:59Z</time>
      </trkpt>
      <trkpt lat="44.37005" lon="3.39958">
        <ele>930</ele>
        <time>2017-03-01T01:28:59Z</time>
      </trkpt>
      <trkpt lat="44.36989" lon="3.3995">
        <ele>929</ele>
        <time>2017-03-01T01:30:59Z</time>
      </trkpt>
      <trkpt lat="44.3698" lon="3.39945">
        <ele>929</ele>
        <time>2017-03-01T01:32:59Z</time>
      </trkpt>
      <trkpt lat="44.36972" lon="3.39937">
        <ele>929</ele>
        <time>2017-03-01T01:34:59Z</time>
      </trkpt>
      <trkpt lat="44.36965" lon="3.39933">
        <ele>929</ele>
        <time>2017-03-01T01:36:59Z</time>
      </trkpt>
      <trkpt lat="44.36957" lon="3.3993">
        <ele>929</ele>
        <time>2017-03-01T01:38:59Z</time>
      </trkpt>
      <trkpt lat="44.36948" lon="3.39925">
        <ele>929</ele>
        <time>2017-03-01T01:40:59Z</time>
      </trkpt>
      <trkpt lat="44.36925" lon="3.3991">
        <ele>928</ele>
        <time>2017-03-01T01:42:59Z</time>
      </trkpt>
      <trkpt lat="44.3691" lon="3.39903">
        <ele>928</ele>
        <time>2017-03-01T01:44:59Z</time>
      </trkpt>
      <trkpt lat="44.36895" lon="3.39894">
        <ele>928</ele>
        <time>2017-03-01T01:46:59Z</time>
      </trkpt>
      <trkpt lat="44.36878" lon="3.39882">
        <ele>929</ele>
        <time>2017-03-01T01:48:59Z</time>
      </trkpt>
      <trkpt lat="44.36863" lon="3.39869">
        <ele>929</ele>
        <time>2017-03-01T01:50:59Z</time>
      </trkpt>
      <trkpt lat="44.36849" lon="3.39854">
        <ele>930</ele>
        <time>2017-03-01T01:52:59Z</time>
      </trkpt>
      <trkpt lat="44.36821" lon="3.39826">
        <ele>933</ele>
        <time>2017-03-01T01:54:59Z</time>
      </trkpt>
      <trkpt lat="44.36812" lon="3.39818">
        <ele>933</ele>
        <time>2017-03-01T01:56:59Z</time>
      </trkpt>
      <trkpt lat="44.36801" lon="3.39812">
        <ele>934</ele>
        <time>2017-03-01T01:58:59Z</time>
      </trkpt>
      <trkpt lat="44.36788" lon="3.39806">
        <ele>935</ele>
        <time>2017-03-01T02:00:59Z</time>
      </trkpt>
      <trkpt lat="44.36781" lon="3.398">
        <ele>936</ele>
        <time>2017-03-01T02:02:59Z</time>
      </trkpt>
      <trkpt lat="44.36776" lon="3.39794">
        <ele>936</ele>
        <time>2017-03-01T02:04:59Z</time>
      </trkpt>
      <trkpt lat="44.36773" lon="3.39787">
        <ele>937</ele>
        <time>2017-03-01T02:06:59Z</time>
      </trkpt>
      <trkpt lat="44.3677" lon="3.39776">
        <ele>937</ele>
        <time>2017-03-01T02:08:59Z</time>
      </trkpt>
      <trkpt lat="44.36768" lon="3.39763">
        <ele>938</ele>
        <time>2017-03-01T02:10:59Z</time>
      </trkpt>
      <trkpt lat="44.36765" lon="3.39754">
        <ele>939</ele>
        <time>2017-03-01T02:12:59Z</time>
      </trkpt>
      <trkpt lat="44.36754" lon="3.39736">
        <ele>939</ele>
        <time>2017-03-01T02:14:59Z</time>
      </trkpt>
      <trkpt lat="44.36747" lon="3.39728">
        <ele>939</ele>
        <time>2017-03-01T02:16:59Z</time>
      </trkpt>
      <trkpt lat="44.36738" lon="3.3972">
        <ele>938</ele>
        <time>2017-03-01T02:18:59Z</time>
      </trkpt>
      <trkpt lat="44.36727" lon="3.39715">
        <ele>938</ele>
        <time>2017-03-01T02:20:59Z</time>
      </trkpt>
      <trkpt lat="44.3672" lon="3.39714">
        <ele>938</ele>
        <time>2017-03-01T02:22:59Z</time>
      </trkpt>
      <trkpt lat="44.36706" lon="3.39715">
        <ele>937</ele>
        <time>2017-03-01T02:24:59Z</time>
      </trkpt>
      <trkpt lat="44.36688" lon="3.39719">
        <ele>937</ele>
        <time>2017-03-01T02:26:59Z</time>
      </trkpt>
      <trkpt lat="44.36658" lon="3.39732">
        <ele>936</ele>
        <time>2017-03-01T02:28:59Z</time>
      </trkpt>
      <trkpt lat="44.36624" lon="3.39752">
        <ele>932</ele>
        <time>2017-03-01T02:30:59Z</time>
      </trkpt>
      <trkpt lat="44.36601" lon="3.39767">
        <ele>930</ele>
        <time>2017-03-01T02:32:59Z</time>
      </trkpt>
      <trkpt lat="44.36577" lon="3.39784">
        <ele>928</ele>
        <time>2017-03-01T02:34:59Z</time>
      </trkpt>
      <trkpt lat="44.36554" lon="3.39797">
        <ele>926</ele>
        <time>2017-03-01T02:36:59Z</time>
      </trkpt>
      <trkpt lat="44.36511" lon="3.39823">
        <ele>922</ele>
        <time>2017-03-01T02:38:59Z</time>
      </trkpt>
      <trkpt lat="44.3649" lon="3.39837">
        <ele>920</ele>
        <time>2017-03-01T02:40:59Z</time>
      </trkpt>
      <trkpt lat="44.36448" lon="3.39867">
        <ele>915</ele>
        <time>2017-03-01T02:42:59Z</time>
      </trkpt>
      <trkpt lat="44.36428" lon="3.39879">
        <ele>913</ele>
        <time>2017-03-01T02:44:59Z</time>
      </trkpt>
      <trkpt lat="44.36404" lon="3.39889">
        <ele>911</ele>
        <time>2017-03-01T02:46:59Z</time>
      </trkpt>
      <trkpt lat="44.36383" lon="3.39893">
        <ele>910</ele>
        <time>2017-03-01T02:48:59Z</time>
      </trkpt>
      <trkpt lat="44.3636" lon="3.39893">
        <ele>908</ele>
        <time>2017-03-01T02:50:59Z</time>
      </trkpt>
      <trkpt lat="44.36332" lon="3.3989">
        <ele>905</ele>
        <time>2017-03-01T02:52:59Z</time>
      </trkpt>
      <trkpt lat="44.36316" lon="3.39886">
        <ele>904</ele>
        <time>2017-03-01T02:54:59Z</time>
      </trkpt>
      <trkpt lat="44.363" lon="3.39881">
        <ele>902</ele>
        <time>2017-03-01T02:56:59Z</time>
      </trkpt>
      <trkpt lat="44.36297" lon="3.39879">
        <ele>902</ele>
        <time>2017-03-01T02:58:59Z</time>
      </trkpt>
      <trkpt lat="44.3628" lon="3.39871">
        <ele>900</ele>
        <time>2017-03-01T03:00:59Z</time>
      </trkpt>
      <trkpt lat="44.36266" lon="3.39865">
        <ele>898</ele>
        <time>2017-03-01T03:02:59Z</time>
      </trkpt>
      <trkpt lat="44.36256" lon="3.39862">
        <ele>897</ele>
        <time>2017-03-01T03:04:59Z</time>
      </trkpt>
      <trkpt lat="44.36236" lon="3.39861">
        <ele>896</ele>
        <time>2017-03-01T03:06:59Z</time>
      </trkpt>
      <trkpt lat="44.36217" lon="3.39861">
        <ele>894</ele>
        <time>2017-03-01T03:08:59Z</time>
      </trkpt>
      <trkpt lat="44.36195" lon="3.39858">
        <ele>892</ele>
        <time>2017-03-01T03:10:59Z</time>
      </trkpt>
      <trkpt lat="44.36173" lon="3.39853">
        <ele>889</ele>
        <time>2017-03-01T03:12:59Z</time>
      </trkpt>
      <trkpt lat="44.36157" lon="3.39851">
        <ele>888</ele>
        <time>2017-03-01T03:14:59Z</time>
      </trkpt>
      <trkpt lat="44.36142" lon="3.39851">
        <ele>887</ele>
        <time>2017-03-01T03:16:59Z</time>
      </trkpt>
      <trkpt lat="44.36129" lon="3.39853">
        <ele>886</ele>
        <time>2017-03-01T03:18:59Z</time>
      </trkpt>
      <trkpt lat="44.36115" lon="3.39857">
        <ele>884</ele>
        <time>2017-03-01T03:20:59Z</time>
      </trkpt>
      <trkpt lat="44.36103" lon="3.39862">
        <ele>883</ele>
        <time>2017-03-01T03:22:59Z</time>
      </trkpt>
      <trkpt lat="44.36095" lon="3.39867">
        <ele>883</ele>
        <time>2017-03-01T03:24:59Z</time>
      </trkpt>
      <trkpt lat="44.36086" lon="3.39869">
        <ele>882</ele>
        <time>2017-03-01T03:26:59Z</time>
      </trkpt>
      <trkpt lat="44.36079" lon="3.39869">
        <ele>881</ele>
        <time>2017-03-01T03:28:59Z</time>
      </trkpt>
      <trkpt lat="44.36073" lon="3.39867">
        <ele>880</ele>
        <time>2017-03-01T03:30:59Z</time>
      </trkpt>
      <trkpt lat="44.36067" lon="3.39861">
        <ele>879</ele>
        <time>2017-03-01T03:32:59Z</time>
      </trkpt>
      <trkpt lat="44.36061" lon="3.39853">
        <ele>878</ele>
        <time>2017-03-01T03:34:59Z</time>
      </trkpt>
      <trkpt lat="44.36032" lon="3.398">
        <ele>875</ele>
        <time>2017-03-01T03:36:59Z</time>
      </trkpt>
      <trkpt lat="44.36018" lon="3.39773">
        <ele>873</ele>
        <time>2017-03-01T03:38:59Z</time>
      </trkpt>
      <trkpt lat="44.36011" lon="3.39759">
        <ele>873</ele>
        <time>2017-03-01T03:40:59Z</time>
      </trkpt>
      <trkpt lat="44.36009" lon="3.39751">
        <ele>873</ele>
        <time>2017-03-01T03:42:59Z</time>
      </trkpt>
      <trkpt lat="44.36008" lon="3.39743">
        <ele>872</ele>
        <time>2017-03-01T03:44:59Z</time>
      </trkpt>
      <trkpt lat="44.3601" lon="3.39728">
        <ele>871</ele>
        <time>2017-03-01T03:46:59Z</time>
      </trkpt>
      <trkpt lat="44.36014" lon="3.39721">
        <ele>871</ele>
        <time>2017-03-01T03:48:59Z</time>
      </trkpt>
      <trkpt lat="44.36018" lon="3.39716">
        <ele>870</ele>
        <time>2017-03-01T03:50:59Z</time>
      </trkpt>
      <trkpt lat="44.36023" lon="3.39712">
        <ele>870</ele>
        <time>2017-03-01T03:52:59Z</time>
      </trkpt>
      <trkpt lat="44.36048" lon="3.39696">
        <ele>869</ele>
        <time>2017-03-01T03:54:59Z</time>
      </trkpt>
      <trkpt lat="44.36061" lon="3.39687">
        <ele>869</ele>
        <time>2017-03-01T03:56:59Z</time>
      </trkpt>
      <trkpt lat="44.36075" lon="3.39676">
        <ele>868</ele>
        <time>2017-03-01T03:58:59Z</time>
      </trkpt>
      <trkpt lat="44.36087" lon="3.39665">
        <ele>867</ele>
        <time>2017-03-01T04:00:59Z</time>
      </trkpt>
      <trkpt lat="44.36103" lon="3.39651">
        <ele>865</ele>
        <time>2017-03-01T04:02:59Z</time>
      </trkpt>
      <trkpt lat="44.36119" lon="3.39638">
        <ele>863</ele>
        <time>2017-03-01T04:04:59Z</time>
      </trkpt>
      <trkpt lat="44.36138" lon="3.39624">
        <ele>861</ele>
        <time>2017-03-01T04:06:59Z</time>
      </trkpt>
      <trkpt lat="44.36156" lon="3.39613">
        <ele>859</ele>
        <time>2017-03-01T04:08:59Z</time>
      </trkpt>
      <trkpt lat="44.36171" lon="3.39605">
        <ele>858</ele>
        <time>2017-03-01T04:10:59Z</time>
      </trkpt>
      <trkpt lat="44.36188" lon="3.39598">
        <ele>857</ele>
        <time>2017-03-01T04:12:59Z</time>
      </trkpt>
      <trkpt lat="44.36205" lon="3.39592">
        <ele>856</ele>
        <time>2017-03-01T04:14:59Z</time>
      </trkpt>
      <trkpt lat="44.36226" lon="3.39587">
        <ele>856</ele>
        <time>2017-03-01T04:16:59Z</time>
      </trkpt>
      <trkpt lat="44.36242" lon="3.39581">
        <ele>854</ele>
        <time>2017-03-01T04:18:59Z</time>
      </trkpt>
      <trkpt lat="44.36255" lon="3.39577">
        <ele>854</ele>
        <time>2017-03-01T04:20:59Z</time>
      </trkpt>
      <trkpt lat="44.36272" lon="3.39574">
        <ele>855</ele>
        <time>2017-03-01T04:22:59Z</time>
      </trkpt>
      <trkpt lat="44.36285" lon="3.3957">
        <ele>856</ele>
        <time>2017-03-01T04:24:59Z</time>
      </trkpt>
      <trkpt lat="44.36294" lon="3.39566">
        <ele>856</ele>
        <time>2017-03-01T04:26:59Z</time>
      </trkpt>
      <trkpt lat="44.36306" lon="3.39559">
        <ele>856</ele>
        <time>2017-03-01T04:28:59Z</time>
      </trkpt>
      <trkpt lat="44.36319" lon="3.3955">
        <ele>856</ele>
        <time>2017-03-01T04:30:59Z</time>
      </trkpt>
      <trkpt lat="44.36327" lon="3.39542">
        <ele>856</ele>
        <time>2017-03-01T04:32:59Z</time>
      </trkpt>
      <trkpt lat="44.36332" lon="3.39535">
        <ele>855</ele>
        <time>2017-03-01T04:34:59Z</time>
      </trkpt>
      <trkpt lat="44.36336" lon="3.39525">
        <ele>854</ele>
        <time>2017-03-01T04:36:59Z</time>
      </trkpt>
      <trkpt lat="44.36336" lon="3.39522">
        <ele>854</ele>
        <time>2017-03-01T04:38:59Z</time>
      </trkpt>
      <trkpt lat="44.36337" lon="3.39514">
        <ele>853</ele>
        <time>2017-03-01T04:40:59Z</time>
      </trkpt>
      <trkpt lat="44.36337" lon="3.39504">
        <ele>851</ele>
        <time>2017-03-01T04:42:59Z</time>
      </trkpt>
      <trkpt lat="44.36338" lon="3.39497">
        <ele>851</ele>
        <time>2017-03-01T04:44:59Z</time>
      </trkpt>
      <trkpt lat="44.36344" lon="3.39479">
        <ele>850</ele>
        <time>2017-03-01T04:46:59Z</time>
      </trkpt>
      <trkpt lat="44.3635" lon="3.39457">
        <ele>849</ele>
        <time>2017-03-01T04:48:59Z</time>
      </trkpt>
      <trkpt lat="44.36356" lon="3.39438">
        <ele>849</ele>
        <time>2017-03-01T04:50:59Z</time>
      </trkpt>
      <trkpt lat="44.36361" lon="3.39417">
        <ele>848</ele>
        <time>2017-03-01T04:52:59Z</time>
      </trkpt>
      <trkpt lat="44.3637" lon="3.39398">
        <ele>848</ele>
        <time>2017-03-01T04:54:59Z</time>
      </trkpt>
      <trkpt lat="44.3637" lon="3.39397">
        <ele>848</ele>
        <time>2017-03-01T04:56:59Z</time>
      </trkpt>
      <trkpt lat="44.36381" lon="3.39374">
        <ele>847</ele>
        <time>2017-03-01T04:58:59Z</time>
      </trkpt>
      <trkpt lat="44.36404" lon="3.39328">
        <ele>847</ele>
        <time>2017-03-01T05:00:59Z</time>
      </trkpt>
      <trkpt lat="44.36421" lon="3.393">
        <ele>845</ele>
        <time>2017-03-01T05:02:59Z</time>
      </trkpt>
      <trkpt lat="44.3643" lon="3.39287">
        <ele>844</ele>
        <time>2017-03-01T05:04:59Z</time>
      </trkpt>
      <trkpt lat="44.36443" lon="3.39269">
        <ele>843</ele>
        <time>2017-03-01T05:06:59Z</time>
      </trkpt>
      <trkpt lat="44.36458" lon="3.39245">
        <ele>841</ele>
        <time>2017-03-01T05:08:59Z</time>
      </trkpt>
      <trkpt lat="44.36474" lon="3.39221">
        <ele>839</ele>
        <time>2017-03-01T05:10:59Z</time>
      </trkpt>
      <trkpt lat="44.36486" lon="3.39201">
        <ele>837</ele>
        <time>2017-03-01T05:12:59Z</time>
      </trkpt>
      <trkpt lat="44.36498" lon="3.39177">
        <ele>835</ele>
        <time>2017-03-01T05:14:59Z</time>
      </trkpt>
      <trkpt lat="44.3651" lon="3.39152">
        <ele>832</ele>
        <time>2017-03-01T05:16:59Z</time>
      </trkpt>
      <trkpt lat="44.36521" lon="3.39126">
        <ele>828</ele>
        <time>2017-03-01T05:18:59Z</time>
      </trkpt>
      <trkpt lat="44.36527" lon="3.39113">
        <ele>826</ele>
        <time>2017-03-01T05:20:59Z</time>
      </trkpt>
      <trkpt lat="44.36531" lon="3.39105">
        <ele>825</ele>
        <time>2017-03-01T05:22:59Z</time>
      </trkpt>
      <trkpt lat="44.36545" lon="3.39086">
        <ele>823</ele>
        <time>2017-03-01T05:24:59Z</time>
      </trkpt>
      <trkpt lat="44.36566" lon="3.39063">
        <ele>821</ele>
        <time>2017-03-01T05:26:59Z</time>
      </trkpt>
      <trkpt lat="44.36604" lon="3.39027">
        <ele>815</ele>
        <time>2017-03-01T05:28:59Z</time>
      </trkpt>
      <trkpt lat="44.36614" lon="3.39019">
        <ele>814</ele>
        <time>2017-03-01T05:30:59Z</time>
      </trkpt>
      <trkpt lat="44.36625" lon="3.39009">
        <ele>811</ele>
        <time>2017-03-01T05:32:59Z</time>
      </trkpt>
      <trkpt lat="44.36635" lon="3.38999">
        <ele>810</ele>
        <time>2017-03-01T05:34:59Z</time>
      </trkpt>
      <trkpt lat="44.36647" lon="3.38986">
        <ele>808</ele>
        <time>2017-03-01T05:36:59Z</time>
      </trkpt>
      <trkpt lat="44.36684" lon="3.38958">
        <ele>803</ele>
        <time>2017-03-01T05:38:59Z</time>
      </trkpt>
      <trkpt lat="44.36697" lon="3.38947">
        <ele>801</ele>
        <time>2017-03-01T05:40:59Z</time>
      </trkpt>
      <trkpt lat="44.36742" lon="3.3891">
        <ele>796</ele>
        <time>2017-03-01T05:42:59Z</time>
      </trkpt>
      <trkpt lat="44.36754" lon="3.38903">
        <ele>797</ele>
        <time>2017-03-01T05:44:59Z</time>
      </trkpt>
      <trkpt lat="44.3676" lon="3.389">
        <ele>798</ele>
        <time>2017-03-01T05:46:59Z</time>
      </trkpt>
      <trkpt lat="44.36762" lon="3.38894">
        <ele>798</ele>
        <time>2017-03-01T05:48:59Z</time>
      </trkpt>
      <trkpt lat="44.36762" lon="3.3889">
        <ele>798</ele>
        <time>2017-03-01T05:50:59Z</time>
      </trkpt>
      <trkpt lat="44.3676" lon="3.38885">
        <ele>798</ele>
        <time>2017-03-01T05:52:59Z</time>
      </trkpt>
      <trkpt lat="44.36742" lon="3.3887">
        <ele>799</ele>
        <time>2017-03-01T05:54:59Z</time>
      </trkpt>
      <trkpt lat="44.3675" lon="3.38869">
        <ele>799</ele>
        <time>2017-03-01T05:56:59Z</time>
      </trkpt>
      <trkpt lat="44.36746" lon="3.38864">
        <ele>799</ele>
        <time>2017-03-01T05:58:59Z</time>
      </trkpt>
      <trkpt lat="44.36739" lon="3.3886">
        <ele>799</ele>
        <time>2017-03-01T06:00:59Z</time>
      </trkpt>
      <trkpt lat="44.36725" lon="3.38853">
        <ele>800</ele>
        <time>2017-03-01T06:02:59Z</time>
      </trkpt>
      <trkpt lat="44.3671" lon="3.38848">
        <ele>801</ele>
        <time>2017-03-01T06:04:59Z</time>
      </trkpt>
      <trkpt lat="44.36696" lon="3.38846">
        <ele>801</ele>
        <time>2017-03-01T06:06:59Z</time>
      </trkpt>
      <trkpt lat="44.36669" lon="3.38841">
        <ele>802</ele>
        <time>2017-03-01T06:08:59Z</time>
      </trkpt>
      <trkpt lat="44.36653" lon="3.38835">
        <ele>802</ele>
        <time>2017-03-01T06:10:59Z</time>
      </trkpt>
      <trkpt lat="44.36647" lon="3.38834">
        <ele>802</ele>
        <time>2017-03-01T06:12:59Z</time>
      </trkpt>
      <trkpt lat="44.36637" lon="3.38831">
        <ele>803</ele>
        <time>2017-03-01T06:14:59Z</time>
      </trkpt>
      <trkpt lat="44.36609" lon="3.38826">
        <ele>804</ele>
        <time>2017-03-01T06:16:59Z</time>
      </trkpt>
      <trkpt lat="44.36567" lon="3.3882">
        <ele>805</ele>
        <time>2017-03-01T06:18:59Z</time>
      </trkpt>
      <trkpt lat="44.36539" lon="3.38815">
        <ele>805</ele>
        <time>2017-03-01T06:20:59Z</time>
      </trkpt>
      <trkpt lat="44.36512" lon="3.38815">
        <ele>804</ele>
        <time>2017-03-01T06:22:59Z</time>
      </trkpt>
      <trkpt lat="44.36478" lon="3.38816">
        <ele>804</ele>
        <time>2017-03-01T06:24:59Z</time>
      </trkpt>
      <trkpt lat="44.36452" lon="3.38813">
        <ele>806</ele>
        <time>2017-03-01T06:26:59Z</time>
      </trkpt>
      <trkpt lat="44.36436" lon="3.38812">
        <ele>806</ele>
        <time>2017-03-01T06:28:59Z</time>
      </trkpt>
      <trkpt lat="44.36414" lon="3.38813">
        <ele>807</ele>
        <time>2017-03-01T06:30:59Z</time>
      </trkpt>
      <trkpt lat="44.36379" lon="3.38812">
        <ele>806</ele>
        <time>2017-03-01T06:32:59Z</time>
      </trkpt>
      <trkpt lat="44.36363" lon="3.38811">
        <ele>806</ele>
        <time>2017-03-01T06:34:59Z</time>
      </trkpt>
      <trkpt lat="44.36352" lon="3.3881">
        <ele>806</ele>
        <time>2017-03-01T06:36:59Z</time>
      </trkpt>
      <trkpt lat="44.36338" lon="3.38812">
        <ele>806</ele>
        <time>2017-03-01T06:38:59Z</time>
      </trkpt>
      <trkpt lat="44.36331" lon="3.38811">
        <ele>806</ele>
        <time>2017-03-01T06:40:59Z</time>
      </trkpt>
      <trkpt lat="44.36321" lon="3.38806">
        <ele>805</ele>
        <time>2017-03-01T06:42:59Z</time>
      </trkpt>
      <trkpt lat="44.36314" lon="3.38797">
        <ele>806</ele>
        <time>2017-03-01T06:44:59Z</time>
      </trkpt>
      <trkpt lat="44.36286" lon="3.38785">
        <ele>804</ele>
        <time>2017-03-01T06:46:59Z</time>
      </trkpt>
      <trkpt lat="44.36278" lon="3.38776">
        <ele>804</ele>
        <time>2017-03-01T06:48:59Z</time>
      </trkpt>
      <trkpt lat="44.36259" lon="3.38757">
        <ele>802</ele>
        <time>2017-03-01T06:50:59Z</time>
      </trkpt>
      <trkpt lat="44.36247" lon="3.38744">
        <ele>801</ele>
        <time>2017-03-01T06:52:59Z</time>
      </trkpt>
      <trkpt lat="44.36236" lon="3.3873">
        <ele>802</ele>
        <time>2017-03-01T06:54:59Z</time>
      </trkpt>
      <trkpt lat="44.36226" lon="3.38714">
        <ele>803</ele>
        <time>2017-03-01T06:56:59Z</time>
      </trkpt>
      <trkpt lat="44.36209" lon="3.38704">
        <ele>804</ele>
        <time>2017-03-01T06:58:59Z</time>
      </trkpt>
      <trkpt lat="44.36181" lon="3.387">
        <ele>806</ele>
        <time>2017-03-01T07:00:59Z</time>
      </trkpt>
      <trkpt lat="44.36164" lon="3.38692">
        <ele>807</ele>
        <time>2017-03-01T07:02:59Z</time>
      </trkpt>
      <trkpt lat="44.36146" lon="3.38673">
        <ele>810</ele>
        <time>2017-03-01T07:04:59Z</time>
      </trkpt>
      <trkpt lat="44.36124" lon="3.38648">
        <ele>812</ele>
        <time>2017-03-01T07:06:59Z</time>
      </trkpt>
      <trkpt lat="44.361" lon="3.38623">
        <ele>814</ele>
        <time>2017-03-01T07:08:59Z</time>
      </trkpt>
      <trkpt lat="44.36083" lon="3.38608">
        <ele>816</ele>
        <time>2017-03-01T07:10:59Z</time>
      </trkpt>
      <trkpt lat="44.36063" lon="3.38585">
        <ele>816</ele>
        <time>2017-03-01T07:12:59Z</time>
      </trkpt>
      <trkpt lat="44.36049" lon="3.38568">
        <ele>816</ele>
        <time>2017-03-01T07:14:59Z</time>
      </trkpt>
      <trkpt lat="44.36038" lon="3.3856">
        <ele>816</ele>
        <time>2017-03-01T07:16:59Z</time>
      </trkpt>
      <trkpt lat="44.36004" lon="3.38537">
        <ele>817</ele>
        <time>2017-03-01T07:18:59Z</time>
      </trkpt>
      <trkpt lat="44.35989" lon="3.38525">
        <ele>817</ele>
        <time>2017-03-01T07:20:59Z</time>
      </trkpt>
      <trkpt lat="44.35968" lon="3.38522">
        <ele>818</ele>
        <time>2017-03-01T07:22:59Z</time>
      </trkpt>
      <trkpt lat="44.35955" lon="3.38518">
        <ele>819</ele>
        <time>2017-03-01T07:24:59Z</time>
      </trkpt>
      <trkpt lat="44.35945" lon="3.38514">
        <ele>819</ele>
        <time>2017-03-01T07:26:59Z</time>
      </trkpt>
      <trkpt lat="44.35915" lon="3.38499">
        <ele>821</ele>
        <time>2017-03-01T07:28:59Z</time>
      </trkpt>
      <trkpt lat="44.35902" lon="3.38493">
        <ele>823</ele>
        <time>2017-03-01T07:30:59Z</time>
      </trkpt>
      <trkpt lat="44.35892" lon="3.38492">
        <ele>825</ele>
        <time>2017-03-01T07:32:59Z</time>
      </trkpt>
      <trkpt lat="44.35883" lon="3.3849">
        <ele>826</ele>
        <time>2017-03-01T07:34:59Z</time>
      </trkpt>
      <trkpt lat="44.35869" lon="3.38485">
        <ele>829</ele>
        <time>2017-03-01T07:36:59Z</time>
      </trkpt>
      <trkpt lat="44.35862" lon="3.38479">
        <ele>829</ele>
        <time>2017-03-01T07:38:59Z</time>
      </trkpt>
      <trkpt lat="44.35858" lon="3.38473">
        <ele>829</ele>
        <time>2017-03-01T07:40:59Z</time>
      </trkpt>
      <trkpt lat="44.35855" lon="3.38465">
        <ele>829</ele>
        <time>2017-03-01T07:42:59Z</time>
      </trkpt>
      <trkpt lat="44.35854" lon="3.38454">
        <ele>828</ele>
        <time>2017-03-01T07:44:59Z</time>
      </trkpt>
      <trkpt lat="44.35854" lon="3.3844">
        <ele>827</ele>
        <time>2017-03-01T07:46:59Z</time>
      </trkpt>
      <trkpt lat="44.35855" lon="3.38429">
        <ele>826</ele>
        <time>2017-03-01T07:48:59Z</time>
      </trkpt>
      <trkpt lat="44.35857" lon="3.38416">
        <ele>824</ele>
        <time>2017-03-01T07:50:59Z</time>
      </trkpt>
      <trkpt lat="44.35861" lon="3.38398">
        <ele>821</ele>
        <time>2017-03-01T07:52:59Z</time>
      </trkpt>
      <trkpt lat="44.35863" lon="3.38386">
        <ele>820</ele>
        <time>2017-03-01T07:54:59Z</time>
      </trkpt>
      <trkpt lat="44.35862" lon="3.38373">
        <ele>819</ele>
        <time>2017-03-01T07:56:59Z</time>
      </trkpt>
      <trkpt lat="44.35858" lon="3.38358">
        <ele>818</ele>
        <time>2017-03-01T07:58:59Z</time>
      </trkpt>
      <trkpt lat="44.35853" lon="3.38347">
        <ele>818</ele>
        <time>2017-03-01T08:00:59Z</time>
      </trkpt>
      <trkpt lat="44.35844" lon="3.38334">
        <ele>818</ele>
        <time>2017-03-01T08:02:59Z</time>
      </trkpt>
      <trkpt lat="44.35836" lon="3.38325">
        <ele>818</ele>
        <time>2017-03-01T08:04:59Z</time>
      </trkpt>
      <trkpt lat="44.35824" lon="3.38315">
        <ele>818</ele>
        <time>2017-03-01T08:06:59Z</time>
      </trkpt>
      <trkpt lat="44.35814" lon="3.38309">
        <ele>819</ele>
        <time>2017-03-01T08:08:59Z</time>
      </trkpt>
      <trkpt lat="44.35806" lon="3.38303">
        <ele>819</ele>
        <time>2017-03-01T08:10:59Z</time>
      </trkpt>
      <trkpt lat="44.35801" lon="3.38298">
        <ele>819</ele>
        <time>2017-03-01T08:12:59Z</time>
      </trkpt>
      <trkpt lat="44.35794" lon="3.3828">
        <ele>819</ele>
        <time>2017-03-01T08:14:59Z</time>
      </trkpt>
      <trkpt lat="44.35792" lon="3.3827">
        <ele>819</ele>
        <time>2017-03-01T08:16:59Z</time>
      </trkpt>
      <trkpt lat="44.35789" lon="3.38264">
        <ele>819</ele>
        <time>2017-03-01T08:18:59Z</time>
      </trkpt>
      <trkpt lat="44.35784" lon="3.38256">
        <ele>819</ele>
        <time>2017-03-01T08:20:59Z</time>
      </trkpt>
      <trkpt lat="44.35777" lon="3.38249">
        <ele>820</ele>
        <time>2017-03-01T08:22:59Z</time>
      </trkpt>
      <trkpt lat="44.35768" lon="3.38242">
        <ele>821</ele>
        <time>2017-03-01T08:24:59Z</time>
      </trkpt>
      <trkpt lat="44.35749" lon="3.3823">
        <ele>822</ele>
        <time>2017-03-01T08:26:59Z</time>
      </trkpt>
      <trkpt lat="44.35734" lon="3.38221">
        <ele>824</ele>
        <time>2017-03-01T08:28:59Z</time>
      </trkpt>
      <trkpt lat="44.35723" lon="3.38211">
        <ele>825</ele>
        <time>2017-03-01T08:30:59Z</time>
      </trkpt>
      <trkpt lat="44.35715" lon="3.38202">
        <ele>826</ele>
        <time>2017-03-01T08:32:59Z</time>
      </trkpt>
      <trkpt lat="44.35699" lon="3.38186">
        <ele>828</ele>
        <time>2017-03-01T08:34:59Z</time>
      </trkpt>
      <trkpt lat="44.3569" lon="3.38181">
        <ele>830</ele>
        <time>2017-03-01T08:36:59Z</time>
      </trkpt>
      <trkpt lat="44.35681" lon="3.38175">
        <ele>831</ele>
        <time>2017-03-01T08:38:59Z</time>
      </trkpt>
      <trkpt lat="44.35669" lon="3.38166">
        <ele>834</ele>
        <time>2017-03-01T08:40:59Z</time>
      </trkpt>
      <trkpt lat="44.35651" lon="3.38149">
        <ele>837</ele>
        <time>2017-03-01T08:42:59Z</time>
      </trkpt>
      <trkpt lat="44.35605" lon="3.38098">
        <ele>846</ele>
        <time>2017-03-01T08:44:59Z</time>
      </trkpt>
      <trkpt lat="44.3559" lon="3.38082">
        <ele>849</ele>
        <time>2017-03-01T08:46:59Z</time>
      </trkpt>
      <trkpt lat="44.35583" lon="3.38073">
        <ele>851</ele>
        <time>2017-03-01T08:48:59Z</time>
      </trkpt>
      <trkpt lat="44.35579" lon="3.38063">
        <ele>852</ele>
        <time>2017-03-01T08:50:59Z</time>
      </trkpt>
      <trkpt lat="44.35574" lon="3.38048">
        <ele>852</ele>
        <time>2017-03-01T08:52:59Z</time>
      </trkpt>
      <trkpt lat="44.35568" lon="3.38022">
        <ele>853</ele>
        <time>2017-03-01T08:54:59Z</time>
      </trkpt>
      <trkpt lat="44.35563" lon="3.37995">
        <ele>854</ele>
        <time>2017-03-01T08:56:59Z</time>
      </trkpt>
      <trkpt lat="44.3556" lon="3.37974">
        <ele>856</ele>
        <time>2017-03-01T08:58:59Z</time>
      </trkpt>
      <trkpt lat="44.3556" lon="3.37956">
        <ele>857</ele>
        <time>2017-03-01T09:00:59Z</time>
      </trkpt>
      <trkpt lat="44.35559" lon="3.37934">
        <ele>858</ele>
        <time>2017-03-01T09:02:59Z</time>
      </trkpt>
      <trkpt lat="44.35559" lon="3.37912">
        <ele>859</ele>
        <time>2017-03-01T09:04:59Z</time>
      </trkpt>
      <trkpt lat="44.35557" lon="3.37903">
        <ele>859</ele>
        <time>2017-03-01T09:06:59Z</time>
      </trkpt>
      <trkpt lat="44.35553" lon="3.37889">
        <ele>860</ele>
        <time>2017-03-01T09:08:59Z</time>
      </trkpt>
      <trkpt lat="44.35546" lon="3.37871">
        <ele>861</ele>
        <time>2017-03-01T09:10:59Z</time>
      </trkpt>
      <trkpt lat="44.35542" lon="3.37858">
        <ele>861</ele>
        <time>2017-03-01T09:12:59Z</time>
      </trkpt>
      <trkpt lat="44.35542" lon="3.37836">
        <ele>861</ele>
        <time>2017-03-01T09:14:59Z</time>
      </trkpt>
      <trkpt lat="44.35544" lon="3.37826">
        <ele>860</ele>
        <time>2017-03-01T09:16:59Z</time>
      </trkpt>
      <trkpt lat="44.35567" lon="3.37773">
        <ele>856</ele>
        <time>2017-03-01T09:18:59Z</time>
      </trkpt>
      <trkpt lat="44.35571" lon="3.3776">
        <ele>855</ele>
        <time>2017-03-01T09:20:59Z</time>
      </trkpt>
      <trkpt lat="44.35574" lon="3.37748">
        <ele>854</ele>
        <time>2017-03-01T09:22:59Z</time>
      </trkpt>
      <trkpt lat="44.35582" lon="3.37713">
        <ele>852</ele>
        <time>2017-03-01T09:24:59Z</time>
      </trkpt>
      <trkpt lat="44.35587" lon="3.37675">
        <ele>848</ele>
        <time>2017-03-01T09:26:59Z</time>
      </trkpt>
      <trkpt lat="44.35591" lon="3.37656">
        <ele>847</ele>
        <time>2017-03-01T09:28:59Z</time>
      </trkpt>
      <trkpt lat="44.35599" lon="3.37631">
        <ele>847</ele>
        <time>2017-03-01T09:30:59Z</time>
      </trkpt>
      <trkpt lat="44.35612" lon="3.37602">
        <ele>846</ele>
        <time>2017-03-01T09:32:59Z</time>
      </trkpt>
      <trkpt lat="44.35614" lon="3.37587">
        <ele>845</ele>
        <time>2017-03-01T09:34:59Z</time>
      </trkpt>
      <trkpt lat="44.35614" lon="3.3757">
        <ele>844</ele>
        <time>2017-03-01T09:36:59Z</time>
      </trkpt>
      <trkpt lat="44.35617" lon="3.37543">
        <ele>843</ele>
        <time>2017-03-01T09:38:59Z</time>
      </trkpt>
      <trkpt lat="44.35621" lon="3.37494">
        <ele>841</ele>
        <time>2017-03-01T09:40:59Z</time>
      </trkpt>
      <trkpt lat="44.35624" lon="3.37465">
        <ele>841</ele>
        <time>2017-03-01T09:42:59Z</time>
      </trkpt>
      <trkpt lat="44.35623" lon="3.37454">
        <ele>840</ele>
        <time>2017-03-01T09:44:59Z</time>
      </trkpt>
      <trkpt lat="44.35622" lon="3.37447">
        <ele>840</ele>
        <time>2017-03-01T09:46:59Z</time>
      </trkpt>
      <trkpt lat="44.35617" lon="3.37437">
        <ele>840</ele>
        <time>2017-03-01T09:48:59Z</time>
      </trkpt>
      <trkpt lat="44.35609" lon="3.37423">
        <ele>840</ele>
        <time>2017-03-01T09:50:59Z</time>
      </trkpt>
      <trkpt lat="44.35594" lon="3.37402">
        <ele>840</ele>
        <time>2017-03-01T09:52:59Z</time>
      </trkpt>
      <trkpt lat="44.35587" lon="3.37394">
        <ele>840</ele>
        <time>2017-03-01T09:54:59Z</time>
      </trkpt>
      <trkpt lat="44.3558" lon="3.37391">
        <ele>840</ele>
        <time>2017-03-01T09:56:59Z</time>
      </trkpt>
      <trkpt lat="44.35566" lon="3.37388">
        <ele>841</ele>
        <time>2017-03-01T09:58:59Z</time>
      </trkpt>
      <trkpt lat="44.35547" lon="3.37386">
        <ele>841</ele>
        <time>2017-03-01T10:00:59Z</time>
      </trkpt>
      <trkpt lat="44.35553" lon="3.37378">
        <ele>841</ele>
        <time>2017-03-01T10:02:59Z</time>
      </trkpt>
      <trkpt lat="44.35536" lon="3.37377">
        <ele>841</ele>
        <time>2017-03-01T10:04:59Z</time>
      </trkpt>
      <trkpt lat="44.35529" lon="3.37376">
        <ele>841</ele>
        <time>2017-03-01T10:06:59Z</time>
      </trkpt>
      <trkpt lat="44.35524" lon="3.37374">
        <ele>842</ele>
        <time>2017-03-01T10:08:59Z</time>
      </trkpt>
      <trkpt lat="44.35518" lon="3.37367">
        <ele>842</ele>
        <time>2017-03-01T10:10:59Z</time>
      </trkpt>
      <trkpt lat="44.3551" lon="3.3736">
        <ele>842</ele>
        <time>2017-03-01T10:12:59Z</time>
      </trkpt>
      <trkpt lat="44.35502" lon="3.37357">
        <ele>843</ele>
        <time>2017-03-01T10:14:59Z</time>
      </trkpt>
      <trkpt lat="44.35492" lon="3.37352">
        <ele>843</ele>
        <time>2017-03-01T10:16:59Z</time>
      </trkpt>
      <trkpt lat="44.35486" lon="3.37347">
        <ele>843</ele>
        <time>2017-03-01T10:18:59Z</time>
      </trkpt>
      <trkpt lat="44.35476" lon="3.37334">
        <ele>843</ele>
        <time>2017-03-01T10:20:59Z</time>
      </trkpt>
      <trkpt lat="44.35471" lon="3.37329">
        <ele>843</ele>
        <time>2017-03-01T10:22:59Z</time>
      </trkpt>
      <trkpt lat="44.35463" lon="3.37322">
        <ele>843</ele>
        <time>2017-03-01T10:24:59Z</time>
      </trkpt>
      <trkpt lat="44.35459" lon="3.37316">
        <ele>843</ele>
        <time>2017-03-01T10:26:59Z</time>
      </trkpt>
      <trkpt lat="44.35453" lon="3.37305">
        <ele>844</ele>
        <time>2017-03-01T10:28:59Z</time>
      </trkpt>
      <trkpt lat="44.35446" lon="3.37288">
        <ele>845</ele>
        <time>2017-03-01T10:30:59Z</time>
      </trkpt>
      <trkpt lat="44.35426" lon="3.37256">
        <ele>849</ele>
        <time>2017-03-01T10:32:59Z</time>
      </trkpt>
      <trkpt lat="44.35418" lon="3.37245">
        <ele>851</ele>
        <time>2017-03-01T10:34:59Z</time>
      </trkpt>
      <trkpt lat="44.35413" lon="3.37222">
        <ele>851</ele>
        <time>2017-03-01T10:36:59Z</time>
      </trkpt>
      <trkpt lat="44.3541" lon="3.37206">
        <ele>850</ele>
        <time>2017-03-01T10:38:59Z</time>
      </trkpt>
      <trkpt lat="44.35408" lon="3.37185">
        <ele>850</ele>
        <time>2017-03-01T10:40:59Z</time>
      </trkpt>
      <trkpt lat="44.35408" lon="3.37172">
        <ele>850</ele>
        <time>2017-03-01T10:42:59Z</time>
      </trkpt>
      <trkpt lat="44.3541" lon="3.37157">
        <ele>849</ele>
        <time>2017-03-01T10:44:59Z</time>
      </trkpt>
      <trkpt lat="44.35418" lon="3.37129">
        <ele>847</ele>
        <time>2017-03-01T10:46:59Z</time>
      </trkpt>
      <trkpt lat="44.3543" lon="3.37095">
        <ele>845</ele>
        <time>2017-03-01T10:48:59Z</time>
      </trkpt>
      <trkpt lat="44.35439" lon="3.37075">
        <ele>844</ele>
        <time>2017-03-01T10:50:59Z</time>
      </trkpt>
      <trkpt lat="44.35445" lon="3.37065">
        <ele>843</ele>
        <time>2017-03-01T10:52:59Z</time>
      </trkpt>
      <trkpt lat="44.35457" lon="3.37048">
        <ele>844</ele>
        <time>2017-03-01T10:54:59Z</time>
      </trkpt>
      <trkpt lat="44.35459" lon="3.37043">
        <ele>844</ele>
        <time>2017-03-01T10:56:59Z</time>
      </trkpt>
      <trkpt lat="44.35467" lon="3.37028">
        <ele>845</ele>
        <time>2017-03-01T10:58:59Z</time>
      </trkpt>
      <trkpt lat="44.3548" lon="3.37006">
        <ele>847</ele>
        <time>2017-03-01T11:00:59Z</time>
      </trkpt>
      <trkpt lat="44.35496" lon="3.36974">
        <ele>850</ele>
        <time>2017-03-01T11:02:59Z</time>
      </trkpt>
      <trkpt lat="44.35512" lon="3.36944">
        <ele>854</ele>
        <time>2017-03-01T11:04:59Z</time>
      </trkpt>
      <trkpt lat="44.35533" lon="3.36906">
        <ele>860</ele>
        <time>2017-03-01T11:06:59Z</time>
      </trkpt>
      <trkpt lat="44.35542" lon="3.36888">
        <ele>864</ele>
        <time>2017-03-01T11:08:59Z</time>
      </trkpt>
      <trkpt lat="44.35548" lon="3.36877">
        <ele>866</ele>
        <time>2017-03-01T11:10:59Z</time>
      </trkpt>
      <trkpt lat="44.3555" lon="3.36871">
        <ele>866</ele>
        <time>2017-03-01T11:12:59Z</time>
      </trkpt>
      <trkpt lat="44.3555" lon="3.36864">
        <ele>867</ele>
        <time>2017-03-01T11:14:59Z</time>
      </trkpt>
      <trkpt lat="44.35549" lon="3.36858">
        <ele>867</ele>
        <time>2017-03-01T11:16:59Z</time>
      </trkpt>
      <trkpt lat="44.35548" lon="3.36855">
        <ele>866</ele>
        <time>2017-03-01T11:18:59Z</time>
      </trkpt>
      <trkpt lat="44.35539" lon="3.36837">
        <ele>865</ele>
        <time>2017-03-01T11:20:59Z</time>
      </trkpt>
      <trkpt lat="44.35534" lon="3.36825">
        <ele>864</ele>
        <time>2017-03-01T11:22:59Z</time>
      </trkpt>
      <trkpt lat="44.35531" lon="3.36816">
        <ele>863</ele>
        <time>2017-03-01T11:24:59Z</time>
      </trkpt>
      <trkpt lat="44.35529" lon="3.36804">
        <ele>863</ele>
        <time>2017-03-01T11:26:59Z</time>
      </trkpt>
      <trkpt lat="44.35528" lon="3.36794">
        <ele>863</ele>
        <time>2017-03-01T11:28:59Z</time>
      </trkpt>
      <trkpt lat="44.35526" lon="3.36789">
        <ele>862</ele>
        <time>2017-03-01T11:30:59Z</time>
      </trkpt>
      <trkpt lat="44.35523" lon="3.36785">
        <ele>862</ele>
        <time>2017-03-01T11:32:59Z</time>
      </trkpt>
      <trkpt lat="44.35516" lon="3.36782">
        <ele>860</ele>
        <time>2017-03-01T11:34:59Z</time>
      </trkpt>
      <trkpt lat="44.35506" lon="3.36782">
        <ele>857</ele>
        <time>2017-03-01T11:36:59Z</time>
      </trkpt>
      <trkpt lat="44.35479" lon="3.36789">
        <ele>856</ele>
        <time>2017-03-01T11:38:59Z</time>
      </trkpt>
      <trkpt lat="44.35472" lon="3.36789">
        <ele>856</ele>
        <time>2017-03-01T11:40:59Z</time>
      </trkpt>
      <trkpt lat="44.35466" lon="3.36788">
        <ele>856</ele>
        <time>2017-03-01T11:42:59Z</time>
      </trkpt>
      <trkpt lat="44.35461" lon="3.36786">
        <ele>856</ele>
        <time>2017-03-01T11:44:59Z</time>
      </trkpt>
      <trkpt lat="44.35453" lon="3.36781">
        <ele>857</ele>
        <time>2017-03-01T11:46:59Z</time>
      </trkpt>
      <trkpt lat="44.35437" lon="3.36769">
        <ele>858</ele>
        <time>2017-03-01T11:48:59Z</time>
      </trkpt>
      <trkpt lat="44.35432" lon="3.36763">
        <ele>859</ele>
        <time>2017-03-01T11:50:59Z</time>
      </trkpt>
      <trkpt lat="44.35428" lon="3.36755">
        <ele>860</ele>
        <time>2017-03-01T11:52:59Z</time>
      </trkpt>
      <trkpt lat="44.35424" lon="3.36745">
        <ele>860</ele>
        <time>2017-03-01T11:54:59Z</time>
      </trkpt>
      <trkpt lat="44.35416" lon="3.36728">
        <ele>861</ele>
        <time>2017-03-01T11:56:59Z</time>
      </trkpt>
      <trkpt lat="44.35409" lon="3.36716">
        <ele>861</ele>
        <time>2017-03-01T11:58:59Z</time>
      </trkpt>
      <trkpt lat="44.35397" lon="3.3669">
        <ele>862</ele>
        <time>2017-03-01T12:00:59Z</time>
      </trkpt>
      <trkpt lat="44.35392" lon="3.36675">
        <ele>863</ele>
        <time>2017-03-01T12:02:59Z</time>
      </trkpt>
      <trkpt lat="44.3539" lon="3.36662">
        <ele>863</ele>
        <time>2017-03-01T12:04:59Z</time>
      </trkpt>
      <trkpt lat="44.35389" lon="3.36651">
        <ele>863</ele>
        <time>2017-03-01T12:06:59Z</time>
      </trkpt>
      <trkpt lat="44.3539" lon="3.3664">
        <ele>862</ele>
        <time>2017-03-01T12:08:59Z</time>
      </trkpt>
      <trkpt lat="44.35392" lon="3.36629">
        <ele>861</ele>
        <time>2017-03-01T12:10:59Z</time>
      </trkpt>
      <trkpt lat="44.35396" lon="3.36612">
        <ele>860</ele>
        <time>2017-03-01T12:12:59Z</time>
      </trkpt>
      <trkpt lat="44.35401" lon="3.36584">
        <ele>858</ele>
        <time>2017-03-01T12:14:59Z</time>
      </trkpt>
      <trkpt lat="44.35409" lon="3.36549">
        <ele>858</ele>
        <time>2017-03-01T12:16:59Z</time>
      </trkpt>
      <trkpt lat="44.3541" lon="3.36539">
        <ele>858</ele>
        <time>2017-03-01T12:18:59Z</time>
      </trkpt>
      <trkpt lat="44.3541" lon="3.36528">
        <ele>858</ele>
        <time>2017-03-01T12:20:59Z</time>
      </trkpt>
      <trkpt lat="44.35409" lon="3.36512">
        <ele>858</ele>
        <time>2017-03-01T12:22:59Z</time>
      </trkpt>
      <trkpt lat="44.35406" lon="3.36477">
        <ele>858</ele>
        <time>2017-03-01T12:24:59Z</time>
      </trkpt>
      <trkpt lat="44.35403" lon="3.36469">
        <ele>857</ele>
        <time>2017-03-01T12:26:59Z</time>
      </trkpt>
      <trkpt lat="44.35399" lon="3.36464">
        <ele>857</ele>
        <time>2017-03-01T12:28:59Z</time>
      </trkpt>
      <trkpt lat="44.35392" lon="3.36458">
        <ele>857</ele>
        <time>2017-03-01T12:30:59Z</time>
      </trkpt>
      <trkpt lat="44.35383" lon="3.36454">
        <ele>857</ele>
        <time>2017-03-01T12:32:59Z</time>
      </trkpt>
      <trkpt lat="44.35373" lon="3.36445">
        <ele>856</ele>
        <time>2017-03-01T12:34:59Z</time>
      </trkpt>
      <trkpt lat="44.35362" lon="3.36432">
        <ele>855</ele>
        <time>2017-03-01T12:36:59Z</time>
      </trkpt>
      <trkpt lat="44.3535" lon="3.36412">
        <ele>853</ele>
        <time>2017-03-01T12:38:59Z</time>
      </trkpt>
      <trkpt lat="44.35337" lon="3.36391">
        <ele>851</ele>
        <time>2017-03-01T12:40:59Z</time>
      </trkpt>
      <trkpt lat="44.35325" lon="3.36374">
        <ele>849</ele>
        <time>2017-03-01T12:42:59Z</time>
      </trkpt>
      <trkpt lat="44.35308" lon="3.36355">
        <ele>846</ele>
        <time>2017-03-01T12:44:59Z</time>
      </trkpt>
      <trkpt lat="44.35299" lon="3.36342">
        <ele>844</ele>
        <time>2017-03-01T12:46:59Z</time>
      </trkpt>
      <trkpt lat="44.35285" lon="3.36331">
        <ele>842</ele>
        <time>2017-03-01T12:48:59Z</time>
      </trkpt>
      <trkpt lat="44.35277" lon="3.36324">
        <ele>841</ele>
        <time>2017-03-01T12:50:59Z</time>
      </trkpt>
      <trkpt lat="44.35263" lon="3.36315">
        <ele>839</ele>
        <time>2017-03-01T12:52:59Z</time>
      </trkpt>
      <trkpt lat="44.35256" lon="3.36306">
        <ele>838</ele>
        <time>2017-03-01T12:54:59Z</time>
      </trkpt>
      <trkpt lat="44.35249" lon="3.36296">
        <ele>836</ele>
        <time>2017-03-01T12:56:59Z</time>
      </trkpt>
      <trkpt lat="44.3524" lon="3.36288">
        <ele>835</ele>
        <time>2017-03-01T12:58:59Z</time>
      </trkpt>
      <trkpt lat="44.35221" lon="3.36274">
        <ele>834</ele>
        <time>2017-03-01T13:00:59Z</time>
      </trkpt>
      <trkpt lat="44.35205" lon="3.36258">
        <ele>832</ele>
        <time>2017-03-01T13:02:59Z</time>
      </trkpt>
      <trkpt lat="44.35192" lon="3.36241">
        <ele>831</ele>
        <time>2017-03-01T13:04:59Z</time>
      </trkpt>
      <trkpt lat="44.35184" lon="3.36234">
        <ele>830</ele>
        <time>2017-03-01T13:06:59Z</time>
      </trkpt>
      <trkpt lat="44.35177" lon="3.36229">
        <ele>829</ele>
        <time>2017-03-01T13:08:59Z</time>
      </trkpt>
      <trkpt lat="44.35166" lon="3.36225">
        <ele>828</ele>
        <time>2017-03-01T13:10:59Z</time>
      </trkpt>
      <trkpt lat="44.35157" lon="3.36223">
        <ele>828</ele>
        <time>2017-03-01T13:12:59Z</time>
      </trkpt>
      <trkpt lat="44.35147" lon="3.36225">
        <ele>827</ele>
        <time>2017-03-01T13:14:59Z</time>
      </trkpt>
      <trkpt lat="44.35134" lon="3.36231">
        <ele>827</ele>
        <time>2017-03-01T13:16:59Z</time>
      </trkpt>
      <trkpt lat="44.35122" lon="3.36241">
        <ele>827</ele>
        <time>2017-03-01T13:18:59Z</time>
      </trkpt>
      <trkpt lat="44.35113" lon="3.36251">
        <ele>827</ele>
        <time>2017-03-01T13:20:59Z</time>
      </trkpt>
      <trkpt lat="44.35086" lon="3.36288">
        <ele>828</ele>
        <time>2017-03-01T13:22:59Z</time>
      </trkpt>
      <trkpt lat="44.35081" lon="3.36293">
        <ele>829</ele>
        <time>2017-03-01T13:24:59Z</time>
      </trkpt>
      <trkpt lat="44.3507" lon="3.36299">
        <ele>829</ele>
        <time>2017-03-01T13:26:59Z</time>
      </trkpt>
      <trkpt lat="44.35048" lon="3.36306">
        <ele>828</ele>
        <time>2017-03-01T13:28:59Z</time>
      </trkpt>
      <trkpt lat="44.35031" lon="3.36309">
        <ele>828</ele>
        <time>2017-03-01T13:30:59Z</time>
      </trkpt>
      <trkpt lat="44.35023" lon="3.36309">
        <ele>828</ele>
        <time>2017-03-01T13:32:59Z</time>
      </trkpt>
      <trkpt lat="44.35019" lon="3.36306">
        <ele>827</ele>
        <time>2017-03-01T13:34:59Z</time>
      </trkpt>
      <trkpt lat="44.35014" lon="3.363">
        <ele>826</ele>
        <time>2017-03-01T13:36:59Z</time>
      </trkpt>
      <trkpt lat="44.35012" lon="3.36292">
        <ele>826</ele>
        <time>2017-03-01T13:38:59Z</time>
      </trkpt>
      <trkpt lat="44.3501" lon="3.36278">
        <ele>824</ele>
        <time>2017-03-01T13:40:59Z</time>
      </trkpt>
      <trkpt lat="44.35009" lon="3.36274">
        <ele>824</ele>
        <time>2017-03-01T13:42:59Z</time>
      </trkpt>
      <trkpt lat="44.35012" lon="3.36209">
        <ele>818</ele>
        <time>2017-03-01T13:44:59Z</time>
      </trkpt>
      <trkpt lat="44.35012" lon="3.36184">
        <ele>816</ele>
        <time>2017-03-01T13:46:59Z</time>
      </trkpt>
      <trkpt lat="44.35011" lon="3.3618">
        <ele>815</ele>
        <time>2017-03-01T13:48:59Z</time>
      </trkpt>
      <trkpt lat="44.35013" lon="3.36176">
        <ele>815</ele>
        <time>2017-03-01T13:50:59Z</time>
      </trkpt>
      <trkpt lat="44.3502" lon="3.36159">
        <ele>814</ele>
        <time>2017-03-01T13:52:59Z</time>
      </trkpt>
      <trkpt lat="44.35028" lon="3.3613">
        <ele>814</ele>
        <time>2017-03-01T13:54:59Z</time>
      </trkpt>
      <trkpt lat="44.35037" lon="3.36092">
        <ele>813</ele>
        <time>2017-03-01T13:56:59Z</time>
      </trkpt>
      <trkpt lat="44.35044" lon="3.36066">
        <ele>813</ele>
        <time>2017-03-01T13:58:59Z</time>
      </trkpt>
      <trkpt lat="44.3505" lon="3.36042">
        <ele>814</ele>
        <time>2017-03-01T14:00:59Z</time>
      </trkpt>
      <trkpt lat="44.35056" lon="3.36021">
        <ele>815</ele>
        <time>2017-03-01T14:02:59Z</time>
      </trkpt>
      <trkpt lat="44.35063" lon="3.36002">
        <ele>815</ele>
        <time>2017-03-01T14:04:59Z</time>
      </trkpt>
      <trkpt lat="44.3507" lon="3.35988">
        <ele>816</ele>
        <time>2017-03-01T14:06:59Z</time>
      </trkpt>
      <trkpt lat="44.35092" lon="3.3595">
        <ele>818</ele>
        <time>2017-03-01T14:08:59Z</time>
      </trkpt>
      <trkpt lat="44.35057" lon="3.35939">
        <ele>818</ele>
        <time>2017-03-01T14:10:59Z</time>
      </trkpt>
      <trkpt lat="44.35027" lon="3.35932">
        <ele>819</ele>
        <time>2017-03-01T14:12:59Z</time>
      </trkpt>
      <trkpt lat="44.35017" lon="3.35926">
        <ele>820</ele>
        <time>2017-03-01T14:14:59Z</time>
      </trkpt>
      <trkpt lat="44.35012" lon="3.35921">
        <ele>821</ele>
        <time>2017-03-01T14:16:59Z</time>
      </trkpt>
      <trkpt lat="44.35003" lon="3.35909">
        <ele>822</ele>
        <time>2017-03-01T14:18:59Z</time>
      </trkpt>
      <trkpt lat="44.34994" lon="3.35894">
        <ele>823</ele>
        <time>2017-03-01T14:20:59Z</time>
      </trkpt>
      <trkpt lat="44.34985" lon="3.35882">
        <ele>822</ele>
        <time>2017-03-01T14:22:59Z</time>
      </trkpt>
      <trkpt lat="44.34974" lon="3.3587">
        <ele>822</ele>
        <time>2017-03-01T14:24:59Z</time>
      </trkpt>
      <trkpt lat="44.34962" lon="3.35858">
        <ele>821</ele>
        <time>2017-03-01T14:26:59Z</time>
      </trkpt>
      <trkpt lat="44.34952" lon="3.35842">
        <ele>822</ele>
        <time>2017-03-01T14:28:59Z</time>
      </trkpt>
      <trkpt lat="44.3494" lon="3.35827">
        <ele>821</ele>
        <time>2017-03-01T14:30:59Z</time>
      </trkpt>
      <trkpt lat="44.3493" lon="3.35818">
        <ele>820</ele>
        <time>2017-03-01T14:32:59Z</time>
      </trkpt>
      <trkpt lat="44.34912" lon="3.35803">
        <ele>818</ele>
        <time>2017-03-01T14:34:59Z</time>
      </trkpt>
      <trkpt lat="44.3491" lon="3.35803">
        <ele>818</ele>
        <time>2017-03-01T14:36:59Z</time>
      </trkpt>
      <trkpt lat="44.34901" lon="3.358">
        <ele>818</ele>
        <time>2017-03-01T14:38:59Z</time>
      </trkpt>
      <trkpt lat="44.34891" lon="3.358">
        <ele>817</ele>
        <time>2017-03-01T14:40:59Z</time>
      </trkpt>
      <trkpt lat="44.34883" lon="3.35803">
        <ele>816</ele>
        <time>2017-03-01T14:42:59Z</time>
      </trkpt>
      <trkpt lat="44.34876" lon="3.35807">
        <ele>816</ele>
        <time>2017-03-01T14:44:59Z</time>
      </trkpt>
      <trkpt lat="44.34846" lon="3.35831">
        <ele>815</ele>
        <time>2017-03-01T14:46:59Z</time>
      </trkpt>
      <trkpt lat="44.34837" lon="3.3584">
        <ele>814</ele>
        <time>2017-03-01T14:48:59Z</time>
      </trkpt>
      <trkpt lat="44.34828" lon="3.35844">
        <ele>812</ele>
        <time>2017-03-01T14:50:59Z</time>
      </trkpt>
      <trkpt lat="44.34813" lon="3.35848">
        <ele>810</ele>
        <time>2017-03-01T14:52:59Z</time>
      </trkpt>
      <trkpt lat="44.34797" lon="3.35851">
        <ele>809</ele>
        <time>2017-03-01T14:54:59Z</time>
      </trkpt>
      <trkpt lat="44.34785" lon="3.35851">
        <ele>807</ele>
        <time>2017-03-01T14:56:59Z</time>
      </trkpt>
      <trkpt lat="44.34773" lon="3.35846">
        <ele>807</ele>
        <time>2017-03-01T14:58:59Z</time>
      </trkpt>
      <trkpt lat="44.34731" lon="3.3582">
        <ele>804</ele>
        <time>2017-03-01T15:00:59Z</time>
      </trkpt>
      <trkpt lat="44.34686" lon="3.35794">
        <ele>798</ele>
        <time>2017-03-01T15:02:59Z</time>
      </trkpt>
      <trkpt lat="44.34672" lon="3.35789">
        <ele>796</ele>
        <time>2017-03-01T15:04:59Z</time>
      </trkpt>
      <trkpt lat="44.34661" lon="3.35784">
        <ele>795</ele>
        <time>2017-03-01T15:06:59Z</time>
      </trkpt>
      <trkpt lat="44.34654" lon="3.35779">
        <ele>795</ele>
        <time>2017-03-01T15:08:59Z</time>
      </trkpt>
      <trkpt lat="44.34647" lon="3.35772">
        <ele>794</ele>
        <time>2017-03-01T15:10:59Z</time>
      </trkpt>
      <trkpt lat="44.34644" lon="3.35768">
        <ele>794</ele>
        <time>2017-03-01T15:12:59Z</time>
      </trkpt>
      <trkpt lat="44.34641" lon="3.3576">
        <ele>794</ele>
        <time>2017-03-01T15:14:59Z</time>
      </trkpt>
      <trkpt lat="44.34638" lon="3.3575">
        <ele>794</ele>
        <time>2017-03-01T15:16:59Z</time>
      </trkpt>
      <trkpt lat="44.34638" lon="3.35741">
        <ele>794</ele>
        <time>2017-03-01T15:18:59Z</time>
      </trkpt>
      <trkpt lat="44.34639" lon="3.3573">
        <ele>795</ele>
        <time>2017-03-01T15:20:59Z</time>
      </trkpt>
      <trkpt lat="44.34642" lon="3.35721">
        <ele>795</ele>
        <time>2017-03-01T15:22:59Z</time>
      </trkpt>
      <trkpt lat="44.34644" lon="3.35712">
        <ele>796</ele>
        <time>2017-03-01T15:24:59Z</time>
      </trkpt>
      <trkpt lat="44.34644" lon="3.35698">
        <ele>796</ele>
        <time>2017-03-01T15:26:59Z</time>
      </trkpt>
      <trkpt lat="44.34641" lon="3.35691">
        <ele>796</ele>
        <time>2017-03-01T15:28:59Z</time>
      </trkpt>
      <trkpt lat="44.34638" lon="3.35685">
        <ele>796</ele>
        <time>2017-03-01T15:30:59Z</time>
      </trkpt>
      <trkpt lat="44.3463" lon="3.35677">
        <ele>796</ele>
        <time>2017-03-01T15:32:59Z</time>
      </trkpt>
      <trkpt lat="44.34626" lon="3.35671">
        <ele>795</ele>
        <time>2017-03-01T15:34:59Z</time>
      </trkpt>
      <trkpt lat="44.34625" lon="3.35664">
        <ele>795</ele>
        <time>2017-03-01T15:36:59Z</time>
      </trkpt>
      <trkpt lat="44.34625" lon="3.35654">
        <ele>794</ele>
        <time>2017-03-01T15:38:59Z</time>
      </trkpt>
      <trkpt lat="44.34628" lon="3.35635">
        <ele>793</ele>
        <time>2017-03-01T15:40:59Z</time>
      </trkpt>
      <trkpt lat="44.34633" lon="3.35614">
        <ele>791</ele>
        <time>2017-03-01T15:42:59Z</time>
      </trkpt>
      <trkpt lat="44.34637" lon="3.356">
        <ele>790</ele>
        <time>2017-03-01T15:44:59Z</time>
      </trkpt>
      <trkpt lat="44.34642" lon="3.35587">
        <ele>790</ele>
        <time>2017-03-01T15:46:59Z</time>
      </trkpt>
      <trkpt lat="44.3465" lon="3.3557">
        <ele>789</ele>
        <time>2017-03-01T15:48:59Z</time>
      </trkpt>
      <trkpt lat="44.34656" lon="3.35558">
        <ele>789</ele>
        <time>2017-03-01T15:50:59Z</time>
      </trkpt>
      <trkpt lat="44.3466" lon="3.35552">
        <ele>789</ele>
        <time>2017-03-01T15:52:59Z</time>
      </trkpt>
      <trkpt lat="44.34662" lon="3.35546">
        <ele>789</ele>
        <time>2017-03-01T15:54:59Z</time>
      </trkpt>
      <trkpt lat="44.34664" lon="3.35538">
        <ele>788</ele>
        <time>2017-03-01T15:56:59Z</time>
      </trkpt>
      <trkpt lat="44.34664" lon="3.35524">
        <ele>787</ele>
        <time>2017-03-01T15:58:59Z</time>
      </trkpt>
      <trkpt lat="44.34663" lon="3.35514">
        <ele>786</ele>
        <time>2017-03-01T16:00:59Z</time>
      </trkpt>
      <trkpt lat="44.34663" lon="3.35481">
        <ele>787</ele>
        <time>2017-03-01T16:02:59Z</time>
      </trkpt>
      <trkpt lat="44.34662" lon="3.35466">
        <ele>788</ele>
        <time>2017-03-01T16:04:59Z</time>
      </trkpt>
      <trkpt lat="44.34646" lon="3.35475">
        <ele>785</ele>
        <time>2017-03-01T16:06:59Z</time>
      </trkpt>
      <trkpt lat="44.34624" lon="3.35492">
        <ele>779</ele>
        <time>2017-03-01T16:08:59Z</time>
      </trkpt>
      <trkpt lat="44.34617" lon="3.35493">
        <ele>777</ele>
        <time>2017-03-01T16:10:59Z</time>
      </trkpt>
      <trkpt lat="44.34614" lon="3.35492">
        <ele>777</ele>
        <time>2017-03-01T16:12:59Z</time>
      </trkpt>
      <trkpt lat="44.34611" lon="3.35492">
        <ele>776</ele>
        <time>2017-03-01T16:14:59Z</time>
      </trkpt>
      <trkpt lat="44.34608" lon="3.35497">
        <ele>775</ele>
        <time>2017-03-01T16:16:59Z</time>
      </trkpt>
      <trkpt lat="44.34603" lon="3.35502">
        <ele>774</ele>
        <time>2017-03-01T16:18:59Z</time>
      </trkpt>
      <trkpt lat="44.34599" lon="3.35508">
        <ele>774</ele>
        <time>2017-03-01T16:20:59Z</time>
      </trkpt>
      <trkpt lat="44.34596" lon="3.35518">
        <ele>775</ele>
        <time>2017-03-01T16:22:59Z</time>
      </trkpt>
      <trkpt lat="44.34592" lon="3.35525">
        <ele>775</ele>
        <time>2017-03-01T16:24:59Z</time>
      </trkpt>
      <trkpt lat="44.34586" lon="3.35531">
        <ele>775</ele>
        <time>2017-03-01T16:26:59Z</time>
      </trkpt>
      <trkpt lat="44.34579" lon="3.35537">
        <ele>775</ele>
        <time>2017-03-01T16:28:59Z</time>
      </trkpt>
      <trkpt lat="44.34572" lon="3.35544">
        <ele>774</ele>
        <time>2017-03-01T16:30:59Z</time>
      </trkpt>
      <trkpt lat="44.34562" lon="3.3555">
        <ele>773</ele>
        <time>2017-03-01T16:32:59Z</time>
      </trkpt>
      <trkpt lat="44.34552" lon="3.35555">
        <ele>771</ele>
        <time>2017-03-01T16:34:59Z</time>
      </trkpt>
      <trkpt lat="44.34547" lon="3.35556">
        <ele>770</ele>
        <time>2017-03-01T16:36:59Z</time>
      </trkpt>
      <trkpt lat="44.34545" lon="3.35554">
        <ele>769</ele>
        <time>2017-03-01T16:38:59Z</time>
      </trkpt>
      <trkpt lat="44.34545" lon="3.35551">
        <ele>769</ele>
        <time>2017-03-01T16:40:59Z</time>
      </trkpt>
      <trkpt lat="44.34546" lon="3.35548">
        <ele>769</ele>
        <time>2017-03-01T16:42:59Z</time>
      </trkpt>
      <trkpt lat="44.34549" lon="3.35544">
        <ele>769</ele>
        <time>2017-03-01T16:44:59Z</time>
      </trkpt>
      <trkpt lat="44.34553" lon="3.35538">
        <ele>769</ele>
        <time>2017-03-01T16:46:59Z</time>
      </trkpt>
      <trkpt lat="44.34554" lon="3.35537">
        <ele>769</ele>
        <time>2017-03-01T16:48:59Z</time>
      </trkpt>
      <trkpt lat="44.34551" lon="3.35537">
        <ele>768</ele>
        <time>2017-03-01T16:50:59Z</time>
      </trkpt>
      <trkpt lat="44.34539" lon="3.35541">
        <ele>766</ele>
        <time>2017-03-01T16:52:59Z</time>
      </trkpt>
      <trkpt lat="44.3453" lon="3.35546">
        <ele>765</ele>
        <time>2017-03-01T16:54:59Z</time>
      </trkpt>
      <trkpt lat="44.34522" lon="3.3555">
        <ele>763</ele>
        <time>2017-03-01T16:56:59Z</time>
      </trkpt>
      <trkpt lat="44.34512" lon="3.35557">
        <ele>762</ele>
        <time>2017-03-01T16:58:59Z</time>
      </trkpt>
      <trkpt lat="44.34494" lon="3.35566">
        <ele>759</ele>
        <time>2017-03-01T17:00:59Z</time>
      </trkpt>
      <trkpt lat="44.34471" lon="3.35578">
        <ele>754</ele>
        <time>2017-03-01T17:02:59Z</time>
      </trkpt>
      <trkpt lat="44.34446" lon="3.3559">
        <ele>749</ele>
        <time>2017-03-01T17:04:59Z</time>
      </trkpt>
      <trkpt lat="44.34415" lon="3.35611">
        <ele>745</ele>
        <time>2017-03-01T17:06:59Z</time>
      </trkpt>
      <trkpt lat="44.34391" lon="3.35625">
        <ele>741</ele>
        <time>2017-03-01T17:08:59Z</time>
      </trkpt>
      <trkpt lat="44.34371" lon="3.35636">
        <ele>737</ele>
        <time>2017-03-01T17:10:59Z</time>
      </trkpt>
      <trkpt lat="44.34357" lon="3.35642">
        <ele>733</ele>
        <time>2017-03-01T17:12:59Z</time>
      </trkpt>
      <trkpt lat="44.34344" lon="3.35647">
        <ele>729</ele>
        <time>2017-03-01T17:14:59Z</time>
      </trkpt>
      <trkpt lat="44.34324" lon="3.35656">
        <ele>723</ele>
        <time>2017-03-01T17:16:59Z</time>
      </trkpt>
      <trkpt lat="44.34315" lon="3.35662">
        <ele>719</ele>
        <time>2017-03-01T17:18:59Z</time>
      </trkpt>
      <trkpt lat="44.3431" lon="3.35666">
        <ele>717</ele>
        <time>2017-03-01T17:20:59Z</time>
      </trkpt>
      <trkpt lat="44.34309" lon="3.35666">
        <ele>717</ele>
        <time>2017-03-01T17:22:59Z</time>
      </trkpt>
      <trkpt lat="44.34308" lon="3.35664">
        <ele>716</ele>
        <time>2017-03-01T17:24:59Z</time>
      </trkpt>
      <trkpt lat="44.34309" lon="3.35661">
        <ele>717</ele>
        <time>2017-03-01T17:26:59Z</time>
      </trkpt>
      <trkpt lat="44.34309" lon="3.35651">
        <ele>716</ele>
        <time>2017-03-01T17:28:59Z</time>
      </trkpt>
      <trkpt lat="44.34308" lon="3.35651">
        <ele>716</ele>
        <time>2017-03-01T17:30:59Z</time>
      </trkpt>
      <trkpt lat="44.34305" lon="3.35652">
        <ele>714</ele>
        <time>2017-03-01T17:32:59Z</time>
      </trkpt>
      <trkpt lat="44.34301" lon="3.35658">
        <ele>713</ele>
        <time>2017-03-01T17:34:59Z</time>
      </trkpt>
      <trkpt lat="44.34293" lon="3.35668">
        <ele>710</ele>
        <time>2017-03-01T17:36:59Z</time>
      </trkpt>
      <trkpt lat="44.34289" lon="3.35674">
        <ele>709</ele>
        <time>2017-03-01T17:38:59Z</time>
      </trkpt>
      <trkpt lat="44.34284" lon="3.3569">
        <ele>709</ele>
        <time>2017-03-01T17:40:59Z</time>
      </trkpt>
      <trkpt lat="44.34281" lon="3.35691">
        <ele>708</ele>
        <time>2017-03-01T17:42:59Z</time>
      </trkpt>
      <trkpt lat="44.34279" lon="3.35689">
        <ele>707</ele>
        <time>2017-03-01T17:44:59Z</time>
      </trkpt>
      <trkpt lat="44.34279" lon="3.3568">
        <ele>705</ele>
        <time>2017-03-01T17:46:59Z</time>
      </trkpt>
      <trkpt lat="44.34282" lon="3.35652">
        <ele>705</ele>
        <time>2017-03-01T17:48:59Z</time>
      </trkpt>
      <trkpt lat="44.34282" lon="3.35638">
        <ele>705</ele>
        <time>2017-03-01T17:50:59Z</time>
      </trkpt>
      <trkpt lat="44.34284" lon="3.35624">
        <ele>706</ele>
        <time>2017-03-01T17:52:59Z</time>
      </trkpt>
      <trkpt lat="44.34287" lon="3.35613">
        <ele>707</ele>
        <time>2017-03-01T17:54:59Z</time>
      </trkpt>
      <trkpt lat="44.34291" lon="3.35607">
        <ele>708</ele>
        <time>2017-03-01T17:56:59Z</time>
      </trkpt>
      <trkpt lat="44.34294" lon="3.356">
        <ele>709</ele>
        <time>2017-03-01T17:58:59Z</time>
      </trkpt>
      <trkpt lat="44.34296" lon="3.35596">
        <ele>710</ele>
        <time>2017-03-01T18:00:59Z</time>
      </trkpt>
      <trkpt lat="44.34294" lon="3.35592">
        <ele>709</ele>
        <time>2017-03-01T18:02:59Z</time>
      </trkpt>
      <trkpt lat="44.34294" lon="3.3559">
        <ele>709</ele>
        <time>2017-03-01T18:04:59Z</time>
      </trkpt>
      <trkpt lat="44.3429" lon="3.35587">
        <ele>708</ele>
        <time>2017-03-01T18:06:59Z</time>
      </trkpt>
      <trkpt lat="44.3428" lon="3.35583">
        <ele>707</ele>
        <time>2017-03-01T18:08:59Z</time>
      </trkpt>
      <trkpt lat="44.3427" lon="3.35581">
        <ele>706</ele>
        <time>2017-03-01T18:10:59Z</time>
      </trkpt>
      <trkpt lat="44.34256" lon="3.3558">
        <ele>704</ele>
        <time>2017-03-01T18:12:59Z</time>
      </trkpt>
      <trkpt lat="44.34237" lon="3.35585">
        <ele>703</ele>
        <time>2017-03-01T18:14:59Z</time>
      </trkpt>
      <trkpt lat="44.34227" lon="3.35591">
        <ele>703</ele>
        <time>2017-03-01T18:16:59Z</time>
      </trkpt>
      <trkpt lat="44.34215" lon="3.35597">
        <ele>702</ele>
        <time>2017-03-01T18:18:59Z</time>
      </trkpt>
      <trkpt lat="44.34204" lon="3.35605">
        <ele>701</ele>
        <time>2017-03-01T18:20:59Z</time>
      </trkpt>
      <trkpt lat="44.34195" lon="3.35611">
        <ele>700</ele>
        <time>2017-03-01T18:22:59Z</time>
      </trkpt>
      <trkpt lat="44.34185" lon="3.35617">
        <ele>698</ele>
        <time>2017-03-01T18:24:59Z</time>
      </trkpt>
      <trkpt lat="44.34175" lon="3.35622">
        <ele>696</ele>
        <time>2017-03-01T18:26:59Z</time>
      </trkpt>
      <trkpt lat="44.34166" lon="3.35626">
        <ele>694</ele>
        <time>2017-03-01T18:28:59Z</time>
      </trkpt>
      <trkpt lat="44.34158" lon="3.3563">
        <ele>695</ele>
        <time>2017-03-01T18:30:59Z</time>
      </trkpt>
      <trkpt lat="44.34145" lon="3.35638">
        <ele>696</ele>
        <time>2017-03-01T18:32:59Z</time>
      </trkpt>
      <trkpt lat="44.34136" lon="3.35645">
        <ele>696</ele>
        <time>2017-03-01T18:34:59Z</time>
      </trkpt>
      <trkpt lat="44.34128" lon="3.35653">
        <ele>695</ele>
        <time>2017-03-01T18:36:59Z</time>
      </trkpt>
      <trkpt lat="44.34124" lon="3.35655">
        <ele>696</ele>
        <time>2017-03-01T18:38:59Z</time>
      </trkpt>
      <trkpt lat="44.34117" lon="3.35657">
        <ele>698</ele>
        <time>2017-03-01T18:40:59Z</time>
      </trkpt>
      <trkpt lat="44.34109" lon="3.35669">
        <ele>696</ele>
        <time>2017-03-01T18:42:59Z</time>
      </trkpt>
      <trkpt lat="44.3409" lon="3.3572">
        <ele>683</ele>
        <time>2017-03-01T18:44:59Z</time>
      </trkpt>
      <trkpt lat="44.34063" lon="3.35759">
        <ele>676</ele>
        <time>2017-03-01T18:46:59Z</time>
      </trkpt>
      <trkpt lat="44.34026" lon="3.35791">
        <ele>674</ele>
        <time>2017-03-01T18:48:59Z</time>
      </trkpt>
      <trkpt lat="44.34001" lon="3.35812">
        <ele>673</ele>
        <time>2017-03-01T18:50:59Z</time>
      </trkpt>
      <trkpt lat="44.33993" lon="3.35821">
        <ele>670</ele>
        <time>2017-03-01T18:52:59Z</time>
      </trkpt>
      <trkpt lat="44.33975" lon="3.35837">
        <ele>664</ele>
        <time>2017-03-01T18:54:59Z</time>
      </trkpt>
      <trkpt lat="44.33962" lon="3.35849">
        <ele>658</ele>
        <time>2017-03-01T18:56:59Z</time>
      </trkpt>
      <trkpt lat="44.33951" lon="3.3586">
        <ele>652</ele>
        <time>2017-03-01T18:58:59Z</time>
      </trkpt>
      <trkpt lat="44.3394" lon="3.35868">
        <ele>648</ele>
        <time>2017-03-01T19:00:59Z</time>
      </trkpt>
      <trkpt lat="44.33934" lon="3.35871">
        <ele>647</ele>
        <time>2017-03-01T19:02:59Z</time>
      </trkpt>
      <trkpt lat="44.3392" lon="3.35873">
        <ele>648</ele>
        <time>2017-03-01T19:04:59Z</time>
      </trkpt>
      <trkpt lat="44.33914" lon="3.35872">
        <ele>648</ele>
        <time>2017-03-01T19:06:59Z</time>
      </trkpt>
      <trkpt lat="44.33908" lon="3.35869">
        <ele>649</ele>
        <time>2017-03-01T19:08:59Z</time>
      </trkpt>
      <trkpt lat="44.33903" lon="3.35869">
        <ele>648</ele>
        <time>2017-03-01T19:10:59Z</time>
      </trkpt>
      <trkpt lat="44.33892" lon="3.35868">
        <ele>647</ele>
        <time>2017-03-01T19:12:59Z</time>
      </trkpt>
      <trkpt lat="44.33874" lon="3.35867">
        <ele>644</ele>
        <time>2017-03-01T19:14:59Z</time>
      </trkpt>
      <trkpt lat="44.33861" lon="3.35869">
        <ele>641</ele>
        <time>2017-03-01T19:16:59Z</time>
      </trkpt>
      <trkpt lat="44.33855" lon="3.35872">
        <ele>638</ele>
        <time>2017-03-01T19:18:59Z</time>
      </trkpt>
      <trkpt lat="44.33848" lon="3.35874">
        <ele>636</ele>
        <time>2017-03-01T19:20:59Z</time>
      </trkpt>
      <trkpt lat="44.33831" lon="3.35881">
        <ele>630</ele>
        <time>2017-03-01T19:22:59Z</time>
      </trkpt>
      <trkpt lat="44.33825" lon="3.35882">
        <ele>628</ele>
        <time>2017-03-01T19:24:59Z</time>
      </trkpt>
      <trkpt lat="44.3382" lon="3.35882">
        <ele>626</ele>
        <time>2017-03-01T19:26:59Z</time>
      </trkpt>
      <trkpt lat="44.3381" lon="3.35881">
        <ele>623</ele>
        <time>2017-03-01T19:28:59Z</time>
      </trkpt>
      <trkpt lat="44.33806" lon="3.35882">
        <ele>621</ele>
        <time>2017-03-01T19:30:59Z</time>
      </trkpt>
      <trkpt lat="44.338" lon="3.35884">
        <ele>618</ele>
        <time>2017-03-01T19:32:59Z</time>
      </trkpt>
      <trkpt lat="44.33796" lon="3.35885">
        <ele>616</ele>
        <time>2017-03-01T19:34:59Z</time>
      </trkpt>
      <trkpt lat="44.33795" lon="3.35887">
        <ele>615</ele>
        <time>2017-03-01T19:36:59Z</time>
      </trkpt>
      <trkpt lat="44.33796" lon="3.3589">
        <ele>615</ele>
        <time>2017-03-01T19:38:59Z</time>
      </trkpt>
      <trkpt lat="44.33798" lon="3.35891">
        <ele>615</ele>
        <time>2017-03-01T19:40:59Z</time>
      </trkpt>
      <trkpt lat="44.33806" lon="3.35891">
        <ele>618</ele>
        <time>2017-03-01T19:42:59Z</time>
      </trkpt>
      <trkpt lat="44.33808" lon="3.3589">
        <ele>619</ele>
        <time>2017-03-01T19:44:59Z</time>
      </trkpt>
      <trkpt lat="44.3381" lon="3.35892">
        <ele>619</ele>
        <time>2017-03-01T19:46:59Z</time>
      </trkpt>
      <trkpt lat="44.33809" lon="3.35895">
        <ele>617</ele>
        <time>2017-03-01T19:48:59Z</time>
      </trkpt>
      <trkpt lat="44.33806" lon="3.35897">
        <ele>616</ele>
        <time>2017-03-01T19:50:59Z</time>
      </trkpt>
      <trkpt lat="44.33799" lon="3.359">
        <ele>613</ele>
        <time>2017-03-01T19:52:59Z</time>
      </trkpt>
      <trkpt lat="44.33793" lon="3.35902">
        <ele>610</ele>
        <time>2017-03-01T19:54:59Z</time>
      </trkpt>
      <trkpt lat="44.33786" lon="3.35903">
        <ele>608</ele>
        <time>2017-03-01T19:56:59Z</time>
      </trkpt>
      <trkpt lat="44.33781" lon="3.35903">
        <ele>606</ele>
        <time>2017-03-01T19:58:59Z</time>
      </trkpt>
      <trkpt lat="44.33778" lon="3.35902">
        <ele>606</ele>
        <time>2017-03-01T20:00:59Z</time>
      </trkpt>
      <trkpt lat="44.33776" lon="3.35904">
        <ele>605</ele>
        <time>2017-03-01T20:02:59Z</time>
      </trkpt>
      <trkpt lat="44.33774" lon="3.35908">
        <ele>603</ele>
        <time>2017-03-01T20:04:59Z</time>
      </trkpt>
      <trkpt lat="44.33773" lon="3.35911">
        <ele>602</ele>
        <time>2017-03-01T20:06:59Z</time>
      </trkpt>
      <trkpt lat="44.33771" lon="3.35909">
        <ele>602</ele>
        <time>2017-03-01T20:08:59Z</time>
      </trkpt>
      <trkpt lat="44.3377" lon="3.35907">
        <ele>602</ele>
        <time>2017-03-01T20:10:59Z</time>
      </trkpt>
      <trkpt lat="44.33769" lon="3.35908">
        <ele>602</ele>
        <time>2017-03-01T20:12:59Z</time>
      </trkpt>
      <trkpt lat="44.33769" lon="3.35912">
        <ele>601</ele>
        <time>2017-03-01T20:14:59Z</time>
      </trkpt>
      <trkpt lat="44.3377" lon="3.35916">
        <ele>600</ele>
        <time>2017-03-01T20:16:59Z</time>
      </trkpt>
      <trkpt lat="44.33773" lon="3.35921">
        <ele>599</ele>
        <time>2017-03-01T20:18:59Z</time>
      </trkpt>
      <trkpt lat="44.3378" lon="3.35923">
        <ele>600</ele>
        <time>2017-03-01T20:20:59Z</time>
      </trkpt>
      <trkpt lat="44.33781" lon="3.35924">
        <ele>600</ele>
        <time>2017-03-01T20:22:59Z</time>
      </trkpt>
      <trkpt lat="44.3378" lon="3.35926">
        <ele>599</ele>
        <time>2017-03-01T20:24:59Z</time>
      </trkpt>
      <trkpt lat="44.33777" lon="3.35928">
        <ele>598</ele>
        <time>2017-03-01T20:26:59Z</time>
      </trkpt>
      <trkpt lat="44.33773" lon="3.3593">
        <ele>597</ele>
        <time>2017-03-01T20:28:59Z</time>
      </trkpt>
      <trkpt lat="44.33768" lon="3.3593">
        <ele>596</ele>
        <time>2017-03-01T20:30:59Z</time>
      </trkpt>
      <trkpt lat="44.33767" lon="3.35932">
        <ele>595</ele>
        <time>2017-03-01T20:32:59Z</time>
      </trkpt>
      <trkpt lat="44.33768" lon="3.35936">
        <ele>594</ele>
        <time>2017-03-01T20:34:59Z</time>
      </trkpt>
      <trkpt lat="44.3377" lon="3.35937">
        <ele>594</ele>
        <time>2017-03-01T20:36:59Z</time>
      </trkpt>
      <trkpt lat="44.3377" lon="3.35939">
        <ele>594</ele>
        <time>2017-03-01T20:38:59Z</time>
      </trkpt>
      <trkpt lat="44.33769" lon="3.35942">
        <ele>593</ele>
        <time>2017-03-01T20:40:59Z</time>
      </trkpt>
      <trkpt lat="44.33764" lon="3.35944">
        <ele>591</ele>
        <time>2017-03-01T20:42:59Z</time>
      </trkpt>
      <trkpt lat="44.33755" lon="3.35946">
        <ele>590</ele>
        <time>2017-03-01T20:44:59Z</time>
      </trkpt>
      <trkpt lat="44.33749" lon="3.35945">
        <ele>589</ele>
        <time>2017-03-01T20:46:59Z</time>
      </trkpt>
      <trkpt lat="44.33747" lon="3.35939">
        <ele>589</ele>
        <time>2017-03-01T20:48:59Z</time>
      </trkpt>
      <trkpt lat="44.3374" lon="3.35915">
        <ele>590</ele>
        <time>2017-03-01T20:50:59Z</time>
      </trkpt>
      <trkpt lat="44.33735" lon="3.35912">
        <ele>587</ele>
        <time>2017-03-01T20:52:59Z</time>
      </trkpt>
      <trkpt lat="44.33729" lon="3.35909">
        <ele>584</ele>
        <time>2017-03-01T20:54:59Z</time>
      </trkpt>
      <trkpt lat="44.33727" lon="3.35904">
        <ele>584</ele>
        <time>2017-03-01T20:56:59Z</time>
      </trkpt>
      <trkpt lat="44.33726" lon="3.35897">
        <ele>584</ele>
        <time>2017-03-01T20:58:59Z</time>
      </trkpt>
      <trkpt lat="44.33727" lon="3.35888">
        <ele>585</ele>
        <time>2017-03-01T21:00:59Z</time>
      </trkpt>
      <trkpt lat="44.33729" lon="3.35878">
        <ele>588</ele>
        <time>2017-03-01T21:02:59Z</time>
      </trkpt>
      <trkpt lat="44.33733" lon="3.35868">
        <ele>591</ele>
        <time>2017-03-01T21:04:59Z</time>
      </trkpt>
      <trkpt lat="44.33734" lon="3.35861">
        <ele>593</ele>
        <time>2017-03-01T21:06:59Z</time>
      </trkpt>
      <trkpt lat="44.33741" lon="3.35834">
        <ele>602</ele>
        <time>2017-03-01T21:08:59Z</time>
      </trkpt>
      <trkpt lat="44.33745" lon="3.358">
        <ele>612</ele>
        <time>2017-03-01T21:10:59Z</time>
      </trkpt>
      <trkpt lat="44.3356" lon="3.35796">
        <ele>490</ele>
        <time>2017-03-01T21:12:59Z</time>
      </trkpt>
      <trkpt lat="44.33558" lon="3.35799">
        <ele>489</ele>
        <time>2017-03-01T21:14:59Z</time>
      </trkpt>
      <trkpt lat="44.33539" lon="3.35774">
        <ele>487</ele>
        <time>2017-03-01T21:16:59Z</time>
      </trkpt>
      <trkpt lat="44.33521" lon="3.35747">
        <ele>485</ele>
        <time>2017-03-01T21:18:59Z</time>
      </trkpt>
      <trkpt lat="44.3352" lon="3.35746">
        <ele>485</ele>
        <time>2017-03-01T21:20:59Z</time>
      </trkpt>
      <trkpt lat="44.33508" lon="3.35727">
        <ele>484</ele>
        <time>2017-03-01T21:22:59Z</time>
      </trkpt>
      <trkpt lat="44.33504" lon="3.3572">
        <ele>483</ele>
        <time>2017-03-01T21:24:59Z</time>
      </trkpt>
      <trkpt lat="44.33486" lon="3.35684">
        <ele>484</ele>
        <time>2017-03-01T21:26:59Z</time>
      </trkpt>
      <trkpt lat="44.33465" lon="3.35648">
        <ele>485</ele>
        <time>2017-03-01T21:28:59Z</time>
      </trkpt>
      <trkpt lat="44.33451" lon="3.35634">
        <ele>484</ele>
        <time>2017-03-01T21:30:59Z</time>
      </trkpt>
      <trkpt lat="44.33428" lon="3.35615">
        <ele>480</ele>
        <time>2017-03-01T21:32:59Z</time>
      </trkpt>
      <trkpt lat="44.3342" lon="3.35607">
        <ele>479</ele>
        <time>2017-03-01T21:34:59Z</time>
      </trkpt>
      <trkpt lat="44.33393" lon="3.35578">
        <ele>483</ele>
        <time>2017-03-01T21:36:59Z</time>
      </trkpt>
      <trkpt lat="44.33386" lon="3.35571">
        <ele>485</ele>
        <time>2017-03-01T21:38:59Z</time>
      </trkpt>
      <trkpt lat="44.33379" lon="3.35565">
        <ele>487</ele>
        <time>2017-03-01T21:40:59Z</time>
      </trkpt>
      <trkpt lat="44.33354" lon="3.35549">
        <ele>487</ele>
        <time>2017-03-01T21:42:59Z</time>
      </trkpt>
      <trkpt lat="44.33281" lon="3.35504">
        <ele>481</ele>
        <time>2017-03-01T21:44:59Z</time>
      </trkpt>
      <trkpt lat="44.33264" lon="3.35494">
        <ele>479</ele>
        <time>2017-03-01T21:46:59Z</time>
      </trkpt>
      <trkpt lat="44.33254" lon="3.3549">
        <ele>478</ele>
        <time>2017-03-01T21:48:59Z</time>
      </trkpt>
      <trkpt lat="44.33244" lon="3.35488">
        <ele>477</ele>
        <time>2017-03-01T21:50:59Z</time>
      </trkpt>
      <trkpt lat="44.33227" lon="3.35483">
        <ele>477</ele>
        <time>2017-03-01T21:52:59Z</time>
      </trkpt>
      <trkpt lat="44.33216" lon="3.35477">
        <ele>478</ele>
        <time>2017-03-01T21:54:59Z</time>
      </trkpt>
      <trkpt lat="44.33199" lon="3.35467">
        <ele>479</ele>
        <time>2017-03-01T21:56:59Z</time>
      </trkpt>
      <trkpt lat="44.33181" lon="3.35454">
        <ele>479</ele>
        <time>2017-03-01T21:58:59Z</time>
      </trkpt>
      <trkpt lat="44.33162" lon="3.35447">
        <ele>476</ele>
        <time>2017-03-01T22:00:59Z</time>
      </trkpt>
      <trkpt lat="44.33144" lon="3.35443">
        <ele>475</ele>
        <time>2017-03-01T22:02:59Z</time>
      </trkpt>
      <trkpt lat="44.33114" lon="3.35438">
        <ele>474</ele>
        <time>2017-03-01T22:04:59Z</time>
      </trkpt>
      <trkpt lat="44.33094" lon="3.35433">
        <ele>474</ele>
        <time>2017-03-01T22:06:59Z</time>
      </trkpt>
      <trkpt lat="44.33046" lon="3.35412">
        <ele>472</ele>
        <time>2017-03-01T22:08:59Z</time>
      </trkpt>
      <trkpt lat="44.33018" lon="3.35396">
        <ele>472</ele>
        <time>2017-03-01T22:10:59Z</time>
      </trkpt>
      <trkpt lat="44.33007" lon="3.35387">
        <ele>473</ele>
        <time>2017-03-01T22:12:59Z</time>
      </trkpt>
      <trkpt lat="44.32999" lon="3.35378">
        <ele>474</ele>
        <time>2017-03-01T22:14:59Z</time>
      </trkpt>
      <trkpt lat="44.32996" lon="3.35376">
        <ele>474</ele>
        <time>2017-03-01T22:16:59Z</time>
      </trkpt>
      <trkpt lat="44.32986" lon="3.35363">
        <ele>474</ele>
        <time>2017-03-01T22:18:59Z</time>
      </trkpt>
      <trkpt lat="44.32975" lon="3.35344">
        <ele>476</ele>
        <time>2017-03-01T22:20:59Z</time>
      </trkpt>
      <trkpt lat="44.32958" lon="3.35312">
        <ele>475</ele>
        <time>2017-03-01T22:22:59Z</time>
      </trkpt>
      <trkpt lat="44.32951" lon="3.35298">
        <ele>475</ele>
        <time>2017-03-01T22:24:59Z</time>
      </trkpt>
      <trkpt lat="44.32945" lon="3.35283">
        <ele>475</ele>
        <time>2017-03-01T22:26:59Z</time>
      </trkpt>
      <trkpt lat="44.3294" lon="3.35265">
        <ele>475</ele>
        <time>2017-03-01T22:28:59Z</time>
      </trkpt>
      <trkpt lat="44.32936" lon="3.35243">
        <ele>477</ele>
        <time>2017-03-01T22:30:59Z</time>
      </trkpt>
      <trkpt lat="44.32927" lon="3.35198">
        <ele>478</ele>
        <time>2017-03-01T22:32:59Z</time>
      </trkpt>
      <trkpt lat="44.32918" lon="3.35159">
        <ele>477</ele>
        <time>2017-03-01T22:34:59Z</time>
      </trkpt>
      <trkpt lat="44.32909" lon="3.3513">
        <ele>480</ele>
        <time>2017-03-01T22:36:59Z</time>
      </trkpt>
      <trkpt lat="44.32899" lon="3.35104">
        <ele>480</ele>
        <time>2017-03-01T22:38:59Z</time>
      </trkpt>
      <trkpt lat="44.32887" lon="3.35077">
        <ele>479</ele>
        <time>2017-03-01T22:40:59Z</time>
      </trkpt>
      <trkpt lat="44.32878" lon="3.35056">
        <ele>477</ele>
        <time>2017-03-01T22:42:59Z</time>
      </trkpt>
      <trkpt lat="44.32872" lon="3.35035">
        <ele>476</ele>
        <time>2017-03-01T22:44:59Z</time>
      </trkpt>
      <trkpt lat="44.32871" lon="3.35028">
        <ele>476</ele>
        <time>2017-03-01T22:46:59Z</time>
      </trkpt>
      <trkpt lat="44.32869" lon="3.35018">
        <ele>476</ele>
        <time>2017-03-01T22:48:59Z</time>
      </trkpt>
      <trkpt lat="44.32867" lon="3.35">
        <ele>477</ele>
        <time>2017-03-01T22:50:59Z</time>
      </trkpt>
      <trkpt lat="44.32864" lon="3.34969">
        <ele>479</ele>
        <time>2017-03-01T22:52:59Z</time>
      </trkpt>
      <trkpt lat="44.32859" lon="3.3495">
        <ele>479</ele>
        <time>2017-03-01T22:54:59Z</time>
      </trkpt>
      <trkpt lat="44.32854" lon="3.34937">
        <ele>478</ele>
        <time>2017-03-01T22:56:59Z</time>
      </trkpt>
      <trkpt lat="44.32824" lon="3.34864">
        <ele>482</ele>
        <time>2017-03-01T22:58:59Z</time>
      </trkpt>
      <trkpt lat="44.32822" lon="3.34861">
        <ele>482</ele>
        <time>2017-03-01T23:00:59Z</time>
      </trkpt>
      <trkpt lat="44.32813" lon="3.34849">
        <ele>482</ele>
        <time>2017-03-01T23:02:59Z</time>
      </trkpt>
      <trkpt lat="44.32788" lon="3.3482">
        <ele>481</ele>
        <time>2017-03-01T23:04:59Z</time>
      </trkpt>
      <trkpt lat="44.3277" lon="3.34796">
        <ele>481</ele>
        <time>2017-03-01T23:06:59Z</time>
      </trkpt>
      <trkpt lat="44.32754" lon="3.34774">
        <ele>480</ele>
        <time>2017-03-01T23:08:59Z</time>
      </trkpt>
      <trkpt lat="44.32738" lon="3.34754">
        <ele>479</ele>
        <time>2017-03-01T23:10:59Z</time>
      </trkpt>
      <trkpt lat="44.3273" lon="3.34746">
        <ele>478</ele>
        <time>2017-03-01T23:12:59Z</time>
      </trkpt>
      <trkpt lat="44.32723" lon="3.34741">
        <ele>477</ele>
        <time>2017-03-01T23:14:59Z</time>
      </trkpt>
      <trkpt lat="44.32704" lon="3.34729">
        <ele>474</ele>
        <time>2017-03-01T23:16:59Z</time>
      </trkpt>
      <trkpt lat="44.32696" lon="3.3472">
        <ele>473</ele>
        <time>2017-03-01T23:18:59Z</time>
      </trkpt>
      <trkpt lat="44.3269" lon="3.34709">
        <ele>473</ele>
        <time>2017-03-01T23:20:59Z</time>
      </trkpt>
      <trkpt lat="44.32684" lon="3.34697">
        <ele>474</ele>
        <time>2017-03-01T23:22:59Z</time>
      </trkpt>
      <trkpt lat="44.32679" lon="3.34682">
        <ele>475</ele>
        <time>2017-03-01T23:24:59Z</time>
      </trkpt>
      <trkpt lat="44.32679" lon="3.34679">
        <ele>475</ele>
        <time>2017-03-01T23:26:59Z</time>
      </trkpt>
      <trkpt lat="44.32674" lon="3.34668">
        <ele>475</ele>
        <time>2017-03-01T23:28:59Z</time>
      </trkpt>
      <trkpt lat="44.32673" lon="3.34668">
        <ele>475</ele>
        <time>2017-03-01T23:30:59Z</time>
      </trkpt>
      <trkpt lat="44.32666" lon="3.34658">
        <ele>476</ele>
        <time>2017-03-01T23:32:59Z</time>
      </trkpt>
      <trkpt lat="44.32655" lon="3.3465">
        <ele>477</ele>
        <time>2017-03-01T23:34:59Z</time>
      </trkpt>
      <trkpt lat="44.32641" lon="3.34644">
        <ele>477</ele>
        <time>2017-03-01T23:36:59Z</time>
      </trkpt>
      <trkpt lat="44.3262" lon="3.34638">
        <ele>476</ele>
        <time>2017-03-01T23:38:59Z</time>
      </trkpt>
      <trkpt lat="44.32602" lon="3.3463">
        <ele>476</ele>
        <time>2017-03-01T23:40:59Z</time>
      </trkpt>
      <trkpt lat="44.32581" lon="3.34616">
        <ele>477</ele>
        <time>2017-03-01T23:42:59Z</time>
      </trkpt>
      <trkpt lat="44.32566" lon="3.34607">
        <ele>478</ele>
        <time>2017-03-01T23:44:59Z</time>
      </trkpt>
      <trkpt lat="44.32555" lon="3.34604">
        <ele>477</ele>
        <time>2017-03-01T23:46:59Z</time>
      </trkpt>
      <trkpt lat="44.32542" lon="3.34604">
        <ele>475</ele>
        <time>2017-03-01T23:48:59Z</time>
      </trkpt>
      <trkpt lat="44.32526" lon="3.34602">
        <ele>473</ele>
        <time>2017-03-01T23:50:59Z</time>
      </trkpt>
      <trkpt lat="44.3251" lon="3.34595">
        <ele>472</ele>
        <time>2017-03-01T23:52:59Z</time>
      </trkpt>
      <trkpt lat="44.32495" lon="3.34585">
        <ele>473</ele>
        <time>2017-03-01T23:54:59Z</time>
      </trkpt>
      <trkpt lat="44.32492" lon="3.34584">
        <ele>473</ele>
        <time>2017-03-01T23:56:59Z</time>
      </trkpt>
      <trkpt lat="44.3248" lon="3.34579">
        <ele>473</ele>
        <time>2017-03-01T23:58:59Z</time>
      </trkpt>
      <trkpt lat="44.32464" lon="3.34577">
        <ele>472</ele>
        <time>2017-03-02T00:00:59Z</time>
      </trkpt>
      <trkpt lat="44.32434" lon="3.34572">
        <ele>470</ele>
        <time>2017-03-02T00:02:59Z</time>
      </trkpt>
      <trkpt lat="44.32405" lon="3.34566">
        <ele>470</ele>
        <time>2017-03-02T00:04:59Z</time>
      </trkpt>
      <trkpt lat="44.32394" lon="3.34561">
        <ele>471</ele>
        <time>2017-03-02T00:06:59Z</time>
      </trkpt>
      <trkpt lat="44.32386" lon="3.34555">
        <ele>473</ele>
        <time>2017-03-02T00:08:59Z</time>
      </trkpt>
      <trkpt lat="44.32376" lon="3.34543">
        <ele>476</ele>
        <time>2017-03-02T00:10:59Z</time>
      </trkpt>
      <trkpt lat="44.32366" lon="3.34529">
        <ele>481</ele>
        <time>2017-03-02T00:12:59Z</time>
      </trkpt>
      <trkpt lat="44.32357" lon="3.34519">
        <ele>483</ele>
        <time>2017-03-02T00:14:59Z</time>
      </trkpt>
      <trkpt lat="44.32351" lon="3.34516">
        <ele>484</ele>
        <time>2017-03-02T00:16:59Z</time>
      </trkpt>
      <trkpt lat="44.32345" lon="3.34515">
        <ele>484</ele>
        <time>2017-03-02T00:18:59Z</time>
      </trkpt>
      <trkpt lat="44.32338" lon="3.34516">
        <ele>483</ele>
        <time>2017-03-02T00:20:59Z</time>
      </trkpt>
      <trkpt lat="44.32336" lon="3.34517">
        <ele>482</ele>
        <time>2017-03-02T00:22:59Z</time>
      </trkpt>
      <trkpt lat="44.3233" lon="3.34519">
        <ele>482</ele>
        <time>2017-03-02T00:24:59Z</time>
      </trkpt>
      <trkpt lat="44.3232" lon="3.34528">
        <ele>481</ele>
        <time>2017-03-02T00:26:59Z</time>
      </trkpt>
      <trkpt lat="44.32304" lon="3.34541">
        <ele>478</ele>
        <time>2017-03-02T00:28:59Z</time>
      </trkpt>
      <trkpt lat="44.32291" lon="3.34548">
        <ele>476</ele>
        <time>2017-03-02T00:30:59Z</time>
      </trkpt>
      <trkpt lat="44.32278" lon="3.34552">
        <ele>476</ele>
        <time>2017-03-02T00:32:59Z</time>
      </trkpt>
      <trkpt lat="44.32264" lon="3.34553">
        <ele>477</ele>
        <time>2017-03-02T00:34:59Z</time>
      </trkpt>
      <trkpt lat="44.32235" lon="3.34553">
        <ele>479</ele>
        <time>2017-03-02T00:36:59Z</time>
      </trkpt>
      <trkpt lat="44.32203" lon="3.34555">
        <ele>481</ele>
        <time>2017-03-02T00:38:59Z</time>
      </trkpt>
      <trkpt lat="44.32176" lon="3.34558">
        <ele>481</ele>
        <time>2017-03-02T00:40:59Z</time>
      </trkpt>
      <trkpt lat="44.32158" lon="3.34563">
        <ele>480</ele>
        <time>2017-03-02T00:42:59Z</time>
      </trkpt>
      <trkpt lat="44.32145" lon="3.34568">
        <ele>478</ele>
        <time>2017-03-02T00:44:59Z</time>
      </trkpt>
      <trkpt lat="44.32113" lon="3.34573">
        <ele>478</ele>
        <time>2017-03-02T00:46:59Z</time>
      </trkpt>
      <trkpt lat="44.32098" lon="3.34576">
        <ele>477</ele>
        <time>2017-03-02T00:48:59Z</time>
      </trkpt>
      <trkpt lat="44.32096" lon="3.34576">
        <ele>477</ele>
        <time>2017-03-02T00:50:59Z</time>
      </trkpt>
      <trkpt lat="44.32079" lon="3.34585">
        <ele>475</ele>
        <time>2017-03-02T00:52:59Z</time>
      </trkpt>
      <trkpt lat="44.32054" lon="3.34595">
        <ele>475</ele>
        <time>2017-03-02T00:54:59Z</time>
      </trkpt>
      <trkpt lat="44.32032" lon="3.34602">
        <ele>475</ele>
        <time>2017-03-02T00:56:59Z</time>
      </trkpt>
      <trkpt lat="44.31999" lon="3.34609">
        <ele>476</ele>
        <time>2017-03-02T00:58:59Z</time>
      </trkpt>
      <trkpt lat="44.31973" lon="3.34612">
        <ele>474</ele>
        <time>2017-03-02T01:00:59Z</time>
      </trkpt>
      <trkpt lat="44.31952" lon="3.34611">
        <ele>474</ele>
        <time>2017-03-02T01:02:59Z</time>
      </trkpt>
      <trkpt lat="44.31926" lon="3.34608">
        <ele>474</ele>
        <time>2017-03-02T01:04:59Z</time>
      </trkpt>
      <trkpt lat="44.31895" lon="3.34604">
        <ele>473</ele>
        <time>2017-03-02T01:06:59Z</time>
      </trkpt>
      <trkpt lat="44.31853" lon="3.34597">
        <ele>471</ele>
        <time>2017-03-02T01:08:59Z</time>
      </trkpt>
      <trkpt lat="44.31823" lon="3.3459">
        <ele>468</ele>
        <time>2017-03-02T01:10:59Z</time>
      </trkpt>
      <trkpt lat="44.31808" lon="3.34582">
        <ele>467</ele>
        <time>2017-03-02T01:12:59Z</time>
      </trkpt>
      <trkpt lat="44.31792" lon="3.3457">
        <ele>467</ele>
        <time>2017-03-02T01:14:59Z</time>
      </trkpt>
      <trkpt lat="44.31766" lon="3.34544">
        <ele>468</ele>
        <time>2017-03-02T01:16:59Z</time>
      </trkpt>
      <trkpt lat="44.31757" lon="3.34532">
        <ele>468</ele>
        <time>2017-03-02T01:18:59Z</time>
      </trkpt>
      <trkpt lat="44.31744" lon="3.34504">
        <ele>471</ele>
        <time>2017-03-02T01:20:59Z</time>
      </trkpt>
      <trkpt lat="44.31737" lon="3.34488">
        <ele>471</ele>
        <time>2017-03-02T01:22:59Z</time>
      </trkpt>
      <trkpt lat="44.31728" lon="3.34466">
        <ele>472</ele>
        <time>2017-03-02T01:24:59Z</time>
      </trkpt>
      <trkpt lat="44.31719" lon="3.34435">
        <ele>473</ele>
        <time>2017-03-02T01:26:59Z</time>
      </trkpt>
      <trkpt lat="44.31707" lon="3.34392">
        <ele>473</ele>
        <time>2017-03-02T01:28:59Z</time>
      </trkpt>
      <trkpt lat="44.31696" lon="3.34355">
        <ele>471</ele>
        <time>2017-03-02T01:30:59Z</time>
      </trkpt>
      <trkpt lat="44.31686" lon="3.34311">
        <ele>469</ele>
        <time>2017-03-02T01:32:59Z</time>
      </trkpt>
      <trkpt lat="44.31683" lon="3.34294">
        <ele>469</ele>
        <time>2017-03-02T01:34:59Z</time>
      </trkpt>
      <trkpt lat="44.31669" lon="3.34203">
        <ele>469</ele>
        <time>2017-03-02T01:36:59Z</time>
      </trkpt>
      <trkpt lat="44.31663" lon="3.34176">
        <ele>469</ele>
        <time>2017-03-02T01:38:59Z</time>
      </trkpt>
      <trkpt lat="44.31648" lon="3.34118">
        <ele>472</ele>
        <time>2017-03-02T01:40:59Z</time>
      </trkpt>
      <trkpt lat="44.3163" lon="3.34082">
        <ele>469</ele>
        <time>2017-03-02T01:42:59Z</time>
      </trkpt>
      <trkpt lat="44.31622" lon="3.34063">
        <ele>467</ele>
        <time>2017-03-02T01:44:59Z</time>
      </trkpt>
      <trkpt lat="44.31622" lon="3.34062">
        <ele>467</ele>
        <time>2017-03-02T01:46:59Z</time>
      </trkpt>
      <trkpt lat="44.31613" lon="3.34039">
        <ele>466</ele>
        <time>2017-03-02T01:48:59Z</time>
      </trkpt>
      <trkpt lat="44.31602" lon="3.34">
        <ele>464</ele>
        <time>2017-03-02T01:50:59Z</time>
      </trkpt>
      <trkpt lat="44.31595" lon="3.33977">
        <ele>468</ele>
        <time>2017-03-02T01:52:59Z</time>
      </trkpt>
      <trkpt lat="44.31582" lon="3.33947">
        <ele>471</ele>
        <time>2017-03-02T01:54:59Z</time>
      </trkpt>
      <trkpt lat="44.31574" lon="3.33927">
        <ele>474</ele>
        <time>2017-03-02T01:56:59Z</time>
      </trkpt>
      <trkpt lat="44.31567" lon="3.33915">
        <ele>476</ele>
        <time>2017-03-02T01:58:59Z</time>
      </trkpt>
      <trkpt lat="44.31555" lon="3.33897">
        <ele>484</ele>
        <time>2017-03-02T02:00:59Z</time>
      </trkpt>
      <trkpt lat="44.31542" lon="3.33881">
        <ele>489</ele>
        <time>2017-03-02T02:02:59Z</time>
      </trkpt>
      <trkpt lat="44.31528" lon="3.33865">
        <ele>493</ele>
        <time>2017-03-02T02:04:59Z</time>
      </trkpt>
      <trkpt lat="44.31522" lon="3.3386">
        <ele>493</ele>
        <time>2017-03-02T02:06:59Z</time>
      </trkpt>
      <trkpt lat="44.31503" lon="3.33851">
        <ele>489</ele>
        <time>2017-03-02T02:08:59Z</time>
      </trkpt>
      <trkpt lat="44.3149" lon="3.33846">
        <ele>487</ele>
        <time>2017-03-02T02:10:59Z</time>
      </trkpt>
      <trkpt lat="44.31466" lon="3.33835">
        <ele>480</ele>
        <time>2017-03-02T02:12:59Z</time>
      </trkpt>
      <trkpt lat="44.31455" lon="3.33829">
        <ele>478</ele>
        <time>2017-03-02T02:14:59Z</time>
      </trkpt>
      <trkpt lat="44.31442" lon="3.33821">
        <ele>476</ele>
        <time>2017-03-02T02:16:59Z</time>
      </trkpt>
      <trkpt lat="44.31414" lon="3.33795">
        <ele>475</ele>
        <time>2017-03-02T02:18:59Z</time>
      </trkpt>
      <trkpt lat="44.31402" lon="3.33785">
        <ele>476</ele>
        <time>2017-03-02T02:20:59Z</time>
      </trkpt>
      <trkpt lat="44.31358" lon="3.33752">
        <ele>471</ele>
        <time>2017-03-02T02:22:59Z</time>
      </trkpt>
      <trkpt lat="44.31343" lon="3.33736">
        <ele>467</ele>
        <time>2017-03-02T02:24:59Z</time>
      </trkpt>
      <trkpt lat="44.31337" lon="3.33728">
        <ele>465</ele>
        <time>2017-03-02T02:26:59Z</time>
      </trkpt>
      <trkpt lat="44.31304" lon="3.33689">
        <ele>463</ele>
        <time>2017-03-02T02:28:59Z</time>
      </trkpt>
      <trkpt lat="44.31286" lon="3.33671">
        <ele>460</ele>
        <time>2017-03-02T02:30:59Z</time>
      </trkpt>
      <trkpt lat="44.31259" lon="3.33645">
        <ele>459</ele>
        <time>2017-03-02T02:32:59Z</time>
      </trkpt>
      <trkpt lat="44.31236" lon="3.33619">
        <ele>461</ele>
        <time>2017-03-02T02:34:59Z</time>
      </trkpt>
      <trkpt lat="44.31207" lon="3.33582">
        <ele>459</ele>
        <time>2017-03-02T02:36:59Z</time>
      </trkpt>
      <trkpt lat="44.31185" lon="3.33544">
        <ele>461</ele>
        <time>2017-03-02T02:38:59Z</time>
      </trkpt>
      <trkpt lat="44.31175" lon="3.33528">
        <ele>461</ele>
        <time>2017-03-02T02:40:59Z</time>
      </trkpt>
      <trkpt lat="44.31166" lon="3.33511">
        <ele>460</ele>
        <time>2017-03-02T02:42:59Z</time>
      </trkpt>
      <trkpt lat="44.31156" lon="3.33491">
        <ele>463</ele>
        <time>2017-03-02T02:44:59Z</time>
      </trkpt>
      <trkpt lat="44.31152" lon="3.3348">
        <ele>465</ele>
        <time>2017-03-02T02:46:59Z</time>
      </trkpt>
      <trkpt lat="44.31147" lon="3.33471">
        <ele>466</ele>
        <time>2017-03-02T02:48:59Z</time>
      </trkpt>
      <trkpt lat="44.31141" lon="3.33461">
        <ele>467</ele>
        <time>2017-03-02T02:50:59Z</time>
      </trkpt>
      <trkpt lat="44.31122" lon="3.33431">
        <ele>465</ele>
        <time>2017-03-02T02:52:59Z</time>
      </trkpt>
      <trkpt lat="44.31113" lon="3.33415">
        <ele>463</ele>
        <time>2017-03-02T02:54:59Z</time>
      </trkpt>
      <trkpt lat="44.31098" lon="3.33384">
        <ele>463</ele>
        <time>2017-03-02T02:56:59Z</time>
      </trkpt>
      <trkpt lat="44.31079" lon="3.33346">
        <ele>462</ele>
        <time>2017-03-02T02:58:59Z</time>
      </trkpt>
      <trkpt lat="44.31048" lon="3.33282">
        <ele>475</ele>
        <time>2017-03-02T03:00:59Z</time>
      </trkpt>
      <trkpt lat="44.31036" lon="3.3326">
        <ele>476</ele>
        <time>2017-03-02T03:02:59Z</time>
      </trkpt>
      <trkpt lat="44.31029" lon="3.33248">
        <ele>475</ele>
        <time>2017-03-02T03:04:59Z</time>
      </trkpt>
      <trkpt lat="44.3102" lon="3.33235">
        <ele>477</ele>
        <time>2017-03-02T03:06:59Z</time>
      </trkpt>
      <trkpt lat="44.30993" lon="3.33204">
        <ele>480</ele>
        <time>2017-03-02T03:08:59Z</time>
      </trkpt>
      <trkpt lat="44.30977" lon="3.33185">
        <ele>482</ele>
        <time>2017-03-02T03:10:59Z</time>
      </trkpt>
      <trkpt lat="44.30961" lon="3.33162">
        <ele>483</ele>
        <time>2017-03-02T03:12:59Z</time>
      </trkpt>
      <trkpt lat="44.30944" lon="3.33141">
        <ele>484</ele>
        <time>2017-03-02T03:14:59Z</time>
      </trkpt>
      <trkpt lat="44.30918" lon="3.33115">
        <ele>483</ele>
        <time>2017-03-02T03:16:59Z</time>
      </trkpt>
      <trkpt lat="44.30884" lon="3.33087">
        <ele>481</ele>
        <time>2017-03-02T03:18:59Z</time>
      </trkpt>
      <trkpt lat="44.30811" lon="3.33035">
        <ele>479</ele>
        <time>2017-03-02T03:20:59Z</time>
      </trkpt>
      <trkpt lat="44.3078" lon="3.33011">
        <ele>477</ele>
        <time>2017-03-02T03:22:59Z</time>
      </trkpt>
      <trkpt lat="44.30747" lon="3.3299">
        <ele>469</ele>
        <time>2017-03-02T03:24:59Z</time>
      </trkpt>
      <trkpt lat="44.30726" lon="3.32966">
        <ele>471</ele>
        <time>2017-03-02T03:26:59Z</time>
      </trkpt>
      <trkpt lat="44.30694" lon="3.32932">
        <ele>467</ele>
        <time>2017-03-02T03:28:59Z</time>
      </trkpt>
      <trkpt lat="44.30677" lon="3.32913">
        <ele>463</ele>
        <time>2017-03-02T03:30:59Z</time>
      </trkpt>
      <trkpt lat="44.30664" lon="3.32895">
        <ele>464</ele>
        <time>2017-03-02T03:32:59Z</time>
      </trkpt>
      <trkpt lat="44.30634" lon="3.32851">
        <ele>469</ele>
        <time>2017-03-02T03:34:59Z</time>
      </trkpt>
      <trkpt lat="44.30614" lon="3.32821">
        <ele>467</ele>
        <time>2017-03-02T03:36:59Z</time>
      </trkpt>
      <trkpt lat="44.30597" lon="3.32794">
        <ele>466</ele>
        <time>2017-03-02T03:38:59Z</time>
      </trkpt>
      <trkpt lat="44.30573" lon="3.32752">
        <ele>465</ele>
        <time>2017-03-02T03:40:59Z</time>
      </trkpt>
      <trkpt lat="44.30551" lon="3.32718">
        <ele>469</ele>
        <time>2017-03-02T03:42:59Z</time>
      </trkpt>
      <trkpt lat="44.30484" lon="3.32618">
        <ele>462</ele>
        <time>2017-03-02T03:44:59Z</time>
      </trkpt>
      <trkpt lat="44.30431" lon="3.32541">
        <ele>462</ele>
        <time>2017-03-02T03:46:59Z</time>
      </trkpt>
      <trkpt lat="44.30403" lon="3.32504">
        <ele>462</ele>
        <time>2017-03-02T03:48:59Z</time>
      </trkpt>
      <trkpt lat="44.3039" lon="3.32485">
        <ele>465</ele>
        <time>2017-03-02T03:50:59Z</time>
      </trkpt>
      <trkpt lat="44.30372" lon="3.3246">
        <ele>467</ele>
        <time>2017-03-02T03:52:59Z</time>
      </trkpt>
      <trkpt lat="44.3034" lon="3.32419">
        <ele>462</ele>
        <time>2017-03-02T03:54:59Z</time>
      </trkpt>
      <trkpt lat="44.30329" lon="3.32406">
        <ele>463</ele>
        <time>2017-03-02T03:56:59Z</time>
      </trkpt>
      <trkpt lat="44.30321" lon="3.32394">
        <ele>466</ele>
        <time>2017-03-02T03:58:59Z</time>
      </trkpt>
      <trkpt lat="44.30313" lon="3.32379">
        <ele>469</ele>
        <time>2017-03-02T04:00:59Z</time>
      </trkpt>
      <trkpt lat="44.30306" lon="3.32368">
        <ele>470</ele>
        <time>2017-03-02T04:02:59Z</time>
      </trkpt>
      <trkpt lat="44.30291" lon="3.32347">
        <ele>470</ele>
        <time>2017-03-02T04:04:59Z</time>
      </trkpt>
      <trkpt lat="44.30283" lon="3.32338">
        <ele>468</ele>
        <time>2017-03-02T04:06:59Z</time>
      </trkpt>
      <trkpt lat="44.30247" lon="3.32307">
        <ele>465</ele>
        <time>2017-03-02T04:08:59Z</time>
      </trkpt>
      <trkpt lat="44.30234" lon="3.32294">
        <ele>468</ele>
        <time>2017-03-02T04:10:59Z</time>
      </trkpt>
      <trkpt lat="44.30222" lon="3.32279">
        <ele>469</ele>
        <time>2017-03-02T04:12:59Z</time>
      </trkpt>
      <trkpt lat="44.30213" lon="3.32266">
        <ele>470</ele>
        <time>2017-03-02T04:14:59Z</time>
      </trkpt>
      <trkpt lat="44.30208" lon="3.32255">
        <ele>471</ele>
        <time>2017-03-02T04:16:59Z</time>
      </trkpt>
      <trkpt lat="44.30146" lon="3.3214">
        <ele>458</ele>
        <time>2017-03-02T04:18:59Z</time>
      </trkpt>
      <trkpt lat="44.30143" lon="3.32134">
        <ele>458</ele>
        <time>2017-03-02T04:20:59Z</time>
      </trkpt>
      <trkpt lat="44.3014" lon="3.32127">
        <ele>457</ele>
        <time>2017-03-02T04:22:59Z</time>
      </trkpt>
      <trkpt lat="44.30137" lon="3.32118">
        <ele>457</ele>
        <time>2017-03-02T04:24:59Z</time>
      </trkpt>
      <trkpt lat="44.30134" lon="3.32108">
        <ele>456</ele>
        <time>2017-03-02T04:26:59Z</time>
      </trkpt>
      <trkpt lat="44.30132" lon="3.32095">
        <ele>456</ele>
        <time>2017-03-02T04:28:59Z</time>
      </trkpt>
      <trkpt lat="44.30129" lon="3.32083">
        <ele>455</ele>
        <time>2017-03-02T04:30:59Z</time>
      </trkpt>
      <trkpt lat="44.30127" lon="3.32071">
        <ele>454</ele>
        <time>2017-03-02T04:32:59Z</time>
      </trkpt>
      <trkpt lat="44.30127" lon="3.32066">
        <ele>454</ele>
        <time>2017-03-02T04:34:59Z</time>
      </trkpt>
      <trkpt lat="44.30126" lon="3.3206">
        <ele>454</ele>
        <time>2017-03-02T04:36:59Z</time>
      </trkpt>
      <trkpt lat="44.30126" lon="3.32045">
        <ele>453</ele>
        <time>2017-03-02T04:38:59Z</time>
      </trkpt>
      <trkpt lat="44.30128" lon="3.32034">
        <ele>453</ele>
        <time>2017-03-02T04:40:59Z</time>
      </trkpt>
      <trkpt lat="44.30129" lon="3.3203">
        <ele>453</ele>
        <time>2017-03-02T04:42:59Z</time>
      </trkpt>
      <trkpt lat="44.30131" lon="3.32024">
        <ele>453</ele>
        <time>2017-03-02T04:44:59Z</time>
      </trkpt>
      <trkpt lat="44.30154" lon="3.32024">
        <ele>457</ele>
        <time>2017-03-02T04:46:59Z</time>
      </trkpt>
      <trkpt lat="44.3017" lon="3.32022">
        <ele>460</ele>
        <time>2017-03-02T04:48:59Z</time>
      </trkpt>
      <trkpt lat="44.30193" lon="3.32021">
        <ele>464</ele>
        <time>2017-03-02T04:50:59Z</time>
      </trkpt>
      <trkpt lat="44.3021" lon="3.32018">
        <ele>467</ele>
        <time>2017-03-02T04:52:59Z</time>
      </trkpt>
      <trkpt lat="44.30228" lon="3.32011">
        <ele>468</ele>
        <time>2017-03-02T04:54:59Z</time>
      </trkpt>
      <trkpt lat="44.30243" lon="3.32003">
        <ele>469</ele>
        <time>2017-03-02T04:56:59Z</time>
      </trkpt>
      <trkpt lat="44.30259" lon="3.31993">
        <ele>472</ele>
        <time>2017-03-02T04:58:59Z</time>
      </trkpt>
      <trkpt lat="44.3027" lon="3.31988">
        <ele>475</ele>
        <time>2017-03-02T05:00:59Z</time>
      </trkpt>
      <trkpt lat="44.30282" lon="3.31983">
        <ele>478</ele>
        <time>2017-03-02T05:02:59Z</time>
      </trkpt>
      <trkpt lat="44.30292" lon="3.3198">
        <ele>479</ele>
        <time>2017-03-02T05:04:59Z</time>
      </trkpt>
      <trkpt lat="44.3031" lon="3.31978">
        <ele>482</ele>
        <time>2017-03-02T05:06:59Z</time>
      </trkpt>
      <trkpt lat="44.30321" lon="3.3198">
        <ele>482</ele>
        <time>2017-03-02T05:08:59Z</time>
      </trkpt>
      <trkpt lat="44.30334" lon="3.31984">
        <ele>482</ele>
        <time>2017-03-02T05:10:59Z</time>
      </trkpt>
      <trkpt lat="44.30348" lon="3.31992">
        <ele>480</ele>
        <time>2017-03-02T05:12:59Z</time>
      </trkpt>
      <trkpt lat="44.30363" lon="3.32002">
        <ele>479</ele>
        <time>2017-03-02T05:14:59Z</time>
      </trkpt>
      <trkpt lat="44.3037" lon="3.32009">
        <ele>482</ele>
        <time>2017-03-02T05:16:59Z</time>
      </trkpt>
      <trkpt lat="44.30385" lon="3.32022">
        <ele>486</ele>
        <time>2017-03-02T05:18:59Z</time>
      </trkpt>
      <trkpt lat="44.30392" lon="3.32031">
        <ele>488</ele>
        <time>2017-03-02T05:20:59Z</time>
      </trkpt>
      <trkpt lat="44.30396" lon="3.32034">
        <ele>489</ele>
        <time>2017-03-02T05:22:59Z</time>
      </trkpt>
      <trkpt lat="44.30401" lon="3.32037">
        <ele>489</ele>
        <time>2017-03-02T05:24:59Z</time>
      </trkpt>
      <trkpt lat="44.30407" lon="3.3204">
        <ele>490</ele>
        <time>2017-03-02T05:26:59Z</time>
      </trkpt>
      <trkpt lat="44.30412" lon="3.32042">
        <ele>490</ele>
        <time>2017-03-02T05:28:59Z</time>
      </trkpt>
      <trkpt lat="44.30421" lon="3.32042">
        <ele>491</ele>
        <time>2017-03-02T05:30:59Z</time>
      </trkpt>
      <trkpt lat="44.30432" lon="3.32041">
        <ele>492</ele>
        <time>2017-03-02T05:32:59Z</time>
      </trkpt>
      <trkpt lat="44.30438" lon="3.32041">
        <ele>492</ele>
        <time>2017-03-02T05:34:59Z</time>
      </trkpt>
      <trkpt lat="44.30448" lon="3.32038">
        <ele>493</ele>
        <time>2017-03-02T05:36:59Z</time>
      </trkpt>
      <trkpt lat="44.30488" lon="3.32022">
        <ele>495</ele>
        <time>2017-03-02T05:38:59Z</time>
      </trkpt>
      <trkpt lat="44.30494" lon="3.3202">
        <ele>495</ele>
        <time>2017-03-02T05:40:59Z</time>
      </trkpt>
      <trkpt lat="44.30499" lon="3.32019">
        <ele>496</ele>
        <time>2017-03-02T05:42:59Z</time>
      </trkpt>
      <trkpt lat="44.30519" lon="3.32019">
        <ele>500</ele>
        <time>2017-03-02T05:44:59Z</time>
      </trkpt>
      <trkpt lat="44.30527" lon="3.32021">
        <ele>502</ele>
        <time>2017-03-02T05:46:59Z</time>
      </trkpt>
      <trkpt lat="44.30549" lon="3.32021">
        <ele>507</ele>
        <time>2017-03-02T05:48:59Z</time>
      </trkpt>
      <trkpt lat="44.3057" lon="3.32016">
        <ele>510</ele>
        <time>2017-03-02T05:50:59Z</time>
      </trkpt>
      <trkpt lat="44.30583" lon="3.32011">
        <ele>512</ele>
        <time>2017-03-02T05:52:59Z</time>
      </trkpt>
      <trkpt lat="44.30589" lon="3.32007">
        <ele>513</ele>
        <time>2017-03-02T05:54:59Z</time>
      </trkpt>
      <trkpt lat="44.3061" lon="3.31983">
        <ele>519</ele>
        <time>2017-03-02T05:56:59Z</time>
      </trkpt>
      <trkpt lat="44.30619" lon="3.31977">
        <ele>522</ele>
        <time>2017-03-02T05:58:59Z</time>
      </trkpt>
      <trkpt lat="44.30622" lon="3.31973">
        <ele>523</ele>
        <time>2017-03-02T06:00:59Z</time>
      </trkpt>
      <trkpt lat="44.30624" lon="3.31972">
        <ele>524</ele>
        <time>2017-03-02T06:02:59Z</time>
      </trkpt>
      <trkpt lat="44.30626" lon="3.31968">
        <ele>524</ele>
        <time>2017-03-02T06:04:59Z</time>
      </trkpt>
      <trkpt lat="44.30627" lon="3.31965">
        <ele>524</ele>
        <time>2017-03-02T06:06:59Z</time>
      </trkpt>
      <trkpt lat="44.30627" lon="3.31957">
        <ele>525</ele>
        <time>2017-03-02T06:08:59Z</time>
      </trkpt>
      <trkpt lat="44.30625" lon="3.31939">
        <ele>525</ele>
        <time>2017-03-02T06:10:59Z</time>
      </trkpt>
      <trkpt lat="44.30624" lon="3.31932">
        <ele>525</ele>
        <time>2017-03-02T06:12:59Z</time>
      </trkpt>
      <trkpt lat="44.30625" lon="3.31927">
        <ele>525</ele>
        <time>2017-03-02T06:14:59Z</time>
      </trkpt>
      <trkpt lat="44.30625" lon="3.31923">
        <ele>525</ele>
        <time>2017-03-02T06:16:59Z</time>
      </trkpt>
      <trkpt lat="44.30627" lon="3.31918">
        <ele>526</ele>
        <time>2017-03-02T06:18:59Z</time>
      </trkpt>
      <trkpt lat="44.30631" lon="3.31912">
        <ele>527</ele>
        <time>2017-03-02T06:20:59Z</time>
      </trkpt>
      <trkpt lat="44.30637" lon="3.31908">
        <ele>529</ele>
        <time>2017-03-02T06:22:59Z</time>
      </trkpt>
      <trkpt lat="44.30644" lon="3.31908">
        <ele>529</ele>
        <time>2017-03-02T06:24:59Z</time>
      </trkpt>
      <trkpt lat="44.30648" lon="3.3191">
        <ele>529</ele>
        <time>2017-03-02T06:26:59Z</time>
      </trkpt>
      <trkpt lat="44.30656" lon="3.31913">
        <ele>528</ele>
        <time>2017-03-02T06:28:59Z</time>
      </trkpt>
      <trkpt lat="44.30663" lon="3.31914">
        <ele>528</ele>
        <time>2017-03-02T06:30:59Z</time>
      </trkpt>
      <trkpt lat="44.30672" lon="3.31914">
        <ele>529</ele>
        <time>2017-03-02T06:32:59Z</time>
      </trkpt>
      <trkpt lat="44.30682" lon="3.31911">
        <ele>532</ele>
        <time>2017-03-02T06:34:59Z</time>
      </trkpt>
      <trkpt lat="44.30694" lon="3.31906">
        <ele>535</ele>
        <time>2017-03-02T06:36:59Z</time>
      </trkpt>
      <trkpt lat="44.30721" lon="3.31897">
        <ele>542</ele>
        <time>2017-03-02T06:38:59Z</time>
      </trkpt>
      <trkpt lat="44.30728" lon="3.31895">
        <ele>544</ele>
        <time>2017-03-02T06:40:59Z</time>
      </trkpt>
      <trkpt lat="44.30736" lon="3.31892">
        <ele>546</ele>
        <time>2017-03-02T06:42:59Z</time>
      </trkpt>
      <trkpt lat="44.30743" lon="3.31889">
        <ele>548</ele>
        <time>2017-03-02T06:44:59Z</time>
      </trkpt>
      <trkpt lat="44.30754" lon="3.31888">
        <ele>549</ele>
        <time>2017-03-02T06:46:59Z</time>
      </trkpt>
      <trkpt lat="44.30775" lon="3.31888">
        <ele>552</ele>
        <time>2017-03-02T06:48:59Z</time>
      </trkpt>
      <trkpt lat="44.30793" lon="3.31891">
        <ele>554</ele>
        <time>2017-03-02T06:50:59Z</time>
      </trkpt>
      <trkpt lat="44.30797" lon="3.31893">
        <ele>554</ele>
        <time>2017-03-02T06:52:59Z</time>
      </trkpt>
      <trkpt lat="44.30802" lon="3.31896">
        <ele>554</ele>
        <time>2017-03-02T06:54:59Z</time>
      </trkpt>
      <trkpt lat="44.30808" lon="3.31901">
        <ele>554</ele>
        <time>2017-03-02T06:56:59Z</time>
      </trkpt>
      <trkpt lat="44.30813" lon="3.31907">
        <ele>553</ele>
        <time>2017-03-02T06:58:59Z</time>
      </trkpt>
      <trkpt lat="44.3082" lon="3.31917">
        <ele>552</ele>
        <time>2017-03-02T07:00:59Z</time>
      </trkpt>
      <trkpt lat="44.30826" lon="3.31925">
        <ele>555</ele>
        <time>2017-03-02T07:02:59Z</time>
      </trkpt>
      <trkpt lat="44.30832" lon="3.31931">
        <ele>558</ele>
        <time>2017-03-02T07:04:59Z</time>
      </trkpt>
      <trkpt lat="44.30837" lon="3.31933">
        <ele>559</ele>
        <time>2017-03-02T07:06:59Z</time>
      </trkpt>
      <trkpt lat="44.30845" lon="3.31935">
        <ele>562</ele>
        <time>2017-03-02T07:08:59Z</time>
      </trkpt>
      <trkpt lat="44.30871" lon="3.31939">
        <ele>568</ele>
        <time>2017-03-02T07:10:59Z</time>
      </trkpt>
      <trkpt lat="44.30882" lon="3.3194">
        <ele>570</ele>
        <time>2017-03-02T07:12:59Z</time>
      </trkpt>
      <trkpt lat="44.30896" lon="3.31938">
        <ele>572</ele>
        <time>2017-03-02T07:14:59Z</time>
      </trkpt>
      <trkpt lat="44.30904" lon="3.31934">
        <ele>572</ele>
        <time>2017-03-02T07:16:59Z</time>
      </trkpt>
      <trkpt lat="44.30909" lon="3.31931">
        <ele>572</ele>
        <time>2017-03-02T07:18:59Z</time>
      </trkpt>
      <trkpt lat="44.30911" lon="3.31929">
        <ele>572</ele>
        <time>2017-03-02T07:20:59Z</time>
      </trkpt>
      <trkpt lat="44.30916" lon="3.31925">
        <ele>572</ele>
        <time>2017-03-02T07:22:59Z</time>
      </trkpt>
      <trkpt lat="44.3092" lon="3.31921">
        <ele>572</ele>
        <time>2017-03-02T07:24:59Z</time>
      </trkpt>
      <trkpt lat="44.30923" lon="3.31916">
        <ele>572</ele>
        <time>2017-03-02T07:26:59Z</time>
      </trkpt>
      <trkpt lat="44.30931" lon="3.319">
        <ele>578</ele>
        <time>2017-03-02T07:28:59Z</time>
      </trkpt>
      <trkpt lat="44.30939" lon="3.31874">
        <ele>583</ele>
        <time>2017-03-02T07:30:59Z</time>
      </trkpt>
      <trkpt lat="44.30943" lon="3.31863">
        <ele>585</ele>
        <time>2017-03-02T07:32:59Z</time>
      </trkpt>
      <trkpt lat="44.30945" lon="3.31851">
        <ele>586</ele>
        <time>2017-03-02T07:34:59Z</time>
      </trkpt>
      <trkpt lat="44.30947" lon="3.31834">
        <ele>587</ele>
        <time>2017-03-02T07:36:59Z</time>
      </trkpt>
      <trkpt lat="44.30947" lon="3.31827">
        <ele>588</ele>
        <time>2017-03-02T07:38:59Z</time>
      </trkpt>
      <trkpt lat="44.30944" lon="3.31807">
        <ele>589</ele>
        <time>2017-03-02T07:40:59Z</time>
      </trkpt>
      <trkpt lat="44.30943" lon="3.31794">
        <ele>590</ele>
        <time>2017-03-02T07:42:59Z</time>
      </trkpt>
      <trkpt lat="44.30945" lon="3.31785">
        <ele>591</ele>
        <time>2017-03-02T07:44:59Z</time>
      </trkpt>
      <trkpt lat="44.30948" lon="3.31778">
        <ele>592</ele>
        <time>2017-03-02T07:46:59Z</time>
      </trkpt>
      <trkpt lat="44.30959" lon="3.31757">
        <ele>593</ele>
        <time>2017-03-02T07:48:59Z</time>
      </trkpt>
      <trkpt lat="44.30972" lon="3.31735">
        <ele>593</ele>
        <time>2017-03-02T07:50:59Z</time>
      </trkpt>
      <trkpt lat="44.30976" lon="3.31726">
        <ele>593</ele>
        <time>2017-03-02T07:52:59Z</time>
      </trkpt>
      <trkpt lat="44.30978" lon="3.3172">
        <ele>593</ele>
        <time>2017-03-02T07:54:59Z</time>
      </trkpt>
      <trkpt lat="44.30979" lon="3.31714">
        <ele>593</ele>
        <time>2017-03-02T07:56:59Z</time>
      </trkpt>
      <trkpt lat="44.30979" lon="3.31681">
        <ele>594</ele>
        <time>2017-03-02T07:58:59Z</time>
      </trkpt>
      <trkpt lat="44.3098" lon="3.31673">
        <ele>593</ele>
        <time>2017-03-02T08:00:59Z</time>
      </trkpt>
      <trkpt lat="44.30981" lon="3.31668">
        <ele>593</ele>
        <time>2017-03-02T08:02:59Z</time>
      </trkpt>
      <trkpt lat="44.30984" lon="3.3166">
        <ele>594</ele>
        <time>2017-03-02T08:04:59Z</time>
      </trkpt>
      <trkpt lat="44.30988" lon="3.31655">
        <ele>595</ele>
        <time>2017-03-02T08:06:59Z</time>
      </trkpt>
      <trkpt lat="44.30993" lon="3.3165">
        <ele>595</ele>
        <time>2017-03-02T08:08:59Z</time>
      </trkpt>
      <trkpt lat="44.31001" lon="3.31647">
        <ele>594</ele>
        <time>2017-03-02T08:10:59Z</time>
      </trkpt>
      <trkpt lat="44.31008" lon="3.31646">
        <ele>595</ele>
        <time>2017-03-02T08:12:59Z</time>
      </trkpt>
      <trkpt lat="44.31019" lon="3.31645">
        <ele>596</ele>
        <time>2017-03-02T08:14:59Z</time>
      </trkpt>
      <trkpt lat="44.31046" lon="3.31645">
        <ele>600</ele>
        <time>2017-03-02T08:16:59Z</time>
      </trkpt>
      <trkpt lat="44.31096" lon="3.31649">
        <ele>605</ele>
        <time>2017-03-02T08:18:59Z</time>
      </trkpt>
      <trkpt lat="44.31103" lon="3.3165">
        <ele>606</ele>
        <time>2017-03-02T08:20:59Z</time>
      </trkpt>
      <trkpt lat="44.31105" lon="3.31651">
        <ele>606</ele>
        <time>2017-03-02T08:22:59Z</time>
      </trkpt>
      <trkpt lat="44.31107" lon="3.31653">
        <ele>606</ele>
        <time>2017-03-02T08:24:59Z</time>
      </trkpt>
      <trkpt lat="44.31108" lon="3.31655">
        <ele>606</ele>
        <time>2017-03-02T08:26:59Z</time>
      </trkpt>
      <trkpt lat="44.31109" lon="3.31658">
        <ele>606</ele>
        <time>2017-03-02T08:28:59Z</time>
      </trkpt>
      <trkpt lat="44.31108" lon="3.31662">
        <ele>605</ele>
        <time>2017-03-02T08:30:59Z</time>
      </trkpt>
      <trkpt lat="44.31107" lon="3.31664">
        <ele>605</ele>
        <time>2017-03-02T08:32:59Z</time>
      </trkpt>
      <trkpt lat="44.31105" lon="3.31666">
        <ele>604</ele>
        <time>2017-03-02T08:34:59Z</time>
      </trkpt>
      <trkpt lat="44.31103" lon="3.31667">
        <ele>604</ele>
        <time>2017-03-02T08:36:59Z</time>
      </trkpt>
      <trkpt lat="44.31099" lon="3.31667">
        <ele>604</ele>
        <time>2017-03-02T08:38:59Z</time>
      </trkpt>
      <trkpt lat="44.31083" lon="3.31665">
        <ele>601</ele>
        <time>2017-03-02T08:40:59Z</time>
      </trkpt>
      <trkpt lat="44.31073" lon="3.31666">
        <ele>600</ele>
        <time>2017-03-02T08:42:59Z</time>
      </trkpt>
      <trkpt lat="44.31065" lon="3.31666">
        <ele>598</ele>
        <time>2017-03-02T08:44:59Z</time>
      </trkpt>
      <trkpt lat="44.31044" lon="3.31672">
        <ele>596</ele>
        <time>2017-03-02T08:46:59Z</time>
      </trkpt>
      <trkpt lat="44.31039" lon="3.31673">
        <ele>595</ele>
        <time>2017-03-02T08:48:59Z</time>
      </trkpt>
      <trkpt lat="44.31036" lon="3.31675">
        <ele>595</ele>
        <time>2017-03-02T08:50:59Z</time>
      </trkpt>
      <trkpt lat="44.31033" lon="3.31678">
        <ele>595</ele>
        <time>2017-03-02T08:52:59Z</time>
      </trkpt>
      <trkpt lat="44.31033" lon="3.31685">
        <ele>596</ele>
        <time>2017-03-02T08:54:59Z</time>
      </trkpt>
      <trkpt lat="44.31035" lon="3.31691">
        <ele>597</ele>
        <time>2017-03-02T08:56:59Z</time>
      </trkpt>
      <trkpt lat="44.31037" lon="3.31692">
        <ele>598</ele>
        <time>2017-03-02T08:58:59Z</time>
      </trkpt>
      <trkpt lat="44.3104" lon="3.31692">
        <ele>598</ele>
        <time>2017-03-02T09:00:59Z</time>
      </trkpt>
      <trkpt lat="44.31045" lon="3.3169">
        <ele>599</ele>
        <time>2017-03-02T09:02:59Z</time>
      </trkpt>
      <trkpt lat="44.31051" lon="3.31687">
        <ele>600</ele>
        <time>2017-03-02T09:04:59Z</time>
      </trkpt>
      <trkpt lat="44.31054" lon="3.31686">
        <ele>600</ele>
        <time>2017-03-02T09:06:59Z</time>
      </trkpt>
      <trkpt lat="44.31056" lon="3.31685">
        <ele>600</ele>
        <time>2017-03-02T09:08:59Z</time>
      </trkpt>
      <trkpt lat="44.31074" lon="3.31688">
        <ele>605</ele>
        <time>2017-03-02T09:10:59Z</time>
      </trkpt>
      <trkpt lat="44.31112" lon="3.31699">
        <ele>615</ele>
        <time>2017-03-02T09:12:59Z</time>
      </trkpt>
      <trkpt lat="44.31122" lon="3.31701">
        <ele>617</ele>
        <time>2017-03-02T09:14:59Z</time>
      </trkpt>
      <trkpt lat="44.3114" lon="3.31701">
        <ele>620</ele>
        <time>2017-03-02T09:16:59Z</time>
      </trkpt>
      <trkpt lat="44.31151" lon="3.31699">
        <ele>622</ele>
        <time>2017-03-02T09:18:59Z</time>
      </trkpt>
      <trkpt lat="44.31159" lon="3.31696">
        <ele>622</ele>
        <time>2017-03-02T09:20:59Z</time>
      </trkpt>
      <trkpt lat="44.31165" lon="3.31691">
        <ele>622</ele>
        <time>2017-03-02T09:22:59Z</time>
      </trkpt>
      <trkpt lat="44.31171" lon="3.31684">
        <ele>621</ele>
        <time>2017-03-02T09:24:59Z</time>
      </trkpt>
      <trkpt lat="44.31177" lon="3.31675">
        <ele>620</ele>
        <time>2017-03-02T09:26:59Z</time>
      </trkpt>
      <trkpt lat="44.3118" lon="3.31668">
        <ele>619</ele>
        <time>2017-03-02T09:28:59Z</time>
      </trkpt>
      <trkpt lat="44.31183" lon="3.31659">
        <ele>620</ele>
        <time>2017-03-02T09:30:59Z</time>
      </trkpt>
      <trkpt lat="44.31188" lon="3.31641">
        <ele>620</ele>
        <time>2017-03-02T09:32:59Z</time>
      </trkpt>
      <trkpt lat="44.31193" lon="3.31615">
        <ele>620</ele>
        <time>2017-03-02T09:34:59Z</time>
      </trkpt>
      <trkpt lat="44.31204" lon="3.31582">
        <ele>621</ele>
        <time>2017-03-02T09:36:59Z</time>
      </trkpt>
      <trkpt lat="44.3121" lon="3.31572">
        <ele>624</ele>
        <time>2017-03-02T09:38:59Z</time>
      </trkpt>
      <trkpt lat="44.31216" lon="3.31564">
        <ele>626</ele>
        <time>2017-03-02T09:40:59Z</time>
      </trkpt>
      <trkpt lat="44.31223" lon="3.3156">
        <ele>628</ele>
        <time>2017-03-02T09:42:59Z</time>
      </trkpt>
      <trkpt lat="44.3123" lon="3.31557">
        <ele>629</ele>
        <time>2017-03-02T09:44:59Z</time>
      </trkpt>
      <trkpt lat="44.31238" lon="3.31556">
        <ele>630</ele>
        <time>2017-03-02T09:46:59Z</time>
      </trkpt>
      <trkpt lat="44.31244" lon="3.31557">
        <ele>631</ele>
        <time>2017-03-02T09:48:59Z</time>
      </trkpt>
      <trkpt lat="44.3128" lon="3.31573">
        <ele>637</ele>
        <time>2017-03-02T09:50:59Z</time>
      </trkpt>
      <trkpt lat="44.31288" lon="3.31576">
        <ele>639</ele>
        <time>2017-03-02T09:52:59Z</time>
      </trkpt>
      <trkpt lat="44.31293" lon="3.31577">
        <ele>640</ele>
        <time>2017-03-02T09:54:59Z</time>
      </trkpt>
      <trkpt lat="44.31309" lon="3.31578">
        <ele>643</ele>
        <time>2017-03-02T09:56:59Z</time>
      </trkpt>
      <trkpt lat="44.31321" lon="3.31574">
        <ele>645</ele>
        <time>2017-03-02T09:58:59Z</time>
      </trkpt>
      <trkpt lat="44.31333" lon="3.31567">
        <ele>647</ele>
        <time>2017-03-02T10:00:59Z</time>
      </trkpt>
      <trkpt lat="44.3134" lon="3.31558">
        <ele>647</ele>
        <time>2017-03-02T10:02:59Z</time>
      </trkpt>
      <trkpt lat="44.31348" lon="3.31544">
        <ele>647</ele>
        <time>2017-03-02T10:04:59Z</time>
      </trkpt>
      <trkpt lat="44.31358" lon="3.3152">
        <ele>645</ele>
        <time>2017-03-02T10:06:59Z</time>
      </trkpt>
      <trkpt lat="44.31362" lon="3.31509">
        <ele>644</ele>
        <time>2017-03-02T10:08:59Z</time>
      </trkpt>
      <trkpt lat="44.31372" lon="3.31495">
        <ele>645</ele>
        <time>2017-03-02T10:10:59Z</time>
      </trkpt>
      <trkpt lat="44.31379" lon="3.31489">
        <ele>647</ele>
        <time>2017-03-02T10:12:59Z</time>
      </trkpt>
      <trkpt lat="44.3139" lon="3.31485">
        <ele>649</ele>
        <time>2017-03-02T10:14:59Z</time>
      </trkpt>
      <trkpt lat="44.31396" lon="3.31485">
        <ele>650</ele>
        <time>2017-03-02T10:16:59Z</time>
      </trkpt>
      <trkpt lat="44.31402" lon="3.31488">
        <ele>650</ele>
        <time>2017-03-02T10:18:59Z</time>
      </trkpt>
      <trkpt lat="44.31408" lon="3.31495">
        <ele>650</ele>
        <time>2017-03-02T10:20:59Z</time>
      </trkpt>
      <trkpt lat="44.31413" lon="3.31502">
        <ele>650</ele>
        <time>2017-03-02T10:22:59Z</time>
      </trkpt>
      <trkpt lat="44.31416" lon="3.31512">
        <ele>651</ele>
        <time>2017-03-02T10:24:59Z</time>
      </trkpt>
      <trkpt lat="44.3142" lon="3.31523">
        <ele>653</ele>
        <time>2017-03-02T10:26:59Z</time>
      </trkpt>
      <trkpt lat="44.31427" lon="3.31552">
        <ele>657</ele>
        <time>2017-03-02T10:28:59Z</time>
      </trkpt>
      <trkpt lat="44.3143" lon="3.31561">
        <ele>658</ele>
        <time>2017-03-02T10:30:59Z</time>
      </trkpt>
      <trkpt lat="44.31435" lon="3.3157">
        <ele>659</ele>
        <time>2017-03-02T10:32:59Z</time>
      </trkpt>
      <trkpt lat="44.3144" lon="3.31577">
        <ele>660</ele>
        <time>2017-03-02T10:34:59Z</time>
      </trkpt>
      <trkpt lat="44.31445" lon="3.31583">
        <ele>660</ele>
        <time>2017-03-02T10:36:59Z</time>
      </trkpt>
      <trkpt lat="44.31452" lon="3.31588">
        <ele>662</ele>
        <time>2017-03-02T10:38:59Z</time>
      </trkpt>
      <trkpt lat="44.31458" lon="3.3159">
        <ele>662</ele>
        <time>2017-03-02T10:40:59Z</time>
      </trkpt>
      <trkpt lat="44.31468" lon="3.31592">
        <ele>663</ele>
        <time>2017-03-02T10:42:59Z</time>
      </trkpt>
      <trkpt lat="44.31496" lon="3.31594">
        <ele>664</ele>
        <time>2017-03-02T10:44:59Z</time>
      </trkpt>
      <trkpt lat="44.31513" lon="3.31593">
        <ele>666</ele>
        <time>2017-03-02T10:46:59Z</time>
      </trkpt>
      <trkpt lat="44.3152" lon="3.31592">
        <ele>667</ele>
        <time>2017-03-02T10:48:59Z</time>
      </trkpt>
      <trkpt lat="44.31527" lon="3.31589">
        <ele>668</ele>
        <time>2017-03-02T10:50:59Z</time>
      </trkpt>
      <trkpt lat="44.31535" lon="3.31585">
        <ele>668</ele>
        <time>2017-03-02T10:52:59Z</time>
      </trkpt>
      <trkpt lat="44.31542" lon="3.3158">
        <ele>669</ele>
        <time>2017-03-02T10:54:59Z</time>
      </trkpt>
      <trkpt lat="44.31566" lon="3.31561">
        <ele>675</ele>
        <time>2017-03-02T10:56:59Z</time>
      </trkpt>
      <trkpt lat="44.31577" lon="3.31555">
        <ele>678</ele>
        <time>2017-03-02T10:58:59Z</time>
      </trkpt>
      <trkpt lat="44.31584" lon="3.31552">
        <ele>679</ele>
        <time>2017-03-02T11:00:59Z</time>
      </trkpt>
      <trkpt lat="44.31595" lon="3.31549">
        <ele>679</ele>
        <time>2017-03-02T11:02:59Z</time>
      </trkpt>
      <trkpt lat="44.31606" lon="3.31547">
        <ele>679</ele>
        <time>2017-03-02T11:04:59Z</time>
      </trkpt>
      <trkpt lat="44.31619" lon="3.31544">
        <ele>679</ele>
        <time>2017-03-02T11:06:59Z</time>
      </trkpt>
      <trkpt lat="44.31631" lon="3.3154">
        <ele>679</ele>
        <time>2017-03-02T11:08:59Z</time>
      </trkpt>
      <trkpt lat="44.31653" lon="3.31531">
        <ele>679</ele>
        <time>2017-03-02T11:10:59Z</time>
      </trkpt>
      <trkpt lat="44.31683" lon="3.3152">
        <ele>678</ele>
        <time>2017-03-02T11:12:59Z</time>
      </trkpt>
      <trkpt lat="44.31736" lon="3.315">
        <ele>678</ele>
        <time>2017-03-02T11:14:59Z</time>
      </trkpt>
      <trkpt lat="44.31765" lon="3.31494">
        <ele>680</ele>
        <time>2017-03-02T11:16:59Z</time>
      </trkpt>
      <trkpt lat="44.31801" lon="3.31491">
        <ele>683</ele>
        <time>2017-03-02T11:18:59Z</time>
      </trkpt>
      <trkpt lat="44.31836" lon="3.31489">
        <ele>686</ele>
        <time>2017-03-02T11:20:59Z</time>
      </trkpt>
      <trkpt lat="44.31864" lon="3.31485">
        <ele>689</ele>
        <time>2017-03-02T11:22:59Z</time>
      </trkpt>
      <trkpt lat="44.31878" lon="3.31485">
        <ele>691</ele>
        <time>2017-03-02T11:24:59Z</time>
      </trkpt>
      <trkpt lat="44.31891" lon="3.31484">
        <ele>692</ele>
        <time>2017-03-02T11:26:59Z</time>
      </trkpt>
      <trkpt lat="44.319" lon="3.31484">
        <ele>693</ele>
        <time>2017-03-02T11:28:59Z</time>
      </trkpt>
      <trkpt lat="44.3191" lon="3.31482">
        <ele>694</ele>
        <time>2017-03-02T11:30:59Z</time>
      </trkpt>
      <trkpt lat="44.31921" lon="3.31477">
        <ele>695</ele>
        <time>2017-03-02T11:32:59Z</time>
      </trkpt>
      <trkpt lat="44.31939" lon="3.31471">
        <ele>697</ele>
        <time>2017-03-02T11:34:59Z</time>
      </trkpt>
      <trkpt lat="44.32016" lon="3.31435">
        <ele>699</ele>
        <time>2017-03-02T11:36:59Z</time>
      </trkpt>
      <trkpt lat="44.32047" lon="3.31422">
        <ele>698</ele>
        <time>2017-03-02T11:38:59Z</time>
      </trkpt>
      <trkpt lat="44.32059" lon="3.31415">
        <ele>698</ele>
        <time>2017-03-02T11:40:59Z</time>
      </trkpt>
      <trkpt lat="44.32093" lon="3.31394">
        <ele>702</ele>
        <time>2017-03-02T11:42:59Z</time>
      </trkpt>
      <trkpt lat="44.32105" lon="3.3139">
        <ele>704</ele>
        <time>2017-03-02T11:44:59Z</time>
      </trkpt>
      <trkpt lat="44.32109" lon="3.3139">
        <ele>705</ele>
        <time>2017-03-02T11:46:59Z</time>
      </trkpt>
      <trkpt lat="44.32115" lon="3.31391">
        <ele>705</ele>
        <time>2017-03-02T11:48:59Z</time>
      </trkpt>
      <trkpt lat="44.3212" lon="3.31393">
        <ele>705</ele>
        <time>2017-03-02T11:50:59Z</time>
      </trkpt>
      <trkpt lat="44.32125" lon="3.31396">
        <ele>705</ele>
        <time>2017-03-02T11:52:59Z</time>
      </trkpt>
      <trkpt lat="44.3213" lon="3.314">
        <ele>705</ele>
        <time>2017-03-02T11:54:59Z</time>
      </trkpt>
      <trkpt lat="44.32138" lon="3.3141">
        <ele>704</ele>
        <time>2017-03-02T11:56:59Z</time>
      </trkpt>
      <trkpt lat="44.32156" lon="3.31436">
        <ele>708</ele>
        <time>2017-03-02T11:58:59Z</time>
      </trkpt>
      <trkpt lat="44.3216" lon="3.31439">
        <ele>708</ele>
        <time>2017-03-02T12:00:59Z</time>
      </trkpt>
      <trkpt lat="44.32164" lon="3.31441">
        <ele>709</ele>
        <time>2017-03-02T12:02:59Z</time>
      </trkpt>
      <trkpt lat="44.32169" lon="3.31443">
        <ele>709</ele>
        <time>2017-03-02T12:04:59Z</time>
      </trkpt>
      <trkpt lat="44.32173" lon="3.31444">
        <ele>710</ele>
        <time>2017-03-02T12:06:59Z</time>
      </trkpt>
      <trkpt lat="44.32177" lon="3.31444">
        <ele>710</ele>
        <time>2017-03-02T12:08:59Z</time>
      </trkpt>
      <trkpt lat="44.32182" lon="3.31443">
        <ele>711</ele>
        <time>2017-03-02T12:10:59Z</time>
      </trkpt>
      <trkpt lat="44.32193" lon="3.31439">
        <ele>712</ele>
        <time>2017-03-02T12:12:59Z</time>
      </trkpt>
      <trkpt lat="44.32203" lon="3.31434">
        <ele>712</ele>
        <time>2017-03-02T12:14:59Z</time>
      </trkpt>
      <trkpt lat="44.32218" lon="3.31424">
        <ele>712</ele>
        <time>2017-03-02T12:16:59Z</time>
      </trkpt>
      <trkpt lat="44.32244" lon="3.31415">
        <ele>714</ele>
        <time>2017-03-02T12:18:59Z</time>
      </trkpt>
      <trkpt lat="44.32258" lon="3.31411">
        <ele>716</ele>
        <time>2017-03-02T12:20:59Z</time>
      </trkpt>
      <trkpt lat="44.32267" lon="3.31408">
        <ele>716</ele>
        <time>2017-03-02T12:22:59Z</time>
      </trkpt>
      <trkpt lat="44.32278" lon="3.31405">
        <ele>718</ele>
        <time>2017-03-02T12:24:59Z</time>
      </trkpt>
      <trkpt lat="44.32296" lon="3.31401">
        <ele>719</ele>
        <time>2017-03-02T12:26:59Z</time>
      </trkpt>
      <trkpt lat="44.32362" lon="3.31389">
        <ele>724</ele>
        <time>2017-03-02T12:28:59Z</time>
      </trkpt>
      <trkpt lat="44.32385" lon="3.31386">
        <ele>726</ele>
        <time>2017-03-02T12:30:59Z</time>
      </trkpt>
      <trkpt lat="44.32412" lon="3.31384">
        <ele>728</ele>
        <time>2017-03-02T12:32:59Z</time>
      </trkpt>
      <trkpt lat="44.32438" lon="3.31381">
        <ele>729</ele>
        <time>2017-03-02T12:34:59Z</time>
      </trkpt>
      <trkpt lat="44.32451" lon="3.31378">
        <ele>730</ele>
        <time>2017-03-02T12:36:59Z</time>
      </trkpt>
      <trkpt lat="44.32462" lon="3.31375">
        <ele>731</ele>
        <time>2017-03-02T12:38:59Z</time>
      </trkpt>
      <trkpt lat="44.32491" lon="3.31365">
        <ele>732</ele>
        <time>2017-03-02T12:40:59Z</time>
      </trkpt>
      <trkpt lat="44.32515" lon="3.31358">
        <ele>734</ele>
        <time>2017-03-02T12:42:59Z</time>
      </trkpt>
      <trkpt lat="44.32527" lon="3.31355">
        <ele>735</ele>
        <time>2017-03-02T12:44:59Z</time>
      </trkpt>
      <trkpt lat="44.32536" lon="3.31354">
        <ele>736</ele>
        <time>2017-03-02T12:46:59Z</time>
      </trkpt>
      <trkpt lat="44.32553" lon="3.31354">
        <ele>737</ele>
        <time>2017-03-02T12:48:59Z</time>
      </trkpt>
      <trkpt lat="44.32563" lon="3.31355">
        <ele>738</ele>
        <time>2017-03-02T12:50:59Z</time>
      </trkpt>
      <trkpt lat="44.32585" lon="3.31358">
        <ele>740</ele>
        <time>2017-03-02T12:52:59Z</time>
      </trkpt>
      <trkpt lat="44.32626" lon="3.31366">
        <ele>742</ele>
        <time>2017-03-02T12:54:59Z</time>
      </trkpt>
      <trkpt lat="44.32643" lon="3.3137">
        <ele>743</ele>
        <time>2017-03-02T12:56:59Z</time>
      </trkpt>
      <trkpt lat="44.32659" lon="3.31375">
        <ele>744</ele>
        <time>2017-03-02T12:58:59Z</time>
      </trkpt>
      <trkpt lat="44.32666" lon="3.31376">
        <ele>744</ele>
        <time>2017-03-02T13:00:59Z</time>
      </trkpt>
      <trkpt lat="44.32673" lon="3.31378">
        <ele>744</ele>
        <time>2017-03-02T13:02:59Z</time>
      </trkpt>
      <trkpt lat="44.327" lon="3.31388">
        <ele>746</ele>
        <time>2017-03-02T13:04:59Z</time>
      </trkpt>
      <trkpt lat="44.32712" lon="3.31387">
        <ele>747</ele>
        <time>2017-03-02T13:06:59Z</time>
      </trkpt>
      <trkpt lat="44.32779" lon="3.31383">
        <ele>750</ele>
        <time>2017-03-02T13:08:59Z</time>
      </trkpt>
      <trkpt lat="44.32806" lon="3.3138">
        <ele>752</ele>
        <time>2017-03-02T13:10:59Z</time>
      </trkpt>
      <trkpt lat="44.32831" lon="3.31376">
        <ele>754</ele>
        <time>2017-03-02T13:12:59Z</time>
      </trkpt>
      <trkpt lat="44.32846" lon="3.3137">
        <ele>755</ele>
        <time>2017-03-02T13:14:59Z</time>
      </trkpt>
      <trkpt lat="44.32862" lon="3.31363">
        <ele>757</ele>
        <time>2017-03-02T13:16:59Z</time>
      </trkpt>
      <trkpt lat="44.32876" lon="3.31352">
        <ele>758</ele>
        <time>2017-03-02T13:18:59Z</time>
      </trkpt>
      <trkpt lat="44.32888" lon="3.3134">
        <ele>757</ele>
        <time>2017-03-02T13:20:59Z</time>
      </trkpt>
      <trkpt lat="44.32895" lon="3.31329">
        <ele>757</ele>
        <time>2017-03-02T13:22:59Z</time>
      </trkpt>
      <trkpt lat="44.32914" lon="3.31287">
        <ele>759</ele>
        <time>2017-03-02T13:24:59Z</time>
      </trkpt>
      <trkpt lat="44.32924" lon="3.31264">
        <ele>759</ele>
        <time>2017-03-02T13:26:59Z</time>
      </trkpt>
      <trkpt lat="44.32934" lon="3.31264">
        <ele>760</ele>
        <time>2017-03-02T13:28:59Z</time>
      </trkpt>
      <trkpt lat="44.32944" lon="3.31266">
        <ele>760</ele>
        <time>2017-03-02T13:30:59Z</time>
      </trkpt>
      <trkpt lat="44.32964" lon="3.31268">
        <ele>761</ele>
        <time>2017-03-02T13:32:59Z</time>
      </trkpt>
      <trkpt lat="44.33" lon="3.31275">
        <ele>763</ele>
        <time>2017-03-02T13:34:59Z</time>
      </trkpt>
      <trkpt lat="44.33011" lon="3.31275">
        <ele>765</ele>
        <time>2017-03-02T13:36:59Z</time>
      </trkpt>
      <trkpt lat="44.3303" lon="3.31274">
        <ele>767</ele>
        <time>2017-03-02T13:38:59Z</time>
      </trkpt>
      <trkpt lat="44.33051" lon="3.31275">
        <ele>770</ele>
        <time>2017-03-02T13:40:59Z</time>
      </trkpt>
      <trkpt lat="44.33069" lon="3.31277">
        <ele>772</ele>
        <time>2017-03-02T13:42:59Z</time>
      </trkpt>
      <trkpt lat="44.33081" lon="3.31277">
        <ele>774</ele>
        <time>2017-03-02T13:44:59Z</time>
      </trkpt>
      <trkpt lat="44.33096" lon="3.31272">
        <ele>775</ele>
        <time>2017-03-02T13:46:59Z</time>
      </trkpt>
      <trkpt lat="44.33114" lon="3.31264">
        <ele>776</ele>
        <time>2017-03-02T13:48:59Z</time>
      </trkpt>
      <trkpt lat="44.33142" lon="3.3125">
        <ele>778</ele>
        <time>2017-03-02T13:50:59Z</time>
      </trkpt>
      <trkpt lat="44.33167" lon="3.3124">
        <ele>782</ele>
        <time>2017-03-02T13:52:59Z</time>
      </trkpt>
      <trkpt lat="44.33185" lon="3.31235">
        <ele>784</ele>
        <time>2017-03-02T13:54:59Z</time>
      </trkpt>
      <trkpt lat="44.332" lon="3.31232">
        <ele>785</ele>
        <time>2017-03-02T13:56:59Z</time>
      </trkpt>
      <trkpt lat="44.33214" lon="3.31233">
        <ele>786</ele>
        <time>2017-03-02T13:58:59Z</time>
      </trkpt>
      <trkpt lat="44.33224" lon="3.31236">
        <ele>785</ele>
        <time>2017-03-02T14:00:59Z</time>
      </trkpt>
      <trkpt lat="44.33245" lon="3.31252">
        <ele>784</ele>
        <time>2017-03-02T14:02:59Z</time>
      </trkpt>
      <trkpt lat="44.3327" lon="3.31269">
        <ele>788</ele>
        <time>2017-03-02T14:04:59Z</time>
      </trkpt>
      <trkpt lat="44.33278" lon="3.31275">
        <ele>790</ele>
        <time>2017-03-02T14:06:59Z</time>
      </trkpt>
      <trkpt lat="44.3329" lon="3.3128">
        <ele>791</ele>
        <time>2017-03-02T14:08:59Z</time>
      </trkpt>
      <trkpt lat="44.33301" lon="3.3128">
        <ele>792</ele>
        <time>2017-03-02T14:10:59Z</time>
      </trkpt>
      <trkpt lat="44.33329" lon="3.31275">
        <ele>795</ele>
        <time>2017-03-02T14:12:59Z</time>
      </trkpt>
      <trkpt lat="44.3334" lon="3.31274">
        <ele>795</ele>
        <time>2017-03-02T14:14:59Z</time>
      </trkpt>
      <trkpt lat="44.33349" lon="3.31274">
        <ele>795</ele>
        <time>2017-03-02T14:16:59Z</time>
      </trkpt>
      <trkpt lat="44.33357" lon="3.31279">
        <ele>796</ele>
        <time>2017-03-02T14:18:59Z</time>
      </trkpt>
      <trkpt lat="44.33363" lon="3.31282">
        <ele>796</ele>
        <time>2017-03-02T14:20:59Z</time>
      </trkpt>
      <trkpt lat="44.3337" lon="3.31293">
        <ele>796</ele>
        <time>2017-03-02T14:22:59Z</time>
      </trkpt>
      <trkpt lat="44.33379" lon="3.31302">
        <ele>796</ele>
        <time>2017-03-02T14:24:59Z</time>
      </trkpt>
      <trkpt lat="44.33389" lon="3.31308">
        <ele>796</ele>
        <time>2017-03-02T14:26:59Z</time>
      </trkpt>
      <trkpt lat="44.33399" lon="3.31311">
        <ele>796</ele>
        <time>2017-03-02T14:28:59Z</time>
      </trkpt>
      <trkpt lat="44.33403" lon="3.31314">
        <ele>796</ele>
        <time>2017-03-02T14:30:59Z</time>
      </trkpt>
      <trkpt lat="44.33404" lon="3.31319">
        <ele>796</ele>
        <time>2017-03-02T14:32:59Z</time>
      </trkpt>
      <trkpt lat="44.33404" lon="3.31331">
        <ele>796</ele>
        <time>2017-03-02T14:34:59Z</time>
      </trkpt>
      <trkpt lat="44.33406" lon="3.31342">
        <ele>797</ele>
        <time>2017-03-02T14:36:59Z</time>
      </trkpt>
      <trkpt lat="44.33406" lon="3.31352">
        <ele>799</ele>
        <time>2017-03-02T14:38:59Z</time>
      </trkpt>
      <trkpt lat="44.33405" lon="3.31361">
        <ele>800</ele>
        <time>2017-03-02T14:40:59Z</time>
      </trkpt>
      <trkpt lat="44.33403" lon="3.31367">
        <ele>800</ele>
        <time>2017-03-02T14:42:59Z</time>
      </trkpt>
      <trkpt lat="44.334" lon="3.31371">
        <ele>801</ele>
        <time>2017-03-02T14:44:59Z</time>
      </trkpt>
      <trkpt lat="44.33399" lon="3.31381">
        <ele>803</ele>
        <time>2017-03-02T14:46:59Z</time>
      </trkpt>
      <trkpt lat="44.33397" lon="3.31394">
        <ele>804</ele>
        <time>2017-03-02T14:48:59Z</time>
      </trkpt>
      <trkpt lat="44.33396" lon="3.31404">
        <ele>806</ele>
        <time>2017-03-02T14:50:59Z</time>
      </trkpt>
      <trkpt lat="44.33396" lon="3.31412">
        <ele>807</ele>
        <time>2017-03-02T14:52:59Z</time>
      </trkpt>
      <trkpt lat="44.33404" lon="3.31434">
        <ele>809</ele>
        <time>2017-03-02T14:54:59Z</time>
      </trkpt>
      <trkpt lat="44.33409" lon="3.31446">
        <ele>810</ele>
        <time>2017-03-02T14:56:59Z</time>
      </trkpt>
      <trkpt lat="44.33411" lon="3.31453">
        <ele>811</ele>
        <time>2017-03-02T14:58:59Z</time>
      </trkpt>
      <trkpt lat="44.33412" lon="3.31458">
        <ele>812</ele>
        <time>2017-03-02T15:00:59Z</time>
      </trkpt>
      <trkpt lat="44.3341" lon="3.31465">
        <ele>813</ele>
        <time>2017-03-02T15:02:59Z</time>
      </trkpt>
      <trkpt lat="44.33409" lon="3.31476">
        <ele>815</ele>
        <time>2017-03-02T15:04:59Z</time>
      </trkpt>
      <trkpt lat="44.33409" lon="3.31488">
        <ele>817</ele>
        <time>2017-03-02T15:06:59Z</time>
      </trkpt>
      <trkpt lat="44.33411" lon="3.3151">
        <ele>820</ele>
        <time>2017-03-02T15:08:59Z</time>
      </trkpt>
      <trkpt lat="44.33412" lon="3.31516">
        <ele>820</ele>
        <time>2017-03-02T15:10:59Z</time>
      </trkpt>
      <trkpt lat="44.33416" lon="3.31521">
        <ele>820</ele>
        <time>2017-03-02T15:12:59Z</time>
      </trkpt>
      <trkpt lat="44.33423" lon="3.31529">
        <ele>821</ele>
        <time>2017-03-02T15:14:59Z</time>
      </trkpt>
      <trkpt lat="44.33431" lon="3.31537">
        <ele>823</ele>
        <time>2017-03-02T15:16:59Z</time>
      </trkpt>
      <trkpt lat="44.33435" lon="3.31538">
        <ele>823</ele>
        <time>2017-03-02T15:18:59Z</time>
      </trkpt>
      <trkpt lat="44.33442" lon="3.31539">
        <ele>824</ele>
        <time>2017-03-02T15:20:59Z</time>
      </trkpt>
      <trkpt lat="44.33449" lon="3.31539">
        <ele>824</ele>
        <time>2017-03-02T15:22:59Z</time>
      </trkpt>
      <trkpt lat="44.33442" lon="3.3156">
        <ele>826</ele>
        <time>2017-03-02T15:24:59Z</time>
      </trkpt>
      <trkpt lat="44.33432" lon="3.31581">
        <ele>827</ele>
        <time>2017-03-02T15:26:59Z</time>
      </trkpt>
      <trkpt lat="44.33418" lon="3.31605">
        <ele>828</ele>
        <time>2017-03-02T15:28:59Z</time>
      </trkpt>
      <trkpt lat="44.33405" lon="3.31632">
        <ele>830</ele>
        <time>2017-03-02T15:30:59Z</time>
      </trkpt>
      <trkpt lat="44.33396" lon="3.31657">
        <ele>832</ele>
        <time>2017-03-02T15:32:59Z</time>
      </trkpt>
      <trkpt lat="44.33389" lon="3.3168">
        <ele>834</ele>
        <time>2017-03-02T15:34:59Z</time>
      </trkpt>
      <trkpt lat="44.33382" lon="3.31704">
        <ele>836</ele>
        <time>2017-03-02T15:36:59Z</time>
      </trkpt>
      <trkpt lat="44.33372" lon="3.31734">
        <ele>839</ele>
        <time>2017-03-02T15:38:59Z</time>
      </trkpt>
      <trkpt lat="44.33364" lon="3.31745">
        <ele>840</ele>
        <time>2017-03-02T15:40:59Z</time>
      </trkpt>
      <trkpt lat="44.33352" lon="3.31758">
        <ele>840</ele>
        <time>2017-03-02T15:42:59Z</time>
      </trkpt>
      <trkpt lat="44.33344" lon="3.31772">
        <ele>842</ele>
        <time>2017-03-02T15:44:59Z</time>
      </trkpt>
      <trkpt lat="44.3333" lon="3.31795">
        <ele>845</ele>
        <time>2017-03-02T15:46:59Z</time>
      </trkpt>
      <trkpt lat="44.33315" lon="3.31817">
        <ele>848</ele>
        <time>2017-03-02T15:48:59Z</time>
      </trkpt>
      <trkpt lat="44.33302" lon="3.31839">
        <ele>850</ele>
        <time>2017-03-02T15:50:59Z</time>
      </trkpt>
      <trkpt lat="44.33293" lon="3.31842">
        <ele>850</ele>
        <time>2017-03-02T15:52:59Z</time>
      </trkpt>
      <trkpt lat="44.33277" lon="3.31849">
        <ele>850</ele>
        <time>2017-03-02T15:54:59Z</time>
      </trkpt>
      <trkpt lat="44.33267" lon="3.31856">
        <ele>850</ele>
        <time>2017-03-02T15:56:59Z</time>
      </trkpt>
      <trkpt lat="44.33257" lon="3.31865">
        <ele>850</ele>
        <time>2017-03-02T15:58:59Z</time>
      </trkpt>
      <trkpt lat="44.33245" lon="3.31875">
        <ele>850</ele>
        <time>2017-03-02T16:00:59Z</time>
      </trkpt>
      <trkpt lat="44.33235" lon="3.31884">
        <ele>850</ele>
        <time>2017-03-02T16:02:59Z</time>
      </trkpt>
      <trkpt lat="44.3323" lon="3.3189">
        <ele>850</ele>
        <time>2017-03-02T16:04:59Z</time>
      </trkpt>
      <trkpt lat="44.33229" lon="3.31898">
        <ele>850</ele>
        <time>2017-03-02T16:06:59Z</time>
      </trkpt>
      <trkpt lat="44.33229" lon="3.31909">
        <ele>850</ele>
        <time>2017-03-02T16:08:59Z</time>
      </trkpt>
      <trkpt lat="44.33231" lon="3.3192">
        <ele>850</ele>
        <time>2017-03-02T16:10:59Z</time>
      </trkpt>
      <trkpt lat="44.33233" lon="3.31943">
        <ele>849</ele>
        <time>2017-03-02T16:12:59Z</time>
      </trkpt>
      <trkpt lat="44.33236" lon="3.31955">
        <ele>848</ele>
        <time>2017-03-02T16:14:59Z</time>
      </trkpt>
      <trkpt lat="44.33251" lon="3.31995">
        <ele>848</ele>
        <time>2017-03-02T16:16:59Z</time>
      </trkpt>
      <trkpt lat="44.3326" lon="3.32021">
        <ele>848</ele>
        <time>2017-03-02T16:18:59Z</time>
      </trkpt>
      <trkpt lat="44.33266" lon="3.32028">
        <ele>848</ele>
        <time>2017-03-02T16:20:59Z</time>
      </trkpt>
      <trkpt lat="44.33275" lon="3.3204">
        <ele>848</ele>
        <time>2017-03-02T16:22:59Z</time>
      </trkpt>
      <trkpt lat="44.33283" lon="3.32054">
        <ele>848</ele>
        <time>2017-03-02T16:24:59Z</time>
      </trkpt>
      <trkpt lat="44.33309" lon="3.3212">
        <ele>845</ele>
        <time>2017-03-02T16:26:59Z</time>
      </trkpt>
      <trkpt lat="44.33316" lon="3.3215">
        <ele>844</ele>
        <time>2017-03-02T16:28:59Z</time>
      </trkpt>
      <trkpt lat="44.33317" lon="3.32152">
        <ele>844</ele>
        <time>2017-03-02T16:30:59Z</time>
      </trkpt>
      <trkpt lat="44.33322" lon="3.32165">
        <ele>844</ele>
        <time>2017-03-02T16:32:59Z</time>
      </trkpt>
      <trkpt lat="44.33332" lon="3.32184">
        <ele>844</ele>
        <time>2017-03-02T16:34:59Z</time>
      </trkpt>
      <trkpt lat="44.3334" lon="3.32198">
        <ele>844</ele>
        <time>2017-03-02T16:36:59Z</time>
      </trkpt>
      <trkpt lat="44.33353" lon="3.32219">
        <ele>845</ele>
        <time>2017-03-02T16:38:59Z</time>
      </trkpt>
      <trkpt lat="44.33366" lon="3.32242">
        <ele>845</ele>
        <time>2017-03-02T16:40:59Z</time>
      </trkpt>
      <trkpt lat="44.33382" lon="3.32271">
        <ele>845</ele>
        <time>2017-03-02T16:42:59Z</time>
      </trkpt>
      <trkpt lat="44.33392" lon="3.32292">
        <ele>845</ele>
        <time>2017-03-02T16:44:59Z</time>
      </trkpt>
      <trkpt lat="44.33401" lon="3.32306">
        <ele>845</ele>
        <time>2017-03-02T16:46:59Z</time>
      </trkpt>
      <trkpt lat="44.33408" lon="3.3232">
        <ele>844</ele>
        <time>2017-03-02T16:48:59Z</time>
      </trkpt>
      <trkpt lat="44.33413" lon="3.32334">
        <ele>844</ele>
        <time>2017-03-02T16:50:59Z</time>
      </trkpt>
      <trkpt lat="44.3342" lon="3.32359">
        <ele>844</ele>
        <time>2017-03-02T16:52:59Z</time>
      </trkpt>
      <trkpt lat="44.33424" lon="3.32369">
        <ele>844</ele>
        <time>2017-03-02T16:54:59Z</time>
      </trkpt>
      <trkpt lat="44.33426" lon="3.32378">
        <ele>844</ele>
        <time>2017-03-02T16:56:59Z</time>
      </trkpt>
      <trkpt lat="44.33426" lon="3.32392">
        <ele>844</ele>
        <time>2017-03-02T16:58:59Z</time>
      </trkpt>
      <trkpt lat="44.33425" lon="3.32407">
        <ele>843</ele>
        <time>2017-03-02T17:00:59Z</time>
      </trkpt>
      <trkpt lat="44.3342" lon="3.32422">
        <ele>842</ele>
        <time>2017-03-02T17:02:59Z</time>
      </trkpt>
      <trkpt lat="44.33417" lon="3.32435">
        <ele>842</ele>
        <time>2017-03-02T17:04:59Z</time>
      </trkpt>
      <trkpt lat="44.33416" lon="3.32445">
        <ele>842</ele>
        <time>2017-03-02T17:06:59Z</time>
      </trkpt>
      <trkpt lat="44.33418" lon="3.32455">
        <ele>843</ele>
        <time>2017-03-02T17:08:59Z</time>
      </trkpt>
      <trkpt lat="44.33423" lon="3.32472">
        <ele>843</ele>
        <time>2017-03-02T17:10:59Z</time>
      </trkpt>
      <trkpt lat="44.33429" lon="3.32491">
        <ele>844</ele>
        <time>2017-03-02T17:12:59Z</time>
      </trkpt>
      <trkpt lat="44.33433" lon="3.32505">
        <ele>845</ele>
        <time>2017-03-02T17:14:59Z</time>
      </trkpt>
      <trkpt lat="44.33438" lon="3.32526">
        <ele>845</ele>
        <time>2017-03-02T17:16:59Z</time>
      </trkpt>
      <trkpt lat="44.33448" lon="3.32564">
        <ele>846</ele>
        <time>2017-03-02T17:18:59Z</time>
      </trkpt>
      <trkpt lat="44.33461" lon="3.32608">
        <ele>845</ele>
        <time>2017-03-02T17:20:59Z</time>
      </trkpt>
      <trkpt lat="44.33465" lon="3.32617">
        <ele>845</ele>
        <time>2017-03-02T17:22:59Z</time>
      </trkpt>
      <trkpt lat="44.3347" lon="3.32627">
        <ele>844</ele>
        <time>2017-03-02T17:24:59Z</time>
      </trkpt>
      <trkpt lat="44.33483" lon="3.32645">
        <ele>843</ele>
        <time>2017-03-02T17:26:59Z</time>
      </trkpt>
      <trkpt lat="44.33494" lon="3.32663">
        <ele>842</ele>
        <time>2017-03-02T17:28:59Z</time>
      </trkpt>
      <trkpt lat="44.33501" lon="3.32673">
        <ele>842</ele>
        <time>2017-03-02T17:30:59Z</time>
      </trkpt>
      <trkpt lat="44.33517" lon="3.32693">
        <ele>842</ele>
        <time>2017-03-02T17:32:59Z</time>
      </trkpt>
      <trkpt lat="44.33525" lon="3.32707">
        <ele>842</ele>
        <time>2017-03-02T17:34:59Z</time>
      </trkpt>
      <trkpt lat="44.33528" lon="3.32715">
        <ele>842</ele>
        <time>2017-03-02T17:36:59Z</time>
      </trkpt>
      <trkpt lat="44.3353" lon="3.32724">
        <ele>842</ele>
        <time>2017-03-02T17:38:59Z</time>
      </trkpt>
      <trkpt lat="44.33532" lon="3.32742">
        <ele>841</ele>
        <time>2017-03-02T17:40:59Z</time>
      </trkpt>
      <trkpt lat="44.33532" lon="3.3278">
        <ele>842</ele>
        <time>2017-03-02T17:42:59Z</time>
      </trkpt>
      <trkpt lat="44.33533" lon="3.32796">
        <ele>842</ele>
        <time>2017-03-02T17:44:59Z</time>
      </trkpt>
      <trkpt lat="44.33535" lon="3.32816">
        <ele>843</ele>
        <time>2017-03-02T17:46:59Z</time>
      </trkpt>
      <trkpt lat="44.3354" lon="3.32847">
        <ele>845</ele>
        <time>2017-03-02T17:48:59Z</time>
      </trkpt>
      <trkpt lat="44.33545" lon="3.32866">
        <ele>846</ele>
        <time>2017-03-02T17:50:59Z</time>
      </trkpt>
      <trkpt lat="44.3355" lon="3.32882">
        <ele>848</ele>
        <time>2017-03-02T17:52:59Z</time>
      </trkpt>
      <trkpt lat="44.33567" lon="3.32922">
        <ele>851</ele>
        <time>2017-03-02T17:54:59Z</time>
      </trkpt>
      <trkpt lat="44.33572" lon="3.32926">
        <ele>852</ele>
        <time>2017-03-02T17:56:59Z</time>
      </trkpt>
      <trkpt lat="44.33576" lon="3.32928">
        <ele>852</ele>
        <time>2017-03-02T17:58:59Z</time>
      </trkpt>
      <trkpt lat="44.3358" lon="3.32935">
        <ele>853</ele>
        <time>2017-03-02T18:00:59Z</time>
      </trkpt>
      <trkpt lat="44.33583" lon="3.32942">
        <ele>853</ele>
        <time>2017-03-02T18:02:59Z</time>
      </trkpt>
      <trkpt lat="44.33584" lon="3.32951">
        <ele>854</ele>
        <time>2017-03-02T18:04:59Z</time>
      </trkpt>
      <trkpt lat="44.33587" lon="3.32958">
        <ele>854</ele>
        <time>2017-03-02T18:06:59Z</time>
      </trkpt>
      <trkpt lat="44.3359" lon="3.32967">
        <ele>855</ele>
        <time>2017-03-02T18:08:59Z</time>
      </trkpt>
      <trkpt lat="44.33594" lon="3.32977">
        <ele>855</ele>
        <time>2017-03-02T18:10:59Z</time>
      </trkpt>
      <trkpt lat="44.336" lon="3.32994">
        <ele>856</ele>
        <time>2017-03-02T18:12:59Z</time>
      </trkpt>
      <trkpt lat="44.33606" lon="3.33004">
        <ele>857</ele>
        <time>2017-03-02T18:14:59Z</time>
      </trkpt>
      <trkpt lat="44.33613" lon="3.33014">
        <ele>857</ele>
        <time>2017-03-02T18:16:59Z</time>
      </trkpt>
      <trkpt lat="44.33617" lon="3.33021">
        <ele>858</ele>
        <time>2017-03-02T18:18:59Z</time>
      </trkpt>
      <trkpt lat="44.33622" lon="3.33037">
        <ele>858</ele>
        <time>2017-03-02T18:20:59Z</time>
      </trkpt>
      <trkpt lat="44.33628" lon="3.33051">
        <ele>859</ele>
        <time>2017-03-02T18:22:59Z</time>
      </trkpt>
      <trkpt lat="44.33632" lon="3.33061">
        <ele>860</ele>
        <time>2017-03-02T18:24:59Z</time>
      </trkpt>
      <trkpt lat="44.33634" lon="3.33084">
        <ele>862</ele>
        <time>2017-03-02T18:26:59Z</time>
      </trkpt>
      <trkpt lat="44.33632" lon="3.33118">
        <ele>863</ele>
        <time>2017-03-02T18:28:59Z</time>
      </trkpt>
      <trkpt lat="44.3363" lon="3.33129">
        <ele>864</ele>
        <time>2017-03-02T18:30:59Z</time>
      </trkpt>
      <trkpt lat="44.33626" lon="3.33146">
        <ele>864</ele>
        <time>2017-03-02T18:32:59Z</time>
      </trkpt>
      <trkpt lat="44.3362" lon="3.33169">
        <ele>865</ele>
        <time>2017-03-02T18:34:59Z</time>
      </trkpt>
      <trkpt lat="44.3361" lon="3.33197">
        <ele>867</ele>
        <time>2017-03-02T18:36:59Z</time>
      </trkpt>
      <trkpt lat="44.33606" lon="3.33211">
        <ele>868</ele>
        <time>2017-03-02T18:38:59Z</time>
      </trkpt>
      <trkpt lat="44.33604" lon="3.33222">
        <ele>869</ele>
        <time>2017-03-02T18:40:59Z</time>
      </trkpt>
      <trkpt lat="44.33603" lon="3.3323">
        <ele>870</ele>
        <time>2017-03-02T18:42:59Z</time>
      </trkpt>
      <trkpt lat="44.33604" lon="3.33243">
        <ele>872</ele>
        <time>2017-03-02T18:44:59Z</time>
      </trkpt>
      <trkpt lat="44.33604" lon="3.33258">
        <ele>873</ele>
        <time>2017-03-02T18:46:59Z</time>
      </trkpt>
      <trkpt lat="44.33603" lon="3.33274">
        <ele>875</ele>
        <time>2017-03-02T18:48:59Z</time>
      </trkpt>
      <trkpt lat="44.33601" lon="3.33284">
        <ele>875</ele>
        <time>2017-03-02T18:50:59Z</time>
      </trkpt>
      <trkpt lat="44.33591" lon="3.33313">
        <ele>877</ele>
        <time>2017-03-02T18:52:59Z</time>
      </trkpt>
      <trkpt lat="44.33588" lon="3.33326">
        <ele>878</ele>
        <time>2017-03-02T18:54:59Z</time>
      </trkpt>
      <trkpt lat="44.33583" lon="3.33346">
        <ele>879</ele>
        <time>2017-03-02T18:56:59Z</time>
      </trkpt>
      <trkpt lat="44.33582" lon="3.33357">
        <ele>880</ele>
        <time>2017-03-02T18:58:59Z</time>
      </trkpt>
      <trkpt lat="44.33582" lon="3.33376">
        <ele>881</ele>
        <time>2017-03-02T19:00:59Z</time>
      </trkpt>
      <trkpt lat="44.33584" lon="3.33374">
        <ele>881</ele>
        <time>2017-03-02T19:02:59Z</time>
      </trkpt>
      <trkpt lat="44.33587" lon="3.33374">
        <ele>881</ele>
        <time>2017-03-02T19:04:59Z</time>
      </trkpt>
      <trkpt lat="44.33589" lon="3.33377">
        <ele>881</ele>
        <time>2017-03-02T19:06:59Z</time>
      </trkpt>
      <trkpt lat="44.33592" lon="3.33386">
        <ele>882</ele>
        <time>2017-03-02T19:08:59Z</time>
      </trkpt>
      <trkpt lat="44.33595" lon="3.33398">
        <ele>882</ele>
        <time>2017-03-02T19:10:59Z</time>
      </trkpt>
      <trkpt lat="44.33597" lon="3.33413">
        <ele>883</ele>
        <time>2017-03-02T19:12:59Z</time>
      </trkpt>
      <trkpt lat="44.33601" lon="3.33426">
        <ele>883</ele>
        <time>2017-03-02T19:14:59Z</time>
      </trkpt>
      <trkpt lat="44.33606" lon="3.33436">
        <ele>883</ele>
        <time>2017-03-02T19:16:59Z</time>
      </trkpt>
      <trkpt lat="44.33614" lon="3.33449">
        <ele>883</ele>
        <time>2017-03-02T19:18:59Z</time>
      </trkpt>
      <trkpt lat="44.33625" lon="3.33464">
        <ele>882</ele>
        <time>2017-03-02T19:20:59Z</time>
      </trkpt>
      <trkpt lat="44.33636" lon="3.33478">
        <ele>880</ele>
        <time>2017-03-02T19:22:59Z</time>
      </trkpt>
      <trkpt lat="44.33644" lon="3.33494">
        <ele>878</ele>
        <time>2017-03-02T19:24:59Z</time>
      </trkpt>
      <trkpt lat="44.33655" lon="3.33528">
        <ele>877</ele>
        <time>2017-03-02T19:26:59Z</time>
      </trkpt>
      <trkpt lat="44.33662" lon="3.33541">
        <ele>876</ele>
        <time>2017-03-02T19:28:59Z</time>
      </trkpt>
      <trkpt lat="44.33672" lon="3.33555">
        <ele>874</ele>
        <time>2017-03-02T19:30:59Z</time>
      </trkpt>
      <trkpt lat="44.33681" lon="3.33565">
        <ele>873</ele>
        <time>2017-03-02T19:32:59Z</time>
      </trkpt>
      <trkpt lat="44.33688" lon="3.33569">
        <ele>871</ele>
        <time>2017-03-02T19:34:59Z</time>
      </trkpt>
      <trkpt lat="44.33696" lon="3.33571">
        <ele>869</ele>
        <time>2017-03-02T19:36:59Z</time>
      </trkpt>
      <trkpt lat="44.33705" lon="3.33569">
        <ele>867</ele>
        <time>2017-03-02T19:38:59Z</time>
      </trkpt>
      <trkpt lat="44.33712" lon="3.33566">
        <ele>866</ele>
        <time>2017-03-02T19:40:59Z</time>
      </trkpt>
      <trkpt lat="44.33717" lon="3.3356">
        <ele>865</ele>
        <time>2017-03-02T19:42:59Z</time>
      </trkpt>
      <trkpt lat="44.33724" lon="3.33553">
        <ele>865</ele>
        <time>2017-03-02T19:44:59Z</time>
      </trkpt>
      <trkpt lat="44.3373" lon="3.33549">
        <ele>864</ele>
        <time>2017-03-02T19:46:59Z</time>
      </trkpt>
      <trkpt lat="44.33735" lon="3.33548">
        <ele>863</ele>
        <time>2017-03-02T19:48:59Z</time>
      </trkpt>
      <trkpt lat="44.33762" lon="3.33554">
        <ele>858</ele>
        <time>2017-03-02T19:50:59Z</time>
      </trkpt>
      <trkpt lat="44.33775" lon="3.33558">
        <ele>856</ele>
        <time>2017-03-02T19:52:59Z</time>
      </trkpt>
      <trkpt lat="44.33785" lon="3.33562">
        <ele>854</ele>
        <time>2017-03-02T19:54:59Z</time>
      </trkpt>
      <trkpt lat="44.33802" lon="3.33573">
        <ele>850</ele>
        <time>2017-03-02T19:56:59Z</time>
      </trkpt>
      <trkpt lat="44.33812" lon="3.33582">
        <ele>846</ele>
        <time>2017-03-02T19:58:59Z</time>
      </trkpt>
      <trkpt lat="44.33821" lon="3.33589">
        <ele>844</ele>
        <time>2017-03-02T20:00:59Z</time>
      </trkpt>
      <trkpt lat="44.33835" lon="3.33597">
        <ele>840</ele>
        <time>2017-03-02T20:02:59Z</time>
      </trkpt>
      <trkpt lat="44.33835" lon="3.33598">
        <ele>840</ele>
        <time>2017-03-02T20:04:59Z</time>
      </trkpt>
      <trkpt lat="44.33844" lon="3.33604">
        <ele>839</ele>
        <time>2017-03-02T20:06:59Z</time>
      </trkpt>
      <trkpt lat="44.33865" lon="3.33616">
        <ele>837</ele>
        <time>2017-03-02T20:08:59Z</time>
      </trkpt>
      <trkpt lat="44.33885" lon="3.33629">
        <ele>834</ele>
        <time>2017-03-02T20:10:59Z</time>
      </trkpt>
      <trkpt lat="44.33896" lon="3.33638">
        <ele>832</ele>
        <time>2017-03-02T20:12:59Z</time>
      </trkpt>
      <trkpt lat="44.3391" lon="3.33652">
        <ele>829</ele>
        <time>2017-03-02T20:14:59Z</time>
      </trkpt>
      <trkpt lat="44.33919" lon="3.3366">
        <ele>827</ele>
        <time>2017-03-02T20:16:59Z</time>
      </trkpt>
      <trkpt lat="44.33932" lon="3.33669">
        <ele>825</ele>
        <time>2017-03-02T20:18:59Z</time>
      </trkpt>
      <trkpt lat="44.3395" lon="3.33682">
        <ele>824</ele>
        <time>2017-03-02T20:20:59Z</time>
      </trkpt>
      <trkpt lat="44.33983" lon="3.33707">
        <ele>822</ele>
        <time>2017-03-02T20:22:59Z</time>
      </trkpt>
      <trkpt lat="44.33996" lon="3.33722">
        <ele>820</ele>
        <time>2017-03-02T20:24:59Z</time>
      </trkpt>
      <trkpt lat="44.34006" lon="3.33732">
        <ele>818</ele>
        <time>2017-03-02T20:26:59Z</time>
      </trkpt>
      <trkpt lat="44.34016" lon="3.3374">
        <ele>817</ele>
        <time>2017-03-02T20:28:59Z</time>
      </trkpt>
      <trkpt lat="44.34026" lon="3.33746">
        <ele>816</ele>
        <time>2017-03-02T20:30:59Z</time>
      </trkpt>
      <trkpt lat="44.34033" lon="3.33751">
        <ele>816</ele>
        <time>2017-03-02T20:32:59Z</time>
      </trkpt>
      <trkpt lat="44.34041" lon="3.3376">
        <ele>815</ele>
        <time>2017-03-02T20:34:59Z</time>
      </trkpt>
      <trkpt lat="44.34049" lon="3.33772">
        <ele>815</ele>
        <time>2017-03-02T20:36:59Z</time>
      </trkpt>
      <trkpt lat="44.34057" lon="3.33788">
        <ele>813</ele>
        <time>2017-03-02T20:38:59Z</time>
      </trkpt>
      <trkpt lat="44.34065" lon="3.33806">
        <ele>812</ele>
        <time>2017-03-02T20:40:59Z</time>
      </trkpt>
      <trkpt lat="44.34071" lon="3.33822">
        <ele>811</ele>
        <time>2017-03-02T20:42:59Z</time>
      </trkpt>
      <trkpt lat="44.34078" lon="3.33837">
        <ele>810</ele>
        <time>2017-03-02T20:44:59Z</time>
      </trkpt>
      <trkpt lat="44.34082" lon="3.33843">
        <ele>811</ele>
        <time>2017-03-02T20:46:59Z</time>
      </trkpt>
      <trkpt lat="44.34088" lon="3.33851">
        <ele>812</ele>
        <time>2017-03-02T20:48:59Z</time>
      </trkpt>
      <trkpt lat="44.34103" lon="3.3387">
        <ele>813</ele>
        <time>2017-03-02T20:50:59Z</time>
      </trkpt>
      <trkpt lat="44.3411" lon="3.3388">
        <ele>814</ele>
        <time>2017-03-02T20:52:59Z</time>
      </trkpt>
      <trkpt lat="44.34115" lon="3.3389">
        <ele>814</ele>
        <time>2017-03-02T20:54:59Z</time>
      </trkpt>
      <trkpt lat="44.3412" lon="3.33906">
        <ele>814</ele>
        <time>2017-03-02T20:56:59Z</time>
      </trkpt>
      <trkpt lat="44.34128" lon="3.33934">
        <ele>816</ele>
        <time>2017-03-02T20:58:59Z</time>
      </trkpt>
      <trkpt lat="44.34133" lon="3.33954">
        <ele>817</ele>
        <time>2017-03-02T21:00:59Z</time>
      </trkpt>
      <trkpt lat="44.34137" lon="3.33986">
        <ele>819</ele>
        <time>2017-03-02T21:02:59Z</time>
      </trkpt>
      <trkpt lat="44.34139" lon="3.34012">
        <ele>820</ele>
        <time>2017-03-02T21:04:59Z</time>
      </trkpt>
      <trkpt lat="44.34141" lon="3.34061">
        <ele>820</ele>
        <time>2017-03-02T21:06:59Z</time>
      </trkpt>
      <trkpt lat="44.34142" lon="3.34079">
        <ele>821</ele>
        <time>2017-03-02T21:08:59Z</time>
      </trkpt>
      <trkpt lat="44.34142" lon="3.34094">
        <ele>821</ele>
        <time>2017-03-02T21:10:59Z</time>
      </trkpt>
      <trkpt lat="44.34141" lon="3.34109">
        <ele>821</ele>
        <time>2017-03-02T21:12:59Z</time>
      </trkpt>
      <trkpt lat="44.34141" lon="3.34197">
        <ele>823</ele>
        <time>2017-03-02T21:14:59Z</time>
      </trkpt>
      <trkpt lat="44.34142" lon="3.3421">
        <ele>823</ele>
        <time>2017-03-02T21:16:59Z</time>
      </trkpt>
      <trkpt lat="44.34145" lon="3.34228">
        <ele>824</ele>
        <time>2017-03-02T21:18:59Z</time>
      </trkpt>
      <trkpt lat="44.34149" lon="3.3425">
        <ele>825</ele>
        <time>2017-03-02T21:20:59Z</time>
      </trkpt>
      <trkpt lat="44.34154" lon="3.3428">
        <ele>827</ele>
        <time>2017-03-02T21:22:59Z</time>
      </trkpt>
      <trkpt lat="44.34155" lon="3.34297">
        <ele>828</ele>
        <time>2017-03-02T21:24:59Z</time>
      </trkpt>
      <trkpt lat="44.34154" lon="3.34313">
        <ele>829</ele>
        <time>2017-03-02T21:26:59Z</time>
      </trkpt>
      <trkpt lat="44.34151" lon="3.34338">
        <ele>829</ele>
        <time>2017-03-02T21:28:59Z</time>
      </trkpt>
      <trkpt lat="44.34148" lon="3.3437">
        <ele>831</ele>
        <time>2017-03-02T21:30:59Z</time>
      </trkpt>
      <trkpt lat="44.34146" lon="3.34407">
        <ele>832</ele>
        <time>2017-03-02T21:32:59Z</time>
      </trkpt>
      <trkpt lat="44.34143" lon="3.34436">
        <ele>834</ele>
        <time>2017-03-02T21:34:59Z</time>
      </trkpt>
      <trkpt lat="44.34141" lon="3.34468">
        <ele>835</ele>
        <time>2017-03-02T21:36:59Z</time>
      </trkpt>
      <trkpt lat="44.34139" lon="3.34494">
        <ele>837</ele>
        <time>2017-03-02T21:38:59Z</time>
      </trkpt>
      <trkpt lat="44.34139" lon="3.34542">
        <ele>839</ele>
        <time>2017-03-02T21:40:59Z</time>
      </trkpt>
      <trkpt lat="44.34142" lon="3.34566">
        <ele>841</ele>
        <time>2017-03-02T21:42:59Z</time>
      </trkpt>
      <trkpt lat="44.34148" lon="3.34608">
        <ele>843</ele>
        <time>2017-03-02T21:44:59Z</time>
      </trkpt>
      <trkpt lat="44.34154" lon="3.34647">
        <ele>844</ele>
        <time>2017-03-02T21:46:59Z</time>
      </trkpt>
      <trkpt lat="44.34157" lon="3.34664">
        <ele>845</ele>
        <time>2017-03-02T21:48:59Z</time>
      </trkpt>
      <trkpt lat="44.34163" lon="3.3468">
        <ele>846</ele>
        <time>2017-03-02T21:50:59Z</time>
      </trkpt>
      <trkpt lat="44.3417" lon="3.34697">
        <ele>846</ele>
        <time>2017-03-02T21:52:59Z</time>
      </trkpt>
      <trkpt lat="44.34173" lon="3.34709">
        <ele>846</ele>
        <time>2017-03-02T21:54:59Z</time>
      </trkpt>
      <trkpt lat="44.34177" lon="3.34723">
        <ele>846</ele>
        <time>2017-03-02T21:56:59Z</time>
      </trkpt>
      <trkpt lat="44.34181" lon="3.34746">
        <ele>845</ele>
        <time>2017-03-02T21:58:59Z</time>
      </trkpt>
      <trkpt lat="44.34187" lon="3.34787">
        <ele>843</ele>
        <time>2017-03-02T22:00:59Z</time>
      </trkpt>
      <trkpt lat="44.34191" lon="3.34804">
        <ele>842</ele>
        <time>2017-03-02T22:02:59Z</time>
      </trkpt>
      <trkpt lat="44.34191" lon="3.34819">
        <ele>841</ele>
        <time>2017-03-02T22:04:59Z</time>
      </trkpt>
      <trkpt lat="44.34192" lon="3.34827">
        <ele>840</ele>
        <time>2017-03-02T22:06:59Z</time>
      </trkpt>
      <trkpt lat="44.34196" lon="3.34834">
        <ele>840</ele>
        <time>2017-03-02T22:08:59Z</time>
      </trkpt>
      <trkpt lat="44.34199" lon="3.34841">
        <ele>840</ele>
        <time>2017-03-02T22:10:59Z</time>
      </trkpt>
      <trkpt lat="44.34214" lon="3.34856">
        <ele>840</ele>
        <time>2017-03-02T22:12:59Z</time>
      </trkpt>
      <trkpt lat="44.34221" lon="3.34864">
        <ele>840</ele>
        <time>2017-03-02T22:14:59Z</time>
      </trkpt>
      <trkpt lat="44.34229" lon="3.34876">
        <ele>841</ele>
        <time>2017-03-02T22:16:59Z</time>
      </trkpt>
      <trkpt lat="44.34235" lon="3.34889">
        <ele>841</ele>
        <time>2017-03-02T22:18:59Z</time>
      </trkpt>
      <trkpt lat="44.34238" lon="3.34893">
        <ele>842</ele>
        <time>2017-03-02T22:20:59Z</time>
      </trkpt>
      <trkpt lat="44.34242" lon="3.34896">
        <ele>842</ele>
        <time>2017-03-02T22:22:59Z</time>
      </trkpt>
      <trkpt lat="44.34247" lon="3.34898">
        <ele>842</ele>
        <time>2017-03-02T22:24:59Z</time>
      </trkpt>
      <trkpt lat="44.34271" lon="3.34891">
        <ele>840</ele>
        <time>2017-03-02T22:26:59Z</time>
      </trkpt>
      <trkpt lat="44.34294" lon="3.34888">
        <ele>838</ele>
        <time>2017-03-02T22:28:59Z</time>
      </trkpt>
      <trkpt lat="44.3431" lon="3.34889">
        <ele>837</ele>
        <time>2017-03-02T22:30:59Z</time>
      </trkpt>
      <trkpt lat="44.34335" lon="3.34892">
        <ele>835</ele>
        <time>2017-03-02T22:32:59Z</time>
      </trkpt>
      <trkpt lat="44.34357" lon="3.34897">
        <ele>834</ele>
        <time>2017-03-02T22:34:59Z</time>
      </trkpt>
      <trkpt lat="44.3437" lon="3.34897">
        <ele>834</ele>
        <time>2017-03-02T22:36:59Z</time>
      </trkpt>
      <trkpt lat="44.3438" lon="3.34898">
        <ele>833</ele>
        <time>2017-03-02T22:38:59Z</time>
      </trkpt>
      <trkpt lat="44.3439" lon="3.349">
        <ele>832</ele>
        <time>2017-03-02T22:40:59Z</time>
      </trkpt>
      <trkpt lat="44.34407" lon="3.34908">
        <ele>831</ele>
        <time>2017-03-02T22:42:59Z</time>
      </trkpt>
      <trkpt lat="44.34416" lon="3.34916">
        <ele>830</ele>
        <time>2017-03-02T22:44:59Z</time>
      </trkpt>
      <trkpt lat="44.34425" lon="3.34925">
        <ele>830</ele>
        <time>2017-03-02T22:46:59Z</time>
      </trkpt>
      <trkpt lat="44.3444" lon="3.34948">
        <ele>830</ele>
        <time>2017-03-02T22:48:59Z</time>
      </trkpt>
      <trkpt lat="44.34446" lon="3.34955">
        <ele>830</ele>
        <time>2017-03-02T22:50:59Z</time>
      </trkpt>
      <trkpt lat="44.34454" lon="3.34963">
        <ele>830</ele>
        <time>2017-03-02T22:52:59Z</time>
      </trkpt>
      <trkpt lat="44.34464" lon="3.34969">
        <ele>829</ele>
        <time>2017-03-02T22:54:59Z</time>
      </trkpt>
      <trkpt lat="44.34485" lon="3.34987">
        <ele>827</ele>
        <time>2017-03-02T22:56:59Z</time>
      </trkpt>
      <trkpt lat="44.34502" lon="3.35005">
        <ele>824</ele>
        <time>2017-03-02T22:58:59Z</time>
      </trkpt>
      <trkpt lat="44.34512" lon="3.35016">
        <ele>823</ele>
        <time>2017-03-02T23:00:59Z</time>
      </trkpt>
      <trkpt lat="44.34527" lon="3.35029">
        <ele>822</ele>
        <time>2017-03-02T23:02:59Z</time>
      </trkpt>
      <trkpt lat="44.3454" lon="3.35037">
        <ele>822</ele>
        <time>2017-03-02T23:04:59Z</time>
      </trkpt>
      <trkpt lat="44.34551" lon="3.35048">
        <ele>821</ele>
        <time>2017-03-02T23:06:59Z</time>
      </trkpt>
      <trkpt lat="44.34563" lon="3.35059">
        <ele>820</ele>
        <time>2017-03-02T23:08:59Z</time>
      </trkpt>
      <trkpt lat="44.34578" lon="3.35068">
        <ele>819</ele>
        <time>2017-03-02T23:10:59Z</time>
      </trkpt>
      <trkpt lat="44.34591" lon="3.35073">
        <ele>819</ele>
        <time>2017-03-02T23:12:59Z</time>
      </trkpt>
      <trkpt lat="44.34603" lon="3.35078">
        <ele>819</ele>
        <time>2017-03-02T23:14:59Z</time>
      </trkpt>
      <trkpt lat="44.34618" lon="3.35087">
        <ele>818</ele>
        <time>2017-03-02T23:16:59Z</time>
      </trkpt>
      <trkpt lat="44.3462" lon="3.35092">
        <ele>818</ele>
        <time>2017-03-02T23:18:59Z</time>
      </trkpt>
      <trkpt lat="44.34624" lon="3.351">
        <ele>818</ele>
        <time>2017-03-02T23:20:59Z</time>
      </trkpt>
      <trkpt lat="44.34627" lon="3.35112">
        <ele>817</ele>
        <time>2017-03-02T23:22:59Z</time>
      </trkpt>
      <trkpt lat="44.34628" lon="3.35118">
        <ele>817</ele>
        <time>2017-03-02T23:24:59Z</time>
      </trkpt>
      <trkpt lat="44.3463" lon="3.35126">
        <ele>817</ele>
        <time>2017-03-02T23:26:59Z</time>
      </trkpt>
      <trkpt lat="44.34631" lon="3.35138">
        <ele>816</ele>
        <time>2017-03-02T23:28:59Z</time>
      </trkpt>
      <trkpt lat="44.3463" lon="3.35148">
        <ele>815</ele>
        <time>2017-03-02T23:30:59Z</time>
      </trkpt>
      <trkpt lat="44.34628" lon="3.35158">
        <ele>815</ele>
        <time>2017-03-02T23:32:59Z</time>
      </trkpt>
      <trkpt lat="44.34618" lon="3.35173">
        <ele>812</ele>
        <time>2017-03-02T23:34:59Z</time>
      </trkpt>
      <trkpt lat="44.34611" lon="3.35183">
        <ele>811</ele>
        <time>2017-03-02T23:36:59Z</time>
      </trkpt>
      <trkpt lat="44.34606" lon="3.35197">
        <ele>809</ele>
        <time>2017-03-02T23:38:59Z</time>
      </trkpt>
      <trkpt lat="44.34603" lon="3.35211">
        <ele>808</ele>
        <time>2017-03-02T23:40:59Z</time>
      </trkpt>
      <trkpt lat="44.34602" lon="3.35227">
        <ele>807</ele>
        <time>2017-03-02T23:42:59Z</time>
      </trkpt>
      <trkpt lat="44.34602" lon="3.35256">
        <ele>806</ele>
        <time>2017-03-02T23:44:59Z</time>
      </trkpt>
      <trkpt lat="44.34601" lon="3.35287">
        <ele>803</ele>
        <time>2017-03-02T23:46:59Z</time>
      </trkpt>
      <trkpt lat="44.34599" lon="3.35313">
        <ele>800</ele>
        <time>2017-03-02T23:48:59Z</time>
      </trkpt>
      <trkpt lat="44.34598" lon="3.35334">
        <ele>798</ele>
        <time>2017-03-02T23:50:59Z</time>
      </trkpt>
      <trkpt lat="44.34598" lon="3.35346">
        <ele>796</ele>
        <time>2017-03-02T23:52:59Z</time>
      </trkpt>
      <trkpt lat="44.34604" lon="3.35379">
        <ele>791</ele>
        <time>2017-03-02T23:54:59Z</time>
      </trkpt>
      <trkpt lat="44.34606" lon="3.35384">
        <ele>790</ele>
        <time>2017-03-02T23:56:59Z</time>
      </trkpt>
      <trkpt lat="44.34609" lon="3.35388">
        <ele>790</ele>
        <time>2017-03-02T23:58:59Z</time>
      </trkpt>
      <trkpt lat="44.34615" lon="3.35395">
        <ele>789</ele>
        <time>2017-03-03T00:00:59Z</time>
      </trkpt>
      <trkpt lat="44.34619" lon="3.35402">
        <ele>789</ele>
        <time>2017-03-03T00:02:59Z</time>
      </trkpt>
      <trkpt lat="44.34624" lon="3.3541">
        <ele>788</ele>
        <time>2017-03-03T00:04:59Z</time>
      </trkpt>
      <trkpt lat="44.34629" lon="3.35421">
        <ele>787</ele>
        <time>2017-03-03T00:06:59Z</time>
      </trkpt>
      <trkpt lat="44.34636" lon="3.35433">
        <ele>787</ele>
        <time>2017-03-03T00:08:59Z</time>
      </trkpt>
      <trkpt lat="44.34642" lon="3.35441">
        <ele>787</ele>
        <time>2017-03-03T00:10:59Z</time>
      </trkpt>
      <trkpt lat="44.3465" lon="3.35448">
        <ele>788</ele>
        <time>2017-03-03T00:12:59Z</time>
      </trkpt>
      <trkpt lat="44.34658" lon="3.35454">
        <ele>789</ele>
        <time>2017-03-03T00:14:59Z</time>
      </trkpt>
      <trkpt lat="44.34663" lon="3.35456">
        <ele>790</ele>
        <time>2017-03-03T00:16:59Z</time>
      </trkpt>
      <trkpt lat="44.34662" lon="3.35466">
        <ele>788</ele>
        <time>2017-03-03T00:18:59Z</time>
      </trkpt>
      <trkpt lat="44.34663" lon="3.35481">
        <ele>787</ele>
        <time>2017-03-03T00:20:59Z</time>
      </trkpt>
      <trkpt lat="44.34663" lon="3.35514">
        <ele>786</ele>
        <time>2017-03-03T00:22:59Z</time>
      </trkpt>
      <trkpt lat="44.34664" lon="3.35524">
        <ele>787</ele>
        <time>2017-03-03T00:24:59Z</time>
      </trkpt>
      <trkpt lat="44.34664" lon="3.35538">
        <ele>788</ele>
        <time>2017-03-03T00:26:59Z</time>
      </trkpt>
      <trkpt lat="44.34662" lon="3.35546">
        <ele>789</ele>
        <time>2017-03-03T00:28:59Z</time>
      </trkpt>
      <trkpt lat="44.3466" lon="3.35552">
        <ele>789</ele>
        <time>2017-03-03T00:30:59Z</time>
      </trkpt>
      <trkpt lat="44.34656" lon="3.35558">
        <ele>789</ele>
        <time>2017-03-03T00:32:59Z</time>
      </trkpt>
      <trkpt lat="44.3465" lon="3.3557">
        <ele>789</ele>
        <time>2017-03-03T00:34:59Z</time>
      </trkpt>
      <trkpt lat="44.34642" lon="3.35587">
        <ele>790</ele>
        <time>2017-03-03T00:36:59Z</time>
      </trkpt>
      <trkpt lat="44.34637" lon="3.356">
        <ele>790</ele>
        <time>2017-03-03T00:38:59Z</time>
      </trkpt>
      <trkpt lat="44.34633" lon="3.35614">
        <ele>791</ele>
        <time>2017-03-03T00:40:59Z</time>
      </trkpt>
      <trkpt lat="44.34628" lon="3.35635">
        <ele>793</ele>
        <time>2017-03-03T00:42:59Z</time>
      </trkpt>
      <trkpt lat="44.34625" lon="3.35654">
        <ele>794</ele>
        <time>2017-03-03T00:44:59Z</time>
      </trkpt>
      <trkpt lat="44.34625" lon="3.35664">
        <ele>795</ele>
        <time>2017-03-03T00:46:59Z</time>
      </trkpt>
      <trkpt lat="44.34626" lon="3.35671">
        <ele>795</ele>
        <time>2017-03-03T00:48:59Z</time>
      </trkpt>
      <trkpt lat="44.3463" lon="3.35677">
        <ele>796</ele>
        <time>2017-03-03T00:50:59Z</time>
      </trkpt>
      <trkpt lat="44.34638" lon="3.35685">
        <ele>796</ele>
        <time>2017-03-03T00:52:59Z</time>
      </trkpt>
      <trkpt lat="44.34641" lon="3.35691">
        <ele>796</ele>
        <time>2017-03-03T00:54:59Z</time>
      </trkpt>
      <trkpt lat="44.34644" lon="3.35698">
        <ele>796</ele>
        <time>2017-03-03T00:56:59Z</time>
      </trkpt>
      <trkpt lat="44.34644" lon="3.35712">
        <ele>796</ele>
        <time>2017-03-03T00:58:59Z</time>
      </trkpt>
      <trkpt lat="44.34642" lon="3.35721">
        <ele>795</ele>
        <time>2017-03-03T01:00:59Z</time>
      </trkpt>
      <trkpt lat="44.34639" lon="3.3573">
        <ele>795</ele>
        <time>2017-03-03T01:02:59Z</time>
      </trkpt>
      <trkpt lat="44.34638" lon="3.35741">
        <ele>794</ele>
        <time>2017-03-03T01:04:59Z</time>
      </trkpt>
      <trkpt lat="44.34638" lon="3.3575">
        <ele>794</ele>
        <time>2017-03-03T01:06:59Z</time>
      </trkpt>
      <trkpt lat="44.34641" lon="3.3576">
        <ele>794</ele>
        <time>2017-03-03T01:08:59Z</time>
      </trkpt>
      <trkpt lat="44.34644" lon="3.35768">
        <ele>794</ele>
        <time>2017-03-03T01:10:59Z</time>
      </trkpt>
      <trkpt lat="44.34647" lon="3.35772">
        <ele>794</ele>
        <time>2017-03-03T01:12:59Z</time>
      </trkpt>
      <trkpt lat="44.34648" lon="3.35777">
        <ele>794</ele>
        <time>2017-03-03T01:14:59Z</time>
      </trkpt>
      <trkpt lat="44.34654" lon="3.35793">
        <ele>794</ele>
        <time>2017-03-03T01:16:59Z</time>
      </trkpt>
      <trkpt lat="44.34661" lon="3.35806">
        <ele>794</ele>
        <time>2017-03-03T01:18:59Z</time>
      </trkpt>
      <trkpt lat="44.34668" lon="3.35817">
        <ele>795</ele>
        <time>2017-03-03T01:20:59Z</time>
      </trkpt>
      <trkpt lat="44.34676" lon="3.35831">
        <ele>795</ele>
        <time>2017-03-03T01:22:59Z</time>
      </trkpt>
      <trkpt lat="44.3468" lon="3.35833">
        <ele>796</ele>
        <time>2017-03-03T01:24:59Z</time>
      </trkpt>
      <trkpt lat="44.34688" lon="3.35839">
        <ele>797</ele>
        <time>2017-03-03T01:26:59Z</time>
      </trkpt>
      <trkpt lat="44.34693" lon="3.35846">
        <ele>797</ele>
        <time>2017-03-03T01:28:59Z</time>
      </trkpt>
      <trkpt lat="44.34698" lon="3.35854">
        <ele>797</ele>
        <time>2017-03-03T01:30:59Z</time>
      </trkpt>
      <trkpt lat="44.34703" lon="3.3586">
        <ele>797</ele>
        <time>2017-03-03T01:32:59Z</time>
      </trkpt>
      <trkpt lat="44.34708" lon="3.35867">
        <ele>797</ele>
        <time>2017-03-03T01:34:59Z</time>
      </trkpt>
      <trkpt lat="44.3471" lon="3.35874">
        <ele>797</ele>
        <time>2017-03-03T01:36:59Z</time>
      </trkpt>
      <trkpt lat="44.34716" lon="3.35874">
        <ele>797</ele>
        <time>2017-03-03T01:38:59Z</time>
      </trkpt>
      <trkpt lat="44.3472" lon="3.35875">
        <ele>798</ele>
        <time>2017-03-03T01:40:59Z</time>
      </trkpt>
      <trkpt lat="44.3472" lon="3.3588">
        <ele>797</ele>
        <time>2017-03-03T01:42:59Z</time>
      </trkpt>
      <trkpt lat="44.34718" lon="3.35885">
        <ele>796</ele>
        <time>2017-03-03T01:44:59Z</time>
      </trkpt>
      <trkpt lat="44.34712" lon="3.35891">
        <ele>795</ele>
        <time>2017-03-03T01:46:59Z</time>
      </trkpt>
      <trkpt lat="44.34711" lon="3.35898">
        <ele>794</ele>
        <time>2017-03-03T01:48:59Z</time>
      </trkpt>
      <trkpt lat="44.34711" lon="3.35909">
        <ele>793</ele>
        <time>2017-03-03T01:50:59Z</time>
      </trkpt>
      <trkpt lat="44.34713" lon="3.35926">
        <ele>793</ele>
        <time>2017-03-03T01:52:59Z</time>
      </trkpt>
      <trkpt lat="44.34723" lon="3.35963">
        <ele>792</ele>
        <time>2017-03-03T01:54:59Z</time>
      </trkpt>
      <trkpt lat="44.34721" lon="3.35965">
        <ele>792</ele>
        <time>2017-03-03T01:56:59Z</time>
      </trkpt>
      <trkpt lat="44.34713" lon="3.35971">
        <ele>791</ele>
        <time>2017-03-03T01:58:59Z</time>
      </trkpt>
      <trkpt lat="44.34709" lon="3.35976">
        <ele>791</ele>
        <time>2017-03-03T02:00:59Z</time>
      </trkpt>
      <trkpt lat="44.34702" lon="3.36033">
        <ele>791</ele>
        <time>2017-03-03T02:02:59Z</time>
      </trkpt>
      <trkpt lat="44.34698" lon="3.36042">
        <ele>791</ele>
        <time>2017-03-03T02:04:59Z</time>
      </trkpt>
      <trkpt lat="44.34694" lon="3.36048">
        <ele>790</ele>
        <time>2017-03-03T02:06:59Z</time>
      </trkpt>
      <trkpt lat="44.34687" lon="3.3606">
        <ele>790</ele>
        <time>2017-03-03T02:08:59Z</time>
      </trkpt>
      <trkpt lat="44.34684" lon="3.36069">
        <ele>790</ele>
        <time>2017-03-03T02:10:59Z</time>
      </trkpt>
      <trkpt lat="44.34683" lon="3.36077">
        <ele>790</ele>
        <time>2017-03-03T02:12:59Z</time>
      </trkpt>
      <trkpt lat="44.34682" lon="3.36098">
        <ele>791</ele>
        <time>2017-03-03T02:14:59Z</time>
      </trkpt>
      <trkpt lat="44.34681" lon="3.36105">
        <ele>792</ele>
        <time>2017-03-03T02:16:59Z</time>
      </trkpt>
      <trkpt lat="44.3468" lon="3.36109">
        <ele>792</ele>
        <time>2017-03-03T02:18:59Z</time>
      </trkpt>
      <trkpt lat="44.34674" lon="3.36115">
        <ele>792</ele>
        <time>2017-03-03T02:20:59Z</time>
      </trkpt>
      <trkpt lat="44.34665" lon="3.36123">
        <ele>791</ele>
        <time>2017-03-03T02:22:59Z</time>
      </trkpt>
      <trkpt lat="44.3465" lon="3.36131">
        <ele>791</ele>
        <time>2017-03-03T02:24:59Z</time>
      </trkpt>
      <trkpt lat="44.34645" lon="3.36133">
        <ele>790</ele>
        <time>2017-03-03T02:26:59Z</time>
      </trkpt>
      <trkpt lat="44.34643" lon="3.36135">
        <ele>790</ele>
        <time>2017-03-03T02:28:59Z</time>
      </trkpt>
      <trkpt lat="44.3464" lon="3.36143">
        <ele>790</ele>
        <time>2017-03-03T02:30:59Z</time>
      </trkpt>
      <trkpt lat="44.34638" lon="3.36154">
        <ele>791</ele>
        <time>2017-03-03T02:32:59Z</time>
      </trkpt>
      <trkpt lat="44.34638" lon="3.3616">
        <ele>791</ele>
        <time>2017-03-03T02:34:59Z</time>
      </trkpt>
      <trkpt lat="44.3464" lon="3.3617">
        <ele>791</ele>
        <time>2017-03-03T02:36:59Z</time>
      </trkpt>
      <trkpt lat="44.34646" lon="3.36181">
        <ele>792</ele>
        <time>2017-03-03T02:38:59Z</time>
      </trkpt>
      <trkpt lat="44.34651" lon="3.36189">
        <ele>793</ele>
        <time>2017-03-03T02:40:59Z</time>
      </trkpt>
      <trkpt lat="44.34657" lon="3.36192">
        <ele>794</ele>
        <time>2017-03-03T02:42:59Z</time>
      </trkpt>
      <trkpt lat="44.34662" lon="3.36195">
        <ele>794</ele>
        <time>2017-03-03T02:44:59Z</time>
      </trkpt>
      <trkpt lat="44.34665" lon="3.36198">
        <ele>795</ele>
        <time>2017-03-03T02:46:59Z</time>
      </trkpt>
      <trkpt lat="44.34676" lon="3.36212">
        <ele>796</ele>
        <time>2017-03-03T02:48:59Z</time>
      </trkpt>
      <trkpt lat="44.34677" lon="3.36215">
        <ele>797</ele>
        <time>2017-03-03T02:50:59Z</time>
      </trkpt>
      <trkpt lat="44.34681" lon="3.36214">
        <ele>797</ele>
        <time>2017-03-03T02:52:59Z</time>
      </trkpt>
      <trkpt lat="44.34686" lon="3.36212">
        <ele>798</ele>
        <time>2017-03-03T02:54:59Z</time>
      </trkpt>
      <trkpt lat="44.34692" lon="3.36209">
        <ele>798</ele>
        <time>2017-03-03T02:56:59Z</time>
      </trkpt>
      <trkpt lat="44.34699" lon="3.36201">
        <ele>799</ele>
        <time>2017-03-03T02:58:59Z</time>
      </trkpt>
      <trkpt lat="44.34714" lon="3.36188">
        <ele>800</ele>
        <time>2017-03-03T03:00:59Z</time>
      </trkpt>
      <trkpt lat="44.34725" lon="3.36179">
        <ele>801</ele>
        <time>2017-03-03T03:02:59Z</time>
      </trkpt>
      <trkpt lat="44.34738" lon="3.36173">
        <ele>801</ele>
        <time>2017-03-03T03:04:59Z</time>
      </trkpt>
      <trkpt lat="44.34757" lon="3.36168">
        <ele>803</ele>
        <time>2017-03-03T03:06:59Z</time>
      </trkpt>
      <trkpt lat="44.34766" lon="3.36168">
        <ele>804</ele>
        <time>2017-03-03T03:08:59Z</time>
      </trkpt>
      <trkpt lat="44.34774" lon="3.36169">
        <ele>805</ele>
        <time>2017-03-03T03:10:59Z</time>
      </trkpt>
      <trkpt lat="44.34783" lon="3.36176">
        <ele>807</ele>
        <time>2017-03-03T03:12:59Z</time>
      </trkpt>
      <trkpt lat="44.34787" lon="3.36181">
        <ele>808</ele>
        <time>2017-03-03T03:14:59Z</time>
      </trkpt>
      <trkpt lat="44.34796" lon="3.36209">
        <ele>811</ele>
        <time>2017-03-03T03:16:59Z</time>
      </trkpt>
      <trkpt lat="44.34796" lon="3.36213">
        <ele>812</ele>
        <time>2017-03-03T03:18:59Z</time>
      </trkpt>
      <trkpt lat="44.34804" lon="3.36254">
        <ele>816</ele>
        <time>2017-03-03T03:20:59Z</time>
      </trkpt>
      <trkpt lat="44.34807" lon="3.36264">
        <ele>816</ele>
        <time>2017-03-03T03:22:59Z</time>
      </trkpt>
      <trkpt lat="44.3481" lon="3.36268">
        <ele>817</ele>
        <time>2017-03-03T03:24:59Z</time>
      </trkpt>
      <trkpt lat="44.34815" lon="3.3627">
        <ele>817</ele>
        <time>2017-03-03T03:26:59Z</time>
      </trkpt>
      <trkpt lat="44.34823" lon="3.36271">
        <ele>818</ele>
        <time>2017-03-03T03:28:59Z</time>
      </trkpt>
      <trkpt lat="44.34831" lon="3.36271">
        <ele>819</ele>
        <time>2017-03-03T03:30:59Z</time>
      </trkpt>
      <trkpt lat="44.34839" lon="3.36276">
        <ele>819</ele>
        <time>2017-03-03T03:32:59Z</time>
      </trkpt>
      <trkpt lat="44.34852" lon="3.36282">
        <ele>820</ele>
        <time>2017-03-03T03:34:59Z</time>
      </trkpt>
      <trkpt lat="44.34862" lon="3.36288">
        <ele>821</ele>
        <time>2017-03-03T03:36:59Z</time>
      </trkpt>
      <trkpt lat="44.34866" lon="3.36294">
        <ele>821</ele>
        <time>2017-03-03T03:38:59Z</time>
      </trkpt>
      <trkpt lat="44.34868" lon="3.36293">
        <ele>821</ele>
        <time>2017-03-03T03:40:59Z</time>
      </trkpt>
      <trkpt lat="44.34874" lon="3.36291">
        <ele>821</ele>
        <time>2017-03-03T03:42:59Z</time>
      </trkpt>
      <trkpt lat="44.34873" lon="3.36292">
        <ele>821</ele>
        <time>2017-03-03T03:44:59Z</time>
      </trkpt>
      <trkpt lat="44.34871" lon="3.36297">
        <ele>821</ele>
        <time>2017-03-03T03:46:59Z</time>
      </trkpt>
      <trkpt lat="44.34868" lon="3.36302">
        <ele>821</ele>
        <time>2017-03-03T03:48:59Z</time>
      </trkpt>
      <trkpt lat="44.34866" lon="3.36313">
        <ele>822</ele>
        <time>2017-03-03T03:50:59Z</time>
      </trkpt>
      <trkpt lat="44.34865" lon="3.36323">
        <ele>822</ele>
        <time>2017-03-03T03:52:59Z</time>
      </trkpt>
      <trkpt lat="44.34866" lon="3.36331">
        <ele>822</ele>
        <time>2017-03-03T03:54:59Z</time>
      </trkpt>
      <trkpt lat="44.34868" lon="3.36342">
        <ele>822</ele>
        <time>2017-03-03T03:56:59Z</time>
      </trkpt>
      <trkpt lat="44.34872" lon="3.36352">
        <ele>821</ele>
        <time>2017-03-03T03:58:59Z</time>
      </trkpt>
      <trkpt lat="44.34883" lon="3.36363">
        <ele>822</ele>
        <time>2017-03-03T04:00:59Z</time>
      </trkpt>
      <trkpt lat="44.34902" lon="3.3638">
        <ele>823</ele>
        <time>2017-03-03T04:02:59Z</time>
      </trkpt>
      <trkpt lat="44.34911" lon="3.36389">
        <ele>824</ele>
        <time>2017-03-03T04:04:59Z</time>
      </trkpt>
      <trkpt lat="44.34918" lon="3.36399">
        <ele>825</ele>
        <time>2017-03-03T04:06:59Z</time>
      </trkpt>
      <trkpt lat="44.34922" lon="3.3641">
        <ele>825</ele>
        <time>2017-03-03T04:08:59Z</time>
      </trkpt>
      <trkpt lat="44.34926" lon="3.3642">
        <ele>825</ele>
        <time>2017-03-03T04:10:59Z</time>
      </trkpt>
      <trkpt lat="44.34927" lon="3.36422">
        <ele>825</ele>
        <time>2017-03-03T04:12:59Z</time>
      </trkpt>
      <trkpt lat="44.34932" lon="3.36446">
        <ele>826</ele>
        <time>2017-03-03T04:14:59Z</time>
      </trkpt>
      <trkpt lat="44.3494" lon="3.36493">
        <ele>827</ele>
        <time>2017-03-03T04:16:59Z</time>
      </trkpt>
      <trkpt lat="44.34947" lon="3.36531">
        <ele>828</ele>
        <time>2017-03-03T04:18:59Z</time>
      </trkpt>
      <trkpt lat="44.34949" lon="3.3655">
        <ele>828</ele>
        <time>2017-03-03T04:20:59Z</time>
      </trkpt>
      <trkpt lat="44.3495" lon="3.36565">
        <ele>828</ele>
        <time>2017-03-03T04:22:59Z</time>
      </trkpt>
      <trkpt lat="44.3495" lon="3.36578">
        <ele>828</ele>
        <time>2017-03-03T04:24:59Z</time>
      </trkpt>
      <trkpt lat="44.34948" lon="3.36595">
        <ele>828</ele>
        <time>2017-03-03T04:26:59Z</time>
      </trkpt>
      <trkpt lat="44.34944" lon="3.3661">
        <ele>829</ele>
        <time>2017-03-03T04:28:59Z</time>
      </trkpt>
      <trkpt lat="44.34941" lon="3.36618">
        <ele>829</ele>
        <time>2017-03-03T04:30:59Z</time>
      </trkpt>
      <trkpt lat="44.34932" lon="3.36638">
        <ele>830</ele>
        <time>2017-03-03T04:32:59Z</time>
      </trkpt>
      <trkpt lat="44.34922" lon="3.36654">
        <ele>830</ele>
        <time>2017-03-03T04:34:59Z</time>
      </trkpt>
      <trkpt lat="44.34913" lon="3.36664">
        <ele>831</ele>
        <time>2017-03-03T04:36:59Z</time>
      </trkpt>
      <trkpt lat="44.34898" lon="3.36678">
        <ele>830</ele>
        <time>2017-03-03T04:38:59Z</time>
      </trkpt>
      <trkpt lat="44.34881" lon="3.36695">
        <ele>830</ele>
        <time>2017-03-03T04:40:59Z</time>
      </trkpt>
      <trkpt lat="44.34859" lon="3.36715">
        <ele>830</ele>
        <time>2017-03-03T04:42:59Z</time>
      </trkpt>
      <trkpt lat="44.34843" lon="3.36731">
        <ele>830</ele>
        <time>2017-03-03T04:44:59Z</time>
      </trkpt>
      <trkpt lat="44.34833" lon="3.36742">
        <ele>831</ele>
        <time>2017-03-03T04:46:59Z</time>
      </trkpt>
      <trkpt lat="44.34826" lon="3.36755">
        <ele>829</ele>
        <time>2017-03-03T04:48:59Z</time>
      </trkpt>
      <trkpt lat="44.3482" lon="3.3677">
        <ele>827</ele>
        <time>2017-03-03T04:50:59Z</time>
      </trkpt>
      <trkpt lat="44.34817" lon="3.36788">
        <ele>825</ele>
        <time>2017-03-03T04:52:59Z</time>
      </trkpt>
      <trkpt lat="44.34815" lon="3.36806">
        <ele>823</ele>
        <time>2017-03-03T04:54:59Z</time>
      </trkpt>
      <trkpt lat="44.34815" lon="3.36821">
        <ele>821</ele>
        <time>2017-03-03T04:56:59Z</time>
      </trkpt>
      <trkpt lat="44.34814" lon="3.36833">
        <ele>820</ele>
        <time>2017-03-03T04:58:59Z</time>
      </trkpt>
      <trkpt lat="44.34816" lon="3.36849">
        <ele>820</ele>
        <time>2017-03-03T05:00:59Z</time>
      </trkpt>
      <trkpt lat="44.34823" lon="3.36878">
        <ele>822</ele>
        <time>2017-03-03T05:02:59Z</time>
      </trkpt>
      <trkpt lat="44.34828" lon="3.36892">
        <ele>823</ele>
        <time>2017-03-03T05:04:59Z</time>
      </trkpt>
      <trkpt lat="44.34831" lon="3.36905">
        <ele>824</ele>
        <time>2017-03-03T05:06:59Z</time>
      </trkpt>
      <trkpt lat="44.34831" lon="3.36917">
        <ele>823</ele>
        <time>2017-03-03T05:08:59Z</time>
      </trkpt>
      <trkpt lat="44.34828" lon="3.36946">
        <ele>822</ele>
        <time>2017-03-03T05:10:59Z</time>
      </trkpt>
      <trkpt lat="44.34822" lon="3.36986">
        <ele>819</ele>
        <time>2017-03-03T05:12:59Z</time>
      </trkpt>
      <trkpt lat="44.34814" lon="3.37034">
        <ele>814</ele>
        <time>2017-03-03T05:14:59Z</time>
      </trkpt>
      <trkpt lat="44.3481" lon="3.3706">
        <ele>811</ele>
        <time>2017-03-03T05:16:59Z</time>
      </trkpt>
      <trkpt lat="44.3481" lon="3.37097">
        <ele>809</ele>
        <time>2017-03-03T05:18:59Z</time>
      </trkpt>
      <trkpt lat="44.34814" lon="3.37114">
        <ele>811</ele>
        <time>2017-03-03T05:20:59Z</time>
      </trkpt>
      <trkpt lat="44.3482" lon="3.37136">
        <ele>814</ele>
        <time>2017-03-03T05:22:59Z</time>
      </trkpt>
      <trkpt lat="44.34824" lon="3.37157">
        <ele>817</ele>
        <time>2017-03-03T05:24:59Z</time>
      </trkpt>
      <trkpt lat="44.34826" lon="3.37166">
        <ele>818</ele>
        <time>2017-03-03T05:26:59Z</time>
      </trkpt>
      <trkpt lat="44.34827" lon="3.37178">
        <ele>819</ele>
        <time>2017-03-03T05:28:59Z</time>
      </trkpt>
      <trkpt lat="44.34826" lon="3.37202">
        <ele>819</ele>
        <time>2017-03-03T05:30:59Z</time>
      </trkpt>
      <trkpt lat="44.34826" lon="3.37221">
        <ele>820</ele>
        <time>2017-03-03T05:32:59Z</time>
      </trkpt>
      <trkpt lat="44.34825" lon="3.37232">
        <ele>820</ele>
        <time>2017-03-03T05:34:59Z</time>
      </trkpt>
      <trkpt lat="44.34823" lon="3.37242">
        <ele>820</ele>
        <time>2017-03-03T05:36:59Z</time>
      </trkpt>
      <trkpt lat="44.34819" lon="3.37251">
        <ele>820</ele>
        <time>2017-03-03T05:38:59Z</time>
      </trkpt>
      <trkpt lat="44.34814" lon="3.37259">
        <ele>820</ele>
        <time>2017-03-03T05:40:59Z</time>
      </trkpt>
      <trkpt lat="44.3481" lon="3.37262">
        <ele>819</ele>
        <time>2017-03-03T05:42:59Z</time>
      </trkpt>
      <trkpt lat="44.34808" lon="3.37256">
        <ele>818</ele>
        <time>2017-03-03T05:44:59Z</time>
      </trkpt>
      <trkpt lat="44.3481" lon="3.37249">
        <ele>818</ele>
        <time>2017-03-03T05:46:59Z</time>
      </trkpt>
      <trkpt lat="44.34815" lon="3.37234">
        <ele>818</ele>
        <time>2017-03-03T05:48:59Z</time>
      </trkpt>
      <trkpt lat="44.34813" lon="3.37226">
        <ele>816</ele>
        <time>2017-03-03T05:50:59Z</time>
      </trkpt>
      <trkpt lat="44.34809" lon="3.37218">
        <ele>815</ele>
        <time>2017-03-03T05:52:59Z</time>
      </trkpt>
      <trkpt lat="44.34803" lon="3.37212">
        <ele>812</ele>
        <time>2017-03-03T05:54:59Z</time>
      </trkpt>
      <trkpt lat="44.348" lon="3.37208">
        <ele>811</ele>
        <time>2017-03-03T05:56:59Z</time>
      </trkpt>
      <trkpt lat="44.34797" lon="3.37205">
        <ele>809</ele>
        <time>2017-03-03T05:58:59Z</time>
      </trkpt>
      <trkpt lat="44.34792" lon="3.37201">
        <ele>807</ele>
        <time>2017-03-03T06:00:59Z</time>
      </trkpt>
      <trkpt lat="44.3479" lon="3.37198">
        <ele>806</ele>
        <time>2017-03-03T06:02:59Z</time>
      </trkpt>
      <trkpt lat="44.3479" lon="3.37187">
        <ele>804</ele>
        <time>2017-03-03T06:04:59Z</time>
      </trkpt>
      <trkpt lat="44.34791" lon="3.37176">
        <ele>803</ele>
        <time>2017-03-03T06:06:59Z</time>
      </trkpt>
      <trkpt lat="44.3479" lon="3.37168">
        <ele>801</ele>
        <time>2017-03-03T06:08:59Z</time>
      </trkpt>
      <trkpt lat="44.34787" lon="3.37156">
        <ele>800</ele>
        <time>2017-03-03T06:10:59Z</time>
      </trkpt>
      <trkpt lat="44.34786" lon="3.37148">
        <ele>799</ele>
        <time>2017-03-03T06:12:59Z</time>
      </trkpt>
      <trkpt lat="44.34787" lon="3.37134">
        <ele>800</ele>
        <time>2017-03-03T06:14:59Z</time>
      </trkpt>
      <trkpt lat="44.34786" lon="3.37116">
        <ele>799</ele>
        <time>2017-03-03T06:16:59Z</time>
      </trkpt>
      <trkpt lat="44.34784" lon="3.37106">
        <ele>798</ele>
        <time>2017-03-03T06:18:59Z</time>
      </trkpt>
      <trkpt lat="44.3478" lon="3.37098">
        <ele>797</ele>
        <time>2017-03-03T06:20:59Z</time>
      </trkpt>
      <trkpt lat="44.34778" lon="3.37095">
        <ele>796</ele>
        <time>2017-03-03T06:22:59Z</time>
      </trkpt>
      <trkpt lat="44.34774" lon="3.37087">
        <ele>794</ele>
        <time>2017-03-03T06:24:59Z</time>
      </trkpt>
      <trkpt lat="44.34773" lon="3.37082">
        <ele>794</ele>
        <time>2017-03-03T06:26:59Z</time>
      </trkpt>
      <trkpt lat="44.34769" lon="3.37073">
        <ele>793</ele>
        <time>2017-03-03T06:28:59Z</time>
      </trkpt>
      <trkpt lat="44.34768" lon="3.37072">
        <ele>793</ele>
        <time>2017-03-03T06:30:59Z</time>
      </trkpt>
      <trkpt lat="44.34767" lon="3.37076">
        <ele>792</ele>
        <time>2017-03-03T06:32:59Z</time>
      </trkpt>
      <trkpt lat="44.34767" lon="3.37081">
        <ele>791</ele>
        <time>2017-03-03T06:34:59Z</time>
      </trkpt>
      <trkpt lat="44.34768" lon="3.37089">
        <ele>792</ele>
        <time>2017-03-03T06:36:59Z</time>
      </trkpt>
      <trkpt lat="44.34767" lon="3.3709">
        <ele>791</ele>
        <time>2017-03-03T06:38:59Z</time>
      </trkpt>
      <trkpt lat="44.34765" lon="3.37089">
        <ele>790</ele>
        <time>2017-03-03T06:40:59Z</time>
      </trkpt>
      <trkpt lat="44.34765" lon="3.37088">
        <ele>790</ele>
        <time>2017-03-03T06:42:59Z</time>
      </trkpt>
      <trkpt lat="44.34764" lon="3.37086">
        <ele>790</ele>
        <time>2017-03-03T06:44:59Z</time>
      </trkpt>
      <trkpt lat="44.34761" lon="3.37076">
        <ele>790</ele>
        <time>2017-03-03T06:46:59Z</time>
      </trkpt>
      <trkpt lat="44.34759" lon="3.37075">
        <ele>789</ele>
        <time>2017-03-03T06:48:59Z</time>
      </trkpt>
      <trkpt lat="44.34757" lon="3.37075">
        <ele>788</ele>
        <time>2017-03-03T06:50:59Z</time>
      </trkpt>
      <trkpt lat="44.34756" lon="3.37078">
        <ele>787</ele>
        <time>2017-03-03T06:52:59Z</time>
      </trkpt>
      <trkpt lat="44.34757" lon="3.37081">
        <ele>787</ele>
        <time>2017-03-03T06:54:59Z</time>
      </trkpt>
      <trkpt lat="44.34758" lon="3.37088">
        <ele>787</ele>
        <time>2017-03-03T06:56:59Z</time>
      </trkpt>
      <trkpt lat="44.34757" lon="3.37099">
        <ele>787</ele>
        <time>2017-03-03T06:58:59Z</time>
      </trkpt>
      <trkpt lat="44.34756" lon="3.37117">
        <ele>786</ele>
        <time>2017-03-03T07:00:59Z</time>
      </trkpt>
      <trkpt lat="44.34744" lon="3.37155">
        <ele>779</ele>
        <time>2017-03-03T07:02:59Z</time>
      </trkpt>
      <trkpt lat="44.34737" lon="3.37171">
        <ele>776</ele>
        <time>2017-03-03T07:04:59Z</time>
      </trkpt>
      <trkpt lat="44.3473" lon="3.3718">
        <ele>774</ele>
        <time>2017-03-03T07:06:59Z</time>
      </trkpt>
      <trkpt lat="44.347" lon="3.37212">
        <ele>764</ele>
        <time>2017-03-03T07:08:59Z</time>
      </trkpt>
      <trkpt lat="44.3469" lon="3.37223">
        <ele>761</ele>
        <time>2017-03-03T07:10:59Z</time>
      </trkpt>
      <trkpt lat="44.34684" lon="3.37231">
        <ele>760</ele>
        <time>2017-03-03T07:12:59Z</time>
      </trkpt>
      <trkpt lat="44.34678" lon="3.37236">
        <ele>758</ele>
        <time>2017-03-03T07:14:59Z</time>
      </trkpt>
      <trkpt lat="44.34672" lon="3.37246">
        <ele>757</ele>
        <time>2017-03-03T07:16:59Z</time>
      </trkpt>
      <trkpt lat="44.34664" lon="3.37255">
        <ele>755</ele>
        <time>2017-03-03T07:18:59Z</time>
      </trkpt>
      <trkpt lat="44.34654" lon="3.37267">
        <ele>753</ele>
        <time>2017-03-03T07:20:59Z</time>
      </trkpt>
      <trkpt lat="44.34646" lon="3.37283">
        <ele>754</ele>
        <time>2017-03-03T07:22:59Z</time>
      </trkpt>
      <trkpt lat="44.34639" lon="3.37292">
        <ele>752</ele>
        <time>2017-03-03T07:24:59Z</time>
      </trkpt>
      <trkpt lat="44.34631" lon="3.37306">
        <ele>752</ele>
        <time>2017-03-03T07:26:59Z</time>
      </trkpt>
      <trkpt lat="44.34618" lon="3.37326">
        <ele>751</ele>
        <time>2017-03-03T07:28:59Z</time>
      </trkpt>
      <trkpt lat="44.34608" lon="3.37345">
        <ele>749</ele>
        <time>2017-03-03T07:30:59Z</time>
      </trkpt>
      <trkpt lat="44.34596" lon="3.37366">
        <ele>745</ele>
        <time>2017-03-03T07:32:59Z</time>
      </trkpt>
      <trkpt lat="44.34592" lon="3.37381">
        <ele>745</ele>
        <time>2017-03-03T07:34:59Z</time>
      </trkpt>
      <trkpt lat="44.34587" lon="3.37405">
        <ele>746</ele>
        <time>2017-03-03T07:36:59Z</time>
      </trkpt>
      <trkpt lat="44.34586" lon="3.37426">
        <ele>749</ele>
        <time>2017-03-03T07:38:59Z</time>
      </trkpt>
      <trkpt lat="44.34586" lon="3.37448">
        <ele>751</ele>
        <time>2017-03-03T07:40:59Z</time>
      </trkpt>
      <trkpt lat="44.34588" lon="3.37463">
        <ele>754</ele>
        <time>2017-03-03T07:42:59Z</time>
      </trkpt>
      <trkpt lat="44.3459" lon="3.37471">
        <ele>757</ele>
        <time>2017-03-03T07:44:59Z</time>
      </trkpt>
      <trkpt lat="44.34587" lon="3.37484">
        <ele>756</ele>
        <time>2017-03-03T07:46:59Z</time>
      </trkpt>
      <trkpt lat="44.34583" lon="3.37496">
        <ele>754</ele>
        <time>2017-03-03T07:48:59Z</time>
      </trkpt>
      <trkpt lat="44.34575" lon="3.37509">
        <ele>752</ele>
        <time>2017-03-03T07:50:59Z</time>
      </trkpt>
      <trkpt lat="44.34569" lon="3.37524">
        <ele>752</ele>
        <time>2017-03-03T07:52:59Z</time>
      </trkpt>
      <trkpt lat="44.34564" lon="3.37544">
        <ele>755</ele>
        <time>2017-03-03T07:54:59Z</time>
      </trkpt>
      <trkpt lat="44.34556" lon="3.37557">
        <ele>754</ele>
        <time>2017-03-03T07:56:59Z</time>
      </trkpt>
      <trkpt lat="44.34548" lon="3.37564">
        <ele>751</ele>
        <time>2017-03-03T07:58:59Z</time>
      </trkpt>
      <trkpt lat="44.3453" lon="3.37579">
        <ele>744</ele>
        <time>2017-03-03T08:00:59Z</time>
      </trkpt>
      <trkpt lat="44.34514" lon="3.37591">
        <ele>739</ele>
        <time>2017-03-03T08:02:59Z</time>
      </trkpt>
      <trkpt lat="44.34493" lon="3.37608">
        <ele>732</ele>
        <time>2017-03-03T08:04:59Z</time>
      </trkpt>
      <trkpt lat="44.34477" lon="3.37622">
        <ele>728</ele>
        <time>2017-03-03T08:06:59Z</time>
      </trkpt>
      <trkpt lat="44.34453" lon="3.37641">
        <ele>721</ele>
        <time>2017-03-03T08:08:59Z</time>
      </trkpt>
      <trkpt lat="44.34437" lon="3.37659">
        <ele>718</ele>
        <time>2017-03-03T08:10:59Z</time>
      </trkpt>
      <trkpt lat="44.34418" lon="3.37682">
        <ele>716</ele>
        <time>2017-03-03T08:12:59Z</time>
      </trkpt>
      <trkpt lat="44.34396" lon="3.37702">
        <ele>711</ele>
        <time>2017-03-03T08:14:59Z</time>
      </trkpt>
      <trkpt lat="44.34381" lon="3.37715">
        <ele>709</ele>
        <time>2017-03-03T08:16:59Z</time>
      </trkpt>
      <trkpt lat="44.34353" lon="3.37732">
        <ele>701</ele>
        <time>2017-03-03T08:18:59Z</time>
      </trkpt>
      <trkpt lat="44.34339" lon="3.37737">
        <ele>696</ele>
        <time>2017-03-03T08:20:59Z</time>
      </trkpt>
      <trkpt lat="44.34323" lon="3.37741">
        <ele>691</ele>
        <time>2017-03-03T08:22:59Z</time>
      </trkpt>
      <trkpt lat="44.34302" lon="3.37742">
        <ele>683</ele>
        <time>2017-03-03T08:24:59Z</time>
      </trkpt>
      <trkpt lat="44.34291" lon="3.37742">
        <ele>678</ele>
        <time>2017-03-03T08:26:59Z</time>
      </trkpt>
      <trkpt lat="44.3429" lon="3.37741">
        <ele>677</ele>
        <time>2017-03-03T08:28:59Z</time>
      </trkpt>
      <trkpt lat="44.3429" lon="3.3774">
        <ele>677</ele>
        <time>2017-03-03T08:30:59Z</time>
      </trkpt>
      <trkpt lat="44.34292" lon="3.37737">
        <ele>676</ele>
        <time>2017-03-03T08:32:59Z</time>
      </trkpt>
      <trkpt lat="44.34298" lon="3.37733">
        <ele>677</ele>
        <time>2017-03-03T08:34:59Z</time>
      </trkpt>
      <trkpt lat="44.343" lon="3.37729">
        <ele>676</ele>
        <time>2017-03-03T08:36:59Z</time>
      </trkpt>
      <trkpt lat="44.34298" lon="3.37728">
        <ele>674</ele>
        <time>2017-03-03T08:38:59Z</time>
      </trkpt>
      <trkpt lat="44.34293" lon="3.37728">
        <ele>672</ele>
        <time>2017-03-03T08:40:59Z</time>
      </trkpt>
      <trkpt lat="44.34278" lon="3.37732">
        <ele>668</ele>
        <time>2017-03-03T08:42:59Z</time>
      </trkpt>
      <trkpt lat="44.34265" lon="3.37732">
        <ele>663</ele>
        <time>2017-03-03T08:44:59Z</time>
      </trkpt>
      <trkpt lat="44.34246" lon="3.37735">
        <ele>657</ele>
        <time>2017-03-03T08:46:59Z</time>
      </trkpt>
      <trkpt lat="44.34242" lon="3.37735">
        <ele>655</ele>
        <time>2017-03-03T08:48:59Z</time>
      </trkpt>
      <trkpt lat="44.34241" lon="3.37733">
        <ele>654</ele>
        <time>2017-03-03T08:50:59Z</time>
      </trkpt>
      <trkpt lat="44.34241" lon="3.37731">
        <ele>652</ele>
        <time>2017-03-03T08:52:59Z</time>
      </trkpt>
      <trkpt lat="44.34253" lon="3.37716">
        <ele>650</ele>
        <time>2017-03-03T08:54:59Z</time>
      </trkpt>
      <trkpt lat="44.34265" lon="3.37709">
        <ele>651</ele>
        <time>2017-03-03T08:56:59Z</time>
      </trkpt>
      <trkpt lat="44.34278" lon="3.37696">
        <ele>650</ele>
        <time>2017-03-03T08:58:59Z</time>
      </trkpt>
      <trkpt lat="44.34284" lon="3.37688">
        <ele>649</ele>
        <time>2017-03-03T09:00:59Z</time>
      </trkpt>
      <trkpt lat="44.34293" lon="3.37678">
        <ele>648</ele>
        <time>2017-03-03T09:02:59Z</time>
      </trkpt>
      <trkpt lat="44.34299" lon="3.37672">
        <ele>648</ele>
        <time>2017-03-03T09:04:59Z</time>
      </trkpt>
      <trkpt lat="44.34304" lon="3.37668">
        <ele>648</ele>
        <time>2017-03-03T09:06:59Z</time>
      </trkpt>
      <trkpt lat="44.3431" lon="3.37659">
        <ele>647</ele>
        <time>2017-03-03T09:08:59Z</time>
      </trkpt>
      <trkpt lat="44.34317" lon="3.37641">
        <ele>644</ele>
        <time>2017-03-03T09:10:59Z</time>
      </trkpt>
      <trkpt lat="44.34318" lon="3.37625">
        <ele>638</ele>
        <time>2017-03-03T09:12:59Z</time>
      </trkpt>
      <trkpt lat="44.34325" lon="3.37606">
        <ele>634</ele>
        <time>2017-03-03T09:14:59Z</time>
      </trkpt>
      <trkpt lat="44.34329" lon="3.37578">
        <ele>625</ele>
        <time>2017-03-03T09:16:59Z</time>
      </trkpt>
      <trkpt lat="44.34331" lon="3.37567">
        <ele>622</ele>
        <time>2017-03-03T09:18:59Z</time>
      </trkpt>
      <trkpt lat="44.34331" lon="3.37563">
        <ele>621</ele>
        <time>2017-03-03T09:20:59Z</time>
      </trkpt>
      <trkpt lat="44.3433" lon="3.37559">
        <ele>619</ele>
        <time>2017-03-03T09:22:59Z</time>
      </trkpt>
      <trkpt lat="44.34329" lon="3.3755">
        <ele>615</ele>
        <time>2017-03-03T09:24:59Z</time>
      </trkpt>
      <trkpt lat="44.34329" lon="3.37546">
        <ele>614</ele>
        <time>2017-03-03T09:26:59Z</time>
      </trkpt>
      <trkpt lat="44.34331" lon="3.37535">
        <ele>611</ele>
        <time>2017-03-03T09:28:59Z</time>
      </trkpt>
      <trkpt lat="44.34329" lon="3.37533">
        <ele>609</ele>
        <time>2017-03-03T09:30:59Z</time>
      </trkpt>
      <trkpt lat="44.34329" lon="3.37534">
        <ele>610</ele>
        <time>2017-03-03T09:32:59Z</time>
      </trkpt>
      <trkpt lat="44.34327" lon="3.37535">
        <ele>609</ele>
        <time>2017-03-03T09:34:59Z</time>
      </trkpt>
      <trkpt lat="44.34322" lon="3.37542">
        <ele>609</ele>
        <time>2017-03-03T09:36:59Z</time>
      </trkpt>
      <trkpt lat="44.3432" lon="3.37544">
        <ele>609</ele>
        <time>2017-03-03T09:38:59Z</time>
      </trkpt>
      <trkpt lat="44.34319" lon="3.37544">
        <ele>609</ele>
        <time>2017-03-03T09:40:59Z</time>
      </trkpt>
      <trkpt lat="44.34318" lon="3.37543">
        <ele>608</ele>
        <time>2017-03-03T09:42:59Z</time>
      </trkpt>
      <trkpt lat="44.34318" lon="3.3754">
        <ele>607</ele>
        <time>2017-03-03T09:44:59Z</time>
      </trkpt>
      <trkpt lat="44.3432" lon="3.37535">
        <ele>606</ele>
        <time>2017-03-03T09:46:59Z</time>
      </trkpt>
      <trkpt lat="44.3432" lon="3.3753">
        <ele>604</ele>
        <time>2017-03-03T09:48:59Z</time>
      </trkpt>
      <trkpt lat="44.34319" lon="3.37526">
        <ele>602</ele>
        <time>2017-03-03T09:50:59Z</time>
      </trkpt>
      <trkpt lat="44.3432" lon="3.37522">
        <ele>601</ele>
        <time>2017-03-03T09:52:59Z</time>
      </trkpt>
      <trkpt lat="44.34321" lon="3.37515">
        <ele>599</ele>
        <time>2017-03-03T09:54:59Z</time>
      </trkpt>
      <trkpt lat="44.34322" lon="3.37513">
        <ele>599</ele>
        <time>2017-03-03T09:56:59Z</time>
      </trkpt>
      <trkpt lat="44.34322" lon="3.3751">
        <ele>598</ele>
        <time>2017-03-03T09:58:59Z</time>
      </trkpt>
      <trkpt lat="44.34321" lon="3.3751">
        <ele>598</ele>
        <time>2017-03-03T10:00:59Z</time>
      </trkpt>
      <trkpt lat="44.34318" lon="3.37514">
        <ele>598</ele>
        <time>2017-03-03T10:02:59Z</time>
      </trkpt>
      <trkpt lat="44.34317" lon="3.37516">
        <ele>598</ele>
        <time>2017-03-03T10:04:59Z</time>
      </trkpt>
      <trkpt lat="44.34315" lon="3.37517">
        <ele>597</ele>
        <time>2017-03-03T10:06:59Z</time>
      </trkpt>
      <trkpt lat="44.34313" lon="3.37515">
        <ele>596</ele>
        <time>2017-03-03T10:08:59Z</time>
      </trkpt>
      <trkpt lat="44.34312" lon="3.37512">
        <ele>594</ele>
        <time>2017-03-03T10:10:59Z</time>
      </trkpt>
      <trkpt lat="44.34313" lon="3.37509">
        <ele>594</ele>
        <time>2017-03-03T10:12:59Z</time>
      </trkpt>
      <trkpt lat="44.34315" lon="3.37507">
        <ele>594</ele>
        <time>2017-03-03T10:14:59Z</time>
      </trkpt>
      <trkpt lat="44.34316" lon="3.37503">
        <ele>593</ele>
        <time>2017-03-03T10:16:59Z</time>
      </trkpt>
      <trkpt lat="44.34314" lon="3.37503">
        <ele>592</ele>
        <time>2017-03-03T10:18:59Z</time>
      </trkpt>
      <trkpt lat="44.34312" lon="3.37505">
        <ele>592</ele>
        <time>2017-03-03T10:20:59Z</time>
      </trkpt>
      <trkpt lat="44.3431" lon="3.37508">
        <ele>592</ele>
        <time>2017-03-03T10:22:59Z</time>
      </trkpt>
      <trkpt lat="44.34295" lon="3.37523">
        <ele>590</ele>
        <time>2017-03-03T10:24:59Z</time>
      </trkpt>
      <trkpt lat="44.34287" lon="3.37533">
        <ele>590</ele>
        <time>2017-03-03T10:26:59Z</time>
      </trkpt>
      <trkpt lat="44.34281" lon="3.37543">
        <ele>590</ele>
        <time>2017-03-03T10:28:59Z</time>
      </trkpt>
      <trkpt lat="44.3428" lon="3.37546">
        <ele>591</ele>
        <time>2017-03-03T10:30:59Z</time>
      </trkpt>
      <trkpt lat="44.34279" lon="3.37553">
        <ele>593</ele>
        <time>2017-03-03T10:32:59Z</time>
      </trkpt>
      <trkpt lat="44.34278" lon="3.37555">
        <ele>593</ele>
        <time>2017-03-03T10:34:59Z</time>
      </trkpt>
      <trkpt lat="44.34276" lon="3.37557">
        <ele>593</ele>
        <time>2017-03-03T10:36:59Z</time>
      </trkpt>
      <trkpt lat="44.34274" lon="3.37556">
        <ele>592</ele>
        <time>2017-03-03T10:38:59Z</time>
      </trkpt>
      <trkpt lat="44.34274" lon="3.37552">
        <ele>590</ele>
        <time>2017-03-03T10:40:59Z</time>
      </trkpt>
      <trkpt lat="44.34273" lon="3.37545">
        <ele>587</ele>
        <time>2017-03-03T10:42:59Z</time>
      </trkpt>
      <trkpt lat="44.34273" lon="3.37542">
        <ele>586</ele>
        <time>2017-03-03T10:44:59Z</time>
      </trkpt>
      <trkpt lat="44.34271" lon="3.3754">
        <ele>585</ele>
        <time>2017-03-03T10:46:59Z</time>
      </trkpt>
      <trkpt lat="44.34269" lon="3.37539">
        <ele>583</ele>
        <time>2017-03-03T10:48:59Z</time>
      </trkpt>
      <trkpt lat="44.34266" lon="3.37546">
        <ele>584</ele>
        <time>2017-03-03T10:50:59Z</time>
      </trkpt>
      <trkpt lat="44.34263" lon="3.37552">
        <ele>585</ele>
        <time>2017-03-03T10:52:59Z</time>
      </trkpt>
      <trkpt lat="44.34256" lon="3.37559">
        <ele>584</ele>
        <time>2017-03-03T10:54:59Z</time>
      </trkpt>
      <trkpt lat="44.34246" lon="3.37568">
        <ele>583</ele>
        <time>2017-03-03T10:56:59Z</time>
      </trkpt>
      <trkpt lat="44.34241" lon="3.37572">
        <ele>582</ele>
        <time>2017-03-03T10:58:59Z</time>
      </trkpt>
      <trkpt lat="44.34232" lon="3.37574">
        <ele>579</ele>
        <time>2017-03-03T11:00:59Z</time>
      </trkpt>
      <trkpt lat="44.34219" lon="3.37574">
        <ele>574</ele>
        <time>2017-03-03T11:02:59Z</time>
      </trkpt>
      <trkpt lat="44.34203" lon="3.3757">
        <ele>565</ele>
        <time>2017-03-03T11:04:59Z</time>
      </trkpt>
      <trkpt lat="44.34197" lon="3.37569">
        <ele>562</ele>
        <time>2017-03-03T11:06:59Z</time>
      </trkpt>
      <trkpt lat="44.34193" lon="3.37568">
        <ele>560</ele>
        <time>2017-03-03T11:08:59Z</time>
      </trkpt>
      <trkpt lat="44.34186" lon="3.37568">
        <ele>557</ele>
        <time>2017-03-03T11:10:59Z</time>
      </trkpt>
      <trkpt lat="44.34175" lon="3.37567">
        <ele>552</ele>
        <time>2017-03-03T11:12:59Z</time>
      </trkpt>
      <trkpt lat="44.34167" lon="3.37568">
        <ele>549</ele>
        <time>2017-03-03T11:14:59Z</time>
      </trkpt>
      <trkpt lat="44.34159" lon="3.37565">
        <ele>543</ele>
        <time>2017-03-03T11:16:59Z</time>
      </trkpt>
      <trkpt lat="44.34154" lon="3.37566">
        <ele>541</ele>
        <time>2017-03-03T11:18:59Z</time>
      </trkpt>
      <trkpt lat="44.3415" lon="3.37568">
        <ele>540</ele>
        <time>2017-03-03T11:20:59Z</time>
      </trkpt>
      <trkpt lat="44.34147" lon="3.37572">
        <ele>541</ele>
        <time>2017-03-03T11:22:59Z</time>
      </trkpt>
      <trkpt lat="44.34145" lon="3.37576">
        <ele>541</ele>
        <time>2017-03-03T11:24:59Z</time>
      </trkpt>
      <trkpt lat="44.34141" lon="3.37594">
        <ele>547</ele>
        <time>2017-03-03T11:26:59Z</time>
      </trkpt>
      <trkpt lat="44.34141" lon="3.37596">
        <ele>548</ele>
        <time>2017-03-03T11:28:59Z</time>
      </trkpt>
      <trkpt lat="44.34143" lon="3.37597">
        <ele>549</ele>
        <time>2017-03-03T11:30:59Z</time>
      </trkpt>
      <trkpt lat="44.34147" lon="3.37601">
        <ele>553</ele>
        <time>2017-03-03T11:32:59Z</time>
      </trkpt>
      <trkpt lat="44.34148" lon="3.37604">
        <ele>555</ele>
        <time>2017-03-03T11:34:59Z</time>
      </trkpt>
      <trkpt lat="44.34146" lon="3.37611">
        <ele>557</ele>
        <time>2017-03-03T11:36:59Z</time>
      </trkpt>
      <trkpt lat="44.34144" lon="3.37615">
        <ele>558</ele>
        <time>2017-03-03T11:38:59Z</time>
      </trkpt>
      <trkpt lat="44.34142" lon="3.37617">
        <ele>557</ele>
        <time>2017-03-03T11:40:59Z</time>
      </trkpt>
      <trkpt lat="44.34139" lon="3.37619">
        <ele>557</ele>
        <time>2017-03-03T11:42:59Z</time>
      </trkpt>
      <trkpt lat="44.34138" lon="3.37618">
        <ele>556</ele>
        <time>2017-03-03T11:44:59Z</time>
      </trkpt>
      <trkpt lat="44.34137" lon="3.37616">
        <ele>554</ele>
        <time>2017-03-03T11:46:59Z</time>
      </trkpt>
      <trkpt lat="44.34138" lon="3.37614">
        <ele>554</ele>
        <time>2017-03-03T11:48:59Z</time>
      </trkpt>
      <trkpt lat="44.34139" lon="3.37613">
        <ele>554</ele>
        <time>2017-03-03T11:50:59Z</time>
      </trkpt>
      <trkpt lat="44.34139" lon="3.37611">
        <ele>553</ele>
        <time>2017-03-03T11:52:59Z</time>
      </trkpt>
      <trkpt lat="44.34137" lon="3.37611">
        <ele>552</ele>
        <time>2017-03-03T11:54:59Z</time>
      </trkpt>
      <trkpt lat="44.34134" lon="3.37612">
        <ele>551</ele>
        <time>2017-03-03T11:56:59Z</time>
      </trkpt>
      <trkpt lat="44.34129" lon="3.37618">
        <ele>551</ele>
        <time>2017-03-03T11:58:59Z</time>
      </trkpt>
      <trkpt lat="44.34125" lon="3.37619">
        <ele>549</ele>
        <time>2017-03-03T12:00:59Z</time>
      </trkpt>
      <trkpt lat="44.34118" lon="3.37628">
        <ele>549</ele>
        <time>2017-03-03T12:02:59Z</time>
      </trkpt>
      <trkpt lat="44.34116" lon="3.37631">
        <ele>550</ele>
        <time>2017-03-03T12:04:59Z</time>
      </trkpt>
      <trkpt lat="44.34114" lon="3.37631">
        <ele>548</ele>
        <time>2017-03-03T12:06:59Z</time>
      </trkpt>
      <trkpt lat="44.34113" lon="3.37629">
        <ele>547</ele>
        <time>2017-03-03T12:08:59Z</time>
      </trkpt>
      <trkpt lat="44.34114" lon="3.37627">
        <ele>547</ele>
        <time>2017-03-03T12:10:59Z</time>
      </trkpt>
      <trkpt lat="44.34116" lon="3.37624">
        <ele>547</ele>
        <time>2017-03-03T12:12:59Z</time>
      </trkpt>
      <trkpt lat="44.34119" lon="3.37617">
        <ele>545</ele>
        <time>2017-03-03T12:14:59Z</time>
      </trkpt>
      <trkpt lat="44.34119" lon="3.37613">
        <ele>544</ele>
        <time>2017-03-03T12:16:59Z</time>
      </trkpt>
      <trkpt lat="44.34117" lon="3.37613">
        <ele>543</ele>
        <time>2017-03-03T12:18:59Z</time>
      </trkpt>
      <trkpt lat="44.34116" lon="3.37614">
        <ele>543</ele>
        <time>2017-03-03T12:20:59Z</time>
      </trkpt>
      <trkpt lat="44.34113" lon="3.37619">
        <ele>543</ele>
        <time>2017-03-03T12:22:59Z</time>
      </trkpt>
      <trkpt lat="44.3411" lon="3.37623">
        <ele>543</ele>
        <time>2017-03-03T12:24:59Z</time>
      </trkpt>
      <trkpt lat="44.34099" lon="3.37632">
        <ele>541</ele>
        <time>2017-03-03T12:26:59Z</time>
      </trkpt>
      <trkpt lat="44.34066" lon="3.37646">
        <ele>527</ele>
        <time>2017-03-03T12:28:59Z</time>
      </trkpt>
      <trkpt lat="44.3406" lon="3.37648">
        <ele>524</ele>
        <time>2017-03-03T12:30:59Z</time>
      </trkpt>
      <trkpt lat="44.34058" lon="3.37648">
        <ele>523</ele>
        <time>2017-03-03T12:32:59Z</time>
      </trkpt>
      <trkpt lat="44.34056" lon="3.3765">
        <ele>522</ele>
        <time>2017-03-03T12:34:59Z</time>
      </trkpt>
      <trkpt lat="44.34053" lon="3.37659">
        <ele>524</ele>
        <time>2017-03-03T12:36:59Z</time>
      </trkpt>
      <trkpt lat="44.3405" lon="3.37665">
        <ele>524</ele>
        <time>2017-03-03T12:38:59Z</time>
      </trkpt>
      <trkpt lat="44.34046" lon="3.37671">
        <ele>524</ele>
        <time>2017-03-03T12:40:59Z</time>
      </trkpt>
      <trkpt lat="44.34042" lon="3.37678">
        <ele>525</ele>
        <time>2017-03-03T12:42:59Z</time>
      </trkpt>
      <trkpt lat="44.34038" lon="3.37686">
        <ele>526</ele>
        <time>2017-03-03T12:44:59Z</time>
      </trkpt>
      <trkpt lat="44.34034" lon="3.37688">
        <ele>524</ele>
        <time>2017-03-03T12:46:59Z</time>
      </trkpt>
      <trkpt lat="44.34031" lon="3.3769">
        <ele>523</ele>
        <time>2017-03-03T12:48:59Z</time>
      </trkpt>
      <trkpt lat="44.34025" lon="3.37691">
        <ele>520</ele>
        <time>2017-03-03T12:50:59Z</time>
      </trkpt>
      <trkpt lat="44.34021" lon="3.37693">
        <ele>518</ele>
        <time>2017-03-03T12:52:59Z</time>
      </trkpt>
      <trkpt lat="44.34017" lon="3.37692">
        <ele>515</ele>
        <time>2017-03-03T12:54:59Z</time>
      </trkpt>
      <trkpt lat="44.34015" lon="3.37692">
        <ele>513</ele>
        <time>2017-03-03T12:56:59Z</time>
      </trkpt>
      <trkpt lat="44.34015" lon="3.3769">
        <ele>512</ele>
        <time>2017-03-03T12:58:59Z</time>
      </trkpt>
      <trkpt lat="44.34016" lon="3.37689">
        <ele>512</ele>
        <time>2017-03-03T13:00:59Z</time>
      </trkpt>
      <trkpt lat="44.34019" lon="3.37688">
        <ele>514</ele>
        <time>2017-03-03T13:02:59Z</time>
      </trkpt>
      <trkpt lat="44.3402" lon="3.37686">
        <ele>514</ele>
        <time>2017-03-03T13:04:59Z</time>
      </trkpt>
      <trkpt lat="44.34025" lon="3.37682">
        <ele>515</ele>
        <time>2017-03-03T13:06:59Z</time>
      </trkpt>
      <trkpt lat="44.34026" lon="3.3768">
        <ele>515</ele>
        <time>2017-03-03T13:08:59Z</time>
      </trkpt>
      <trkpt lat="44.34026" lon="3.37677">
        <ele>513</ele>
        <time>2017-03-03T13:10:59Z</time>
      </trkpt>
      <trkpt lat="44.34025" lon="3.37677">
        <ele>513</ele>
        <time>2017-03-03T13:12:59Z</time>
      </trkpt>
      <trkpt lat="44.34023" lon="3.37679">
        <ele>512</ele>
        <time>2017-03-03T13:14:59Z</time>
      </trkpt>
      <trkpt lat="44.34021" lon="3.37679">
        <ele>511</ele>
        <time>2017-03-03T13:16:59Z</time>
      </trkpt>
      <trkpt lat="44.34022" lon="3.37673">
        <ele>509</ele>
        <time>2017-03-03T13:18:59Z</time>
      </trkpt>
      <trkpt lat="44.34024" lon="3.37669">
        <ele>508</ele>
        <time>2017-03-03T13:20:59Z</time>
      </trkpt>
      <trkpt lat="44.34024" lon="3.37663">
        <ele>506</ele>
        <time>2017-03-03T13:22:59Z</time>
      </trkpt>
      <trkpt lat="44.34025" lon="3.37658">
        <ele>505</ele>
        <time>2017-03-03T13:24:59Z</time>
      </trkpt>
      <trkpt lat="44.34025" lon="3.37656">
        <ele>504</ele>
        <time>2017-03-03T13:26:59Z</time>
      </trkpt>
      <trkpt lat="44.34024" lon="3.37655">
        <ele>503</ele>
        <time>2017-03-03T13:28:59Z</time>
      </trkpt>
      <trkpt lat="44.34022" lon="3.37656">
        <ele>502</ele>
        <time>2017-03-03T13:30:59Z</time>
      </trkpt>
      <trkpt lat="44.34021" lon="3.37657">
        <ele>502</ele>
        <time>2017-03-03T13:32:59Z</time>
      </trkpt>
      <trkpt lat="44.34021" lon="3.37658">
        <ele>502</ele>
        <time>2017-03-03T13:34:59Z</time>
      </trkpt>
      <trkpt lat="44.3395" lon="3.37731">
        <ele>491</ele>
        <time>2017-03-03T13:36:59Z</time>
      </trkpt>
      <trkpt lat="44.33947" lon="3.37728">
        <ele>488</ele>
        <time>2017-03-03T13:38:59Z</time>
      </trkpt>
      <trkpt lat="44.33924" lon="3.37779">
        <ele>489</ele>
        <time>2017-03-03T13:40:59Z</time>
      </trkpt>
      <trkpt lat="44.3391" lon="3.37808">
        <ele>492</ele>
        <time>2017-03-03T13:42:59Z</time>
      </trkpt>
      <trkpt lat="44.33904" lon="3.37817">
        <ele>492</ele>
        <time>2017-03-03T13:44:59Z</time>
      </trkpt>
      <trkpt lat="44.33877" lon="3.3785">
        <ele>494</ele>
        <time>2017-03-03T13:46:59Z</time>
      </trkpt>
      <trkpt lat="44.3386" lon="3.37869">
        <ele>494</ele>
        <time>2017-03-03T13:48:59Z</time>
      </trkpt>
      <trkpt lat="44.3381" lon="3.37927">
        <ele>495</ele>
        <time>2017-03-03T13:50:59Z</time>
      </trkpt>
      <trkpt lat="44.33789" lon="3.3795">
        <ele>498</ele>
        <time>2017-03-03T13:52:59Z</time>
      </trkpt>
      <trkpt lat="44.33784" lon="3.37955">
        <ele>498</ele>
        <time>2017-03-03T13:54:59Z</time>
      </trkpt>
      <trkpt lat="44.33776" lon="3.37964">
        <ele>497</ele>
        <time>2017-03-03T13:56:59Z</time>
      </trkpt>
      <trkpt lat="44.33767" lon="3.37973">
        <ele>496</ele>
        <time>2017-03-03T13:58:59Z</time>
      </trkpt>
      <trkpt lat="44.33747" lon="3.37995">
        <ele>491</ele>
        <time>2017-03-03T14:00:59Z</time>
      </trkpt>
      <trkpt lat="44.33735" lon="3.38012">
        <ele>496</ele>
        <time>2017-03-03T14:02:59Z</time>
      </trkpt>
      <trkpt lat="44.33725" lon="3.38021">
        <ele>498</ele>
        <time>2017-03-03T14:04:59Z</time>
      </trkpt>
      <trkpt lat="44.33711" lon="3.38036">
        <ele>501</ele>
        <time>2017-03-03T14:06:59Z</time>
      </trkpt>
      <trkpt lat="44.33701" lon="3.38046">
        <ele>502</ele>
        <time>2017-03-03T14:08:59Z</time>
      </trkpt>
      <trkpt lat="44.33691" lon="3.38055">
        <ele>503</ele>
        <time>2017-03-03T14:10:59Z</time>
      </trkpt>
      <trkpt lat="44.33668" lon="3.38073">
        <ele>502</ele>
        <time>2017-03-03T14:12:59Z</time>
      </trkpt>
      <trkpt lat="44.33656" lon="3.3808">
        <ele>500</ele>
        <time>2017-03-03T14:14:59Z</time>
      </trkpt>
      <trkpt lat="44.33642" lon="3.3809">
        <ele>497</ele>
        <time>2017-03-03T14:16:59Z</time>
      </trkpt>
      <trkpt lat="44.33632" lon="3.38098">
        <ele>495</ele>
        <time>2017-03-03T14:18:59Z</time>
      </trkpt>
      <trkpt lat="44.33598" lon="3.38124">
        <ele>486</ele>
        <time>2017-03-03T14:20:59Z</time>
      </trkpt>
      <trkpt lat="44.33578" lon="3.38141">
        <ele>483</ele>
        <time>2017-03-03T14:22:59Z</time>
      </trkpt>
      <trkpt lat="44.33569" lon="3.38154">
        <ele>484</ele>
        <time>2017-03-03T14:24:59Z</time>
      </trkpt>
      <trkpt lat="44.33564" lon="3.38166">
        <ele>486</ele>
        <time>2017-03-03T14:26:59Z</time>
      </trkpt>
      <trkpt lat="44.33561" lon="3.38174">
        <ele>484</ele>
        <time>2017-03-03T14:28:59Z</time>
      </trkpt>
      <trkpt lat="44.3356" lon="3.38185">
        <ele>483</ele>
        <time>2017-03-03T14:30:59Z</time>
      </trkpt>
      <trkpt lat="44.33559" lon="3.38206">
        <ele>482</ele>
        <time>2017-03-03T14:32:59Z</time>
      </trkpt>
      <trkpt lat="44.33559" lon="3.38226">
        <ele>481</ele>
        <time>2017-03-03T14:34:59Z</time>
      </trkpt>
      <trkpt lat="44.3356" lon="3.38237">
        <ele>481</ele>
        <time>2017-03-03T14:36:59Z</time>
      </trkpt>
      <trkpt lat="44.33563" lon="3.38252">
        <ele>480</ele>
        <time>2017-03-03T14:38:59Z</time>
      </trkpt>
      <trkpt lat="44.33566" lon="3.38261">
        <ele>480</ele>
        <time>2017-03-03T14:40:59Z</time>
      </trkpt>
      <trkpt lat="44.33569" lon="3.38269">
        <ele>479</ele>
        <time>2017-03-03T14:42:59Z</time>
      </trkpt>
      <trkpt lat="44.3357" lon="3.38271">
        <ele>479</ele>
        <time>2017-03-03T14:44:59Z</time>
      </trkpt>
      <trkpt lat="44.33572" lon="3.38269">
        <ele>480</ele>
        <time>2017-03-03T14:46:59Z</time>
      </trkpt>
      <trkpt lat="44.33598" lon="3.38284">
        <ele>478</ele>
        <time>2017-03-03T14:48:59Z</time>
      </trkpt>
      <trkpt lat="44.3362" lon="3.38256">
        <ele>483</ele>
        <time>2017-03-03T14:50:59Z</time>
      </trkpt>
      <trkpt lat="44.33634" lon="3.38219">
        <ele>495</ele>
        <time>2017-03-03T14:52:59Z</time>
      </trkpt>
      <trkpt lat="44.33665" lon="3.38218">
        <ele>500</ele>
        <time>2017-03-03T14:54:59Z</time>
      </trkpt>
      <trkpt lat="44.33622" lon="3.38279">
        <ele>478</ele>
        <time>2017-03-03T14:56:59Z</time>
      </trkpt>
      <trkpt lat="44.33642" lon="3.38357">
        <ele>467</ele>
        <time>2017-03-03T14:58:59Z</time>
      </trkpt>
      <trkpt lat="44.33626" lon="3.38392">
        <ele>470</ele>
        <time>2017-03-03T15:00:59Z</time>
      </trkpt>
      <trkpt lat="44.33628" lon="3.38394">
        <ele>470</ele>
        <time>2017-03-03T15:02:59Z</time>
      </trkpt>
      <trkpt lat="44.33621" lon="3.38406">
        <ele>471</ele>
        <time>2017-03-03T15:04:59Z</time>
      </trkpt>
      <trkpt lat="44.3362" lon="3.38409">
        <ele>471</ele>
        <time>2017-03-03T15:06:59Z</time>
      </trkpt>
      <trkpt lat="44.33602" lon="3.38447">
        <ele>479</ele>
        <time>2017-03-03T15:08:59Z</time>
      </trkpt>
      <trkpt lat="44.33587" lon="3.38492">
        <ele>489</ele>
        <time>2017-03-03T15:10:59Z</time>
      </trkpt>
      <trkpt lat="44.33584" lon="3.385">
        <ele>491</ele>
        <time>2017-03-03T15:12:59Z</time>
      </trkpt>
      <trkpt lat="44.33581" lon="3.3851">
        <ele>497</ele>
        <time>2017-03-03T15:14:59Z</time>
      </trkpt>
      <trkpt lat="44.3358" lon="3.3851">
        <ele>498</ele>
        <time>2017-03-03T15:16:59Z</time>
      </trkpt>
      <trkpt lat="44.33578" lon="3.38514">
        <ele>500</ele>
        <time>2017-03-03T15:18:59Z</time>
      </trkpt>
      <trkpt lat="44.33575" lon="3.38516">
        <ele>503</ele>
        <time>2017-03-03T15:20:59Z</time>
      </trkpt>
      <trkpt lat="44.33569" lon="3.38517">
        <ele>506</ele>
        <time>2017-03-03T15:22:59Z</time>
      </trkpt>
      <trkpt lat="44.33563" lon="3.3852">
        <ele>510</ele>
        <time>2017-03-03T15:24:59Z</time>
      </trkpt>
      <trkpt lat="44.33559" lon="3.38523">
        <ele>513</ele>
        <time>2017-03-03T15:26:59Z</time>
      </trkpt>
      <trkpt lat="44.33555" lon="3.38525">
        <ele>515</ele>
        <time>2017-03-03T15:28:59Z</time>
      </trkpt>
      <trkpt lat="44.33552" lon="3.38525">
        <ele>516</ele>
        <time>2017-03-03T15:30:59Z</time>
      </trkpt>
      <trkpt lat="44.33548" lon="3.38524">
        <ele>518</ele>
        <time>2017-03-03T15:32:59Z</time>
      </trkpt>
      <trkpt lat="44.33542" lon="3.38521">
        <ele>518</ele>
        <time>2017-03-03T15:34:59Z</time>
      </trkpt>
      <trkpt lat="44.3354" lon="3.38516">
        <ele>517</ele>
        <time>2017-03-03T15:36:59Z</time>
      </trkpt>
      <trkpt lat="44.33539" lon="3.38508">
        <ele>513</ele>
        <time>2017-03-03T15:38:59Z</time>
      </trkpt>
      <trkpt lat="44.33539" lon="3.38491">
        <ele>506</ele>
        <time>2017-03-03T15:40:59Z</time>
      </trkpt>
      <trkpt lat="44.3354" lon="3.38482">
        <ele>503</ele>
        <time>2017-03-03T15:42:59Z</time>
      </trkpt>
      <trkpt lat="44.33539" lon="3.38471">
        <ele>500</ele>
        <time>2017-03-03T15:44:59Z</time>
      </trkpt>
      <trkpt lat="44.33536" lon="3.3846">
        <ele>497</ele>
        <time>2017-03-03T15:46:59Z</time>
      </trkpt>
      <trkpt lat="44.33529" lon="3.38444">
        <ele>494</ele>
        <time>2017-03-03T15:48:59Z</time>
      </trkpt>
      <trkpt lat="44.33522" lon="3.38434">
        <ele>493</ele>
        <time>2017-03-03T15:50:59Z</time>
      </trkpt>
      <trkpt lat="44.33518" lon="3.38429">
        <ele>492</ele>
        <time>2017-03-03T15:52:59Z</time>
      </trkpt>
      <trkpt lat="44.33507" lon="3.38424">
        <ele>494</ele>
        <time>2017-03-03T15:54:59Z</time>
      </trkpt>
      <trkpt lat="44.33496" lon="3.38421">
        <ele>497</ele>
        <time>2017-03-03T15:56:59Z</time>
      </trkpt>
      <trkpt lat="44.33488" lon="3.38418">
        <ele>500</ele>
        <time>2017-03-03T15:58:59Z</time>
      </trkpt>
      <trkpt lat="44.33483" lon="3.38413">
        <ele>502</ele>
        <time>2017-03-03T16:00:59Z</time>
      </trkpt>
      <trkpt lat="44.3348" lon="3.38404">
        <ele>501</ele>
        <time>2017-03-03T16:02:59Z</time>
      </trkpt>
      <trkpt lat="44.33476" lon="3.38388">
        <ele>498</ele>
        <time>2017-03-03T16:04:59Z</time>
      </trkpt>
      <trkpt lat="44.3347" lon="3.38379">
        <ele>499</ele>
        <time>2017-03-03T16:06:59Z</time>
      </trkpt>
      <trkpt lat="44.33449" lon="3.38362">
        <ele>504</ele>
        <time>2017-03-03T16:08:59Z</time>
      </trkpt>
      <trkpt lat="44.33438" lon="3.38354">
        <ele>506</ele>
        <time>2017-03-03T16:10:59Z</time>
      </trkpt>
      <trkpt lat="44.33434" lon="3.38352">
        <ele>507</ele>
        <time>2017-03-03T16:12:59Z</time>
      </trkpt>
      <trkpt lat="44.33432" lon="3.38353">
        <ele>509</ele>
        <time>2017-03-03T16:14:59Z</time>
      </trkpt>
      <trkpt lat="44.33431" lon="3.38355">
        <ele>510</ele>
        <time>2017-03-03T16:16:59Z</time>
      </trkpt>
      <trkpt lat="44.33432" lon="3.38358">
        <ele>510</ele>
        <time>2017-03-03T16:18:59Z</time>
      </trkpt>
      <trkpt lat="44.33438" lon="3.38364">
        <ele>510</ele>
        <time>2017-03-03T16:20:59Z</time>
      </trkpt>
      <trkpt lat="44.33445" lon="3.38373">
        <ele>509</ele>
        <time>2017-03-03T16:22:59Z</time>
      </trkpt>
      <trkpt lat="44.33452" lon="3.38384">
        <ele>510</ele>
        <time>2017-03-03T16:24:59Z</time>
      </trkpt>
      <trkpt lat="44.33452" lon="3.38385">
        <ele>510</ele>
        <time>2017-03-03T16:26:59Z</time>
      </trkpt>
      <trkpt lat="44.33458" lon="3.38396">
        <ele>510</ele>
        <time>2017-03-03T16:28:59Z</time>
      </trkpt>
      <trkpt lat="44.33468" lon="3.38411">
        <ele>509</ele>
        <time>2017-03-03T16:30:59Z</time>
      </trkpt>
      <trkpt lat="44.33474" lon="3.38422">
        <ele>510</ele>
        <time>2017-03-03T16:32:59Z</time>
      </trkpt>
      <trkpt lat="44.33478" lon="3.38434">
        <ele>512</ele>
        <time>2017-03-03T16:34:59Z</time>
      </trkpt>
      <trkpt lat="44.33484" lon="3.38458">
        <ele>518</ele>
        <time>2017-03-03T16:36:59Z</time>
      </trkpt>
      <trkpt lat="44.33489" lon="3.3847">
        <ele>519</ele>
        <time>2017-03-03T16:38:59Z</time>
      </trkpt>
      <trkpt lat="44.33494" lon="3.38478">
        <ele>519</ele>
        <time>2017-03-03T16:40:59Z</time>
      </trkpt>
      <trkpt lat="44.33505" lon="3.38489">
        <ele>518</ele>
        <time>2017-03-03T16:42:59Z</time>
      </trkpt>
      <trkpt lat="44.33506" lon="3.38493">
        <ele>519</ele>
        <time>2017-03-03T16:44:59Z</time>
      </trkpt>
      <trkpt lat="44.33505" lon="3.38498">
        <ele>521</ele>
        <time>2017-03-03T16:46:59Z</time>
      </trkpt>
      <trkpt lat="44.33503" lon="3.385">
        <ele>523</ele>
        <time>2017-03-03T16:48:59Z</time>
      </trkpt>
      <trkpt lat="44.335" lon="3.38498">
        <ele>523</ele>
        <time>2017-03-03T16:50:59Z</time>
      </trkpt>
      <trkpt lat="44.33496" lon="3.38492">
        <ele>523</ele>
        <time>2017-03-03T16:52:59Z</time>
      </trkpt>
      <trkpt lat="44.33492" lon="3.38489">
        <ele>525</ele>
        <time>2017-03-03T16:54:59Z</time>
      </trkpt>
      <trkpt lat="44.33482" lon="3.3848">
        <ele>527</ele>
        <time>2017-03-03T16:56:59Z</time>
      </trkpt>
      <trkpt lat="44.33476" lon="3.38476">
        <ele>529</ele>
        <time>2017-03-03T16:58:59Z</time>
      </trkpt>
      <trkpt lat="44.33462" lon="3.38461">
        <ele>531</ele>
        <time>2017-03-03T17:00:59Z</time>
      </trkpt>
      <trkpt lat="44.33441" lon="3.3844">
        <ele>535</ele>
        <time>2017-03-03T17:02:59Z</time>
      </trkpt>
      <trkpt lat="44.33417" lon="3.38414">
        <ele>539</ele>
        <time>2017-03-03T17:04:59Z</time>
      </trkpt>
      <trkpt lat="44.33395" lon="3.38391">
        <ele>535</ele>
        <time>2017-03-03T17:06:59Z</time>
      </trkpt>
      <trkpt lat="44.33381" lon="3.38379">
        <ele>534</ele>
        <time>2017-03-03T17:08:59Z</time>
      </trkpt>
      <trkpt lat="44.33372" lon="3.38373">
        <ele>533</ele>
        <time>2017-03-03T17:10:59Z</time>
      </trkpt>
      <trkpt lat="44.33364" lon="3.38371">
        <ele>534</ele>
        <time>2017-03-03T17:12:59Z</time>
      </trkpt>
      <trkpt lat="44.33359" lon="3.38371">
        <ele>535</ele>
        <time>2017-03-03T17:14:59Z</time>
      </trkpt>
      <trkpt lat="44.33352" lon="3.38374">
        <ele>538</ele>
        <time>2017-03-03T17:16:59Z</time>
      </trkpt>
      <trkpt lat="44.3334" lon="3.38378">
        <ele>542</ele>
        <time>2017-03-03T17:18:59Z</time>
      </trkpt>
      <trkpt lat="44.33328" lon="3.38384">
        <ele>547</ele>
        <time>2017-03-03T17:20:59Z</time>
      </trkpt>
      <trkpt lat="44.33314" lon="3.38394">
        <ele>551</ele>
        <time>2017-03-03T17:22:59Z</time>
      </trkpt>
      <trkpt lat="44.33291" lon="3.38414">
        <ele>559</ele>
        <time>2017-03-03T17:24:59Z</time>
      </trkpt>
      <trkpt lat="44.3327" lon="3.38428">
        <ele>564</ele>
        <time>2017-03-03T17:26:59Z</time>
      </trkpt>
      <trkpt lat="44.3326" lon="3.38436">
        <ele>567</ele>
        <time>2017-03-03T17:28:59Z</time>
      </trkpt>
      <trkpt lat="44.33253" lon="3.38438">
        <ele>568</ele>
        <time>2017-03-03T17:30:59Z</time>
      </trkpt>
      <trkpt lat="44.33246" lon="3.38437">
        <ele>569</ele>
        <time>2017-03-03T17:32:59Z</time>
      </trkpt>
      <trkpt lat="44.33241" lon="3.38432">
        <ele>570</ele>
        <time>2017-03-03T17:34:59Z</time>
      </trkpt>
      <trkpt lat="44.33234" lon="3.38423">
        <ele>571</ele>
        <time>2017-03-03T17:36:59Z</time>
      </trkpt>
      <trkpt lat="44.33226" lon="3.38412">
        <ele>572</ele>
        <time>2017-03-03T17:38:59Z</time>
      </trkpt>
      <trkpt lat="44.33221" lon="3.38403">
        <ele>573</ele>
        <time>2017-03-03T17:40:59Z</time>
      </trkpt>
      <trkpt lat="44.33215" lon="3.38389">
        <ele>574</ele>
        <time>2017-03-03T17:42:59Z</time>
      </trkpt>
      <trkpt lat="44.33211" lon="3.38376">
        <ele>575</ele>
        <time>2017-03-03T17:44:59Z</time>
      </trkpt>
      <trkpt lat="44.33205" lon="3.38364">
        <ele>577</ele>
        <time>2017-03-03T17:46:59Z</time>
      </trkpt>
      <trkpt lat="44.33203" lon="3.38354">
        <ele>577</ele>
        <time>2017-03-03T17:48:59Z</time>
      </trkpt>
      <trkpt lat="44.33201" lon="3.38342">
        <ele>576</ele>
        <time>2017-03-03T17:50:59Z</time>
      </trkpt>
      <trkpt lat="44.33199" lon="3.38312">
        <ele>573</ele>
        <time>2017-03-03T17:52:59Z</time>
      </trkpt>
      <trkpt lat="44.33196" lon="3.38301">
        <ele>574</ele>
        <time>2017-03-03T17:54:59Z</time>
      </trkpt>
      <trkpt lat="44.33193" lon="3.38293">
        <ele>575</ele>
        <time>2017-03-03T17:56:59Z</time>
      </trkpt>
      <trkpt lat="44.33189" lon="3.38281">
        <ele>576</ele>
        <time>2017-03-03T17:58:59Z</time>
      </trkpt>
      <trkpt lat="44.33176" lon="3.38257">
        <ele>582</ele>
        <time>2017-03-03T18:00:59Z</time>
      </trkpt>
      <trkpt lat="44.33163" lon="3.38238">
        <ele>587</ele>
        <time>2017-03-03T18:02:59Z</time>
      </trkpt>
      <trkpt lat="44.33156" lon="3.3823">
        <ele>590</ele>
        <time>2017-03-03T18:04:59Z</time>
      </trkpt>
      <trkpt lat="44.33148" lon="3.38222">
        <ele>592</ele>
        <time>2017-03-03T18:06:59Z</time>
      </trkpt>
      <trkpt lat="44.33141" lon="3.38211">
        <ele>593</ele>
        <time>2017-03-03T18:08:59Z</time>
      </trkpt>
      <trkpt lat="44.3312" lon="3.38173">
        <ele>593</ele>
        <time>2017-03-03T18:10:59Z</time>
      </trkpt>
      <trkpt lat="44.33108" lon="3.38157">
        <ele>599</ele>
        <time>2017-03-03T18:12:59Z</time>
      </trkpt>
      <trkpt lat="44.33101" lon="3.38149">
        <ele>604</ele>
        <time>2017-03-03T18:14:59Z</time>
      </trkpt>
      <trkpt lat="44.33098" lon="3.38144">
        <ele>606</ele>
        <time>2017-03-03T18:16:59Z</time>
      </trkpt>
      <trkpt lat="44.33098" lon="3.38138">
        <ele>607</ele>
        <time>2017-03-03T18:18:59Z</time>
      </trkpt>
      <trkpt lat="44.331" lon="3.38132">
        <ele>607</ele>
        <time>2017-03-03T18:20:59Z</time>
      </trkpt>
      <trkpt lat="44.33104" lon="3.38125">
        <ele>606</ele>
        <time>2017-03-03T18:22:59Z</time>
      </trkpt>
      <trkpt lat="44.33114" lon="3.3811">
        <ele>604</ele>
        <time>2017-03-03T18:24:59Z</time>
      </trkpt>
      <trkpt lat="44.33123" lon="3.38099">
        <ele>603</ele>
        <time>2017-03-03T18:26:59Z</time>
      </trkpt>
      <trkpt lat="44.33139" lon="3.38078">
        <ele>602</ele>
        <time>2017-03-03T18:28:59Z</time>
      </trkpt>
      <trkpt lat="44.33157" lon="3.38059">
        <ele>604</ele>
        <time>2017-03-03T18:30:59Z</time>
      </trkpt>
      <trkpt lat="44.33173" lon="3.38047">
        <ele>603</ele>
        <time>2017-03-03T18:32:59Z</time>
      </trkpt>
      <trkpt lat="44.33187" lon="3.38037">
        <ele>602</ele>
        <time>2017-03-03T18:34:59Z</time>
      </trkpt>
      <trkpt lat="44.3321" lon="3.3802">
        <ele>601</ele>
        <time>2017-03-03T18:36:59Z</time>
      </trkpt>
      <trkpt lat="44.33214" lon="3.38012">
        <ele>603</ele>
        <time>2017-03-03T18:38:59Z</time>
      </trkpt>
      <trkpt lat="44.33223" lon="3.37997">
        <ele>606</ele>
        <time>2017-03-03T18:40:59Z</time>
      </trkpt>
      <trkpt lat="44.33231" lon="3.37979">
        <ele>611</ele>
        <time>2017-03-03T18:42:59Z</time>
      </trkpt>
      <trkpt lat="44.33235" lon="3.37967">
        <ele>616</ele>
        <time>2017-03-03T18:44:59Z</time>
      </trkpt>
      <trkpt lat="44.33238" lon="3.37962">
        <ele>617</ele>
        <time>2017-03-03T18:46:59Z</time>
      </trkpt>
      <trkpt lat="44.33242" lon="3.37961">
        <ele>616</ele>
        <time>2017-03-03T18:48:59Z</time>
      </trkpt>
      <trkpt lat="44.33274" lon="3.3795">
        <ele>608</ele>
        <time>2017-03-03T18:50:59Z</time>
      </trkpt>
      <trkpt lat="44.33284" lon="3.37947">
        <ele>605</ele>
        <time>2017-03-03T18:52:59Z</time>
      </trkpt>
      <trkpt lat="44.33292" lon="3.37942">
        <ele>605</ele>
        <time>2017-03-03T18:54:59Z</time>
      </trkpt>
      <trkpt lat="44.33297" lon="3.37937">
        <ele>605</ele>
        <time>2017-03-03T18:56:59Z</time>
      </trkpt>
      <trkpt lat="44.33301" lon="3.37927">
        <ele>609</ele>
        <time>2017-03-03T18:58:59Z</time>
      </trkpt>
      <trkpt lat="44.33304" lon="3.37915">
        <ele>615</ele>
        <time>2017-03-03T19:00:59Z</time>
      </trkpt>
      <trkpt lat="44.33308" lon="3.37904">
        <ele>618</ele>
        <time>2017-03-03T19:02:59Z</time>
      </trkpt>
      <trkpt lat="44.3331" lon="3.37896">
        <ele>621</ele>
        <time>2017-03-03T19:04:59Z</time>
      </trkpt>
      <trkpt lat="44.33316" lon="3.3789">
        <ele>622</ele>
        <time>2017-03-03T19:06:59Z</time>
      </trkpt>
      <trkpt lat="44.33324" lon="3.37886">
        <ele>621</ele>
        <time>2017-03-03T19:08:59Z</time>
      </trkpt>
      <trkpt lat="44.33332" lon="3.37884">
        <ele>618</ele>
        <time>2017-03-03T19:10:59Z</time>
      </trkpt>
      <trkpt lat="44.33343" lon="3.37884">
        <ele>613</ele>
        <time>2017-03-03T19:12:59Z</time>
      </trkpt>
      <trkpt lat="44.33352" lon="3.37883">
        <ele>609</ele>
        <time>2017-03-03T19:14:59Z</time>
      </trkpt>
      <trkpt lat="44.33358" lon="3.3788">
        <ele>607</ele>
        <time>2017-03-03T19:16:59Z</time>
      </trkpt>
      <trkpt lat="44.33364" lon="3.37874">
        <ele>607</ele>
        <time>2017-03-03T19:18:59Z</time>
      </trkpt>
      <trkpt lat="44.33381" lon="3.37847">
        <ele>614</ele>
        <time>2017-03-03T19:20:59Z</time>
      </trkpt>
      <trkpt lat="44.33404" lon="3.37815">
        <ele>623</ele>
        <time>2017-03-03T19:22:59Z</time>
      </trkpt>
      <trkpt lat="44.33431" lon="3.37774">
        <ele>632</ele>
        <time>2017-03-03T19:24:59Z</time>
      </trkpt>
      <trkpt lat="44.3347" lon="3.37731">
        <ele>638</ele>
        <time>2017-03-03T19:26:59Z</time>
      </trkpt>
      <trkpt lat="44.33496" lon="3.37707">
        <ele>641</ele>
        <time>2017-03-03T19:28:59Z</time>
      </trkpt>
      <trkpt lat="44.3354" lon="3.37675">
        <ele>642</ele>
        <time>2017-03-03T19:30:59Z</time>
      </trkpt>
      <trkpt lat="44.33565" lon="3.3765">
        <ele>644</ele>
        <time>2017-03-03T19:32:59Z</time>
      </trkpt>
      <trkpt lat="44.33584" lon="3.37626">
        <ele>647</ele>
        <time>2017-03-03T19:34:59Z</time>
      </trkpt>
      <trkpt lat="44.33602" lon="3.376">
        <ele>649</ele>
        <time>2017-03-03T19:36:59Z</time>
      </trkpt>
      <trkpt lat="44.33621" lon="3.37566">
        <ele>654</ele>
        <time>2017-03-03T19:38:59Z</time>
      </trkpt>
      <trkpt lat="44.33645" lon="3.37521">
        <ele>659</ele>
        <time>2017-03-03T19:40:59Z</time>
      </trkpt>
      <trkpt lat="44.33663" lon="3.37489">
        <ele>660</ele>
        <time>2017-03-03T19:42:59Z</time>
      </trkpt>
      <trkpt lat="44.33678" lon="3.37461">
        <ele>659</ele>
        <time>2017-03-03T19:44:59Z</time>
      </trkpt>
      <trkpt lat="44.33683" lon="3.37446">
        <ele>660</ele>
        <time>2017-03-03T19:46:59Z</time>
      </trkpt>
      <trkpt lat="44.33687" lon="3.37436">
        <ele>661</ele>
        <time>2017-03-03T19:48:59Z</time>
      </trkpt>
      <trkpt lat="44.33687" lon="3.37418">
        <ele>666</ele>
        <time>2017-03-03T19:50:59Z</time>
      </trkpt>
      <trkpt lat="44.33684" lon="3.37388">
        <ele>677</ele>
        <time>2017-03-03T19:52:59Z</time>
      </trkpt>
      <trkpt lat="44.33684" lon="3.3738">
        <ele>679</ele>
        <time>2017-03-03T19:54:59Z</time>
      </trkpt>
      <trkpt lat="44.33687" lon="3.37365">
        <ele>681</ele>
        <time>2017-03-03T19:56:59Z</time>
      </trkpt>
      <trkpt lat="44.33699" lon="3.37333">
        <ele>681</ele>
        <time>2017-03-03T19:58:59Z</time>
      </trkpt>
      <trkpt lat="44.33717" lon="3.37295">
        <ele>683</ele>
        <time>2017-03-03T20:00:59Z</time>
      </trkpt>
      <trkpt lat="44.33727" lon="3.37275">
        <ele>684</ele>
        <time>2017-03-03T20:02:59Z</time>
      </trkpt>
      <trkpt lat="44.33739" lon="3.37259">
        <ele>682</ele>
        <time>2017-03-03T20:04:59Z</time>
      </trkpt>
      <trkpt lat="44.33748" lon="3.37248">
        <ele>681</ele>
        <time>2017-03-03T20:06:59Z</time>
      </trkpt>
      <trkpt lat="44.33749" lon="3.37245">
        <ele>682</ele>
        <time>2017-03-03T20:08:59Z</time>
      </trkpt>
      <trkpt lat="44.33749" lon="3.37242">
        <ele>684</ele>
        <time>2017-03-03T20:10:59Z</time>
      </trkpt>
      <trkpt lat="44.33746" lon="3.37243">
        <ele>685</ele>
        <time>2017-03-03T20:12:59Z</time>
      </trkpt>
      <trkpt lat="44.33732" lon="3.37254">
        <ele>689</ele>
        <time>2017-03-03T20:14:59Z</time>
      </trkpt>
      <trkpt lat="44.33699" lon="3.37294">
        <ele>695</ele>
        <time>2017-03-03T20:16:59Z</time>
      </trkpt>
      <trkpt lat="44.33661" lon="3.37356">
        <ele>701</ele>
        <time>2017-03-03T20:18:59Z</time>
      </trkpt>
      <trkpt lat="44.33658" lon="3.37364">
        <ele>701</ele>
        <time>2017-03-03T20:20:59Z</time>
      </trkpt>
      <trkpt lat="44.33655" lon="3.37377">
        <ele>699</ele>
        <time>2017-03-03T20:22:59Z</time>
      </trkpt>
      <trkpt lat="44.33653" lon="3.37391">
        <ele>697</ele>
        <time>2017-03-03T20:24:59Z</time>
      </trkpt>
      <trkpt lat="44.33651" lon="3.37403">
        <ele>694</ele>
        <time>2017-03-03T20:26:59Z</time>
      </trkpt>
      <trkpt lat="44.33647" lon="3.37414">
        <ele>694</ele>
        <time>2017-03-03T20:28:59Z</time>
      </trkpt>
      <trkpt lat="44.33643" lon="3.37421">
        <ele>694</ele>
        <time>2017-03-03T20:30:59Z</time>
      </trkpt>
      <trkpt lat="44.33633" lon="3.37432">
        <ele>696</ele>
        <time>2017-03-03T20:32:59Z</time>
      </trkpt>
      <trkpt lat="44.33626" lon="3.37441">
        <ele>697</ele>
        <time>2017-03-03T20:34:59Z</time>
      </trkpt>
      <trkpt lat="44.33591" lon="3.37474">
        <ele>706</ele>
        <time>2017-03-03T20:36:59Z</time>
      </trkpt>
      <trkpt lat="44.33571" lon="3.37492">
        <ele>710</ele>
        <time>2017-03-03T20:38:59Z</time>
      </trkpt>
      <trkpt lat="44.33556" lon="3.37505">
        <ele>711</ele>
        <time>2017-03-03T20:40:59Z</time>
      </trkpt>
      <trkpt lat="44.33511" lon="3.37542">
        <ele>718</ele>
        <time>2017-03-03T20:42:59Z</time>
      </trkpt>
      <trkpt lat="44.33484" lon="3.37565">
        <ele>722</ele>
        <time>2017-03-03T20:44:59Z</time>
      </trkpt>
      <trkpt lat="44.33444" lon="3.376">
        <ele>722</ele>
        <time>2017-03-03T20:46:59Z</time>
      </trkpt>
      <trkpt lat="44.33429" lon="3.3761">
        <ele>722</ele>
        <time>2017-03-03T20:48:59Z</time>
      </trkpt>
      <trkpt lat="44.33419" lon="3.37614">
        <ele>724</ele>
        <time>2017-03-03T20:50:59Z</time>
      </trkpt>
      <trkpt lat="44.33407" lon="3.37615">
        <ele>729</ele>
        <time>2017-03-03T20:52:59Z</time>
      </trkpt>
      <trkpt lat="44.33396" lon="3.37614">
        <ele>735</ele>
        <time>2017-03-03T20:54:59Z</time>
      </trkpt>
      <trkpt lat="44.33385" lon="3.37615">
        <ele>740</ele>
        <time>2017-03-03T20:56:59Z</time>
      </trkpt>
      <trkpt lat="44.3338" lon="3.37618">
        <ele>740</ele>
        <time>2017-03-03T20:58:59Z</time>
      </trkpt>
      <trkpt lat="44.33358" lon="3.37638">
        <ele>741</ele>
        <time>2017-03-03T21:00:59Z</time>
      </trkpt>
      <trkpt lat="44.33344" lon="3.37656">
        <ele>739</ele>
        <time>2017-03-03T21:02:59Z</time>
      </trkpt>
      <trkpt lat="44.33326" lon="3.37676">
        <ele>737</ele>
        <time>2017-03-03T21:04:59Z</time>
      </trkpt>
      <trkpt lat="44.33313" lon="3.37686">
        <ele>735</ele>
        <time>2017-03-03T21:06:59Z</time>
      </trkpt>
      <trkpt lat="44.33303" lon="3.37691">
        <ele>735</ele>
        <time>2017-03-03T21:08:59Z</time>
      </trkpt>
      <trkpt lat="44.33296" lon="3.37692">
        <ele>736</ele>
        <time>2017-03-03T21:10:59Z</time>
      </trkpt>
      <trkpt lat="44.33288" lon="3.37691">
        <ele>739</ele>
        <time>2017-03-03T21:12:59Z</time>
      </trkpt>
      <trkpt lat="44.33274" lon="3.37686">
        <ele>746</ele>
        <time>2017-03-03T21:14:59Z</time>
      </trkpt>
      <trkpt lat="44.33263" lon="3.37683">
        <ele>750</ele>
        <time>2017-03-03T21:16:59Z</time>
      </trkpt>
      <trkpt lat="44.33255" lon="3.37682">
        <ele>753</ele>
        <time>2017-03-03T21:18:59Z</time>
      </trkpt>
      <trkpt lat="44.33243" lon="3.37684">
        <ele>756</ele>
        <time>2017-03-03T21:20:59Z</time>
      </trkpt>
      <trkpt lat="44.33224" lon="3.37686">
        <ele>762</ele>
        <time>2017-03-03T21:22:59Z</time>
      </trkpt>
      <trkpt lat="44.332" lon="3.37694">
        <ele>768</ele>
        <time>2017-03-03T21:24:59Z</time>
      </trkpt>
      <trkpt lat="44.33188" lon="3.37699">
        <ele>771</ele>
        <time>2017-03-03T21:26:59Z</time>
      </trkpt>
      <trkpt lat="44.33183" lon="3.37704">
        <ele>771</ele>
        <time>2017-03-03T21:28:59Z</time>
      </trkpt>
      <trkpt lat="44.33176" lon="3.37713">
        <ele>770</ele>
        <time>2017-03-03T21:30:59Z</time>
      </trkpt>
      <trkpt lat="44.3317" lon="3.37726">
        <ele>768</ele>
        <time>2017-03-03T21:32:59Z</time>
      </trkpt>
      <trkpt lat="44.33166" lon="3.37736">
        <ele>766</ele>
        <time>2017-03-03T21:34:59Z</time>
      </trkpt>
      <trkpt lat="44.33162" lon="3.37745">
        <ele>764</ele>
        <time>2017-03-03T21:36:59Z</time>
      </trkpt>
      <trkpt lat="44.33159" lon="3.37749">
        <ele>765</ele>
        <time>2017-03-03T21:38:59Z</time>
      </trkpt>
      <trkpt lat="44.33151" lon="3.37757">
        <ele>765</ele>
        <time>2017-03-03T21:40:59Z</time>
      </trkpt>
      <trkpt lat="44.33128" lon="3.37773">
        <ele>769</ele>
        <time>2017-03-03T21:42:59Z</time>
      </trkpt>
      <trkpt lat="44.33099" lon="3.37795">
        <ele>773</ele>
        <time>2017-03-03T21:44:59Z</time>
      </trkpt>
      <trkpt lat="44.33051" lon="3.37814">
        <ele>783</ele>
        <time>2017-03-03T21:46:59Z</time>
      </trkpt>
      <trkpt lat="44.33037" lon="3.3782">
        <ele>784</ele>
        <time>2017-03-03T21:48:59Z</time>
      </trkpt>
      <trkpt lat="44.33015" lon="3.37824">
        <ele>790</ele>
        <time>2017-03-03T21:50:59Z</time>
      </trkpt>
      <trkpt lat="44.32996" lon="3.37828">
        <ele>795</ele>
        <time>2017-03-03T21:52:59Z</time>
      </trkpt>
      <trkpt lat="44.32983" lon="3.37833">
        <ele>798</ele>
        <time>2017-03-03T21:54:59Z</time>
      </trkpt>
      <trkpt lat="44.32976" lon="3.37837">
        <ele>799</ele>
        <time>2017-03-03T21:56:59Z</time>
      </trkpt>
      <trkpt lat="44.32966" lon="3.37844">
        <ele>800</ele>
        <time>2017-03-03T21:58:59Z</time>
      </trkpt>
      <trkpt lat="44.32947" lon="3.37854">
        <ele>804</ele>
        <time>2017-03-03T22:00:59Z</time>
      </trkpt>
      <trkpt lat="44.32931" lon="3.37861">
        <ele>809</ele>
        <time>2017-03-03T22:02:59Z</time>
      </trkpt>
      <trkpt lat="44.32924" lon="3.37867">
        <ele>809</ele>
        <time>2017-03-03T22:04:59Z</time>
      </trkpt>
      <trkpt lat="44.32917" lon="3.37875">
        <ele>809</ele>
        <time>2017-03-03T22:06:59Z</time>
      </trkpt>
      <trkpt lat="44.32908" lon="3.37891">
        <ele>806</ele>
        <time>2017-03-03T22:08:59Z</time>
      </trkpt>
      <trkpt lat="44.32902" lon="3.37903">
        <ele>803</ele>
        <time>2017-03-03T22:10:59Z</time>
      </trkpt>
      <trkpt lat="44.32887" lon="3.37925">
        <ele>802</ele>
        <time>2017-03-03T22:12:59Z</time>
      </trkpt>
      <trkpt lat="44.3288" lon="3.37938">
        <ele>801</ele>
        <time>2017-03-03T22:14:59Z</time>
      </trkpt>
      <trkpt lat="44.32874" lon="3.37948">
        <ele>801</ele>
        <time>2017-03-03T22:16:59Z</time>
      </trkpt>
      <trkpt lat="44.32868" lon="3.37956">
        <ele>801</ele>
        <time>2017-03-03T22:18:59Z</time>
      </trkpt>
      <trkpt lat="44.32861" lon="3.37962">
        <ele>803</ele>
        <time>2017-03-03T22:20:59Z</time>
      </trkpt>
      <trkpt lat="44.32851" lon="3.3797">
        <ele>805</ele>
        <time>2017-03-03T22:22:59Z</time>
      </trkpt>
      <trkpt lat="44.32839" lon="3.37976">
        <ele>810</ele>
        <time>2017-03-03T22:24:59Z</time>
      </trkpt>
      <trkpt lat="44.32826" lon="3.37982">
        <ele>813</ele>
        <time>2017-03-03T22:26:59Z</time>
      </trkpt>
      <trkpt lat="44.32815" lon="3.37985">
        <ele>816</ele>
        <time>2017-03-03T22:28:59Z</time>
      </trkpt>
      <trkpt lat="44.32807" lon="3.37989">
        <ele>818</ele>
        <time>2017-03-03T22:30:59Z</time>
      </trkpt>
      <trkpt lat="44.32801" lon="3.37994">
        <ele>818</ele>
        <time>2017-03-03T22:32:59Z</time>
      </trkpt>
      <trkpt lat="44.32796" lon="3.38007">
        <ele>816</ele>
        <time>2017-03-03T22:34:59Z</time>
      </trkpt>
      <trkpt lat="44.32797" lon="3.38016">
        <ele>814</ele>
        <time>2017-03-03T22:36:59Z</time>
      </trkpt>
      <trkpt lat="44.328" lon="3.38024">
        <ele>810</ele>
        <time>2017-03-03T22:38:59Z</time>
      </trkpt>
      <trkpt lat="44.32801" lon="3.38032">
        <ele>808</ele>
        <time>2017-03-03T22:40:59Z</time>
      </trkpt>
      <trkpt lat="44.32801" lon="3.38037">
        <ele>806</ele>
        <time>2017-03-03T22:42:59Z</time>
      </trkpt>
      <trkpt lat="44.32798" lon="3.38042">
        <ele>807</ele>
        <time>2017-03-03T22:44:59Z</time>
      </trkpt>
      <trkpt lat="44.32794" lon="3.38046">
        <ele>807</ele>
        <time>2017-03-03T22:46:59Z</time>
      </trkpt>
      <trkpt lat="44.3278" lon="3.38052">
        <ele>812</ele>
        <time>2017-03-03T22:48:59Z</time>
      </trkpt>
      <trkpt lat="44.32746" lon="3.3806">
        <ele>826</ele>
        <time>2017-03-03T22:50:59Z</time>
      </trkpt>
      <trkpt lat="44.32732" lon="3.38061">
        <ele>830</ele>
        <time>2017-03-03T22:52:59Z</time>
      </trkpt>
      <trkpt lat="44.32711" lon="3.38061">
        <ele>835</ele>
        <time>2017-03-03T22:54:59Z</time>
      </trkpt>
      <trkpt lat="44.32709" lon="3.38062">
        <ele>836</ele>
        <time>2017-03-03T22:56:59Z</time>
      </trkpt>
      <trkpt lat="44.32708" lon="3.38065">
        <ele>836</ele>
        <time>2017-03-03T22:58:59Z</time>
      </trkpt>
      <trkpt lat="44.32709" lon="3.38071">
        <ele>835</ele>
        <time>2017-03-03T23:00:59Z</time>
      </trkpt>
      <trkpt lat="44.32712" lon="3.38082">
        <ele>832</ele>
        <time>2017-03-03T23:02:59Z</time>
      </trkpt>
      <trkpt lat="44.32716" lon="3.38103">
        <ele>830</ele>
        <time>2017-03-03T23:04:59Z</time>
      </trkpt>
      <trkpt lat="44.32718" lon="3.38121">
        <ele>828</ele>
        <time>2017-03-03T23:06:59Z</time>
      </trkpt>
      <trkpt lat="44.32717" lon="3.38132">
        <ele>828</ele>
        <time>2017-03-03T23:08:59Z</time>
      </trkpt>
      <trkpt lat="44.32715" lon="3.38141">
        <ele>828</ele>
        <time>2017-03-03T23:10:59Z</time>
      </trkpt>
      <trkpt lat="44.3271" lon="3.38152">
        <ele>829</ele>
        <time>2017-03-03T23:12:59Z</time>
      </trkpt>
      <trkpt lat="44.32702" lon="3.38163">
        <ele>831</ele>
        <time>2017-03-03T23:14:59Z</time>
      </trkpt>
      <trkpt lat="44.3269" lon="3.38175">
        <ele>833</ele>
        <time>2017-03-03T23:16:59Z</time>
      </trkpt>
      <trkpt lat="44.32676" lon="3.38185">
        <ele>836</ele>
        <time>2017-03-03T23:18:59Z</time>
      </trkpt>
      <trkpt lat="44.32659" lon="3.38193">
        <ele>838</ele>
        <time>2017-03-03T23:20:59Z</time>
      </trkpt>
      <trkpt lat="44.32644" lon="3.38196">
        <ele>839</ele>
        <time>2017-03-03T23:22:59Z</time>
      </trkpt>
      <trkpt lat="44.32624" lon="3.38197">
        <ele>842</ele>
        <time>2017-03-03T23:24:59Z</time>
      </trkpt>
      <trkpt lat="44.32602" lon="3.38196">
        <ele>845</ele>
        <time>2017-03-03T23:26:59Z</time>
      </trkpt>
      <trkpt lat="44.32575" lon="3.38193">
        <ele>848</ele>
        <time>2017-03-03T23:28:59Z</time>
      </trkpt>
      <trkpt lat="44.32546" lon="3.38186">
        <ele>850</ele>
        <time>2017-03-03T23:30:59Z</time>
      </trkpt>
      <trkpt lat="44.32525" lon="3.38176">
        <ele>853</ele>
        <time>2017-03-03T23:32:59Z</time>
      </trkpt>
      <trkpt lat="44.32495" lon="3.38161">
        <ele>856</ele>
        <time>2017-03-03T23:34:59Z</time>
      </trkpt>
      <trkpt lat="44.32467" lon="3.38145">
        <ele>860</ele>
        <time>2017-03-03T23:36:59Z</time>
      </trkpt>
      <trkpt lat="44.32443" lon="3.3813">
        <ele>864</ele>
        <time>2017-03-03T23:38:59Z</time>
      </trkpt>
      <trkpt lat="44.32423" lon="3.38116">
        <ele>868</ele>
        <time>2017-03-03T23:40:59Z</time>
      </trkpt>
      <trkpt lat="44.32411" lon="3.38112">
        <ele>870</ele>
        <time>2017-03-03T23:42:59Z</time>
      </trkpt>
      <trkpt lat="44.32399" lon="3.3811">
        <ele>872</ele>
        <time>2017-03-03T23:44:59Z</time>
      </trkpt>
      <trkpt lat="44.32373" lon="3.38108">
        <ele>875</ele>
        <time>2017-03-03T23:46:59Z</time>
      </trkpt>
      <trkpt lat="44.32346" lon="3.38107">
        <ele>878</ele>
        <time>2017-03-03T23:48:59Z</time>
      </trkpt>
      <trkpt lat="44.32318" lon="3.38109">
        <ele>881</ele>
        <time>2017-03-03T23:50:59Z</time>
      </trkpt>
      <trkpt lat="44.32272" lon="3.38115">
        <ele>885</ele>
        <time>2017-03-03T23:52:59Z</time>
      </trkpt>
      <trkpt lat="44.32245" lon="3.38119">
        <ele>887</ele>
        <time>2017-03-03T23:54:59Z</time>
      </trkpt>
      <trkpt lat="44.32229" lon="3.3812">
        <ele>888</ele>
        <time>2017-03-03T23:56:59Z</time>
      </trkpt>
      <trkpt lat="44.32216" lon="3.38116">
        <ele>889</ele>
        <time>2017-03-03T23:58:59Z</time>
      </trkpt>
      <trkpt lat="44.32203" lon="3.38111">
        <ele>891</ele>
        <time>2017-03-04T00:00:59Z</time>
      </trkpt>
      <trkpt lat="44.32184" lon="3.38106">
        <ele>892</ele>
        <time>2017-03-04T00:02:59Z</time>
      </trkpt>
      <trkpt lat="44.32158" lon="3.38101">
        <ele>895</ele>
        <time>2017-03-04T00:04:59Z</time>
      </trkpt>
      <trkpt lat="44.32133" lon="3.38097">
        <ele>897</ele>
        <time>2017-03-04T00:06:59Z</time>
      </trkpt>
      <trkpt lat="44.32122" lon="3.38096">
        <ele>897</ele>
        <time>2017-03-04T00:08:59Z</time>
      </trkpt>
      <trkpt lat="44.32117" lon="3.38096">
        <ele>898</ele>
        <time>2017-03-04T00:10:59Z</time>
      </trkpt>
      <trkpt lat="44.32098" lon="3.38094">
        <ele>899</ele>
        <time>2017-03-04T00:12:59Z</time>
      </trkpt>
      <trkpt lat="44.32085" lon="3.38096">
        <ele>900</ele>
        <time>2017-03-04T00:14:59Z</time>
      </trkpt>
      <trkpt lat="44.32068" lon="3.381">
        <ele>900</ele>
        <time>2017-03-04T00:16:59Z</time>
      </trkpt>
      <trkpt lat="44.32067" lon="3.38099">
        <ele>900</ele>
        <time>2017-03-04T00:18:59Z</time>
      </trkpt>
      <trkpt lat="44.32065" lon="3.38098">
        <ele>900</ele>
        <time>2017-03-04T00:20:59Z</time>
      </trkpt>
      <trkpt lat="44.32062" lon="3.38097">
        <ele>900</ele>
        <time>2017-03-04T00:22:59Z</time>
      </trkpt>
      <trkpt lat="44.3205" lon="3.38089">
        <ele>900</ele>
        <time>2017-03-04T00:24:59Z</time>
      </trkpt>
      <trkpt lat="44.32032" lon="3.38081">
        <ele>899</ele>
        <time>2017-03-04T00:26:59Z</time>
      </trkpt>
      <trkpt lat="44.3198" lon="3.38059">
        <ele>897</ele>
        <time>2017-03-04T00:28:59Z</time>
      </trkpt>
      <trkpt lat="44.31953" lon="3.38046">
        <ele>895</ele>
        <time>2017-03-04T00:30:59Z</time>
      </trkpt>
      <trkpt lat="44.3192" lon="3.38031">
        <ele>892</ele>
        <time>2017-03-04T00:32:59Z</time>
      </trkpt>
      <trkpt lat="44.31897" lon="3.3802">
        <ele>890</ele>
        <time>2017-03-04T00:34:59Z</time>
      </trkpt>
      <trkpt lat="44.31879" lon="3.38013">
        <ele>889</ele>
        <time>2017-03-04T00:36:59Z</time>
      </trkpt>
      <trkpt lat="44.31863" lon="3.38009">
        <ele>889</ele>
        <time>2017-03-04T00:38:59Z</time>
      </trkpt>
      <trkpt lat="44.31842" lon="3.38005">
        <ele>888</ele>
        <time>2017-03-04T00:40:59Z</time>
      </trkpt>
      <trkpt lat="44.31796" lon="3.38">
        <ele>886</ele>
        <time>2017-03-04T00:42:59Z</time>
      </trkpt>
      <trkpt lat="44.31786" lon="3.37998">
        <ele>886</ele>
        <time>2017-03-04T00:44:59Z</time>
      </trkpt>
      <trkpt lat="44.31772" lon="3.37993">
        <ele>885</ele>
        <time>2017-03-04T00:46:59Z</time>
      </trkpt>
      <trkpt lat="44.31749" lon="3.37982">
        <ele>883</ele>
        <time>2017-03-04T00:48:59Z</time>
      </trkpt>
      <trkpt lat="44.31724" lon="3.37969">
        <ele>882</ele>
        <time>2017-03-04T00:50:59Z</time>
      </trkpt>
      <trkpt lat="44.31699" lon="3.37957">
        <ele>880</ele>
        <time>2017-03-04T00:52:59Z</time>
      </trkpt>
      <trkpt lat="44.31681" lon="3.3795">
        <ele>878</ele>
        <time>2017-03-04T00:54:59Z</time>
      </trkpt>
      <trkpt lat="44.31668" lon="3.37949">
        <ele>878</ele>
        <time>2017-03-04T00:56:59Z</time>
      </trkpt>
      <trkpt lat="44.31654" lon="3.37949">
        <ele>876</ele>
        <time>2017-03-04T00:58:59Z</time>
      </trkpt>
      <trkpt lat="44.31643" lon="3.37952">
        <ele>876</ele>
        <time>2017-03-04T01:00:59Z</time>
      </trkpt>
      <trkpt lat="44.31627" lon="3.37958">
        <ele>875</ele>
        <time>2017-03-04T01:02:59Z</time>
      </trkpt>
      <trkpt lat="44.31607" lon="3.37969">
        <ele>875</ele>
        <time>2017-03-04T01:04:59Z</time>
      </trkpt>
      <trkpt lat="44.31589" lon="3.37978">
        <ele>874</ele>
        <time>2017-03-04T01:06:59Z</time>
      </trkpt>
      <trkpt lat="44.31579" lon="3.3798">
        <ele>874</ele>
        <time>2017-03-04T01:08:59Z</time>
      </trkpt>
      <trkpt lat="44.3157" lon="3.37979">
        <ele>874</ele>
        <time>2017-03-04T01:10:59Z</time>
      </trkpt>
      <trkpt lat="44.31561" lon="3.37974">
        <ele>873</ele>
        <time>2017-03-04T01:12:59Z</time>
      </trkpt>
      <trkpt lat="44.31551" lon="3.37964">
        <ele>872</ele>
        <time>2017-03-04T01:14:59Z</time>
      </trkpt>
      <trkpt lat="44.31542" lon="3.37951">
        <ele>871</ele>
        <time>2017-03-04T01:16:59Z</time>
      </trkpt>
      <trkpt lat="44.31533" lon="3.37935">
        <ele>869</ele>
        <time>2017-03-04T01:18:59Z</time>
      </trkpt>
      <trkpt lat="44.31523" lon="3.3792">
        <ele>867</ele>
        <time>2017-03-04T01:20:59Z</time>
      </trkpt>
      <trkpt lat="44.3151" lon="3.37902">
        <ele>866</ele>
        <time>2017-03-04T01:22:59Z</time>
      </trkpt>
      <trkpt lat="44.31504" lon="3.379">
        <ele>865</ele>
        <time>2017-03-04T01:24:59Z</time>
      </trkpt>
      <trkpt lat="44.315" lon="3.37897">
        <ele>865</ele>
        <time>2017-03-04T01:26:59Z</time>
      </trkpt>
      <trkpt lat="44.31489" lon="3.37894">
        <ele>864</ele>
        <time>2017-03-04T01:28:59Z</time>
      </trkpt>
      <trkpt lat="44.31479" lon="3.37894">
        <ele>864</ele>
        <time>2017-03-04T01:30:59Z</time>
      </trkpt>
      <trkpt lat="44.31463" lon="3.37895">
        <ele>864</ele>
        <time>2017-03-04T01:32:59Z</time>
      </trkpt>
      <trkpt lat="44.31438" lon="3.37898">
        <ele>863</ele>
        <time>2017-03-04T01:34:59Z</time>
      </trkpt>
      <trkpt lat="44.31424" lon="3.37894">
        <ele>862</ele>
        <time>2017-03-04T01:36:59Z</time>
      </trkpt>
      <trkpt lat="44.31417" lon="3.37888">
        <ele>862</ele>
        <time>2017-03-04T01:38:59Z</time>
      </trkpt>
      <trkpt lat="44.31409" lon="3.37879">
        <ele>862</ele>
        <time>2017-03-04T01:40:59Z</time>
      </trkpt>
      <trkpt lat="44.31401" lon="3.37865">
        <ele>861</ele>
        <time>2017-03-04T01:42:59Z</time>
      </trkpt>
      <trkpt lat="44.31389" lon="3.37845">
        <ele>860</ele>
        <time>2017-03-04T01:44:59Z</time>
      </trkpt>
      <trkpt lat="44.31388" lon="3.37842">
        <ele>860</ele>
        <time>2017-03-04T01:46:59Z</time>
      </trkpt>
      <trkpt lat="44.31376" lon="3.37862">
        <ele>862</ele>
        <time>2017-03-04T01:48:59Z</time>
      </trkpt>
      <trkpt lat="44.31372" lon="3.37867">
        <ele>862</ele>
        <time>2017-03-04T01:50:59Z</time>
      </trkpt>
      <trkpt lat="44.31369" lon="3.37869">
        <ele>863</ele>
        <time>2017-03-04T01:52:59Z</time>
      </trkpt>
      <trkpt lat="44.31365" lon="3.37869">
        <ele>863</ele>
        <time>2017-03-04T01:54:59Z</time>
      </trkpt>
      <trkpt lat="44.3136" lon="3.37868">
        <ele>863</ele>
        <time>2017-03-04T01:56:59Z</time>
      </trkpt>
      <trkpt lat="44.31351" lon="3.37865">
        <ele>863</ele>
        <time>2017-03-04T01:58:59Z</time>
      </trkpt>
      <trkpt lat="44.3135" lon="3.37863">
        <ele>863</ele>
        <time>2017-03-04T02:00:59Z</time>
      </trkpt>
      <trkpt lat="44.31334" lon="3.37855">
        <ele>863</ele>
        <time>2017-03-04T02:02:59Z</time>
      </trkpt>
      <trkpt lat="44.31329" lon="3.37853">
        <ele>863</ele>
        <time>2017-03-04T02:04:59Z</time>
      </trkpt>
      <trkpt lat="44.3132" lon="3.37848">
        <ele>863</ele>
        <time>2017-03-04T02:06:59Z</time>
      </trkpt>
      <trkpt lat="44.31309" lon="3.37847">
        <ele>863</ele>
        <time>2017-03-04T02:08:59Z</time>
      </trkpt>
      <trkpt lat="44.313" lon="3.37848">
        <ele>863</ele>
        <time>2017-03-04T02:10:59Z</time>
      </trkpt>
      <trkpt lat="44.3128" lon="3.37852">
        <ele>864</ele>
        <time>2017-03-04T02:12:59Z</time>
      </trkpt>
      <trkpt lat="44.31256" lon="3.3786">
        <ele>867</ele>
        <time>2017-03-04T02:14:59Z</time>
      </trkpt>
      <trkpt lat="44.31235" lon="3.37868">
        <ele>868</ele>
        <time>2017-03-04T02:16:59Z</time>
      </trkpt>
      <trkpt lat="44.31218" lon="3.37875">
        <ele>870</ele>
        <time>2017-03-04T02:18:59Z</time>
      </trkpt>
      <trkpt lat="44.31214" lon="3.37876">
        <ele>870</ele>
        <time>2017-03-04T02:20:59Z</time>
      </trkpt>
      <trkpt lat="44.31211" lon="3.37875">
        <ele>870</ele>
        <time>2017-03-04T02:22:59Z</time>
      </trkpt>
      <trkpt lat="44.31209" lon="3.37875">
        <ele>870</ele>
        <time>2017-03-04T02:24:59Z</time>
      </trkpt>
      <trkpt lat="44.31188" lon="3.3787">
        <ele>869</ele>
        <time>2017-03-04T02:26:59Z</time>
      </trkpt>
      <trkpt lat="44.31185" lon="3.37868">
        <ele>868</ele>
        <time>2017-03-04T02:28:59Z</time>
      </trkpt>
      <trkpt lat="44.31182" lon="3.37865">
        <ele>868</ele>
        <time>2017-03-04T02:30:59Z</time>
      </trkpt>
      <trkpt lat="44.31178" lon="3.37863">
        <ele>867</ele>
        <time>2017-03-04T02:32:59Z</time>
      </trkpt>
      <trkpt lat="44.31165" lon="3.37861">
        <ele>867</ele>
        <time>2017-03-04T02:34:59Z</time>
      </trkpt>
      <trkpt lat="44.31154" lon="3.37861">
        <ele>868</ele>
        <time>2017-03-04T02:36:59Z</time>
      </trkpt>
      <trkpt lat="44.31145" lon="3.3786">
        <ele>869</ele>
        <time>2017-03-04T02:38:59Z</time>
      </trkpt>
      <trkpt lat="44.31132" lon="3.37857">
        <ele>869</ele>
        <time>2017-03-04T02:40:59Z</time>
      </trkpt>
      <trkpt lat="44.31122" lon="3.37853">
        <ele>870</ele>
        <time>2017-03-04T02:42:59Z</time>
      </trkpt>
      <trkpt lat="44.31116" lon="3.37847">
        <ele>869</ele>
        <time>2017-03-04T02:44:59Z</time>
      </trkpt>
      <trkpt lat="44.31093" lon="3.37821">
        <ele>865</ele>
        <time>2017-03-04T02:46:59Z</time>
      </trkpt>
      <trkpt lat="44.31066" lon="3.37792">
        <ele>863</ele>
        <time>2017-03-04T02:48:59Z</time>
      </trkpt>
      <trkpt lat="44.31045" lon="3.3777">
        <ele>862</ele>
        <time>2017-03-04T02:50:59Z</time>
      </trkpt>
      <trkpt lat="44.31022" lon="3.37737">
        <ele>857</ele>
        <time>2017-03-04T02:52:59Z</time>
      </trkpt>
      <trkpt lat="44.31014" lon="3.37726">
        <ele>856</ele>
        <time>2017-03-04T02:54:59Z</time>
      </trkpt>
      <trkpt lat="44.30997" lon="3.3771">
        <ele>854</ele>
        <time>2017-03-04T02:56:59Z</time>
      </trkpt>
      <trkpt lat="44.30988" lon="3.37702">
        <ele>854</ele>
        <time>2017-03-04T02:58:59Z</time>
      </trkpt>
      <trkpt lat="44.30979" lon="3.37698">
        <ele>854</ele>
        <time>2017-03-04T03:00:59Z</time>
      </trkpt>
      <trkpt lat="44.30968" lon="3.3769">
        <ele>854</ele>
        <time>2017-03-04T03:02:59Z</time>
      </trkpt>
      <trkpt lat="44.30948" lon="3.37672">
        <ele>852</ele>
        <time>2017-03-04T03:04:59Z</time>
      </trkpt>
      <trkpt lat="44.30937" lon="3.37661">
        <ele>851</ele>
        <time>2017-03-04T03:06:59Z</time>
      </trkpt>
      <trkpt lat="44.3092" lon="3.37649">
        <ele>851</ele>
        <time>2017-03-04T03:08:59Z</time>
      </trkpt>
      <trkpt lat="44.30919" lon="3.37648">
        <ele>851</ele>
        <time>2017-03-04T03:10:59Z</time>
      </trkpt>
      <trkpt lat="44.30909" lon="3.37641">
        <ele>851</ele>
        <time>2017-03-04T03:12:59Z</time>
      </trkpt>
      <trkpt lat="44.309" lon="3.37628">
        <ele>850</ele>
        <time>2017-03-04T03:14:59Z</time>
      </trkpt>
      <trkpt lat="44.30894" lon="3.37618">
        <ele>849</ele>
        <time>2017-03-04T03:16:59Z</time>
      </trkpt>
      <trkpt lat="44.3089" lon="3.37604">
        <ele>847</ele>
        <time>2017-03-04T03:18:59Z</time>
      </trkpt>
      <trkpt lat="44.30882" lon="3.37592">
        <ele>846</ele>
        <time>2017-03-04T03:20:59Z</time>
      </trkpt>
      <trkpt lat="44.30876" lon="3.37585">
        <ele>846</ele>
        <time>2017-03-04T03:22:59Z</time>
      </trkpt>
      <trkpt lat="44.30862" lon="3.3757">
        <ele>847</ele>
        <time>2017-03-04T03:24:59Z</time>
      </trkpt>
      <trkpt lat="44.30855" lon="3.37559">
        <ele>847</ele>
        <time>2017-03-04T03:26:59Z</time>
      </trkpt>
      <trkpt lat="44.3085" lon="3.37544">
        <ele>846</ele>
        <time>2017-03-04T03:28:59Z</time>
      </trkpt>
      <trkpt lat="44.30848" lon="3.37529">
        <ele>846</ele>
        <time>2017-03-04T03:30:59Z</time>
      </trkpt>
      <trkpt lat="44.30847" lon="3.37513">
        <ele>845</ele>
        <time>2017-03-04T03:32:59Z</time>
      </trkpt>
      <trkpt lat="44.30844" lon="3.37497">
        <ele>844</ele>
        <time>2017-03-04T03:34:59Z</time>
      </trkpt>
      <trkpt lat="44.30841" lon="3.37492">
        <ele>844</ele>
        <time>2017-03-04T03:36:59Z</time>
      </trkpt>
      <trkpt lat="44.30838" lon="3.3749">
        <ele>844</ele>
        <time>2017-03-04T03:38:59Z</time>
      </trkpt>
      <trkpt lat="44.30838" lon="3.37485">
        <ele>844</ele>
        <time>2017-03-04T03:40:59Z</time>
      </trkpt>
      <trkpt lat="44.30837" lon="3.37478">
        <ele>843</ele>
        <time>2017-03-04T03:42:59Z</time>
      </trkpt>
      <trkpt lat="44.30835" lon="3.37471">
        <ele>843</ele>
        <time>2017-03-04T03:44:59Z</time>
      </trkpt>
      <trkpt lat="44.30832" lon="3.37457">
        <ele>842</ele>
        <time>2017-03-04T03:46:59Z</time>
      </trkpt>
      <trkpt lat="44.30831" lon="3.37447">
        <ele>842</ele>
        <time>2017-03-04T03:48:59Z</time>
      </trkpt>
      <trkpt lat="44.30831" lon="3.3743">
        <ele>841</ele>
        <time>2017-03-04T03:50:59Z</time>
      </trkpt>
      <trkpt lat="44.30832" lon="3.37411">
        <ele>840</ele>
        <time>2017-03-04T03:52:59Z</time>
      </trkpt>
      <trkpt lat="44.30836" lon="3.37391">
        <ele>838</ele>
        <time>2017-03-04T03:54:59Z</time>
      </trkpt>
      <trkpt lat="44.30843" lon="3.37359">
        <ele>836</ele>
        <time>2017-03-04T03:56:59Z</time>
      </trkpt>
      <trkpt lat="44.3085" lon="3.37321">
        <ele>835</ele>
        <time>2017-03-04T03:58:59Z</time>
      </trkpt>
      <trkpt lat="44.30852" lon="3.37308">
        <ele>834</ele>
        <time>2017-03-04T04:00:59Z</time>
      </trkpt>
      <trkpt lat="44.30857" lon="3.37292">
        <ele>834</ele>
        <time>2017-03-04T04:02:59Z</time>
      </trkpt>
      <trkpt lat="44.30869" lon="3.37256">
        <ele>833</ele>
        <time>2017-03-04T04:04:59Z</time>
      </trkpt>
      <trkpt lat="44.30875" lon="3.3724">
        <ele>833</ele>
        <time>2017-03-04T04:06:59Z</time>
      </trkpt>
      <trkpt lat="44.30878" lon="3.3723">
        <ele>832</ele>
        <time>2017-03-04T04:08:59Z</time>
      </trkpt>
      <trkpt lat="44.3088" lon="3.37219">
        <ele>832</ele>
        <time>2017-03-04T04:10:59Z</time>
      </trkpt>
      <trkpt lat="44.30883" lon="3.37192">
        <ele>831</ele>
        <time>2017-03-04T04:12:59Z</time>
      </trkpt>
      <trkpt lat="44.30883" lon="3.37183">
        <ele>831</ele>
        <time>2017-03-04T04:14:59Z</time>
      </trkpt>
      <trkpt lat="44.30866" lon="3.37143">
        <ele>830</ele>
        <time>2017-03-04T04:16:59Z</time>
      </trkpt>
      <trkpt lat="44.30858" lon="3.37128">
        <ele>830</ele>
        <time>2017-03-04T04:18:59Z</time>
      </trkpt>
      <trkpt lat="44.3085" lon="3.37112">
        <ele>830</ele>
        <time>2017-03-04T04:20:59Z</time>
      </trkpt>
      <trkpt lat="44.30844" lon="3.37097">
        <ele>830</ele>
        <time>2017-03-04T04:22:59Z</time>
      </trkpt>
      <trkpt lat="44.30839" lon="3.37081">
        <ele>830</ele>
        <time>2017-03-04T04:24:59Z</time>
      </trkpt>
      <trkpt lat="44.30831" lon="3.37054">
        <ele>830</ele>
        <time>2017-03-04T04:26:59Z</time>
      </trkpt>
      <trkpt lat="44.30826" lon="3.37039">
        <ele>829</ele>
        <time>2017-03-04T04:28:59Z</time>
      </trkpt>
      <trkpt lat="44.3082" lon="3.37026">
        <ele>829</ele>
        <time>2017-03-04T04:30:59Z</time>
      </trkpt>
      <trkpt lat="44.30814" lon="3.37014">
        <ele>829</ele>
        <time>2017-03-04T04:32:59Z</time>
      </trkpt>
      <trkpt lat="44.30797" lon="3.36987">
        <ele>828</ele>
        <time>2017-03-04T04:34:59Z</time>
      </trkpt>
      <trkpt lat="44.3079" lon="3.36974">
        <ele>828</ele>
        <time>2017-03-04T04:36:59Z</time>
      </trkpt>
      <trkpt lat="44.30784" lon="3.36962">
        <ele>828</ele>
        <time>2017-03-04T04:38:59Z</time>
      </trkpt>
      <trkpt lat="44.3078" lon="3.36949">
        <ele>828</ele>
        <time>2017-03-04T04:40:59Z</time>
      </trkpt>
      <trkpt lat="44.30778" lon="3.36938">
        <ele>828</ele>
        <time>2017-03-04T04:42:59Z</time>
      </trkpt>
      <trkpt lat="44.30776" lon="3.36924">
        <ele>828</ele>
        <time>2017-03-04T04:44:59Z</time>
      </trkpt>
      <trkpt lat="44.30776" lon="3.36904">
        <ele>828</ele>
        <time>2017-03-04T04:46:59Z</time>
      </trkpt>
      <trkpt lat="44.30778" lon="3.36884">
        <ele>828</ele>
        <time>2017-03-04T04:48:59Z</time>
      </trkpt>
      <trkpt lat="44.30778" lon="3.36871">
        <ele>828</ele>
        <time>2017-03-04T04:50:59Z</time>
      </trkpt>
      <trkpt lat="44.30777" lon="3.36843">
        <ele>828</ele>
        <time>2017-03-04T04:52:59Z</time>
      </trkpt>
      <trkpt lat="44.30775" lon="3.36832">
        <ele>828</ele>
        <time>2017-03-04T04:54:59Z</time>
      </trkpt>
      <trkpt lat="44.30768" lon="3.36804">
        <ele>829</ele>
        <time>2017-03-04T04:56:59Z</time>
      </trkpt>
      <trkpt lat="44.30763" lon="3.36779">
        <ele>831</ele>
        <time>2017-03-04T04:58:59Z</time>
      </trkpt>
      <trkpt lat="44.30757" lon="3.36742">
        <ele>833</ele>
        <time>2017-03-04T05:00:59Z</time>
      </trkpt>
      <trkpt lat="44.3075" lon="3.36693">
        <ele>837</ele>
        <time>2017-03-04T05:02:59Z</time>
      </trkpt>
      <trkpt lat="44.30747" lon="3.36682">
        <ele>838</ele>
        <time>2017-03-04T05:04:59Z</time>
      </trkpt>
      <trkpt lat="44.30742" lon="3.36667">
        <ele>839</ele>
        <time>2017-03-04T05:06:59Z</time>
      </trkpt>
      <trkpt lat="44.30743" lon="3.36662">
        <ele>840</ele>
        <time>2017-03-04T05:08:59Z</time>
      </trkpt>
      <trkpt lat="44.30746" lon="3.36655">
        <ele>841</ele>
        <time>2017-03-04T05:10:59Z</time>
      </trkpt>
      <trkpt lat="44.30754" lon="3.36647">
        <ele>841</ele>
        <time>2017-03-04T05:12:59Z</time>
      </trkpt>
      <trkpt lat="44.30756" lon="3.36644">
        <ele>842</ele>
        <time>2017-03-04T05:14:59Z</time>
      </trkpt>
      <trkpt lat="44.30764" lon="3.36582">
        <ele>846</ele>
        <time>2017-03-04T05:16:59Z</time>
      </trkpt>
      <trkpt lat="44.30767" lon="3.36573">
        <ele>846</ele>
        <time>2017-03-04T05:18:59Z</time>
      </trkpt>
      <trkpt lat="44.3077" lon="3.36568">
        <ele>847</ele>
        <time>2017-03-04T05:20:59Z</time>
      </trkpt>
      <trkpt lat="44.30775" lon="3.36562">
        <ele>847</ele>
        <time>2017-03-04T05:22:59Z</time>
      </trkpt>
      <trkpt lat="44.30772" lon="3.36556">
        <ele>847</ele>
        <time>2017-03-04T05:24:59Z</time>
      </trkpt>
      <trkpt lat="44.3077" lon="3.36544">
        <ele>847</ele>
        <time>2017-03-04T05:26:59Z</time>
      </trkpt>
      <trkpt lat="44.30768" lon="3.36517">
        <ele>848</ele>
        <time>2017-03-04T05:28:59Z</time>
      </trkpt>
      <trkpt lat="44.30766" lon="3.3651">
        <ele>849</ele>
        <time>2017-03-04T05:30:59Z</time>
      </trkpt>
      <trkpt lat="44.30764" lon="3.36504">
        <ele>849</ele>
        <time>2017-03-04T05:32:59Z</time>
      </trkpt>
      <trkpt lat="44.3076" lon="3.36498">
        <ele>850</ele>
        <time>2017-03-04T05:34:59Z</time>
      </trkpt>
      <trkpt lat="44.30754" lon="3.36484">
        <ele>850</ele>
        <time>2017-03-04T05:36:59Z</time>
      </trkpt>
      <trkpt lat="44.30747" lon="3.36465">
        <ele>850</ele>
        <time>2017-03-04T05:38:59Z</time>
      </trkpt>
      <trkpt lat="44.30743" lon="3.36456">
        <ele>850</ele>
        <time>2017-03-04T05:40:59Z</time>
      </trkpt>
      <trkpt lat="44.30739" lon="3.36443">
        <ele>850</ele>
        <time>2017-03-04T05:42:59Z</time>
      </trkpt>
      <trkpt lat="44.30737" lon="3.36434">
        <ele>850</ele>
        <time>2017-03-04T05:44:59Z</time>
      </trkpt>
      <trkpt lat="44.30731" lon="3.36418">
        <ele>850</ele>
        <time>2017-03-04T05:46:59Z</time>
      </trkpt>
      <trkpt lat="44.30741" lon="3.36409">
        <ele>851</ele>
        <time>2017-03-04T05:48:59Z</time>
      </trkpt>
      <trkpt lat="44.30744" lon="3.36407">
        <ele>851</ele>
        <time>2017-03-04T05:50:59Z</time>
      </trkpt>
      <trkpt lat="44.30753" lon="3.36386">
        <ele>851</ele>
        <time>2017-03-04T05:52:59Z</time>
      </trkpt>
      <trkpt lat="44.30754" lon="3.36383">
        <ele>851</ele>
        <time>2017-03-04T05:54:59Z</time>
      </trkpt>
      <trkpt lat="44.30754" lon="3.36372">
        <ele>851</ele>
        <time>2017-03-04T05:56:59Z</time>
      </trkpt>
      <trkpt lat="44.30753" lon="3.36361">
        <ele>852</ele>
        <time>2017-03-04T05:58:59Z</time>
      </trkpt>
      <trkpt lat="44.30753" lon="3.36326">
        <ele>853</ele>
        <time>2017-03-04T06:00:59Z</time>
      </trkpt>
      <trkpt lat="44.30755" lon="3.36306">
        <ele>854</ele>
        <time>2017-03-04T06:02:59Z</time>
      </trkpt>
      <trkpt lat="44.30762" lon="3.36263">
        <ele>855</ele>
        <time>2017-03-04T06:04:59Z</time>
      </trkpt>
      <trkpt lat="44.30763" lon="3.3626">
        <ele>855</ele>
        <time>2017-03-04T06:06:59Z</time>
      </trkpt>
      <trkpt lat="44.30766" lon="3.36255">
        <ele>855</ele>
        <time>2017-03-04T06:08:59Z</time>
      </trkpt>
      <trkpt lat="44.30772" lon="3.36242">
        <ele>855</ele>
        <time>2017-03-04T06:10:59Z</time>
      </trkpt>
      <trkpt lat="44.30773" lon="3.36239">
        <ele>855</ele>
        <time>2017-03-04T06:12:59Z</time>
      </trkpt>
      <trkpt lat="44.30777" lon="3.3622">
        <ele>856</ele>
        <time>2017-03-04T06:14:59Z</time>
      </trkpt>
      <trkpt lat="44.30784" lon="3.36204">
        <ele>857</ele>
        <time>2017-03-04T06:16:59Z</time>
      </trkpt>
      <trkpt lat="44.30795" lon="3.36183">
        <ele>858</ele>
        <time>2017-03-04T06:18:59Z</time>
      </trkpt>
      <trkpt lat="44.30808" lon="3.36166">
        <ele>860</ele>
        <time>2017-03-04T06:20:59Z</time>
      </trkpt>
      <trkpt lat="44.30823" lon="3.3615">
        <ele>860</ele>
        <time>2017-03-04T06:22:59Z</time>
      </trkpt>
      <trkpt lat="44.30835" lon="3.36141">
        <ele>860</ele>
        <time>2017-03-04T06:24:59Z</time>
      </trkpt>
      <trkpt lat="44.30858" lon="3.36122">
        <ele>861</ele>
        <time>2017-03-04T06:26:59Z</time>
      </trkpt>
      <trkpt lat="44.30884" lon="3.361">
        <ele>862</ele>
        <time>2017-03-04T06:28:59Z</time>
      </trkpt>
      <trkpt lat="44.30937" lon="3.36059">
        <ele>862</ele>
        <time>2017-03-04T06:30:59Z</time>
      </trkpt>
      <trkpt lat="44.30952" lon="3.36044">
        <ele>862</ele>
        <time>2017-03-04T06:32:59Z</time>
      </trkpt>
      <trkpt lat="44.30978" lon="3.36032">
        <ele>861</ele>
        <time>2017-03-04T06:34:59Z</time>
      </trkpt>
      <trkpt lat="44.30998" lon="3.36017">
        <ele>860</ele>
        <time>2017-03-04T06:36:59Z</time>
      </trkpt>
      <trkpt lat="44.31014" lon="3.36006">
        <ele>861</ele>
        <time>2017-03-04T06:38:59Z</time>
      </trkpt>
      <trkpt lat="44.31036" lon="3.35996">
        <ele>862</ele>
        <time>2017-03-04T06:40:59Z</time>
      </trkpt>
      <trkpt lat="44.31042" lon="3.35989">
        <ele>862</ele>
        <time>2017-03-04T06:42:59Z</time>
      </trkpt>
      <trkpt lat="44.31048" lon="3.3598">
        <ele>862</ele>
        <time>2017-03-04T06:44:59Z</time>
      </trkpt>
      <trkpt lat="44.31051" lon="3.35969">
        <ele>862</ele>
        <time>2017-03-04T06:46:59Z</time>
      </trkpt>
      <trkpt lat="44.31052" lon="3.35953">
        <ele>861</ele>
        <time>2017-03-04T06:48:59Z</time>
      </trkpt>
      <trkpt lat="44.31053" lon="3.35943">
        <ele>860</ele>
        <time>2017-03-04T06:50:59Z</time>
      </trkpt>
      <trkpt lat="44.31059" lon="3.35926">
        <ele>860</ele>
        <time>2017-03-04T06:52:59Z</time>
      </trkpt>
      <trkpt lat="44.31066" lon="3.35913">
        <ele>860</ele>
        <time>2017-03-04T06:54:59Z</time>
      </trkpt>
      <trkpt lat="44.31084" lon="3.35889">
        <ele>861</ele>
        <time>2017-03-04T06:56:59Z</time>
      </trkpt>
      <trkpt lat="44.31098" lon="3.35874">
        <ele>863</ele>
        <time>2017-03-04T06:58:59Z</time>
      </trkpt>
      <trkpt lat="44.31107" lon="3.35869">
        <ele>864</ele>
        <time>2017-03-04T07:00:59Z</time>
      </trkpt>
      <trkpt lat="44.31118" lon="3.35864">
        <ele>865</ele>
        <time>2017-03-04T07:02:59Z</time>
      </trkpt>
      <trkpt lat="44.31126" lon="3.35859">
        <ele>866</ele>
        <time>2017-03-04T07:04:59Z</time>
      </trkpt>
      <trkpt lat="44.31131" lon="3.35852">
        <ele>866</ele>
        <time>2017-03-04T07:06:59Z</time>
      </trkpt>
      <trkpt lat="44.31143" lon="3.35831">
        <ele>866</ele>
        <time>2017-03-04T07:08:59Z</time>
      </trkpt>
      <trkpt lat="44.31156" lon="3.35813">
        <ele>866</ele>
        <time>2017-03-04T07:10:59Z</time>
      </trkpt>
      <trkpt lat="44.3117" lon="3.35796">
        <ele>866</ele>
        <time>2017-03-04T07:12:59Z</time>
      </trkpt>
      <trkpt lat="44.3121" lon="3.35741">
        <ele>865</ele>
        <time>2017-03-04T07:14:59Z</time>
      </trkpt>
      <trkpt lat="44.3123" lon="3.35717">
        <ele>864</ele>
        <time>2017-03-04T07:16:59Z</time>
      </trkpt>
      <trkpt lat="44.31244" lon="3.35697">
        <ele>863</ele>
        <time>2017-03-04T07:18:59Z</time>
      </trkpt>
      <trkpt lat="44.31261" lon="3.35663">
        <ele>861</ele>
        <time>2017-03-04T07:20:59Z</time>
      </trkpt>
      <trkpt lat="44.31266" lon="3.35652">
        <ele>860</ele>
        <time>2017-03-04T07:22:59Z</time>
      </trkpt>
      <trkpt lat="44.31269" lon="3.35642">
        <ele>859</ele>
        <time>2017-03-04T07:24:59Z</time>
      </trkpt>
      <trkpt lat="44.31275" lon="3.35633">
        <ele>859</ele>
        <time>2017-03-04T07:26:59Z</time>
      </trkpt>
      <trkpt lat="44.31293" lon="3.35615">
        <ele>859</ele>
        <time>2017-03-04T07:28:59Z</time>
      </trkpt>
      <trkpt lat="44.31301" lon="3.35609">
        <ele>859</ele>
        <time>2017-03-04T07:30:59Z</time>
      </trkpt>
      <trkpt lat="44.31317" lon="3.35588">
        <ele>859</ele>
        <time>2017-03-04T07:32:59Z</time>
      </trkpt>
      <trkpt lat="44.31323" lon="3.35579">
        <ele>858</ele>
        <time>2017-03-04T07:34:59Z</time>
      </trkpt>
      <trkpt lat="44.31332" lon="3.35571">
        <ele>858</ele>
        <time>2017-03-04T07:36:59Z</time>
      </trkpt>
      <trkpt lat="44.31339" lon="3.35564">
        <ele>858</ele>
        <time>2017-03-04T07:38:59Z</time>
      </trkpt>
      <trkpt lat="44.31346" lon="3.35554">
        <ele>858</ele>
        <time>2017-03-04T07:40:59Z</time>
      </trkpt>
      <trkpt lat="44.31358" lon="3.35538">
        <ele>858</ele>
        <time>2017-03-04T07:42:59Z</time>
      </trkpt>
      <trkpt lat="44.31369" lon="3.35522">
        <ele>857</ele>
        <time>2017-03-04T07:44:59Z</time>
      </trkpt>
      <trkpt lat="44.31381" lon="3.35501">
        <ele>856</ele>
        <time>2017-03-04T07:46:59Z</time>
      </trkpt>
      <trkpt lat="44.31394" lon="3.3548">
        <ele>856</ele>
        <time>2017-03-04T07:48:59Z</time>
      </trkpt>
      <trkpt lat="44.31405" lon="3.3546">
        <ele>856</ele>
        <time>2017-03-04T07:50:59Z</time>
      </trkpt>
      <trkpt lat="44.31433" lon="3.35406">
        <ele>853</ele>
        <time>2017-03-04T07:52:59Z</time>
      </trkpt>
      <trkpt lat="44.31447" lon="3.35376">
        <ele>848</ele>
        <time>2017-03-04T07:54:59Z</time>
      </trkpt>
      <trkpt lat="44.31452" lon="3.35366">
        <ele>847</ele>
        <time>2017-03-04T07:56:59Z</time>
      </trkpt>
      <trkpt lat="44.31458" lon="3.35358">
        <ele>845</ele>
        <time>2017-03-04T07:58:59Z</time>
      </trkpt>
      <trkpt lat="44.31461" lon="3.35347">
        <ele>843</ele>
        <time>2017-03-04T08:00:59Z</time>
      </trkpt>
      <trkpt lat="44.31464" lon="3.35345">
        <ele>843</ele>
        <time>2017-03-04T08:02:59Z</time>
      </trkpt>
      <trkpt lat="44.31466" lon="3.35345">
        <ele>842</ele>
        <time>2017-03-04T08:04:59Z</time>
      </trkpt>
      <trkpt lat="44.31473" lon="3.35349">
        <ele>842</ele>
        <time>2017-03-04T08:06:59Z</time>
      </trkpt>
      <trkpt lat="44.31482" lon="3.35358">
        <ele>843</ele>
        <time>2017-03-04T08:08:59Z</time>
      </trkpt>
      <trkpt lat="44.3149" lon="3.3537">
        <ele>845</ele>
        <time>2017-03-04T08:10:59Z</time>
      </trkpt>
      <trkpt lat="44.31499" lon="3.35376">
        <ele>845</ele>
        <time>2017-03-04T08:12:59Z</time>
      </trkpt>
      <trkpt lat="44.31512" lon="3.35384">
        <ele>840</ele>
        <time>2017-03-04T08:14:59Z</time>
      </trkpt>
      <trkpt lat="44.31521" lon="3.35391">
        <ele>836</ele>
        <time>2017-03-04T08:16:59Z</time>
      </trkpt>
      <trkpt lat="44.31531" lon="3.35413">
        <ele>834</ele>
        <time>2017-03-04T08:18:59Z</time>
      </trkpt>
      <trkpt lat="44.31541" lon="3.35442">
        <ele>835</ele>
        <time>2017-03-04T08:20:59Z</time>
      </trkpt>
      <trkpt lat="44.31551" lon="3.35462">
        <ele>834</ele>
        <time>2017-03-04T08:22:59Z</time>
      </trkpt>
      <trkpt lat="44.31561" lon="3.35476">
        <ele>832</ele>
        <time>2017-03-04T08:24:59Z</time>
      </trkpt>
      <trkpt lat="44.31567" lon="3.35492">
        <ele>832</ele>
        <time>2017-03-04T08:26:59Z</time>
      </trkpt>
      <trkpt lat="44.31572" lon="3.35515">
        <ele>836</ele>
        <time>2017-03-04T08:28:59Z</time>
      </trkpt>
      <trkpt lat="44.31579" lon="3.35535">
        <ele>839</ele>
        <time>2017-03-04T08:30:59Z</time>
      </trkpt>
      <trkpt lat="44.31593" lon="3.35554">
        <ele>839</ele>
        <time>2017-03-04T08:32:59Z</time>
      </trkpt>
      <trkpt lat="44.3161" lon="3.35574">
        <ele>841</ele>
        <time>2017-03-04T08:34:59Z</time>
      </trkpt>
      <trkpt lat="44.31623" lon="3.35588">
        <ele>842</ele>
        <time>2017-03-04T08:36:59Z</time>
      </trkpt>
      <trkpt lat="44.31629" lon="3.35592">
        <ele>842</ele>
        <time>2017-03-04T08:38:59Z</time>
      </trkpt>
      <trkpt lat="44.31634" lon="3.35593">
        <ele>841</ele>
        <time>2017-03-04T08:40:59Z</time>
      </trkpt>
      <trkpt lat="44.31641" lon="3.35591">
        <ele>838</ele>
        <time>2017-03-04T08:42:59Z</time>
      </trkpt>
      <trkpt lat="44.3168" lon="3.35568">
        <ele>818</ele>
        <time>2017-03-04T08:44:59Z</time>
      </trkpt>
      <trkpt lat="44.31697" lon="3.35556">
        <ele>811</ele>
        <time>2017-03-04T08:46:59Z</time>
      </trkpt>
      <trkpt lat="44.31712" lon="3.35548">
        <ele>805</ele>
        <time>2017-03-04T08:48:59Z</time>
      </trkpt>
      <trkpt lat="44.31726" lon="3.35543">
        <ele>801</ele>
        <time>2017-03-04T08:50:59Z</time>
      </trkpt>
      <trkpt lat="44.3174" lon="3.35542">
        <ele>799</ele>
        <time>2017-03-04T08:52:59Z</time>
      </trkpt>
      <trkpt lat="44.31746" lon="3.35544">
        <ele>800</ele>
        <time>2017-03-04T08:54:59Z</time>
      </trkpt>
      <trkpt lat="44.31766" lon="3.35554">
        <ele>802</ele>
        <time>2017-03-04T08:56:59Z</time>
      </trkpt>
      <trkpt lat="44.31789" lon="3.35563">
        <ele>803</ele>
        <time>2017-03-04T08:58:59Z</time>
      </trkpt>
      <trkpt lat="44.31799" lon="3.35569">
        <ele>804</ele>
        <time>2017-03-04T09:00:59Z</time>
      </trkpt>
      <trkpt lat="44.31802" lon="3.3557">
        <ele>804</ele>
        <time>2017-03-04T09:02:59Z</time>
      </trkpt>
      <trkpt lat="44.31803" lon="3.35569">
        <ele>803</ele>
        <time>2017-03-04T09:04:59Z</time>
      </trkpt>
      <trkpt lat="44.31804" lon="3.35567">
        <ele>802</ele>
        <time>2017-03-04T09:06:59Z</time>
      </trkpt>
      <trkpt lat="44.31803" lon="3.35564">
        <ele>801</ele>
        <time>2017-03-04T09:08:59Z</time>
      </trkpt>
      <trkpt lat="44.31787" lon="3.35536">
        <ele>791</ele>
        <time>2017-03-04T09:10:59Z</time>
      </trkpt>
      <trkpt lat="44.31767" lon="3.35496">
        <ele>775</ele>
        <time>2017-03-04T09:12:59Z</time>
      </trkpt>
      <trkpt lat="44.31756" lon="3.35481">
        <ele>769</ele>
        <time>2017-03-04T09:14:59Z</time>
      </trkpt>
      <trkpt lat="44.31734" lon="3.35472">
        <ele>768</ele>
        <time>2017-03-04T09:16:59Z</time>
      </trkpt>
      <trkpt lat="44.31693" lon="3.35453">
        <ele>765</ele>
        <time>2017-03-04T09:18:59Z</time>
      </trkpt>
      <trkpt lat="44.31685" lon="3.35442">
        <ele>761</ele>
        <time>2017-03-04T09:20:59Z</time>
      </trkpt>
      <trkpt lat="44.3168" lon="3.3543">
        <ele>757</ele>
        <time>2017-03-04T09:22:59Z</time>
      </trkpt>
      <trkpt lat="44.31676" lon="3.35412">
        <ele>750</ele>
        <time>2017-03-04T09:24:59Z</time>
      </trkpt>
      <trkpt lat="44.31672" lon="3.35387">
        <ele>743</ele>
        <time>2017-03-04T09:26:59Z</time>
      </trkpt>
      <trkpt lat="44.31664" lon="3.35348">
        <ele>733</ele>
        <time>2017-03-04T09:28:59Z</time>
      </trkpt>
      <trkpt lat="44.31662" lon="3.35334">
        <ele>730</ele>
        <time>2017-03-04T09:30:59Z</time>
      </trkpt>
      <trkpt lat="44.31662" lon="3.35309">
        <ele>725</ele>
        <time>2017-03-04T09:32:59Z</time>
      </trkpt>
      <trkpt lat="44.31658" lon="3.35283">
        <ele>723</ele>
        <time>2017-03-04T09:34:59Z</time>
      </trkpt>
      <trkpt lat="44.31658" lon="3.3528">
        <ele>722</ele>
        <time>2017-03-04T09:36:59Z</time>
      </trkpt>
      <trkpt lat="44.31659" lon="3.35275">
        <ele>720</ele>
        <time>2017-03-04T09:38:59Z</time>
      </trkpt>
      <trkpt lat="44.31658" lon="3.35271">
        <ele>720</ele>
        <time>2017-03-04T09:40:59Z</time>
      </trkpt>
      <trkpt lat="44.31657" lon="3.35269">
        <ele>720</ele>
        <time>2017-03-04T09:42:59Z</time>
      </trkpt>
      <trkpt lat="44.31653" lon="3.35263">
        <ele>722</ele>
        <time>2017-03-04T09:44:59Z</time>
      </trkpt>
      <trkpt lat="44.31652" lon="3.35257">
        <ele>721</ele>
        <time>2017-03-04T09:46:59Z</time>
      </trkpt>
      <trkpt lat="44.31652" lon="3.35253">
        <ele>720</ele>
        <time>2017-03-04T09:48:59Z</time>
      </trkpt>
      <trkpt lat="44.31653" lon="3.35247">
        <ele>718</ele>
        <time>2017-03-04T09:50:59Z</time>
      </trkpt>
      <trkpt lat="44.31653" lon="3.35238">
        <ele>717</ele>
        <time>2017-03-04T09:52:59Z</time>
      </trkpt>
      <trkpt lat="44.31654" lon="3.35236">
        <ele>716</ele>
        <time>2017-03-04T09:54:59Z</time>
      </trkpt>
      <trkpt lat="44.31654" lon="3.35235">
        <ele>716</ele>
        <time>2017-03-04T09:56:59Z</time>
      </trkpt>
      <trkpt lat="44.31658" lon="3.35235">
        <ele>713</ele>
        <time>2017-03-04T09:58:59Z</time>
      </trkpt>
      <trkpt lat="44.3166" lon="3.35236">
        <ele>712</ele>
        <time>2017-03-04T10:00:59Z</time>
      </trkpt>
      <trkpt lat="44.31662" lon="3.35239">
        <ele>711</ele>
        <time>2017-03-04T10:02:59Z</time>
      </trkpt>
      <trkpt lat="44.31664" lon="3.35243">
        <ele>711</ele>
        <time>2017-03-04T10:04:59Z</time>
      </trkpt>
      <trkpt lat="44.31664" lon="3.3525">
        <ele>712</ele>
        <time>2017-03-04T10:06:59Z</time>
      </trkpt>
      <trkpt lat="44.31665" lon="3.35252">
        <ele>712</ele>
        <time>2017-03-04T10:08:59Z</time>
      </trkpt>
      <trkpt lat="44.31673" lon="3.35261">
        <ele>710</ele>
        <time>2017-03-04T10:10:59Z</time>
      </trkpt>
      <trkpt lat="44.31679" lon="3.3527">
        <ele>709</ele>
        <time>2017-03-04T10:12:59Z</time>
      </trkpt>
      <trkpt lat="44.31689" lon="3.35281">
        <ele>708</ele>
        <time>2017-03-04T10:14:59Z</time>
      </trkpt>
      <trkpt lat="44.31699" lon="3.3529">
        <ele>707</ele>
        <time>2017-03-04T10:16:59Z</time>
      </trkpt>
      <trkpt lat="44.31703" lon="3.35292">
        <ele>706</ele>
        <time>2017-03-04T10:18:59Z</time>
      </trkpt>
      <trkpt lat="44.31715" lon="3.35296">
        <ele>703</ele>
        <time>2017-03-04T10:20:59Z</time>
      </trkpt>
      <trkpt lat="44.3174" lon="3.35302">
        <ele>696</ele>
        <time>2017-03-04T10:22:59Z</time>
      </trkpt>
      <trkpt lat="44.31763" lon="3.35302">
        <ele>692</ele>
        <time>2017-03-04T10:24:59Z</time>
      </trkpt>
      <trkpt lat="44.31763" lon="3.35301">
        <ele>692</ele>
        <time>2017-03-04T10:26:59Z</time>
      </trkpt>
      <trkpt lat="44.31764" lon="3.35299">
        <ele>691</ele>
        <time>2017-03-04T10:28:59Z</time>
      </trkpt>
      <trkpt lat="44.31763" lon="3.35297">
        <ele>690</ele>
        <time>2017-03-04T10:30:59Z</time>
      </trkpt>
      <trkpt lat="44.31748" lon="3.35282">
        <ele>687</ele>
        <time>2017-03-04T10:32:59Z</time>
      </trkpt>
      <trkpt lat="44.31741" lon="3.35272">
        <ele>686</ele>
        <time>2017-03-04T10:34:59Z</time>
      </trkpt>
      <trkpt lat="44.31739" lon="3.35268">
        <ele>686</ele>
        <time>2017-03-04T10:36:59Z</time>
      </trkpt>
      <trkpt lat="44.31739" lon="3.35265">
        <ele>685</ele>
        <time>2017-03-04T10:38:59Z</time>
      </trkpt>
      <trkpt lat="44.3174" lon="3.35263">
        <ele>684</ele>
        <time>2017-03-04T10:40:59Z</time>
      </trkpt>
      <trkpt lat="44.31741" lon="3.35262">
        <ele>683</ele>
        <time>2017-03-04T10:42:59Z</time>
      </trkpt>
      <trkpt lat="44.31743" lon="3.35263">
        <ele>683</ele>
        <time>2017-03-04T10:44:59Z</time>
      </trkpt>
      <trkpt lat="44.31747" lon="3.35266">
        <ele>682</ele>
        <time>2017-03-04T10:46:59Z</time>
      </trkpt>
      <trkpt lat="44.3175" lon="3.35267">
        <ele>681</ele>
        <time>2017-03-04T10:48:59Z</time>
      </trkpt>
      <trkpt lat="44.31761" lon="3.35268">
        <ele>681</ele>
        <time>2017-03-04T10:50:59Z</time>
      </trkpt>
      <trkpt lat="44.31771" lon="3.35268">
        <ele>681</ele>
        <time>2017-03-04T10:52:59Z</time>
      </trkpt>
      <trkpt lat="44.31772" lon="3.35267">
        <ele>680</ele>
        <time>2017-03-04T10:54:59Z</time>
      </trkpt>
      <trkpt lat="44.31773" lon="3.35265">
        <ele>680</ele>
        <time>2017-03-04T10:56:59Z</time>
      </trkpt>
      <trkpt lat="44.31772" lon="3.35263">
        <ele>679</ele>
        <time>2017-03-04T10:58:59Z</time>
      </trkpt>
      <trkpt lat="44.31768" lon="3.35259">
        <ele>678</ele>
        <time>2017-03-04T11:00:59Z</time>
      </trkpt>
      <trkpt lat="44.31765" lon="3.35255">
        <ele>677</ele>
        <time>2017-03-04T11:02:59Z</time>
      </trkpt>
      <trkpt lat="44.31761" lon="3.35247">
        <ele>675</ele>
        <time>2017-03-04T11:04:59Z</time>
      </trkpt>
      <trkpt lat="44.31757" lon="3.3524">
        <ele>673</ele>
        <time>2017-03-04T11:06:59Z</time>
      </trkpt>
      <trkpt lat="44.31752" lon="3.35233">
        <ele>672</ele>
        <time>2017-03-04T11:08:59Z</time>
      </trkpt>
      <trkpt lat="44.3175" lon="3.35232">
        <ele>672</ele>
        <time>2017-03-04T11:10:59Z</time>
      </trkpt>
      <trkpt lat="44.31746" lon="3.35231">
        <ele>673</ele>
        <time>2017-03-04T11:12:59Z</time>
      </trkpt>
      <trkpt lat="44.31742" lon="3.35228">
        <ele>674</ele>
        <time>2017-03-04T11:14:59Z</time>
      </trkpt>
      <trkpt lat="44.31741" lon="3.35225">
        <ele>674</ele>
        <time>2017-03-04T11:16:59Z</time>
      </trkpt>
      <trkpt lat="44.3174" lon="3.35224">
        <ele>674</ele>
        <time>2017-03-04T11:18:59Z</time>
      </trkpt>
      <trkpt lat="44.3174" lon="3.35219">
        <ele>673</ele>
        <time>2017-03-04T11:20:59Z</time>
      </trkpt>
      <trkpt lat="44.31741" lon="3.35217">
        <ele>672</ele>
        <time>2017-03-04T11:22:59Z</time>
      </trkpt>
      <trkpt lat="44.31748" lon="3.35217">
        <ele>669</ele>
        <time>2017-03-04T11:24:59Z</time>
      </trkpt>
      <trkpt lat="44.31758" lon="3.35219">
        <ele>668</ele>
        <time>2017-03-04T11:26:59Z</time>
      </trkpt>
      <trkpt lat="44.31773" lon="3.35219">
        <ele>665</ele>
        <time>2017-03-04T11:28:59Z</time>
      </trkpt>
      <trkpt lat="44.31776" lon="3.35218">
        <ele>665</ele>
        <time>2017-03-04T11:30:59Z</time>
      </trkpt>
      <trkpt lat="44.31778" lon="3.35216">
        <ele>664</ele>
        <time>2017-03-04T11:32:59Z</time>
      </trkpt>
      <trkpt lat="44.31778" lon="3.35207">
        <ele>661</ele>
        <time>2017-03-04T11:34:59Z</time>
      </trkpt>
      <trkpt lat="44.31777" lon="3.35205">
        <ele>660</ele>
        <time>2017-03-04T11:36:59Z</time>
      </trkpt>
      <trkpt lat="44.31774" lon="3.35202">
        <ele>660</ele>
        <time>2017-03-04T11:38:59Z</time>
      </trkpt>
      <trkpt lat="44.31771" lon="3.352">
        <ele>660</ele>
        <time>2017-03-04T11:40:59Z</time>
      </trkpt>
      <trkpt lat="44.31768" lon="3.35197">
        <ele>660</ele>
        <time>2017-03-04T11:42:59Z</time>
      </trkpt>
      <trkpt lat="44.31767" lon="3.35195">
        <ele>660</ele>
        <time>2017-03-04T11:44:59Z</time>
      </trkpt>
      <trkpt lat="44.31767" lon="3.35194">
        <ele>659</ele>
        <time>2017-03-04T11:46:59Z</time>
      </trkpt>
      <trkpt lat="44.31769" lon="3.35192">
        <ele>658</ele>
        <time>2017-03-04T11:48:59Z</time>
      </trkpt>
      <trkpt lat="44.31773" lon="3.35192">
        <ele>657</ele>
        <time>2017-03-04T11:50:59Z</time>
      </trkpt>
      <trkpt lat="44.31781" lon="3.35191">
        <ele>655</ele>
        <time>2017-03-04T11:52:59Z</time>
      </trkpt>
      <trkpt lat="44.31783" lon="3.35189">
        <ele>654</ele>
        <time>2017-03-04T11:54:59Z</time>
      </trkpt>
      <trkpt lat="44.31785" lon="3.35186">
        <ele>653</ele>
        <time>2017-03-04T11:56:59Z</time>
      </trkpt>
      <trkpt lat="44.31785" lon="3.35182">
        <ele>651</ele>
        <time>2017-03-04T11:58:59Z</time>
      </trkpt>
      <trkpt lat="44.31784" lon="3.3518">
        <ele>651</ele>
        <time>2017-03-04T12:00:59Z</time>
      </trkpt>
      <trkpt lat="44.31776" lon="3.35168">
        <ele>649</ele>
        <time>2017-03-04T12:02:59Z</time>
      </trkpt>
      <trkpt lat="44.31776" lon="3.35161">
        <ele>647</ele>
        <time>2017-03-04T12:04:59Z</time>
      </trkpt>
      <trkpt lat="44.31777" lon="3.35158">
        <ele>646</ele>
        <time>2017-03-04T12:06:59Z</time>
      </trkpt>
      <trkpt lat="44.31779" lon="3.35155">
        <ele>645</ele>
        <time>2017-03-04T12:08:59Z</time>
      </trkpt>
      <trkpt lat="44.31784" lon="3.35155">
        <ele>643</ele>
        <time>2017-03-04T12:10:59Z</time>
      </trkpt>
      <trkpt lat="44.31788" lon="3.35158">
        <ele>643</ele>
        <time>2017-03-04T12:12:59Z</time>
      </trkpt>
      <trkpt lat="44.3179" lon="3.35161">
        <ele>643</ele>
        <time>2017-03-04T12:14:59Z</time>
      </trkpt>
      <trkpt lat="44.31792" lon="3.35167">
        <ele>644</ele>
        <time>2017-03-04T12:16:59Z</time>
      </trkpt>
      <trkpt lat="44.31795" lon="3.3517">
        <ele>644</ele>
        <time>2017-03-04T12:18:59Z</time>
      </trkpt>
      <trkpt lat="44.31798" lon="3.35172">
        <ele>644</ele>
        <time>2017-03-04T12:20:59Z</time>
      </trkpt>
      <trkpt lat="44.31806" lon="3.35172">
        <ele>642</ele>
        <time>2017-03-04T12:22:59Z</time>
      </trkpt>
      <trkpt lat="44.31813" lon="3.35168">
        <ele>638</ele>
        <time>2017-03-04T12:24:59Z</time>
      </trkpt>
      <trkpt lat="44.3182" lon="3.35163">
        <ele>634</ele>
        <time>2017-03-04T12:26:59Z</time>
      </trkpt>
      <trkpt lat="44.31821" lon="3.3516">
        <ele>633</ele>
        <time>2017-03-04T12:28:59Z</time>
      </trkpt>
      <trkpt lat="44.31822" lon="3.35154">
        <ele>630</ele>
        <time>2017-03-04T12:30:59Z</time>
      </trkpt>
      <trkpt lat="44.31824" lon="3.3515">
        <ele>628</ele>
        <time>2017-03-04T12:32:59Z</time>
      </trkpt>
      <trkpt lat="44.31829" lon="3.35147">
        <ele>625</ele>
        <time>2017-03-04T12:34:59Z</time>
      </trkpt>
      <trkpt lat="44.3183" lon="3.35145">
        <ele>624</ele>
        <time>2017-03-04T12:36:59Z</time>
      </trkpt>
      <trkpt lat="44.31831" lon="3.35142">
        <ele>623</ele>
        <time>2017-03-04T12:38:59Z</time>
      </trkpt>
      <trkpt lat="44.3183" lon="3.3514">
        <ele>622</ele>
        <time>2017-03-04T12:40:59Z</time>
      </trkpt>
      <trkpt lat="44.31826" lon="3.35135">
        <ele>622</ele>
        <time>2017-03-04T12:42:59Z</time>
      </trkpt>
      <trkpt lat="44.31824" lon="3.35134">
        <ele>622</ele>
        <time>2017-03-04T12:44:59Z</time>
      </trkpt>
      <trkpt lat="44.31824" lon="3.35132">
        <ele>622</ele>
        <time>2017-03-04T12:46:59Z</time>
      </trkpt>
      <trkpt lat="44.31825" lon="3.3513">
        <ele>620</ele>
        <time>2017-03-04T12:48:59Z</time>
      </trkpt>
      <trkpt lat="44.31827" lon="3.35128">
        <ele>619</ele>
        <time>2017-03-04T12:50:59Z</time>
      </trkpt>
      <trkpt lat="44.31834" lon="3.35128">
        <ele>617</ele>
        <time>2017-03-04T12:52:59Z</time>
      </trkpt>
      <trkpt lat="44.31843" lon="3.35124">
        <ele>616</ele>
        <time>2017-03-04T12:54:59Z</time>
      </trkpt>
      <trkpt lat="44.31848" lon="3.3512">
        <ele>614</ele>
        <time>2017-03-04T12:56:59Z</time>
      </trkpt>
      <trkpt lat="44.31859" lon="3.3511">
        <ele>610</ele>
        <time>2017-03-04T12:58:59Z</time>
      </trkpt>
      <trkpt lat="44.31869" lon="3.351">
        <ele>606</ele>
        <time>2017-03-04T13:00:59Z</time>
      </trkpt>
      <trkpt lat="44.31877" lon="3.3509">
        <ele>601</ele>
        <time>2017-03-04T13:02:59Z</time>
      </trkpt>
      <trkpt lat="44.31896" lon="3.35075">
        <ele>593</ele>
        <time>2017-03-04T13:04:59Z</time>
      </trkpt>
      <trkpt lat="44.31907" lon="3.3507">
        <ele>590</ele>
        <time>2017-03-04T13:06:59Z</time>
      </trkpt>
      <trkpt lat="44.3192" lon="3.35065">
        <ele>588</ele>
        <time>2017-03-04T13:08:59Z</time>
      </trkpt>
      <trkpt lat="44.31944" lon="3.3506">
        <ele>591</ele>
        <time>2017-03-04T13:10:59Z</time>
      </trkpt>
      <trkpt lat="44.31958" lon="3.35054">
        <ele>591</ele>
        <time>2017-03-04T13:12:59Z</time>
      </trkpt>
      <trkpt lat="44.31972" lon="3.35044">
        <ele>588</ele>
        <time>2017-03-04T13:14:59Z</time>
      </trkpt>
      <trkpt lat="44.31987" lon="3.3503">
        <ele>583</ele>
        <time>2017-03-04T13:16:59Z</time>
      </trkpt>
      <trkpt lat="44.31999" lon="3.35016">
        <ele>577</ele>
        <time>2017-03-04T13:18:59Z</time>
      </trkpt>
      <trkpt lat="44.32011" lon="3.35004">
        <ele>571</ele>
        <time>2017-03-04T13:20:59Z</time>
      </trkpt>
      <trkpt lat="44.32021" lon="3.34991">
        <ele>567</ele>
        <time>2017-03-04T13:22:59Z</time>
      </trkpt>
      <trkpt lat="44.32026" lon="3.34982">
        <ele>563</ele>
        <time>2017-03-04T13:24:59Z</time>
      </trkpt>
      <trkpt lat="44.3203" lon="3.34971">
        <ele>558</ele>
        <time>2017-03-04T13:26:59Z</time>
      </trkpt>
      <trkpt lat="44.32039" lon="3.34962">
        <ele>555</ele>
        <time>2017-03-04T13:28:59Z</time>
      </trkpt>
      <trkpt lat="44.32042" lon="3.34958">
        <ele>554</ele>
        <time>2017-03-04T13:30:59Z</time>
      </trkpt>
      <trkpt lat="44.32042" lon="3.34955">
        <ele>552</ele>
        <time>2017-03-04T13:32:59Z</time>
      </trkpt>
      <trkpt lat="44.32037" lon="3.34953">
        <ele>551</ele>
        <time>2017-03-04T13:34:59Z</time>
      </trkpt>
      <trkpt lat="44.32035" lon="3.34949">
        <ele>549</ele>
        <time>2017-03-04T13:36:59Z</time>
      </trkpt>
      <trkpt lat="44.32034" lon="3.34942">
        <ele>545</ele>
        <time>2017-03-04T13:38:59Z</time>
      </trkpt>
      <trkpt lat="44.32036" lon="3.34934">
        <ele>541</ele>
        <time>2017-03-04T13:40:59Z</time>
      </trkpt>
      <trkpt lat="44.32036" lon="3.34927">
        <ele>538</ele>
        <time>2017-03-04T13:42:59Z</time>
      </trkpt>
      <trkpt lat="44.32037" lon="3.34921">
        <ele>535</ele>
        <time>2017-03-04T13:44:59Z</time>
      </trkpt>
      <trkpt lat="44.32041" lon="3.34919">
        <ele>535</ele>
        <time>2017-03-04T13:46:59Z</time>
      </trkpt>
      <trkpt lat="44.32041" lon="3.34914">
        <ele>532</ele>
        <time>2017-03-04T13:48:59Z</time>
      </trkpt>
      <trkpt lat="44.3204" lon="3.34909">
        <ele>530</ele>
        <time>2017-03-04T13:50:59Z</time>
      </trkpt>
      <trkpt lat="44.32036" lon="3.34902">
        <ele>526</ele>
        <time>2017-03-04T13:52:59Z</time>
      </trkpt>
      <trkpt lat="44.32034" lon="3.34896">
        <ele>523</ele>
        <time>2017-03-04T13:54:59Z</time>
      </trkpt>
      <trkpt lat="44.32036" lon="3.34892">
        <ele>522</ele>
        <time>2017-03-04T13:56:59Z</time>
      </trkpt>
      <trkpt lat="44.32037" lon="3.34891">
        <ele>521</ele>
        <time>2017-03-04T13:58:59Z</time>
      </trkpt>
      <trkpt lat="44.3204" lon="3.34891">
        <ele>521</ele>
        <time>2017-03-04T14:00:59Z</time>
      </trkpt>
      <trkpt lat="44.32045" lon="3.34896">
        <ele>524</ele>
        <time>2017-03-04T14:02:59Z</time>
      </trkpt>
      <trkpt lat="44.32055" lon="3.34899">
        <ele>527</ele>
        <time>2017-03-04T14:04:59Z</time>
      </trkpt>
      <trkpt lat="44.32065" lon="3.34899">
        <ele>528</ele>
        <time>2017-03-04T14:06:59Z</time>
      </trkpt>
      <trkpt lat="44.32073" lon="3.34897">
        <ele>528</ele>
        <time>2017-03-04T14:08:59Z</time>
      </trkpt>
      <trkpt lat="44.32083" lon="3.34894">
        <ele>527</ele>
        <time>2017-03-04T14:10:59Z</time>
      </trkpt>
      <trkpt lat="44.3209" lon="3.34889">
        <ele>526</ele>
        <time>2017-03-04T14:12:59Z</time>
      </trkpt>
      <trkpt lat="44.32097" lon="3.34882">
        <ele>523</ele>
        <time>2017-03-04T14:14:59Z</time>
      </trkpt>
      <trkpt lat="44.32101" lon="3.34876">
        <ele>520</ele>
        <time>2017-03-04T14:16:59Z</time>
      </trkpt>
      <trkpt lat="44.32107" lon="3.3487">
        <ele>518</ele>
        <time>2017-03-04T14:18:59Z</time>
      </trkpt>
      <trkpt lat="44.32118" lon="3.34861">
        <ele>515</ele>
        <time>2017-03-04T14:20:59Z</time>
      </trkpt>
      <trkpt lat="44.32129" lon="3.34853">
        <ele>512</ele>
        <time>2017-03-04T14:22:59Z</time>
      </trkpt>
      <trkpt lat="44.32137" lon="3.34849">
        <ele>511</ele>
        <time>2017-03-04T14:24:59Z</time>
      </trkpt>
      <trkpt lat="44.32147" lon="3.34847">
        <ele>511</ele>
        <time>2017-03-04T14:26:59Z</time>
      </trkpt>
      <trkpt lat="44.32158" lon="3.34846">
        <ele>511</ele>
        <time>2017-03-04T14:28:59Z</time>
      </trkpt>
      <trkpt lat="44.32167" lon="3.34844">
        <ele>511</ele>
        <time>2017-03-04T14:30:59Z</time>
      </trkpt>
      <trkpt lat="44.3219" lon="3.34829">
        <ele>504</ele>
        <time>2017-03-04T14:32:59Z</time>
      </trkpt>
      <trkpt lat="44.32204" lon="3.34818">
        <ele>499</ele>
        <time>2017-03-04T14:34:59Z</time>
      </trkpt>
      <trkpt lat="44.32213" lon="3.3481">
        <ele>496</ele>
        <time>2017-03-04T14:36:59Z</time>
      </trkpt>
      <trkpt lat="44.32223" lon="3.34807">
        <ele>495</ele>
        <time>2017-03-04T14:38:59Z</time>
      </trkpt>
      <trkpt lat="44.32227" lon="3.34805">
        <ele>494</ele>
        <time>2017-03-04T14:40:59Z</time>
      </trkpt>
      <trkpt lat="44.32232" lon="3.34805">
        <ele>494</ele>
        <time>2017-03-04T14:42:59Z</time>
      </trkpt>
      <trkpt lat="44.32233" lon="3.34804">
        <ele>493</ele>
        <time>2017-03-04T14:44:59Z</time>
      </trkpt>
      <trkpt lat="44.32233" lon="3.34801">
        <ele>492</ele>
        <time>2017-03-04T14:46:59Z</time>
      </trkpt>
      <trkpt lat="44.32231" lon="3.348">
        <ele>492</ele>
        <time>2017-03-04T14:48:59Z</time>
      </trkpt>
      <trkpt lat="44.3223" lon="3.34799">
        <ele>491</ele>
        <time>2017-03-04T14:50:59Z</time>
      </trkpt>
      <trkpt lat="44.32226" lon="3.34799">
        <ele>491</ele>
        <time>2017-03-04T14:52:59Z</time>
      </trkpt>
      <trkpt lat="44.32223" lon="3.34796">
        <ele>490</ele>
        <time>2017-03-04T14:54:59Z</time>
      </trkpt>
      <trkpt lat="44.32223" lon="3.34793">
        <ele>488</ele>
        <time>2017-03-04T14:56:59Z</time>
      </trkpt>
      <trkpt lat="44.32224" lon="3.34792">
        <ele>488</ele>
        <time>2017-03-04T14:58:59Z</time>
      </trkpt>
      <trkpt lat="44.32228" lon="3.34792">
        <ele>488</ele>
        <time>2017-03-04T15:00:59Z</time>
      </trkpt>
      <trkpt lat="44.32229" lon="3.34791">
        <ele>487</ele>
        <time>2017-03-04T15:02:59Z</time>
      </trkpt>
      <trkpt lat="44.3223" lon="3.34789">
        <ele>487</ele>
        <time>2017-03-04T15:04:59Z</time>
      </trkpt>
      <trkpt lat="44.32229" lon="3.34787">
        <ele>486</ele>
        <time>2017-03-04T15:06:59Z</time>
      </trkpt>
      <trkpt lat="44.32228" lon="3.34786">
        <ele>485</ele>
        <time>2017-03-04T15:08:59Z</time>
      </trkpt>
      <trkpt lat="44.32227" lon="3.34786">
        <ele>485</ele>
        <time>2017-03-04T15:10:59Z</time>
      </trkpt>
      <trkpt lat="44.32224" lon="3.34785">
        <ele>485</ele>
        <time>2017-03-04T15:12:59Z</time>
      </trkpt>
      <trkpt lat="44.3222" lon="3.34783">
        <ele>484</ele>
        <time>2017-03-04T15:14:59Z</time>
      </trkpt>
      <trkpt lat="44.32219" lon="3.34781">
        <ele>483</ele>
        <time>2017-03-04T15:16:59Z</time>
      </trkpt>
      <trkpt lat="44.32218" lon="3.3478">
        <ele>482</ele>
        <time>2017-03-04T15:18:59Z</time>
      </trkpt>
      <trkpt lat="44.32218" lon="3.34777">
        <ele>481</ele>
        <time>2017-03-04T15:20:59Z</time>
      </trkpt>
      <trkpt lat="44.32219" lon="3.34776">
        <ele>480</ele>
        <time>2017-03-04T15:22:59Z</time>
      </trkpt>
      <trkpt lat="44.3222" lon="3.34774">
        <ele>480</ele>
        <time>2017-03-04T15:24:59Z</time>
      </trkpt>
      <trkpt lat="44.32224" lon="3.34772">
        <ele>479</ele>
        <time>2017-03-04T15:26:59Z</time>
      </trkpt>
      <trkpt lat="44.32228" lon="3.34769">
        <ele>477</ele>
        <time>2017-03-04T15:28:59Z</time>
      </trkpt>
      <trkpt lat="44.32218" lon="3.34764">
        <ele>475</ele>
        <time>2017-03-04T15:30:59Z</time>
      </trkpt>
      <trkpt lat="44.32209" lon="3.3476">
        <ele>473</ele>
        <time>2017-03-04T15:32:59Z</time>
      </trkpt>
      <trkpt lat="44.32202" lon="3.34759">
        <ele>473</ele>
        <time>2017-03-04T15:34:59Z</time>
      </trkpt>
      <trkpt lat="44.32194" lon="3.34759">
        <ele>472</ele>
        <time>2017-03-04T15:36:59Z</time>
      </trkpt>
      <trkpt lat="44.32173" lon="3.34762">
        <ele>474</ele>
        <time>2017-03-04T15:38:59Z</time>
      </trkpt>
      <trkpt lat="44.32161" lon="3.34762">
        <ele>473</ele>
        <time>2017-03-04T15:40:59Z</time>
      </trkpt>
      <trkpt lat="44.32148" lon="3.34759">
        <ele>470</ele>
        <time>2017-03-04T15:42:59Z</time>
      </trkpt>
      <trkpt lat="44.32136" lon="3.34759">
        <ele>469</ele>
        <time>2017-03-04T15:44:59Z</time>
      </trkpt>
      <trkpt lat="44.32126" lon="3.3476">
        <ele>468</ele>
        <time>2017-03-04T15:46:59Z</time>
      </trkpt>
      <trkpt lat="44.32116" lon="3.3476">
        <ele>467</ele>
        <time>2017-03-04T15:48:59Z</time>
      </trkpt>
      <trkpt lat="44.32111" lon="3.34759">
        <ele>466</ele>
        <time>2017-03-04T15:50:59Z</time>
      </trkpt>
      <trkpt lat="44.32102" lon="3.34755">
        <ele>463</ele>
        <time>2017-03-04T15:52:59Z</time>
      </trkpt>
      <trkpt lat="44.32094" lon="3.34755">
        <ele>463</ele>
        <time>2017-03-04T15:54:59Z</time>
      </trkpt>
      <trkpt lat="44.32082" lon="3.34756">
        <ele>462</ele>
        <time>2017-03-04T15:56:59Z</time>
      </trkpt>
      <trkpt lat="44.32075" lon="3.34758">
        <ele>463</ele>
        <time>2017-03-04T15:58:59Z</time>
      </trkpt>
      <trkpt lat="44.32069" lon="3.34759">
        <ele>463</ele>
        <time>2017-03-04T16:00:59Z</time>
      </trkpt>
      <trkpt lat="44.32053" lon="3.34757">
        <ele>462</ele>
        <time>2017-03-04T16:02:59Z</time>
      </trkpt>
      <trkpt lat="44.32048" lon="3.34759">
        <ele>463</ele>
        <time>2017-03-04T16:04:59Z</time>
      </trkpt>
      <trkpt lat="44.32036" lon="3.3476">
        <ele>463</ele>
        <time>2017-03-04T16:06:59Z</time>
      </trkpt>
      <trkpt lat="44.3203" lon="3.34761">
        <ele>464</ele>
        <time>2017-03-04T16:08:59Z</time>
      </trkpt>
      <trkpt lat="44.32021" lon="3.34761">
        <ele>463</ele>
        <time>2017-03-04T16:10:59Z</time>
      </trkpt>
      <trkpt lat="44.32009" lon="3.34759">
        <ele>463</ele>
        <time>2017-03-04T16:12:59Z</time>
      </trkpt>
      <trkpt lat="44.32001" lon="3.34755">
        <ele>461</ele>
        <time>2017-03-04T16:14:59Z</time>
      </trkpt>
      <trkpt lat="44.31998" lon="3.34751">
        <ele>459</ele>
        <time>2017-03-04T16:16:59Z</time>
      </trkpt>
      <trkpt lat="44.31995" lon="3.34748">
        <ele>459</ele>
        <time>2017-03-04T16:18:59Z</time>
      </trkpt>
      <trkpt lat="44.31992" lon="3.34746">
        <ele>458</ele>
        <time>2017-03-04T16:20:59Z</time>
      </trkpt>
      <trkpt lat="44.31984" lon="3.34745">
        <ele>458</ele>
        <time>2017-03-04T16:22:59Z</time>
      </trkpt>
      <trkpt lat="44.31967" lon="3.3474">
        <ele>457</ele>
        <time>2017-03-04T16:24:59Z</time>
      </trkpt>
      <trkpt lat="44.31949" lon="3.34733">
        <ele>456</ele>
        <time>2017-03-04T16:26:59Z</time>
      </trkpt>
      <trkpt lat="44.31937" lon="3.3473">
        <ele>456</ele>
        <time>2017-03-04T16:28:59Z</time>
      </trkpt>
      <trkpt lat="44.31933" lon="3.3473">
        <ele>456</ele>
        <time>2017-03-04T16:30:59Z</time>
      </trkpt>
      <trkpt lat="44.3193" lon="3.34733">
        <ele>456</ele>
        <time>2017-03-04T16:32:59Z</time>
      </trkpt>
      <trkpt lat="44.31928" lon="3.34733">
        <ele>456</ele>
        <time>2017-03-04T16:34:59Z</time>
      </trkpt>
      <trkpt lat="44.31927" lon="3.34735">
        <ele>456</ele>
        <time>2017-03-04T16:36:59Z</time>
      </trkpt>
      <trkpt lat="44.31926" lon="3.34741">
        <ele>456</ele>
        <time>2017-03-04T16:38:59Z</time>
      </trkpt>
      <trkpt lat="44.3192" lon="3.34744">
        <ele>456</ele>
        <time>2017-03-04T16:40:59Z</time>
      </trkpt>
      <trkpt lat="44.31919" lon="3.34744">
        <ele>456</ele>
        <time>2017-03-04T16:42:59Z</time>
      </trkpt>
      <trkpt lat="44.31915" lon="3.34745">
        <ele>456</ele>
        <time>2017-03-04T16:44:59Z</time>
      </trkpt>
      <trkpt lat="44.31911" lon="3.34748">
        <ele>456</ele>
        <time>2017-03-04T16:46:59Z</time>
      </trkpt>
      <trkpt lat="44.31902" lon="3.34757">
        <ele>458</ele>
        <time>2017-03-04T16:48:59Z</time>
      </trkpt>
      <trkpt lat="44.31886" lon="3.34763">
        <ele>460</ele>
        <time>2017-03-04T16:50:59Z</time>
      </trkpt>
      <trkpt lat="44.31877" lon="3.34766">
        <ele>462</ele>
        <time>2017-03-04T16:52:59Z</time>
      </trkpt>
      <trkpt lat="44.31864" lon="3.34768">
        <ele>462</ele>
        <time>2017-03-04T16:54:59Z</time>
      </trkpt>
      <trkpt lat="44.31848" lon="3.34768">
        <ele>463</ele>
        <time>2017-03-04T16:56:59Z</time>
      </trkpt>
      <trkpt lat="44.31834" lon="3.34769">
        <ele>463</ele>
        <time>2017-03-04T16:58:59Z</time>
      </trkpt>
      <trkpt lat="44.31826" lon="3.34772">
        <ele>465</ele>
        <time>2017-03-04T17:00:59Z</time>
      </trkpt>
      <trkpt lat="44.31814" lon="3.3478">
        <ele>470</ele>
        <time>2017-03-04T17:02:59Z</time>
      </trkpt>
      <trkpt lat="44.31806" lon="3.34782">
        <ele>472</ele>
        <time>2017-03-04T17:04:59Z</time>
      </trkpt>
      <trkpt lat="44.31799" lon="3.34782">
        <ele>473</ele>
        <time>2017-03-04T17:06:59Z</time>
      </trkpt>
      <trkpt lat="44.31776" lon="3.34776">
        <ele>473</ele>
        <time>2017-03-04T17:08:59Z</time>
      </trkpt>
      <trkpt lat="44.31769" lon="3.34772">
        <ele>472</ele>
        <time>2017-03-04T17:10:59Z</time>
      </trkpt>
      <trkpt lat="44.31766" lon="3.34766">
        <ele>470</ele>
        <time>2017-03-04T17:12:59Z</time>
      </trkpt>
      <trkpt lat="44.31763" lon="3.34762">
        <ele>468</ele>
        <time>2017-03-04T17:14:59Z</time>
      </trkpt>
      <trkpt lat="44.31759" lon="3.34758">
        <ele>467</ele>
        <time>2017-03-04T17:16:59Z</time>
      </trkpt>
      <trkpt lat="44.31756" lon="3.34758">
        <ele>467</ele>
        <time>2017-03-04T17:18:59Z</time>
      </trkpt>
      <trkpt lat="44.31751" lon="3.34757">
        <ele>467</ele>
        <time>2017-03-04T17:20:59Z</time>
      </trkpt>
      <trkpt lat="44.3174" lon="3.34752">
        <ele>469</ele>
        <time>2017-03-04T17:22:59Z</time>
      </trkpt>
      <trkpt lat="44.31732" lon="3.34752">
        <ele>473</ele>
        <time>2017-03-04T17:24:59Z</time>
      </trkpt>
      <trkpt lat="44.31723" lon="3.3475">
        <ele>476</ele>
        <time>2017-03-04T17:26:59Z</time>
      </trkpt>
      <trkpt lat="44.3172" lon="3.34749">
        <ele>477</ele>
        <time>2017-03-04T17:28:59Z</time>
      </trkpt>
      <trkpt lat="44.31717" lon="3.34752">
        <ele>479</ele>
        <time>2017-03-04T17:30:59Z</time>
      </trkpt>
      <trkpt lat="44.31716" lon="3.34754">
        <ele>481</ele>
        <time>2017-03-04T17:32:59Z</time>
      </trkpt>
      <trkpt lat="44.31708" lon="3.34756">
        <ele>485</ele>
        <time>2017-03-04T17:34:59Z</time>
      </trkpt>
      <trkpt lat="44.31703" lon="3.34758">
        <ele>488</ele>
        <time>2017-03-04T17:36:59Z</time>
      </trkpt>
      <trkpt lat="44.31698" lon="3.34761">
        <ele>491</ele>
        <time>2017-03-04T17:38:59Z</time>
      </trkpt>
      <trkpt lat="44.31692" lon="3.3477">
        <ele>498</ele>
        <time>2017-03-04T17:40:59Z</time>
      </trkpt>
      <trkpt lat="44.31689" lon="3.34772">
        <ele>500</ele>
        <time>2017-03-04T17:42:59Z</time>
      </trkpt>
      <trkpt lat="44.31688" lon="3.34772">
        <ele>500</ele>
        <time>2017-03-04T17:44:59Z</time>
      </trkpt>
      <trkpt lat="44.31685" lon="3.34769">
        <ele>500</ele>
        <time>2017-03-04T17:46:59Z</time>
      </trkpt>
      <trkpt lat="44.31676" lon="3.34742">
        <ele>493</ele>
        <time>2017-03-04T17:48:59Z</time>
      </trkpt>
      <trkpt lat="44.31685" lon="3.34738">
        <ele>489</ele>
        <time>2017-03-04T17:50:59Z</time>
      </trkpt>
      <trkpt lat="44.31701" lon="3.34736">
        <ele>482</ele>
        <time>2017-03-04T17:52:59Z</time>
      </trkpt>
      <trkpt lat="44.31704" lon="3.34734">
        <ele>480</ele>
        <time>2017-03-04T17:54:59Z</time>
      </trkpt>
      <trkpt lat="44.31704" lon="3.34726">
        <ele>478</ele>
        <time>2017-03-04T17:56:59Z</time>
      </trkpt>
      <trkpt lat="44.31703" lon="3.34712">
        <ele>475</ele>
        <time>2017-03-04T17:58:59Z</time>
      </trkpt>
      <trkpt lat="44.31696" lon="3.34704">
        <ele>475</ele>
        <time>2017-03-04T18:00:59Z</time>
      </trkpt>
      <trkpt lat="44.31686" lon="3.34686">
        <ele>473</ele>
        <time>2017-03-04T18:02:59Z</time>
      </trkpt>
      <trkpt lat="44.31679" lon="3.34674">
        <ele>471</ele>
        <time>2017-03-04T18:04:59Z</time>
      </trkpt>
      <trkpt lat="44.31673" lon="3.34656">
        <ele>469</ele>
        <time>2017-03-04T18:06:59Z</time>
      </trkpt>
      <trkpt lat="44.31671" lon="3.34638">
        <ele>466</ele>
        <time>2017-03-04T18:08:59Z</time>
      </trkpt>
      <trkpt lat="44.31666" lon="3.34632">
        <ele>467</ele>
        <time>2017-03-04T18:10:59Z</time>
      </trkpt>
      <trkpt lat="44.31658" lon="3.34624">
        <ele>469</ele>
        <time>2017-03-04T18:12:59Z</time>
      </trkpt>
      <trkpt lat="44.31649" lon="3.34606">
        <ele>471</ele>
        <time>2017-03-04T18:14:59Z</time>
      </trkpt>
      <trkpt lat="44.3164" lon="3.34591">
        <ele>472</ele>
        <time>2017-03-04T18:16:59Z</time>
      </trkpt>
      <trkpt lat="44.31629" lon="3.34574">
        <ele>475</ele>
        <time>2017-03-04T18:18:59Z</time>
      </trkpt>
      <trkpt lat="44.31617" lon="3.34544">
        <ele>475</ele>
        <time>2017-03-04T18:20:59Z</time>
      </trkpt>
      <trkpt lat="44.31608" lon="3.34506">
        <ele>472</ele>
        <time>2017-03-04T18:22:59Z</time>
      </trkpt>
      <trkpt lat="44.31602" lon="3.34482">
        <ele>471</ele>
        <time>2017-03-04T18:24:59Z</time>
      </trkpt>
      <trkpt lat="44.31599" lon="3.34457">
        <ele>469</ele>
        <time>2017-03-04T18:26:59Z</time>
      </trkpt>
      <trkpt lat="44.31597" lon="3.34426">
        <ele>467</ele>
        <time>2017-03-04T18:28:59Z</time>
      </trkpt>
      <trkpt lat="44.31597" lon="3.34394">
        <ele>465</ele>
        <time>2017-03-04T18:30:59Z</time>
      </trkpt>
      <trkpt lat="44.31593" lon="3.34377">
        <ele>465</ele>
        <time>2017-03-04T18:32:59Z</time>
      </trkpt>
      <trkpt lat="44.31586" lon="3.34352">
        <ele>465</ele>
        <time>2017-03-04T18:34:59Z</time>
      </trkpt>
      <trkpt lat="44.31574" lon="3.34305">
        <ele>470</ele>
        <time>2017-03-04T18:36:59Z</time>
      </trkpt>
      <trkpt lat="44.31567" lon="3.34274">
        <ele>472</ele>
        <time>2017-03-04T18:38:59Z</time>
      </trkpt>
      <trkpt lat="44.31565" lon="3.34244">
        <ele>470</ele>
        <time>2017-03-04T18:40:59Z</time>
      </trkpt>
      <trkpt lat="44.31566" lon="3.34217">
        <ele>466</ele>
        <time>2017-03-04T18:42:59Z</time>
      </trkpt>
      <trkpt lat="44.31565" lon="3.34198">
        <ele>464</ele>
        <time>2017-03-04T18:44:59Z</time>
      </trkpt>
      <trkpt lat="44.31562" lon="3.3418">
        <ele>463</ele>
        <time>2017-03-04T18:46:59Z</time>
      </trkpt>
      <trkpt lat="44.31557" lon="3.34155">
        <ele>463</ele>
        <time>2017-03-04T18:48:59Z</time>
      </trkpt>
      <trkpt lat="44.31548" lon="3.34124">
        <ele>462</ele>
        <time>2017-03-04T18:50:59Z</time>
      </trkpt>
      <trkpt lat="44.31536" lon="3.34087">
        <ele>459</ele>
        <time>2017-03-04T18:52:59Z</time>
      </trkpt>
      <trkpt lat="44.31524" lon="3.34057">
        <ele>458</ele>
        <time>2017-03-04T18:54:59Z</time>
      </trkpt>
      <trkpt lat="44.31513" lon="3.34034">
        <ele>456</ele>
        <time>2017-03-04T18:56:59Z</time>
      </trkpt>
      <trkpt lat="44.31495" lon="3.34006">
        <ele>455</ele>
        <time>2017-03-04T18:58:59Z</time>
      </trkpt>
      <trkpt lat="44.31475" lon="3.33978">
        <ele>458</ele>
        <time>2017-03-04T19:00:59Z</time>
      </trkpt>
      <trkpt lat="44.31456" lon="3.33957">
        <ele>460</ele>
        <time>2017-03-04T19:02:59Z</time>
      </trkpt>
      <trkpt lat="44.31439" lon="3.3394">
        <ele>459</ele>
        <time>2017-03-04T19:04:59Z</time>
      </trkpt>
      <trkpt lat="44.31403" lon="3.33905">
        <ele>459</ele>
        <time>2017-03-04T19:06:59Z</time>
      </trkpt>
      <trkpt lat="44.31321" lon="3.33847">
        <ele>465</ele>
        <time>2017-03-04T19:08:59Z</time>
      </trkpt>
      <trkpt lat="44.31226" lon="3.33767">
        <ele>468</ele>
        <time>2017-03-04T19:10:59Z</time>
      </trkpt>
      <trkpt lat="44.31182" lon="3.33722">
        <ele>474</ele>
        <time>2017-03-04T19:12:59Z</time>
      </trkpt>
      <trkpt lat="44.31135" lon="3.33651">
        <ele>472</ele>
        <time>2017-03-04T19:14:59Z</time>
      </trkpt>
      <trkpt lat="44.31096" lon="3.33578">
        <ele>471</ele>
        <time>2017-03-04T19:16:59Z</time>
      </trkpt>
      <trkpt lat="44.31065" lon="3.33516">
        <ele>468</ele>
        <time>2017-03-04T19:18:59Z</time>
      </trkpt>
      <trkpt lat="44.31027" lon="3.33425">
        <ele>463</ele>
        <time>2017-03-04T19:20:59Z</time>
      </trkpt>
      <trkpt lat="44.31006" lon="3.33376">
        <ele>458</ele>
        <time>2017-03-04T19:22:59Z</time>
      </trkpt>
      <trkpt lat="44.30986" lon="3.33334">
        <ele>454</ele>
        <time>2017-03-04T19:24:59Z</time>
      </trkpt>
      <trkpt lat="44.30962" lon="3.33293">
        <ele>459</ele>
        <time>2017-03-04T19:26:59Z</time>
      </trkpt>
      <trkpt lat="44.30944" lon="3.33265">
        <ele>457</ele>
        <time>2017-03-04T19:28:59Z</time>
      </trkpt>
      <trkpt lat="44.30923" lon="3.3324">
        <ele>455</ele>
        <time>2017-03-04T19:30:59Z</time>
      </trkpt>
      <trkpt lat="44.30903" lon="3.33217">
        <ele>456</ele>
        <time>2017-03-04T19:32:59Z</time>
      </trkpt>
      <trkpt lat="44.30854" lon="3.33175">
        <ele>454</ele>
        <time>2017-03-04T19:34:59Z</time>
      </trkpt>
      <trkpt lat="44.30794" lon="3.33138">
        <ele>458</ele>
        <time>2017-03-04T19:36:59Z</time>
      </trkpt>
      <trkpt lat="44.30748" lon="3.33111">
        <ele>458</ele>
        <time>2017-03-04T19:38:59Z</time>
      </trkpt>
      <trkpt lat="44.3071" lon="3.33094">
        <ele>466</ele>
        <time>2017-03-04T19:40:59Z</time>
      </trkpt>
      <trkpt lat="44.30675" lon="3.33066">
        <ele>467</ele>
        <time>2017-03-04T19:42:59Z</time>
      </trkpt>
      <trkpt lat="44.30646" lon="3.33041">
        <ele>472</ele>
        <time>2017-03-04T19:44:59Z</time>
      </trkpt>
      <trkpt lat="44.30638" lon="3.33033">
        <ele>473</ele>
        <time>2017-03-04T19:46:59Z</time>
      </trkpt>
      <trkpt lat="44.30631" lon="3.33019">
        <ele>471</ele>
        <time>2017-03-04T19:48:59Z</time>
      </trkpt>
      <trkpt lat="44.30592" lon="3.3296">
        <ele>465</ele>
        <time>2017-03-04T19:50:59Z</time>
      </trkpt>
      <trkpt lat="44.30528" lon="3.32876">
        <ele>470</ele>
        <time>2017-03-04T19:52:59Z</time>
      </trkpt>
      <trkpt lat="44.30512" lon="3.32856">
        <ele>466</ele>
        <time>2017-03-04T19:54:59Z</time>
      </trkpt>
      <trkpt lat="44.30492" lon="3.32827">
        <ele>460</ele>
        <time>2017-03-04T19:56:59Z</time>
      </trkpt>
      <trkpt lat="44.30445" lon="3.32761">
        <ele>460</ele>
        <time>2017-03-04T19:58:59Z</time>
      </trkpt>
      <trkpt lat="44.30424" lon="3.32729">
        <ele>455</ele>
        <time>2017-03-04T20:00:59Z</time>
      </trkpt>
      <trkpt lat="44.30412" lon="3.327">
        <ele>453</ele>
        <time>2017-03-04T20:02:59Z</time>
      </trkpt>
      <trkpt lat="44.30401" lon="3.32676">
        <ele>453</ele>
        <time>2017-03-04T20:04:59Z</time>
      </trkpt>
      <trkpt lat="44.30368" lon="3.32628">
        <ele>458</ele>
        <time>2017-03-04T20:06:59Z</time>
      </trkpt>
      <trkpt lat="44.30343" lon="3.32593">
        <ele>456</ele>
        <time>2017-03-04T20:08:59Z</time>
      </trkpt>
      <trkpt lat="44.30301" lon="3.3253">
        <ele>460</ele>
        <time>2017-03-04T20:10:59Z</time>
      </trkpt>
      <trkpt lat="44.30284" lon="3.32505">
        <ele>458</ele>
        <time>2017-03-04T20:12:59Z</time>
      </trkpt>
      <trkpt lat="44.30274" lon="3.32493">
        <ele>457</ele>
        <time>2017-03-04T20:14:59Z</time>
      </trkpt>
      <trkpt lat="44.30268" lon="3.32485">
        <ele>457</ele>
        <time>2017-03-04T20:16:59Z</time>
      </trkpt>
      <trkpt lat="44.30244" lon="3.32459">
        <ele>455</ele>
        <time>2017-03-04T20:18:59Z</time>
      </trkpt>
      <trkpt lat="44.30233" lon="3.32446">
        <ele>456</ele>
        <time>2017-03-04T20:20:59Z</time>
      </trkpt>
      <trkpt lat="44.30224" lon="3.32436">
        <ele>457</ele>
        <time>2017-03-04T20:22:59Z</time>
      </trkpt>
      <trkpt lat="44.30212" lon="3.32424">
        <ele>456</ele>
        <time>2017-03-04T20:24:59Z</time>
      </trkpt>
      <trkpt lat="44.30204" lon="3.32415">
        <ele>455</ele>
        <time>2017-03-04T20:26:59Z</time>
      </trkpt>
      <trkpt lat="44.30195" lon="3.32403">
        <ele>456</ele>
        <time>2017-03-04T20:28:59Z</time>
      </trkpt>
      <trkpt lat="44.30185" lon="3.32388">
        <ele>456</ele>
        <time>2017-03-04T20:30:59Z</time>
      </trkpt>
      <trkpt lat="44.30176" lon="3.32376">
        <ele>454</ele>
        <time>2017-03-04T20:32:59Z</time>
      </trkpt>
      <trkpt lat="44.30161" lon="3.32358">
        <ele>454</ele>
        <time>2017-03-04T20:34:59Z</time>
      </trkpt>
      <trkpt lat="44.3006" lon="3.32205">
        <ele>462</ele>
        <time>2017-03-04T20:36:59Z</time>
      </trkpt>
      <trkpt lat="44.30056" lon="3.32198">
        <ele>463</ele>
        <time>2017-03-04T20:38:59Z</time>
      </trkpt>
      <trkpt lat="44.30052" lon="3.32193">
        <ele>465</ele>
        <time>2017-03-04T20:40:59Z</time>
      </trkpt>
      <trkpt lat="44.30048" lon="3.32189">
        <ele>467</ele>
        <time>2017-03-04T20:42:59Z</time>
      </trkpt>
      <trkpt lat="44.30038" lon="3.32181">
        <ele>471</ele>
        <time>2017-03-04T20:44:59Z</time>
      </trkpt>
      <trkpt lat="44.30043" lon="3.32193">
        <ele>470</ele>
        <time>2017-03-04T20:46:59Z</time>
      </trkpt>
      <trkpt lat="44.30061" lon="3.32238">
        <ele>466</ele>
        <time>2017-03-04T20:48:59Z</time>
      </trkpt>
      <trkpt lat="44.3007" lon="3.32258">
        <ele>463</ele>
        <time>2017-03-04T20:50:59Z</time>
      </trkpt>
      <trkpt lat="44.30075" lon="3.32272">
        <ele>464</ele>
        <time>2017-03-04T20:52:59Z</time>
      </trkpt>
      <trkpt lat="44.30079" lon="3.32282">
        <ele>464</ele>
        <time>2017-03-04T20:54:59Z</time>
      </trkpt>
      <trkpt lat="44.30083" lon="3.32297">
        <ele>466</ele>
        <time>2017-03-04T20:56:59Z</time>
      </trkpt>
      <trkpt lat="44.30085" lon="3.32307">
        <ele>468</ele>
        <time>2017-03-04T20:58:59Z</time>
      </trkpt>
      <trkpt lat="44.30087" lon="3.32321">
        <ele>472</ele>
        <time>2017-03-04T21:00:59Z</time>
      </trkpt>
      <trkpt lat="44.3009" lon="3.32332">
        <ele>474</ele>
        <time>2017-03-04T21:02:59Z</time>
      </trkpt>
      <trkpt lat="44.30091" lon="3.32338">
        <ele>476</ele>
        <time>2017-03-04T21:04:59Z</time>
      </trkpt>
      <trkpt lat="44.30091" lon="3.32341">
        <ele>477</ele>
        <time>2017-03-04T21:06:59Z</time>
      </trkpt>
      <trkpt lat="44.30089" lon="3.32345">
        <ele>480</ele>
        <time>2017-03-04T21:08:59Z</time>
      </trkpt>
      <trkpt lat="44.30086" lon="3.32345">
        <ele>481</ele>
        <time>2017-03-04T21:10:59Z</time>
      </trkpt>
      <trkpt lat="44.30084" lon="3.32343">
        <ele>481</ele>
        <time>2017-03-04T21:12:59Z</time>
      </trkpt>
      <trkpt lat="44.30083" lon="3.32341">
        <ele>480</ele>
        <time>2017-03-04T21:14:59Z</time>
      </trkpt>
      <trkpt lat="44.3008" lon="3.3233">
        <ele>478</ele>
        <time>2017-03-04T21:16:59Z</time>
      </trkpt>
      <trkpt lat="44.30079" lon="3.32324">
        <ele>476</ele>
        <time>2017-03-04T21:18:59Z</time>
      </trkpt>
      <trkpt lat="44.30077" lon="3.32317">
        <ele>475</ele>
        <time>2017-03-04T21:20:59Z</time>
      </trkpt>
      <trkpt lat="44.3007" lon="3.32297">
        <ele>474</ele>
        <time>2017-03-04T21:22:59Z</time>
      </trkpt>
      <trkpt lat="44.30059" lon="3.32272">
        <ele>475</ele>
        <time>2017-03-04T21:24:59Z</time>
      </trkpt>
      <trkpt lat="44.30049" lon="3.32248">
        <ele>477</ele>
        <time>2017-03-04T21:26:59Z</time>
      </trkpt>
      <trkpt lat="44.30041" lon="3.3223">
        <ele>479</ele>
        <time>2017-03-04T21:28:59Z</time>
      </trkpt>
      <trkpt lat="44.30039" lon="3.32227">
        <ele>480</ele>
        <time>2017-03-04T21:30:59Z</time>
      </trkpt>
      <trkpt lat="44.30038" lon="3.32226">
        <ele>480</ele>
        <time>2017-03-04T21:32:59Z</time>
      </trkpt>
      <trkpt lat="44.30036" lon="3.32225">
        <ele>481</ele>
        <time>2017-03-04T21:34:59Z</time>
      </trkpt>
      <trkpt lat="44.30034" lon="3.32227">
        <ele>483</ele>
        <time>2017-03-04T21:36:59Z</time>
      </trkpt>
      <trkpt lat="44.30033" lon="3.32231">
        <ele>485</ele>
        <time>2017-03-04T21:38:59Z</time>
      </trkpt>
      <trkpt lat="44.30033" lon="3.32235">
        <ele>486</ele>
        <time>2017-03-04T21:40:59Z</time>
      </trkpt>
      <trkpt lat="44.30034" lon="3.32238">
        <ele>486</ele>
        <time>2017-03-04T21:42:59Z</time>
      </trkpt>
      <trkpt lat="44.30036" lon="3.32242">
        <ele>485</ele>
        <time>2017-03-04T21:44:59Z</time>
      </trkpt>
      <trkpt lat="44.3004" lon="3.32253">
        <ele>484</ele>
        <time>2017-03-04T21:46:59Z</time>
      </trkpt>
      <trkpt lat="44.30043" lon="3.3226">
        <ele>483</ele>
        <time>2017-03-04T21:48:59Z</time>
      </trkpt>
      <trkpt lat="44.30045" lon="3.32267">
        <ele>483</ele>
        <time>2017-03-04T21:50:59Z</time>
      </trkpt>
      <trkpt lat="44.30052" lon="3.32285">
        <ele>482</ele>
        <time>2017-03-04T21:52:59Z</time>
      </trkpt>
      <trkpt lat="44.30054" lon="3.32297">
        <ele>484</ele>
        <time>2017-03-04T21:54:59Z</time>
      </trkpt>
      <trkpt lat="44.30053" lon="3.32305">
        <ele>486</ele>
        <time>2017-03-04T21:56:59Z</time>
      </trkpt>
      <trkpt lat="44.30049" lon="3.32324">
        <ele>492</ele>
        <time>2017-03-04T21:58:59Z</time>
      </trkpt>
      <trkpt lat="44.30049" lon="3.32331">
        <ele>494</ele>
        <time>2017-03-04T22:00:59Z</time>
      </trkpt>
      <trkpt lat="44.3005" lon="3.3234">
        <ele>496</ele>
        <time>2017-03-04T22:02:59Z</time>
      </trkpt>
      <trkpt lat="44.30052" lon="3.32349">
        <ele>498</ele>
        <time>2017-03-04T22:04:59Z</time>
      </trkpt>
      <trkpt lat="44.30054" lon="3.32362">
        <ele>501</ele>
        <time>2017-03-04T22:06:59Z</time>
      </trkpt>
      <trkpt lat="44.30053" lon="3.32365">
        <ele>502</ele>
        <time>2017-03-04T22:08:59Z</time>
      </trkpt>
      <trkpt lat="44.30052" lon="3.32367">
        <ele>503</ele>
        <time>2017-03-04T22:10:59Z</time>
      </trkpt>
      <trkpt lat="44.3005" lon="3.32369">
        <ele>505</ele>
        <time>2017-03-04T22:12:59Z</time>
      </trkpt>
      <trkpt lat="44.30048" lon="3.32369">
        <ele>505</ele>
        <time>2017-03-04T22:14:59Z</time>
      </trkpt>
      <trkpt lat="44.30046" lon="3.32368">
        <ele>506</ele>
        <time>2017-03-04T22:16:59Z</time>
      </trkpt>
      <trkpt lat="44.30045" lon="3.32367">
        <ele>506</ele>
        <time>2017-03-04T22:18:59Z</time>
      </trkpt>
      <trkpt lat="44.30044" lon="3.32364">
        <ele>506</ele>
        <time>2017-03-04T22:20:59Z</time>
      </trkpt>
      <trkpt lat="44.3004" lon="3.32356">
        <ele>505</ele>
        <time>2017-03-04T22:22:59Z</time>
      </trkpt>
      <trkpt lat="44.3004" lon="3.32351">
        <ele>504</ele>
        <time>2017-03-04T22:24:59Z</time>
      </trkpt>
      <trkpt lat="44.30039" lon="3.32348">
        <ele>503</ele>
        <time>2017-03-04T22:26:59Z</time>
      </trkpt>
      <trkpt lat="44.30039" lon="3.32334">
        <ele>500</ele>
        <time>2017-03-04T22:28:59Z</time>
      </trkpt>
      <trkpt lat="44.30041" lon="3.32321">
        <ele>496</ele>
        <time>2017-03-04T22:30:59Z</time>
      </trkpt>
      <trkpt lat="44.30042" lon="3.32316">
        <ele>495</ele>
        <time>2017-03-04T22:32:59Z</time>
      </trkpt>
      <trkpt lat="44.30042" lon="3.3231">
        <ele>493</ele>
        <time>2017-03-04T22:34:59Z</time>
      </trkpt>
      <trkpt lat="44.30039" lon="3.32307">
        <ele>495</ele>
        <time>2017-03-04T22:36:59Z</time>
      </trkpt>
      <trkpt lat="44.30038" lon="3.32307">
        <ele>495</ele>
        <time>2017-03-04T22:38:59Z</time>
      </trkpt>
      <trkpt lat="44.30035" lon="3.3231">
        <ele>497</ele>
        <time>2017-03-04T22:40:59Z</time>
      </trkpt>
      <trkpt lat="44.30035" lon="3.32313">
        <ele>498</ele>
        <time>2017-03-04T22:42:59Z</time>
      </trkpt>
      <trkpt lat="44.30034" lon="3.32321">
        <ele>500</ele>
        <time>2017-03-04T22:44:59Z</time>
      </trkpt>
      <trkpt lat="44.3003" lon="3.32347">
        <ele>507</ele>
        <time>2017-03-04T22:46:59Z</time>
      </trkpt>
      <trkpt lat="44.3003" lon="3.32359">
        <ele>510</ele>
        <time>2017-03-04T22:48:59Z</time>
      </trkpt>
      <trkpt lat="44.30031" lon="3.32366">
        <ele>511</ele>
        <time>2017-03-04T22:50:59Z</time>
      </trkpt>
      <trkpt lat="44.30032" lon="3.32371">
        <ele>512</ele>
        <time>2017-03-04T22:52:59Z</time>
      </trkpt>
      <trkpt lat="44.30033" lon="3.32374">
        <ele>512</ele>
        <time>2017-03-04T22:54:59Z</time>
      </trkpt>
      <trkpt lat="44.30035" lon="3.32378">
        <ele>513</ele>
        <time>2017-03-04T22:56:59Z</time>
      </trkpt>
      <trkpt lat="44.30037" lon="3.32381">
        <ele>513</ele>
        <time>2017-03-04T22:58:59Z</time>
      </trkpt>
      <trkpt lat="44.3004" lon="3.32384">
        <ele>513</ele>
        <time>2017-03-04T23:00:59Z</time>
      </trkpt>
      <trkpt lat="44.30042" lon="3.32387">
        <ele>513</ele>
        <time>2017-03-04T23:02:59Z</time>
      </trkpt>
      <trkpt lat="44.30044" lon="3.32388">
        <ele>512</ele>
        <time>2017-03-04T23:04:59Z</time>
      </trkpt>
      <trkpt lat="44.30045" lon="3.32389">
        <ele>512</ele>
        <time>2017-03-04T23:06:59Z</time>
      </trkpt>
      <trkpt lat="44.3005" lon="3.32389">
        <ele>511</ele>
        <time>2017-03-04T23:08:59Z</time>
      </trkpt>
      <trkpt lat="44.30054" lon="3.3239">
        <ele>510</ele>
        <time>2017-03-04T23:10:59Z</time>
      </trkpt>
      <trkpt lat="44.30058" lon="3.32389">
        <ele>509</ele>
        <time>2017-03-04T23:12:59Z</time>
      </trkpt>
      <trkpt lat="44.30067" lon="3.32391">
        <ele>507</ele>
        <time>2017-03-04T23:14:59Z</time>
      </trkpt>
      <trkpt lat="44.30076" lon="3.32394">
        <ele>505</ele>
        <time>2017-03-04T23:16:59Z</time>
      </trkpt>
      <trkpt lat="44.30083" lon="3.32397">
        <ele>505</ele>
        <time>2017-03-04T23:18:59Z</time>
      </trkpt>
      <trkpt lat="44.30093" lon="3.324">
        <ele>501</ele>
        <time>2017-03-04T23:20:59Z</time>
      </trkpt>
      <trkpt lat="44.30094" lon="3.32401">
        <ele>500</ele>
        <time>2017-03-04T23:22:59Z</time>
      </trkpt>
      <trkpt lat="44.30096" lon="3.32405">
        <ele>501</ele>
        <time>2017-03-04T23:24:59Z</time>
      </trkpt>
      <trkpt lat="44.30094" lon="3.32409">
        <ele>504</ele>
        <time>2017-03-04T23:26:59Z</time>
      </trkpt>
      <trkpt lat="44.30093" lon="3.3241">
        <ele>505</ele>
        <time>2017-03-04T23:28:59Z</time>
      </trkpt>
      <trkpt lat="44.3009" lon="3.3241">
        <ele>506</ele>
        <time>2017-03-04T23:30:59Z</time>
      </trkpt>
      <trkpt lat="44.30074" lon="3.32404">
        <ele>510</ele>
        <time>2017-03-04T23:32:59Z</time>
      </trkpt>
      <trkpt lat="44.30072" lon="3.32403">
        <ele>510</ele>
        <time>2017-03-04T23:34:59Z</time>
      </trkpt>
      <trkpt lat="44.30063" lon="3.32403">
        <ele>512</ele>
        <time>2017-03-04T23:36:59Z</time>
      </trkpt>
      <trkpt lat="44.30053" lon="3.32405">
        <ele>515</ele>
        <time>2017-03-04T23:38:59Z</time>
      </trkpt>
      <trkpt lat="44.30047" lon="3.32408">
        <ele>517</ele>
        <time>2017-03-04T23:40:59Z</time>
      </trkpt>
      <trkpt lat="44.30044" lon="3.3241">
        <ele>519</ele>
        <time>2017-03-04T23:42:59Z</time>
      </trkpt>
      <trkpt lat="44.30036" lon="3.32414">
        <ele>521</ele>
        <time>2017-03-04T23:44:59Z</time>
      </trkpt>
      <trkpt lat="44.30027" lon="3.32416">
        <ele>524</ele>
        <time>2017-03-04T23:46:59Z</time>
      </trkpt>
      <trkpt lat="44.30018" lon="3.32416">
        <ele>525</ele>
        <time>2017-03-04T23:48:59Z</time>
      </trkpt>
      <trkpt lat="44.30012" lon="3.32415">
        <ele>526</ele>
        <time>2017-03-04T23:50:59Z</time>
      </trkpt>
      <trkpt lat="44.30007" lon="3.32413">
        <ele>527</ele>
        <time>2017-03-04T23:52:59Z</time>
      </trkpt>
      <trkpt lat="44.30003" lon="3.3241">
        <ele>528</ele>
        <time>2017-03-04T23:54:59Z</time>
      </trkpt>
      <trkpt lat="44.29993" lon="3.32404">
        <ele>530</ele>
        <time>2017-03-04T23:56:59Z</time>
      </trkpt>
      <trkpt lat="44.29988" lon="3.32399">
        <ele>531</ele>
        <time>2017-03-04T23:58:59Z</time>
      </trkpt>
      <trkpt lat="44.29985" lon="3.32395">
        <ele>532</ele>
        <time>2017-03-05T00:00:59Z</time>
      </trkpt>
      <trkpt lat="44.2998" lon="3.32386">
        <ele>533</ele>
        <time>2017-03-05T00:02:59Z</time>
      </trkpt>
      <trkpt lat="44.29975" lon="3.32374">
        <ele>535</ele>
        <time>2017-03-05T00:04:59Z</time>
      </trkpt>
      <trkpt lat="44.29975" lon="3.3237">
        <ele>534</ele>
        <time>2017-03-05T00:06:59Z</time>
      </trkpt>
      <trkpt lat="44.29974" lon="3.32365">
        <ele>534</ele>
        <time>2017-03-05T00:08:59Z</time>
      </trkpt>
      <trkpt lat="44.29974" lon="3.32358">
        <ele>534</ele>
        <time>2017-03-05T00:10:59Z</time>
      </trkpt>
      <trkpt lat="44.29977" lon="3.32344">
        <ele>532</ele>
        <time>2017-03-05T00:12:59Z</time>
      </trkpt>
      <trkpt lat="44.2998" lon="3.32338">
        <ele>530</ele>
        <time>2017-03-05T00:14:59Z</time>
      </trkpt>
      <trkpt lat="44.29983" lon="3.32333">
        <ele>528</ele>
        <time>2017-03-05T00:16:59Z</time>
      </trkpt>
      <trkpt lat="44.29989" lon="3.32325">
        <ele>524</ele>
        <time>2017-03-05T00:18:59Z</time>
      </trkpt>
      <trkpt lat="44.29998" lon="3.32312">
        <ele>519</ele>
        <time>2017-03-05T00:20:59Z</time>
      </trkpt>
      <trkpt lat="44.29999" lon="3.3231">
        <ele>518</ele>
        <time>2017-03-05T00:22:59Z</time>
      </trkpt>
      <trkpt lat="44.3" lon="3.32307">
        <ele>517</ele>
        <time>2017-03-05T00:24:59Z</time>
      </trkpt>
      <trkpt lat="44.3" lon="3.32301">
        <ele>517</ele>
        <time>2017-03-05T00:26:59Z</time>
      </trkpt>
      <trkpt lat="44.29996" lon="3.32297">
        <ele>519</ele>
        <time>2017-03-05T00:28:59Z</time>
      </trkpt>
      <trkpt lat="44.29993" lon="3.32298">
        <ele>521</ele>
        <time>2017-03-05T00:30:59Z</time>
      </trkpt>
      <trkpt lat="44.29991" lon="3.323">
        <ele>522</ele>
        <time>2017-03-05T00:32:59Z</time>
      </trkpt>
      <trkpt lat="44.29988" lon="3.32307">
        <ele>524</ele>
        <time>2017-03-05T00:34:59Z</time>
      </trkpt>
      <trkpt lat="44.2998" lon="3.32319">
        <ele>529</ele>
        <time>2017-03-05T00:36:59Z</time>
      </trkpt>
      <trkpt lat="44.29967" lon="3.32334">
        <ele>536</ele>
        <time>2017-03-05T00:38:59Z</time>
      </trkpt>
      <trkpt lat="44.29953" lon="3.32351">
        <ele>544</ele>
        <time>2017-03-05T00:40:59Z</time>
      </trkpt>
      <trkpt lat="44.2995" lon="3.32355">
        <ele>545</ele>
        <time>2017-03-05T00:42:59Z</time>
      </trkpt>
      <trkpt lat="44.29946" lon="3.32364">
        <ele>547</ele>
        <time>2017-03-05T00:44:59Z</time>
      </trkpt>
      <trkpt lat="44.29943" lon="3.32373">
        <ele>548</ele>
        <time>2017-03-05T00:46:59Z</time>
      </trkpt>
      <trkpt lat="44.29941" lon="3.32391">
        <ele>549</ele>
        <time>2017-03-05T00:48:59Z</time>
      </trkpt>
      <trkpt lat="44.29942" lon="3.324">
        <ele>549</ele>
        <time>2017-03-05T00:50:59Z</time>
      </trkpt>
      <trkpt lat="44.29942" lon="3.32406">
        <ele>549</ele>
        <time>2017-03-05T00:52:59Z</time>
      </trkpt>
      <trkpt lat="44.29943" lon="3.32412">
        <ele>548</ele>
        <time>2017-03-05T00:54:59Z</time>
      </trkpt>
      <trkpt lat="44.29949" lon="3.32429">
        <ele>550</ele>
        <time>2017-03-05T00:56:59Z</time>
      </trkpt>
      <trkpt lat="44.29954" lon="3.32437">
        <ele>551</ele>
        <time>2017-03-05T00:58:59Z</time>
      </trkpt>
      <trkpt lat="44.29961" lon="3.32444">
        <ele>552</ele>
        <time>2017-03-05T01:00:59Z</time>
      </trkpt>
      <trkpt lat="44.29966" lon="3.32447">
        <ele>551</ele>
        <time>2017-03-05T01:02:59Z</time>
      </trkpt>
      <trkpt lat="44.29971" lon="3.32449">
        <ele>551</ele>
        <time>2017-03-05T01:04:59Z</time>
      </trkpt>
      <trkpt lat="44.29987" lon="3.32449">
        <ele>546</ele>
        <time>2017-03-05T01:06:59Z</time>
      </trkpt>
      <trkpt lat="44.29993" lon="3.3245">
        <ele>545</ele>
        <time>2017-03-05T01:08:59Z</time>
      </trkpt>
      <trkpt lat="44.29998" lon="3.32452">
        <ele>545</ele>
        <time>2017-03-05T01:10:59Z</time>
      </trkpt>
      <trkpt lat="44.30004" lon="3.32455">
        <ele>545</ele>
        <time>2017-03-05T01:12:59Z</time>
      </trkpt>
      <trkpt lat="44.30021" lon="3.32465">
        <ele>546</ele>
        <time>2017-03-05T01:14:59Z</time>
      </trkpt>
      <trkpt lat="44.3003" lon="3.32469">
        <ele>546</ele>
        <time>2017-03-05T01:16:59Z</time>
      </trkpt>
      <trkpt lat="44.30037" lon="3.32471">
        <ele>546</ele>
        <time>2017-03-05T01:18:59Z</time>
      </trkpt>
      <trkpt lat="44.30046" lon="3.32472">
        <ele>544</ele>
        <time>2017-03-05T01:20:59Z</time>
      </trkpt>
      <trkpt lat="44.30064" lon="3.32476">
        <ele>543</ele>
        <time>2017-03-05T01:22:59Z</time>
      </trkpt>
      <trkpt lat="44.30075" lon="3.3248">
        <ele>543</ele>
        <time>2017-03-05T01:24:59Z</time>
      </trkpt>
      <trkpt lat="44.30077" lon="3.32482">
        <ele>543</ele>
        <time>2017-03-05T01:26:59Z</time>
      </trkpt>
      <trkpt lat="44.30079" lon="3.32483">
        <ele>543</ele>
        <time>2017-03-05T01:28:59Z</time>
      </trkpt>
      <trkpt lat="44.30079" lon="3.32485">
        <ele>544</ele>
        <time>2017-03-05T01:30:59Z</time>
      </trkpt>
      <trkpt lat="44.3008" lon="3.32488">
        <ele>545</ele>
        <time>2017-03-05T01:32:59Z</time>
      </trkpt>
      <trkpt lat="44.30079" lon="3.32489">
        <ele>546</ele>
        <time>2017-03-05T01:34:59Z</time>
      </trkpt>
      <trkpt lat="44.30077" lon="3.32493">
        <ele>548</ele>
        <time>2017-03-05T01:36:59Z</time>
      </trkpt>
      <trkpt lat="44.30075" lon="3.32493">
        <ele>548</ele>
        <time>2017-03-05T01:38:59Z</time>
      </trkpt>
      <trkpt lat="44.30061" lon="3.32487">
        <ele>548</ele>
        <time>2017-03-05T01:40:59Z</time>
      </trkpt>
      <trkpt lat="44.30057" lon="3.32486">
        <ele>549</ele>
        <time>2017-03-05T01:42:59Z</time>
      </trkpt>
      <trkpt lat="44.3005" lon="3.32486">
        <ele>550</ele>
        <time>2017-03-05T01:44:59Z</time>
      </trkpt>
      <trkpt lat="44.30037" lon="3.32487">
        <ele>553</ele>
        <time>2017-03-05T01:46:59Z</time>
      </trkpt>
      <trkpt lat="44.30013" lon="3.32487">
        <ele>557</ele>
        <time>2017-03-05T01:48:59Z</time>
      </trkpt>
      <trkpt lat="44.30003" lon="3.32486">
        <ele>558</ele>
        <time>2017-03-05T01:50:59Z</time>
      </trkpt>
      <trkpt lat="44.29993" lon="3.32488">
        <ele>561</ele>
        <time>2017-03-05T01:52:59Z</time>
      </trkpt>
      <trkpt lat="44.29986" lon="3.32489">
        <ele>563</ele>
        <time>2017-03-05T01:54:59Z</time>
      </trkpt>
      <trkpt lat="44.29965" lon="3.32499">
        <ele>570</ele>
        <time>2017-03-05T01:56:59Z</time>
      </trkpt>
      <trkpt lat="44.29949" lon="3.32508">
        <ele>577</ele>
        <time>2017-03-05T01:58:59Z</time>
      </trkpt>
      <trkpt lat="44.29941" lon="3.32511">
        <ele>579</ele>
        <time>2017-03-05T02:00:59Z</time>
      </trkpt>
      <trkpt lat="44.29934" lon="3.32509">
        <ele>579</ele>
        <time>2017-03-05T02:02:59Z</time>
      </trkpt>
      <trkpt lat="44.29929" lon="3.32508">
        <ele>579</ele>
        <time>2017-03-05T02:04:59Z</time>
      </trkpt>
      <trkpt lat="44.29923" lon="3.32504">
        <ele>579</ele>
        <time>2017-03-05T02:06:59Z</time>
      </trkpt>
      <trkpt lat="44.2992" lon="3.325">
        <ele>577</ele>
        <time>2017-03-05T02:08:59Z</time>
      </trkpt>
      <trkpt lat="44.29906" lon="3.32478">
        <ele>577</ele>
        <time>2017-03-05T02:10:59Z</time>
      </trkpt>
      <trkpt lat="44.29902" lon="3.32474">
        <ele>578</ele>
        <time>2017-03-05T02:12:59Z</time>
      </trkpt>
      <trkpt lat="44.29894" lon="3.32465">
        <ele>579</ele>
        <time>2017-03-05T02:14:59Z</time>
      </trkpt>
      <trkpt lat="44.29883" lon="3.32456">
        <ele>583</ele>
        <time>2017-03-05T02:16:59Z</time>
      </trkpt>
      <trkpt lat="44.29879" lon="3.32452">
        <ele>584</ele>
        <time>2017-03-05T02:18:59Z</time>
      </trkpt>
      <trkpt lat="44.2987" lon="3.32442">
        <ele>586</ele>
        <time>2017-03-05T02:20:59Z</time>
      </trkpt>
      <trkpt lat="44.29866" lon="3.32437">
        <ele>587</ele>
        <time>2017-03-05T02:22:59Z</time>
      </trkpt>
      <trkpt lat="44.29862" lon="3.3243">
        <ele>587</ele>
        <time>2017-03-05T02:24:59Z</time>
      </trkpt>
      <trkpt lat="44.29857" lon="3.32422">
        <ele>588</ele>
        <time>2017-03-05T02:26:59Z</time>
      </trkpt>
      <trkpt lat="44.29854" lon="3.32414">
        <ele>589</ele>
        <time>2017-03-05T02:28:59Z</time>
      </trkpt>
      <trkpt lat="44.29853" lon="3.32408">
        <ele>590</ele>
        <time>2017-03-05T02:30:59Z</time>
      </trkpt>
      <trkpt lat="44.2985" lon="3.32396">
        <ele>592</ele>
        <time>2017-03-05T02:32:59Z</time>
      </trkpt>
      <trkpt lat="44.29846" lon="3.32392">
        <ele>594</ele>
        <time>2017-03-05T02:34:59Z</time>
      </trkpt>
      <trkpt lat="44.29844" lon="3.32393">
        <ele>595</ele>
        <time>2017-03-05T02:36:59Z</time>
      </trkpt>
      <trkpt lat="44.29843" lon="3.32394">
        <ele>596</ele>
        <time>2017-03-05T02:38:59Z</time>
      </trkpt>
      <trkpt lat="44.29841" lon="3.32397">
        <ele>597</ele>
        <time>2017-03-05T02:40:59Z</time>
      </trkpt>
      <trkpt lat="44.29841" lon="3.32399">
        <ele>596</ele>
        <time>2017-03-05T02:42:59Z</time>
      </trkpt>
      <trkpt lat="44.29842" lon="3.32403">
        <ele>596</ele>
        <time>2017-03-05T02:44:59Z</time>
      </trkpt>
      <trkpt lat="44.29846" lon="3.32415">
        <ele>593</ele>
        <time>2017-03-05T02:46:59Z</time>
      </trkpt>
      <trkpt lat="44.29851" lon="3.32433">
        <ele>593</ele>
        <time>2017-03-05T02:48:59Z</time>
      </trkpt>
      <trkpt lat="44.29853" lon="3.32442">
        <ele>594</ele>
        <time>2017-03-05T02:50:59Z</time>
      </trkpt>
      <trkpt lat="44.29856" lon="3.32452">
        <ele>594</ele>
        <time>2017-03-05T02:52:59Z</time>
      </trkpt>
      <trkpt lat="44.29863" lon="3.32468">
        <ele>594</ele>
        <time>2017-03-05T02:54:59Z</time>
      </trkpt>
      <trkpt lat="44.29871" lon="3.3248">
        <ele>593</ele>
        <time>2017-03-05T02:56:59Z</time>
      </trkpt>
      <trkpt lat="44.29875" lon="3.32487">
        <ele>593</ele>
        <time>2017-03-05T02:58:59Z</time>
      </trkpt>
      <trkpt lat="44.29885" lon="3.32502">
        <ele>592</ele>
        <time>2017-03-05T03:00:59Z</time>
      </trkpt>
      <trkpt lat="44.29888" lon="3.32508">
        <ele>593</ele>
        <time>2017-03-05T03:02:59Z</time>
      </trkpt>
      <trkpt lat="44.29889" lon="3.32515">
        <ele>595</ele>
        <time>2017-03-05T03:04:59Z</time>
      </trkpt>
      <trkpt lat="44.29891" lon="3.32523">
        <ele>597</ele>
        <time>2017-03-05T03:06:59Z</time>
      </trkpt>
      <trkpt lat="44.29894" lon="3.32538">
        <ele>602</ele>
        <time>2017-03-05T03:08:59Z</time>
      </trkpt>
      <trkpt lat="44.29897" lon="3.32548">
        <ele>605</ele>
        <time>2017-03-05T03:10:59Z</time>
      </trkpt>
      <trkpt lat="44.299" lon="3.32554">
        <ele>606</ele>
        <time>2017-03-05T03:12:59Z</time>
      </trkpt>
      <trkpt lat="44.29904" lon="3.3256">
        <ele>607</ele>
        <time>2017-03-05T03:14:59Z</time>
      </trkpt>
      <trkpt lat="44.29907" lon="3.32565">
        <ele>608</ele>
        <time>2017-03-05T03:16:59Z</time>
      </trkpt>
      <trkpt lat="44.29912" lon="3.32568">
        <ele>607</ele>
        <time>2017-03-05T03:18:59Z</time>
      </trkpt>
      <trkpt lat="44.29921" lon="3.3257">
        <ele>606</ele>
        <time>2017-03-05T03:20:59Z</time>
      </trkpt>
      <trkpt lat="44.29933" lon="3.32572">
        <ele>607</ele>
        <time>2017-03-05T03:22:59Z</time>
      </trkpt>
      <trkpt lat="44.29952" lon="3.32568">
        <ele>604</ele>
        <time>2017-03-05T03:24:59Z</time>
      </trkpt>
      <trkpt lat="44.29977" lon="3.32562">
        <ele>599</ele>
        <time>2017-03-05T03:26:59Z</time>
      </trkpt>
      <trkpt lat="44.29983" lon="3.32561">
        <ele>598</ele>
        <time>2017-03-05T03:28:59Z</time>
      </trkpt>
      <trkpt lat="44.29994" lon="3.32561">
        <ele>598</ele>
        <time>2017-03-05T03:30:59Z</time>
      </trkpt>
      <trkpt lat="44.30002" lon="3.32562">
        <ele>597</ele>
        <time>2017-03-05T03:32:59Z</time>
      </trkpt>
      <trkpt lat="44.30009" lon="3.32564">
        <ele>596</ele>
        <time>2017-03-05T03:34:59Z</time>
      </trkpt>
      <trkpt lat="44.30017" lon="3.32568">
        <ele>596</ele>
        <time>2017-03-05T03:36:59Z</time>
      </trkpt>
      <trkpt lat="44.30021" lon="3.32572">
        <ele>597</ele>
        <time>2017-03-05T03:38:59Z</time>
      </trkpt>
      <trkpt lat="44.30025" lon="3.32577">
        <ele>598</ele>
        <time>2017-03-05T03:40:59Z</time>
      </trkpt>
      <trkpt lat="44.30029" lon="3.32583">
        <ele>599</ele>
        <time>2017-03-05T03:42:59Z</time>
      </trkpt>
      <trkpt lat="44.30032" lon="3.32588">
        <ele>601</ele>
        <time>2017-03-05T03:44:59Z</time>
      </trkpt>
      <trkpt lat="44.30035" lon="3.32594">
        <ele>603</ele>
        <time>2017-03-05T03:46:59Z</time>
      </trkpt>
      <trkpt lat="44.30039" lon="3.32601">
        <ele>605</ele>
        <time>2017-03-05T03:48:59Z</time>
      </trkpt>
      <trkpt lat="44.30053" lon="3.32629">
        <ele>613</ele>
        <time>2017-03-05T03:50:59Z</time>
      </trkpt>
      <trkpt lat="44.30057" lon="3.32635">
        <ele>615</ele>
        <time>2017-03-05T03:52:59Z</time>
      </trkpt>
      <trkpt lat="44.30066" lon="3.32644">
        <ele>616</ele>
        <time>2017-03-05T03:54:59Z</time>
      </trkpt>
      <trkpt lat="44.30072" lon="3.32649">
        <ele>616</ele>
        <time>2017-03-05T03:56:59Z</time>
      </trkpt>
      <trkpt lat="44.30079" lon="3.32653">
        <ele>616</ele>
        <time>2017-03-05T03:58:59Z</time>
      </trkpt>
      <trkpt lat="44.30098" lon="3.32668">
        <ele>615</ele>
        <time>2017-03-05T04:00:59Z</time>
      </trkpt>
      <trkpt lat="44.30115" lon="3.32681">
        <ele>614</ele>
        <time>2017-03-05T04:02:59Z</time>
      </trkpt>
      <trkpt lat="44.3012" lon="3.32686">
        <ele>614</ele>
        <time>2017-03-05T04:04:59Z</time>
      </trkpt>
      <trkpt lat="44.30126" lon="3.32691">
        <ele>613</ele>
        <time>2017-03-05T04:06:59Z</time>
      </trkpt>
      <trkpt lat="44.30128" lon="3.32693">
        <ele>613</ele>
        <time>2017-03-05T04:08:59Z</time>
      </trkpt>
      <trkpt lat="44.30128" lon="3.32698">
        <ele>615</ele>
        <time>2017-03-05T04:10:59Z</time>
      </trkpt>
      <trkpt lat="44.30127" lon="3.327">
        <ele>617</ele>
        <time>2017-03-05T04:12:59Z</time>
      </trkpt>
      <trkpt lat="44.30126" lon="3.32701">
        <ele>617</ele>
        <time>2017-03-05T04:14:59Z</time>
      </trkpt>
      <trkpt lat="44.30125" lon="3.32701">
        <ele>618</ele>
        <time>2017-03-05T04:16:59Z</time>
      </trkpt>
      <trkpt lat="44.30124" lon="3.32702">
        <ele>619</ele>
        <time>2017-03-05T04:18:59Z</time>
      </trkpt>
      <trkpt lat="44.30121" lon="3.32701">
        <ele>620</ele>
        <time>2017-03-05T04:20:59Z</time>
      </trkpt>
      <trkpt lat="44.30113" lon="3.32692">
        <ele>620</ele>
        <time>2017-03-05T04:22:59Z</time>
      </trkpt>
      <trkpt lat="44.30096" lon="3.32681">
        <ele>622</ele>
        <time>2017-03-05T04:24:59Z</time>
      </trkpt>
      <trkpt lat="44.30087" lon="3.32677">
        <ele>624</ele>
        <time>2017-03-05T04:26:59Z</time>
      </trkpt>
      <trkpt lat="44.30068" lon="3.32671">
        <ele>628</ele>
        <time>2017-03-05T04:28:59Z</time>
      </trkpt>
      <trkpt lat="44.30058" lon="3.32667">
        <ele>629</ele>
        <time>2017-03-05T04:30:59Z</time>
      </trkpt>
      <trkpt lat="44.30047" lon="3.3266">
        <ele>630</ele>
        <time>2017-03-05T04:32:59Z</time>
      </trkpt>
      <trkpt lat="44.30036" lon="3.32651">
        <ele>629</ele>
        <time>2017-03-05T04:34:59Z</time>
      </trkpt>
      <trkpt lat="44.30018" lon="3.3263">
        <ele>625</ele>
        <time>2017-03-05T04:36:59Z</time>
      </trkpt>
      <trkpt lat="44.30011" lon="3.32624">
        <ele>624</ele>
        <time>2017-03-05T04:38:59Z</time>
      </trkpt>
      <trkpt lat="44.30006" lon="3.32618">
        <ele>623</ele>
        <time>2017-03-05T04:40:59Z</time>
      </trkpt>
      <trkpt lat="44.30001" lon="3.32615">
        <ele>623</ele>
        <time>2017-03-05T04:42:59Z</time>
      </trkpt>
      <trkpt lat="44.29994" lon="3.32613">
        <ele>623</ele>
        <time>2017-03-05T04:44:59Z</time>
      </trkpt>
      <trkpt lat="44.29988" lon="3.32612">
        <ele>623</ele>
        <time>2017-03-05T04:46:59Z</time>
      </trkpt>
      <trkpt lat="44.29977" lon="3.32614">
        <ele>625</ele>
        <time>2017-03-05T04:48:59Z</time>
      </trkpt>
      <trkpt lat="44.2996" lon="3.32619">
        <ele>628</ele>
        <time>2017-03-05T04:50:59Z</time>
      </trkpt>
      <trkpt lat="44.29942" lon="3.32627">
        <ele>633</ele>
        <time>2017-03-05T04:52:59Z</time>
      </trkpt>
      <trkpt lat="44.29929" lon="3.32635">
        <ele>638</ele>
        <time>2017-03-05T04:54:59Z</time>
      </trkpt>
      <trkpt lat="44.29923" lon="3.32639">
        <ele>641</ele>
        <time>2017-03-05T04:56:59Z</time>
      </trkpt>
      <trkpt lat="44.29913" lon="3.32647">
        <ele>646</ele>
        <time>2017-03-05T04:58:59Z</time>
      </trkpt>
      <trkpt lat="44.29905" lon="3.32654">
        <ele>652</ele>
        <time>2017-03-05T05:00:59Z</time>
      </trkpt>
      <trkpt lat="44.299" lon="3.32657">
        <ele>655</ele>
        <time>2017-03-05T05:02:59Z</time>
      </trkpt>
      <trkpt lat="44.29896" lon="3.32659">
        <ele>657</ele>
        <time>2017-03-05T05:04:59Z</time>
      </trkpt>
      <trkpt lat="44.29889" lon="3.32661">
        <ele>659</ele>
        <time>2017-03-05T05:06:59Z</time>
      </trkpt>
      <trkpt lat="44.29881" lon="3.32661">
        <ele>661</ele>
        <time>2017-03-05T05:08:59Z</time>
      </trkpt>
      <trkpt lat="44.29867" lon="3.32658">
        <ele>663</ele>
        <time>2017-03-05T05:10:59Z</time>
      </trkpt>
      <trkpt lat="44.29861" lon="3.32657">
        <ele>664</ele>
        <time>2017-03-05T05:12:59Z</time>
      </trkpt>
      <trkpt lat="44.29851" lon="3.32651">
        <ele>663</ele>
        <time>2017-03-05T05:14:59Z</time>
      </trkpt>
      <trkpt lat="44.29848" lon="3.32648">
        <ele>662</ele>
        <time>2017-03-05T05:16:59Z</time>
      </trkpt>
      <trkpt lat="44.29846" lon="3.32645">
        <ele>662</ele>
        <time>2017-03-05T05:18:59Z</time>
      </trkpt>
      <trkpt lat="44.29843" lon="3.32638">
        <ele>659</ele>
        <time>2017-03-05T05:20:59Z</time>
      </trkpt>
      <trkpt lat="44.29839" lon="3.32631">
        <ele>657</ele>
        <time>2017-03-05T05:22:59Z</time>
      </trkpt>
      <trkpt lat="44.29836" lon="3.32625">
        <ele>655</ele>
        <time>2017-03-05T05:24:59Z</time>
      </trkpt>
      <trkpt lat="44.29833" lon="3.32621">
        <ele>654</ele>
        <time>2017-03-05T05:26:59Z</time>
      </trkpt>
      <trkpt lat="44.29828" lon="3.32618">
        <ele>656</ele>
        <time>2017-03-05T05:28:59Z</time>
      </trkpt>
      <trkpt lat="44.29823" lon="3.32617">
        <ele>657</ele>
        <time>2017-03-05T05:30:59Z</time>
      </trkpt>
      <trkpt lat="44.29813" lon="3.32616">
        <ele>662</ele>
        <time>2017-03-05T05:32:59Z</time>
      </trkpt>
      <trkpt lat="44.29798" lon="3.32612">
        <ele>668</ele>
        <time>2017-03-05T05:34:59Z</time>
      </trkpt>
      <trkpt lat="44.29793" lon="3.32609">
        <ele>669</ele>
        <time>2017-03-05T05:36:59Z</time>
      </trkpt>
      <trkpt lat="44.29787" lon="3.32604">
        <ele>670</ele>
        <time>2017-03-05T05:38:59Z</time>
      </trkpt>
      <trkpt lat="44.29781" lon="3.32597">
        <ele>671</ele>
        <time>2017-03-05T05:40:59Z</time>
      </trkpt>
      <trkpt lat="44.29775" lon="3.32585">
        <ele>670</ele>
        <time>2017-03-05T05:42:59Z</time>
      </trkpt>
      <trkpt lat="44.29773" lon="3.32578">
        <ele>669</ele>
        <time>2017-03-05T05:44:59Z</time>
      </trkpt>
      <trkpt lat="44.29772" lon="3.32569">
        <ele>668</ele>
        <time>2017-03-05T05:46:59Z</time>
      </trkpt>
      <trkpt lat="44.29769" lon="3.32558">
        <ele>667</ele>
        <time>2017-03-05T05:48:59Z</time>
      </trkpt>
      <trkpt lat="44.29764" lon="3.32542">
        <ele>666</ele>
        <time>2017-03-05T05:50:59Z</time>
      </trkpt>
      <trkpt lat="44.29756" lon="3.32519">
        <ele>666</ele>
        <time>2017-03-05T05:52:59Z</time>
      </trkpt>
      <trkpt lat="44.29746" lon="3.32494">
        <ele>667</ele>
        <time>2017-03-05T05:54:59Z</time>
      </trkpt>
      <trkpt lat="44.2974" lon="3.32481">
        <ele>668</ele>
        <time>2017-03-05T05:56:59Z</time>
      </trkpt>
      <trkpt lat="44.29734" lon="3.32471">
        <ele>670</ele>
        <time>2017-03-05T05:58:59Z</time>
      </trkpt>
      <trkpt lat="44.2973" lon="3.32465">
        <ele>671</ele>
        <time>2017-03-05T06:00:59Z</time>
      </trkpt>
      <trkpt lat="44.29724" lon="3.32459">
        <ele>674</ele>
        <time>2017-03-05T06:02:59Z</time>
      </trkpt>
      <trkpt lat="44.29714" lon="3.32448">
        <ele>679</ele>
        <time>2017-03-05T06:04:59Z</time>
      </trkpt>
      <trkpt lat="44.29707" lon="3.32437">
        <ele>681</ele>
        <time>2017-03-05T06:06:59Z</time>
      </trkpt>
      <trkpt lat="44.29704" lon="3.3243">
        <ele>682</ele>
        <time>2017-03-05T06:08:59Z</time>
      </trkpt>
      <trkpt lat="44.29703" lon="3.32423">
        <ele>681</ele>
        <time>2017-03-05T06:10:59Z</time>
      </trkpt>
      <trkpt lat="44.29701" lon="3.32403">
        <ele>682</ele>
        <time>2017-03-05T06:12:59Z</time>
      </trkpt>
      <trkpt lat="44.29699" lon="3.32396">
        <ele>684</ele>
        <time>2017-03-05T06:14:59Z</time>
      </trkpt>
      <trkpt lat="44.29696" lon="3.32389">
        <ele>687</ele>
        <time>2017-03-05T06:16:59Z</time>
      </trkpt>
      <trkpt lat="44.29687" lon="3.32371">
        <ele>695</ele>
        <time>2017-03-05T06:18:59Z</time>
      </trkpt>
      <trkpt lat="44.29685" lon="3.32361">
        <ele>697</ele>
        <time>2017-03-05T06:20:59Z</time>
      </trkpt>
      <trkpt lat="44.29686" lon="3.32355">
        <ele>697</ele>
        <time>2017-03-05T06:22:59Z</time>
      </trkpt>
      <trkpt lat="44.29688" lon="3.32348">
        <ele>696</ele>
        <time>2017-03-05T06:24:59Z</time>
      </trkpt>
      <trkpt lat="44.29693" lon="3.32337">
        <ele>693</ele>
        <time>2017-03-05T06:26:59Z</time>
      </trkpt>
      <trkpt lat="44.29697" lon="3.32326">
        <ele>692</ele>
        <time>2017-03-05T06:28:59Z</time>
      </trkpt>
      <trkpt lat="44.297" lon="3.32316">
        <ele>692</ele>
        <time>2017-03-05T06:30:59Z</time>
      </trkpt>
      <trkpt lat="44.29707" lon="3.323">
        <ele>691</ele>
        <time>2017-03-05T06:32:59Z</time>
      </trkpt>
      <trkpt lat="44.29715" lon="3.32285">
        <ele>689</ele>
        <time>2017-03-05T06:34:59Z</time>
      </trkpt>
      <trkpt lat="44.29741" lon="3.32239">
        <ele>680</ele>
        <time>2017-03-05T06:36:59Z</time>
      </trkpt>
      <trkpt lat="44.29746" lon="3.32228">
        <ele>676</ele>
        <time>2017-03-05T06:38:59Z</time>
      </trkpt>
      <trkpt lat="44.2975" lon="3.3222">
        <ele>673</ele>
        <time>2017-03-05T06:40:59Z</time>
      </trkpt>
      <trkpt lat="44.29752" lon="3.32213">
        <ele>671</ele>
        <time>2017-03-05T06:42:59Z</time>
      </trkpt>
      <trkpt lat="44.29752" lon="3.32211">
        <ele>670</ele>
        <time>2017-03-05T06:44:59Z</time>
      </trkpt>
      <trkpt lat="44.29751" lon="3.32209">
        <ele>671</ele>
        <time>2017-03-05T06:46:59Z</time>
      </trkpt>
      <trkpt lat="44.29751" lon="3.32207">
        <ele>671</ele>
        <time>2017-03-05T06:48:59Z</time>
      </trkpt>
      <trkpt lat="44.29749" lon="3.32206">
        <ele>672</ele>
        <time>2017-03-05T06:50:59Z</time>
      </trkpt>
      <trkpt lat="44.29748" lon="3.32205">
        <ele>672</ele>
        <time>2017-03-05T06:52:59Z</time>
      </trkpt>
      <trkpt lat="44.29746" lon="3.32205">
        <ele>674</ele>
        <time>2017-03-05T06:54:59Z</time>
      </trkpt>
      <trkpt lat="44.29744" lon="3.32206">
        <ele>675</ele>
        <time>2017-03-05T06:56:59Z</time>
      </trkpt>
      <trkpt lat="44.29743" lon="3.32208">
        <ele>676</ele>
        <time>2017-03-05T06:58:59Z</time>
      </trkpt>
      <trkpt lat="44.2974" lon="3.32216">
        <ele>679</ele>
        <time>2017-03-05T07:00:59Z</time>
      </trkpt>
      <trkpt lat="44.29738" lon="3.32223">
        <ele>681</ele>
        <time>2017-03-05T07:02:59Z</time>
      </trkpt>
      <trkpt lat="44.29736" lon="3.32227">
        <ele>682</ele>
        <time>2017-03-05T07:04:59Z</time>
      </trkpt>
      <trkpt lat="44.29733" lon="3.32232">
        <ele>685</ele>
        <time>2017-03-05T07:06:59Z</time>
      </trkpt>
      <trkpt lat="44.29716" lon="3.32254">
        <ele>696</ele>
        <time>2017-03-05T07:08:59Z</time>
      </trkpt>
      <trkpt lat="44.29699" lon="3.32273">
        <ele>702</ele>
        <time>2017-03-05T07:10:59Z</time>
      </trkpt>
      <trkpt lat="44.29685" lon="3.3229">
        <ele>708</ele>
        <time>2017-03-05T07:12:59Z</time>
      </trkpt>
      <trkpt lat="44.29669" lon="3.32312">
        <ele>715</ele>
        <time>2017-03-05T07:14:59Z</time>
      </trkpt>
      <trkpt lat="44.29662" lon="3.32319">
        <ele>719</ele>
        <time>2017-03-05T07:16:59Z</time>
      </trkpt>
      <trkpt lat="44.29653" lon="3.32329">
        <ele>723</ele>
        <time>2017-03-05T07:18:59Z</time>
      </trkpt>
      <trkpt lat="44.29648" lon="3.32333">
        <ele>726</ele>
        <time>2017-03-05T07:20:59Z</time>
      </trkpt>
      <trkpt lat="44.29643" lon="3.32339">
        <ele>729</ele>
        <time>2017-03-05T07:22:59Z</time>
      </trkpt>
      <trkpt lat="44.2964" lon="3.32344">
        <ele>731</ele>
        <time>2017-03-05T07:24:59Z</time>
      </trkpt>
      <trkpt lat="44.29637" lon="3.32352">
        <ele>732</ele>
        <time>2017-03-05T07:26:59Z</time>
      </trkpt>
      <trkpt lat="44.29635" lon="3.3236">
        <ele>733</ele>
        <time>2017-03-05T07:28:59Z</time>
      </trkpt>
      <trkpt lat="44.29634" lon="3.32368">
        <ele>733</ele>
        <time>2017-03-05T07:30:59Z</time>
      </trkpt>
      <trkpt lat="44.29635" lon="3.32376">
        <ele>732</ele>
        <time>2017-03-05T07:32:59Z</time>
      </trkpt>
      <trkpt lat="44.29639" lon="3.32394">
        <ele>727</ele>
        <time>2017-03-05T07:34:59Z</time>
      </trkpt>
      <trkpt lat="44.29642" lon="3.32402">
        <ele>724</ele>
        <time>2017-03-05T07:36:59Z</time>
      </trkpt>
      <trkpt lat="44.29643" lon="3.32409">
        <ele>723</ele>
        <time>2017-03-05T07:38:59Z</time>
      </trkpt>
      <trkpt lat="44.29642" lon="3.32417">
        <ele>723</ele>
        <time>2017-03-05T07:40:59Z</time>
      </trkpt>
      <trkpt lat="44.29639" lon="3.32426">
        <ele>727</ele>
        <time>2017-03-05T07:42:59Z</time>
      </trkpt>
      <trkpt lat="44.29637" lon="3.32434">
        <ele>730</ele>
        <time>2017-03-05T07:44:59Z</time>
      </trkpt>
      <trkpt lat="44.29636" lon="3.32441">
        <ele>732</ele>
        <time>2017-03-05T07:46:59Z</time>
      </trkpt>
      <trkpt lat="44.29636" lon="3.3245">
        <ele>734</ele>
        <time>2017-03-05T07:48:59Z</time>
      </trkpt>
      <trkpt lat="44.29638" lon="3.32457">
        <ele>734</ele>
        <time>2017-03-05T07:50:59Z</time>
      </trkpt>
      <trkpt lat="44.29641" lon="3.32465">
        <ele>734</ele>
        <time>2017-03-05T07:52:59Z</time>
      </trkpt>
      <trkpt lat="44.29645" lon="3.32474">
        <ele>733</ele>
        <time>2017-03-05T07:54:59Z</time>
      </trkpt>
      <trkpt lat="44.29652" lon="3.32485">
        <ele>731</ele>
        <time>2017-03-05T07:56:59Z</time>
      </trkpt>
      <trkpt lat="44.29658" lon="3.32496">
        <ele>729</ele>
        <time>2017-03-05T07:58:59Z</time>
      </trkpt>
      <trkpt lat="44.29666" lon="3.32509">
        <ele>726</ele>
        <time>2017-03-05T08:00:59Z</time>
      </trkpt>
      <trkpt lat="44.29671" lon="3.32518">
        <ele>724</ele>
        <time>2017-03-05T08:02:59Z</time>
      </trkpt>
      <trkpt lat="44.29674" lon="3.32528">
        <ele>724</ele>
        <time>2017-03-05T08:04:59Z</time>
      </trkpt>
      <trkpt lat="44.29676" lon="3.32538">
        <ele>725</ele>
        <time>2017-03-05T08:06:59Z</time>
      </trkpt>
      <trkpt lat="44.29677" lon="3.32548">
        <ele>726</ele>
        <time>2017-03-05T08:08:59Z</time>
      </trkpt>
      <trkpt lat="44.29676" lon="3.32561">
        <ele>729</ele>
        <time>2017-03-05T08:10:59Z</time>
      </trkpt>
      <trkpt lat="44.29671" lon="3.32605">
        <ele>740</ele>
        <time>2017-03-05T08:12:59Z</time>
      </trkpt>
      <trkpt lat="44.29668" lon="3.32629">
        <ele>746</ele>
        <time>2017-03-05T08:14:59Z</time>
      </trkpt>
      <trkpt lat="44.29667" lon="3.3264">
        <ele>748</ele>
        <time>2017-03-05T08:16:59Z</time>
      </trkpt>
      <trkpt lat="44.29667" lon="3.3266">
        <ele>751</ele>
        <time>2017-03-05T08:18:59Z</time>
      </trkpt>
      <trkpt lat="44.29668" lon="3.32675">
        <ele>754</ele>
        <time>2017-03-05T08:20:59Z</time>
      </trkpt>
      <trkpt lat="44.2967" lon="3.32686">
        <ele>756</ele>
        <time>2017-03-05T08:22:59Z</time>
      </trkpt>
      <trkpt lat="44.29673" lon="3.32697">
        <ele>758</ele>
        <time>2017-03-05T08:24:59Z</time>
      </trkpt>
      <trkpt lat="44.29678" lon="3.32708">
        <ele>759</ele>
        <time>2017-03-05T08:26:59Z</time>
      </trkpt>
      <trkpt lat="44.29683" lon="3.32716">
        <ele>759</ele>
        <time>2017-03-05T08:28:59Z</time>
      </trkpt>
      <trkpt lat="44.29688" lon="3.32722">
        <ele>759</ele>
        <time>2017-03-05T08:30:59Z</time>
      </trkpt>
      <trkpt lat="44.29698" lon="3.32733">
        <ele>758</ele>
        <time>2017-03-05T08:32:59Z</time>
      </trkpt>
      <trkpt lat="44.29705" lon="3.32742">
        <ele>758</ele>
        <time>2017-03-05T08:34:59Z</time>
      </trkpt>
      <trkpt lat="44.29722" lon="3.32767">
        <ele>760</ele>
        <time>2017-03-05T08:36:59Z</time>
      </trkpt>
      <trkpt lat="44.29729" lon="3.32772">
        <ele>758</ele>
        <time>2017-03-05T08:38:59Z</time>
      </trkpt>
      <trkpt lat="44.29734" lon="3.32775">
        <ele>758</ele>
        <time>2017-03-05T08:40:59Z</time>
      </trkpt>
      <trkpt lat="44.29741" lon="3.3278">
        <ele>757</ele>
        <time>2017-03-05T08:42:59Z</time>
      </trkpt>
      <trkpt lat="44.29744" lon="3.32783">
        <ele>756</ele>
        <time>2017-03-05T08:44:59Z</time>
      </trkpt>
      <trkpt lat="44.2975" lon="3.3279">
        <ele>757</ele>
        <time>2017-03-05T08:46:59Z</time>
      </trkpt>
      <trkpt lat="44.29753" lon="3.32797">
        <ele>759</ele>
        <time>2017-03-05T08:48:59Z</time>
      </trkpt>
      <trkpt lat="44.29756" lon="3.32805">
        <ele>761</ele>
        <time>2017-03-05T08:50:59Z</time>
      </trkpt>
      <trkpt lat="44.29763" lon="3.32817">
        <ele>763</ele>
        <time>2017-03-05T08:52:59Z</time>
      </trkpt>
      <trkpt lat="44.29768" lon="3.32824">
        <ele>764</ele>
        <time>2017-03-05T08:54:59Z</time>
      </trkpt>
      <trkpt lat="44.29777" lon="3.32831">
        <ele>764</ele>
        <time>2017-03-05T08:56:59Z</time>
      </trkpt>
      <trkpt lat="44.29788" lon="3.32838">
        <ele>764</ele>
        <time>2017-03-05T08:58:59Z</time>
      </trkpt>
      <trkpt lat="44.29799" lon="3.32846">
        <ele>764</ele>
        <time>2017-03-05T09:00:59Z</time>
      </trkpt>
      <trkpt lat="44.2982" lon="3.32862">
        <ele>766</ele>
        <time>2017-03-05T09:02:59Z</time>
      </trkpt>
      <trkpt lat="44.29826" lon="3.32868">
        <ele>768</ele>
        <time>2017-03-05T09:04:59Z</time>
      </trkpt>
      <trkpt lat="44.2983" lon="3.32873">
        <ele>770</ele>
        <time>2017-03-05T09:06:59Z</time>
      </trkpt>
      <trkpt lat="44.29837" lon="3.32883">
        <ele>775</ele>
        <time>2017-03-05T09:08:59Z</time>
      </trkpt>
      <trkpt lat="44.29842" lon="3.32889">
        <ele>778</ele>
        <time>2017-03-05T09:10:59Z</time>
      </trkpt>
      <trkpt lat="44.29852" lon="3.32897">
        <ele>781</ele>
        <time>2017-03-05T09:12:59Z</time>
      </trkpt>
      <trkpt lat="44.29859" lon="3.329">
        <ele>782</ele>
        <time>2017-03-05T09:14:59Z</time>
      </trkpt>
      <trkpt lat="44.29866" lon="3.32902">
        <ele>782</ele>
        <time>2017-03-05T09:16:59Z</time>
      </trkpt>
      <trkpt lat="44.29872" lon="3.32903">
        <ele>781</ele>
        <time>2017-03-05T09:18:59Z</time>
      </trkpt>
      <trkpt lat="44.29878" lon="3.32903">
        <ele>780</ele>
        <time>2017-03-05T09:20:59Z</time>
      </trkpt>
      <trkpt lat="44.29928" lon="3.329">
        <ele>769</ele>
        <time>2017-03-05T09:22:59Z</time>
      </trkpt>
      <trkpt lat="44.2994" lon="3.329">
        <ele>766</ele>
        <time>2017-03-05T09:24:59Z</time>
      </trkpt>
      <trkpt lat="44.29945" lon="3.32901">
        <ele>765</ele>
        <time>2017-03-05T09:26:59Z</time>
      </trkpt>
      <trkpt lat="44.29947" lon="3.32902">
        <ele>765</ele>
        <time>2017-03-05T09:28:59Z</time>
      </trkpt>
      <trkpt lat="44.2995" lon="3.32903">
        <ele>765</ele>
        <time>2017-03-05T09:30:59Z</time>
      </trkpt>
      <trkpt lat="44.29953" lon="3.32905">
        <ele>765</ele>
        <time>2017-03-05T09:32:59Z</time>
      </trkpt>
      <trkpt lat="44.29957" lon="3.32909">
        <ele>765</ele>
        <time>2017-03-05T09:34:59Z</time>
      </trkpt>
      <trkpt lat="44.29959" lon="3.32914">
        <ele>766</ele>
        <time>2017-03-05T09:36:59Z</time>
      </trkpt>
      <trkpt lat="44.29961" lon="3.32918">
        <ele>767</ele>
        <time>2017-03-05T09:38:59Z</time>
      </trkpt>
      <trkpt lat="44.29963" lon="3.32925">
        <ele>768</ele>
        <time>2017-03-05T09:40:59Z</time>
      </trkpt>
      <trkpt lat="44.29965" lon="3.32935">
        <ele>769</ele>
        <time>2017-03-05T09:42:59Z</time>
      </trkpt>
      <trkpt lat="44.29965" lon="3.32946">
        <ele>771</ele>
        <time>2017-03-05T09:44:59Z</time>
      </trkpt>
      <trkpt lat="44.29964" lon="3.3296">
        <ele>774</ele>
        <time>2017-03-05T09:46:59Z</time>
      </trkpt>
      <trkpt lat="44.29961" lon="3.3298">
        <ele>779</ele>
        <time>2017-03-05T09:48:59Z</time>
      </trkpt>
      <trkpt lat="44.29958" lon="3.32993">
        <ele>784</ele>
        <time>2017-03-05T09:50:59Z</time>
      </trkpt>
      <trkpt lat="44.29953" lon="3.33012">
        <ele>788</ele>
        <time>2017-03-05T09:52:59Z</time>
      </trkpt>
      <trkpt lat="44.29951" lon="3.33023">
        <ele>790</ele>
        <time>2017-03-05T09:54:59Z</time>
      </trkpt>
      <trkpt lat="44.29946" lon="3.33037">
        <ele>793</ele>
        <time>2017-03-05T09:56:59Z</time>
      </trkpt>
      <trkpt lat="44.29943" lon="3.33049">
        <ele>796</ele>
        <time>2017-03-05T09:58:59Z</time>
      </trkpt>
      <trkpt lat="44.29942" lon="3.33056">
        <ele>797</ele>
        <time>2017-03-05T10:00:59Z</time>
      </trkpt>
      <trkpt lat="44.29942" lon="3.33065">
        <ele>797</ele>
        <time>2017-03-05T10:02:59Z</time>
      </trkpt>
      <trkpt lat="44.29944" lon="3.33083">
        <ele>797</ele>
        <time>2017-03-05T10:04:59Z</time>
      </trkpt>
      <trkpt lat="44.29946" lon="3.33096">
        <ele>797</ele>
        <time>2017-03-05T10:06:59Z</time>
      </trkpt>
      <trkpt lat="44.29948" lon="3.33105">
        <ele>797</ele>
        <time>2017-03-05T10:08:59Z</time>
      </trkpt>
      <trkpt lat="44.29948" lon="3.33118">
        <ele>799</ele>
        <time>2017-03-05T10:10:59Z</time>
      </trkpt>
      <trkpt lat="44.29949" lon="3.33143">
        <ele>802</ele>
        <time>2017-03-05T10:12:59Z</time>
      </trkpt>
      <trkpt lat="44.29951" lon="3.33175">
        <ele>805</ele>
        <time>2017-03-05T10:14:59Z</time>
      </trkpt>
      <trkpt lat="44.29953" lon="3.33199">
        <ele>807</ele>
        <time>2017-03-05T10:16:59Z</time>
      </trkpt>
      <trkpt lat="44.29962" lon="3.33258">
        <ele>812</ele>
        <time>2017-03-05T10:18:59Z</time>
      </trkpt>
      <trkpt lat="44.29964" lon="3.3327">
        <ele>813</ele>
        <time>2017-03-05T10:20:59Z</time>
      </trkpt>
      <trkpt lat="44.29964" lon="3.33284">
        <ele>814</ele>
        <time>2017-03-05T10:22:59Z</time>
      </trkpt>
      <trkpt lat="44.29963" lon="3.33291">
        <ele>814</ele>
        <time>2017-03-05T10:24:59Z</time>
      </trkpt>
      <trkpt lat="44.29961" lon="3.333">
        <ele>815</ele>
        <time>2017-03-05T10:26:59Z</time>
      </trkpt>
      <trkpt lat="44.29953" lon="3.33321">
        <ele>817</ele>
        <time>2017-03-05T10:28:59Z</time>
      </trkpt>
      <trkpt lat="44.29951" lon="3.33321">
        <ele>817</ele>
        <time>2017-03-05T10:30:59Z</time>
      </trkpt>
      <trkpt lat="44.29947" lon="3.33325">
        <ele>818</ele>
        <time>2017-03-05T10:32:59Z</time>
      </trkpt>
      <trkpt lat="44.29944" lon="3.33327">
        <ele>818</ele>
        <time>2017-03-05T10:34:59Z</time>
      </trkpt>
      <trkpt lat="44.29921" lon="3.33336">
        <ele>820</ele>
        <time>2017-03-05T10:36:59Z</time>
      </trkpt>
      <trkpt lat="44.29916" lon="3.33342">
        <ele>820</ele>
        <time>2017-03-05T10:38:59Z</time>
      </trkpt>
      <trkpt lat="44.29906" lon="3.33356">
        <ele>821</ele>
        <time>2017-03-05T10:40:59Z</time>
      </trkpt>
      <trkpt lat="44.2989" lon="3.33376">
        <ele>823</ele>
        <time>2017-03-05T10:42:59Z</time>
      </trkpt>
      <trkpt lat="44.29867" lon="3.33404">
        <ele>823</ele>
        <time>2017-03-05T10:44:59Z</time>
      </trkpt>
      <trkpt lat="44.29845" lon="3.33426">
        <ele>823</ele>
        <time>2017-03-05T10:46:59Z</time>
      </trkpt>
      <trkpt lat="44.29825" lon="3.33442">
        <ele>823</ele>
        <time>2017-03-05T10:48:59Z</time>
      </trkpt>
      <trkpt lat="44.29805" lon="3.33454">
        <ele>824</ele>
        <time>2017-03-05T10:50:59Z</time>
      </trkpt>
      <trkpt lat="44.29781" lon="3.33467">
        <ele>826</ele>
        <time>2017-03-05T10:52:59Z</time>
      </trkpt>
      <trkpt lat="44.29757" lon="3.33478">
        <ele>827</ele>
        <time>2017-03-05T10:54:59Z</time>
      </trkpt>
      <trkpt lat="44.29727" lon="3.33489">
        <ele>826</ele>
        <time>2017-03-05T10:56:59Z</time>
      </trkpt>
      <trkpt lat="44.29698" lon="3.33498">
        <ele>825</ele>
        <time>2017-03-05T10:58:59Z</time>
      </trkpt>
      <trkpt lat="44.29659" lon="3.33505">
        <ele>824</ele>
        <time>2017-03-05T11:00:59Z</time>
      </trkpt>
      <trkpt lat="44.29615" lon="3.33511">
        <ele>819</ele>
        <time>2017-03-05T11:02:59Z</time>
      </trkpt>
      <trkpt lat="44.29583" lon="3.33512">
        <ele>817</ele>
        <time>2017-03-05T11:04:59Z</time>
      </trkpt>
      <trkpt lat="44.2955" lon="3.33509">
        <ele>815</ele>
        <time>2017-03-05T11:06:59Z</time>
      </trkpt>
      <trkpt lat="44.29535" lon="3.33504">
        <ele>814</ele>
        <time>2017-03-05T11:08:59Z</time>
      </trkpt>
      <trkpt lat="44.29517" lon="3.33493">
        <ele>814</ele>
        <time>2017-03-05T11:10:59Z</time>
      </trkpt>
      <trkpt lat="44.29483" lon="3.33467">
        <ele>816</ele>
        <time>2017-03-05T11:12:59Z</time>
      </trkpt>
      <trkpt lat="44.29462" lon="3.33459">
        <ele>816</ele>
        <time>2017-03-05T11:14:59Z</time>
      </trkpt>
      <trkpt lat="44.29446" lon="3.3345">
        <ele>816</ele>
        <time>2017-03-05T11:16:59Z</time>
      </trkpt>
      <trkpt lat="44.29409" lon="3.33428">
        <ele>816</ele>
        <time>2017-03-05T11:18:59Z</time>
      </trkpt>
      <trkpt lat="44.294" lon="3.33424">
        <ele>816</ele>
        <time>2017-03-05T11:20:59Z</time>
      </trkpt>
      <trkpt lat="44.29393" lon="3.33423">
        <ele>816</ele>
        <time>2017-03-05T11:22:59Z</time>
      </trkpt>
      <trkpt lat="44.29388" lon="3.33424">
        <ele>816</ele>
        <time>2017-03-05T11:24:59Z</time>
      </trkpt>
      <trkpt lat="44.29387" lon="3.33421">
        <ele>816</ele>
        <time>2017-03-05T11:26:59Z</time>
      </trkpt>
      <trkpt lat="44.29384" lon="3.33417">
        <ele>816</ele>
        <time>2017-03-05T11:28:59Z</time>
      </trkpt>
      <trkpt lat="44.29373" lon="3.33408">
        <ele>816</ele>
        <time>2017-03-05T11:30:59Z</time>
      </trkpt>
      <trkpt lat="44.29354" lon="3.33391">
        <ele>817</ele>
        <time>2017-03-05T11:32:59Z</time>
      </trkpt>
      <trkpt lat="44.29346" lon="3.33383">
        <ele>817</ele>
        <time>2017-03-05T11:34:59Z</time>
      </trkpt>
      <trkpt lat="44.29334" lon="3.33362">
        <ele>817</ele>
        <time>2017-03-05T11:36:59Z</time>
      </trkpt>
      <trkpt lat="44.29308" lon="3.33314">
        <ele>819</ele>
        <time>2017-03-05T11:38:59Z</time>
      </trkpt>
      <trkpt lat="44.29303" lon="3.33296">
        <ele>820</ele>
        <time>2017-03-05T11:40:59Z</time>
      </trkpt>
      <trkpt lat="44.29296" lon="3.33267">
        <ele>821</ele>
        <time>2017-03-05T11:42:59Z</time>
      </trkpt>
      <trkpt lat="44.29287" lon="3.33234">
        <ele>823</ele>
        <time>2017-03-05T11:44:59Z</time>
      </trkpt>
      <trkpt lat="44.29281" lon="3.33218">
        <ele>824</ele>
        <time>2017-03-05T11:46:59Z</time>
      </trkpt>
      <trkpt lat="44.29266" lon="3.33195">
        <ele>825</ele>
        <time>2017-03-05T11:48:59Z</time>
      </trkpt>
      <trkpt lat="44.29251" lon="3.33175">
        <ele>825</ele>
        <time>2017-03-05T11:50:59Z</time>
      </trkpt>
      <trkpt lat="44.29236" lon="3.33143">
        <ele>829</ele>
        <time>2017-03-05T11:52:59Z</time>
      </trkpt>
      <trkpt lat="44.29227" lon="3.33129">
        <ele>830</ele>
        <time>2017-03-05T11:54:59Z</time>
      </trkpt>
      <trkpt lat="44.29217" lon="3.33115">
        <ele>831</ele>
        <time>2017-03-05T11:56:59Z</time>
      </trkpt>
      <trkpt lat="44.29204" lon="3.33105">
        <ele>832</ele>
        <time>2017-03-05T11:58:59Z</time>
      </trkpt>
      <trkpt lat="44.29193" lon="3.331">
        <ele>831</ele>
        <time>2017-03-05T12:00:59Z</time>
      </trkpt>
      <trkpt lat="44.29171" lon="3.33096">
        <ele>830</ele>
        <time>2017-03-05T12:02:59Z</time>
      </trkpt>
      <trkpt lat="44.29156" lon="3.33089">
        <ele>830</ele>
        <time>2017-03-05T12:04:59Z</time>
      </trkpt>
      <trkpt lat="44.29148" lon="3.33084">
        <ele>830</ele>
        <time>2017-03-05T12:06:59Z</time>
      </trkpt>
      <trkpt lat="44.29141" lon="3.33076">
        <ele>831</ele>
        <time>2017-03-05T12:08:59Z</time>
      </trkpt>
      <trkpt lat="44.29136" lon="3.33063">
        <ele>832</ele>
        <time>2017-03-05T12:10:59Z</time>
      </trkpt>
      <trkpt lat="44.29132" lon="3.33047">
        <ele>834</ele>
        <time>2017-03-05T12:12:59Z</time>
      </trkpt>
      <trkpt lat="44.2913" lon="3.33036">
        <ele>835</ele>
        <time>2017-03-05T12:14:59Z</time>
      </trkpt>
      <trkpt lat="44.29125" lon="3.33023">
        <ele>836</ele>
        <time>2017-03-05T12:16:59Z</time>
      </trkpt>
      <trkpt lat="44.29123" lon="3.33016">
        <ele>837</ele>
        <time>2017-03-05T12:18:59Z</time>
      </trkpt>
      <trkpt lat="44.2912" lon="3.33004">
        <ele>838</ele>
        <time>2017-03-05T12:20:59Z</time>
      </trkpt>
      <trkpt lat="44.29116" lon="3.32997">
        <ele>838</ele>
        <time>2017-03-05T12:22:59Z</time>
      </trkpt>
      <trkpt lat="44.2912" lon="3.32994">
        <ele>838</ele>
        <time>2017-03-05T12:24:59Z</time>
      </trkpt>
      <trkpt lat="44.29127" lon="3.32985">
        <ele>839</ele>
        <time>2017-03-05T12:26:59Z</time>
      </trkpt>
      <trkpt lat="44.29129" lon="3.3298">
        <ele>839</ele>
        <time>2017-03-05T12:28:59Z</time>
      </trkpt>
      <trkpt lat="44.2914" lon="3.32977">
        <ele>840</ele>
        <time>2017-03-05T12:30:59Z</time>
      </trkpt>
      <trkpt lat="44.29149" lon="3.32975">
        <ele>841</ele>
        <time>2017-03-05T12:32:59Z</time>
      </trkpt>
      <trkpt lat="44.29154" lon="3.32972">
        <ele>841</ele>
        <time>2017-03-05T12:34:59Z</time>
      </trkpt>
      <trkpt lat="44.2916" lon="3.32969">
        <ele>842</ele>
        <time>2017-03-05T12:36:59Z</time>
      </trkpt>
      <trkpt lat="44.29161" lon="3.32968">
        <ele>842</ele>
        <time>2017-03-05T12:38:59Z</time>
      </trkpt>
      <trkpt lat="44.29167" lon="3.32966">
        <ele>843</ele>
        <time>2017-03-05T12:40:59Z</time>
      </trkpt>
      <trkpt lat="44.29179" lon="3.32958">
        <ele>845</ele>
        <time>2017-03-05T12:42:59Z</time>
      </trkpt>
      <trkpt lat="44.29184" lon="3.32954">
        <ele>845</ele>
        <time>2017-03-05T12:44:59Z</time>
      </trkpt>
      <trkpt lat="44.2919" lon="3.32942">
        <ele>847</ele>
        <time>2017-03-05T12:46:59Z</time>
      </trkpt>
      <trkpt lat="44.29209" lon="3.32915">
        <ele>851</ele>
        <time>2017-03-05T12:48:59Z</time>
      </trkpt>
      <trkpt lat="44.29215" lon="3.32901">
        <ele>852</ele>
        <time>2017-03-05T12:50:59Z</time>
      </trkpt>
      <trkpt lat="44.29218" lon="3.32889">
        <ele>852</ele>
        <time>2017-03-05T12:52:59Z</time>
      </trkpt>
      <trkpt lat="44.29226" lon="3.3286">
        <ele>854</ele>
        <time>2017-03-05T12:54:59Z</time>
      </trkpt>
      <trkpt lat="44.2923" lon="3.32853">
        <ele>854</ele>
        <time>2017-03-05T12:56:59Z</time>
      </trkpt>
      <trkpt lat="44.2924" lon="3.32824">
        <ele>856</ele>
        <time>2017-03-05T12:58:59Z</time>
      </trkpt>
      <trkpt lat="44.2925" lon="3.32801">
        <ele>857</ele>
        <time>2017-03-05T13:00:59Z</time>
      </trkpt>
      <trkpt lat="44.29257" lon="3.32786">
        <ele>858</ele>
        <time>2017-03-05T13:02:59Z</time>
      </trkpt>
      <trkpt lat="44.29264" lon="3.32769">
        <ele>859</ele>
        <time>2017-03-05T13:04:59Z</time>
      </trkpt>
      <trkpt lat="44.29269" lon="3.32761">
        <ele>860</ele>
        <time>2017-03-05T13:06:59Z</time>
      </trkpt>
      <trkpt lat="44.29276" lon="3.32755">
        <ele>862</ele>
        <time>2017-03-05T13:08:59Z</time>
      </trkpt>
      <trkpt lat="44.29286" lon="3.3275">
        <ele>863</ele>
        <time>2017-03-05T13:10:59Z</time>
      </trkpt>
      <trkpt lat="44.29299" lon="3.32739">
        <ele>866</ele>
        <time>2017-03-05T13:12:59Z</time>
      </trkpt>
      <trkpt lat="44.29308" lon="3.3273">
        <ele>869</ele>
        <time>2017-03-05T13:14:59Z</time>
      </trkpt>
      <trkpt lat="44.29314" lon="3.32723">
        <ele>870</ele>
        <time>2017-03-05T13:16:59Z</time>
      </trkpt>
      <trkpt lat="44.2932" lon="3.32707">
        <ele>872</ele>
        <time>2017-03-05T13:18:59Z</time>
      </trkpt>
      <trkpt lat="44.29327" lon="3.32681">
        <ele>874</ele>
        <time>2017-03-05T13:20:59Z</time>
      </trkpt>
      <trkpt lat="44.29342" lon="3.32642">
        <ele>879</ele>
        <time>2017-03-05T13:22:59Z</time>
      </trkpt>
      <trkpt lat="44.29353" lon="3.32611">
        <ele>882</ele>
        <time>2017-03-05T13:24:59Z</time>
      </trkpt>
      <trkpt lat="44.29361" lon="3.32599">
        <ele>883</ele>
        <time>2017-03-05T13:26:59Z</time>
      </trkpt>
      <trkpt lat="44.29372" lon="3.32585">
        <ele>885</ele>
        <time>2017-03-05T13:28:59Z</time>
      </trkpt>
      <trkpt lat="44.29393" lon="3.3255">
        <ele>887</ele>
        <time>2017-03-05T13:30:59Z</time>
      </trkpt>
      <trkpt lat="44.29395" lon="3.32532">
        <ele>888</ele>
        <time>2017-03-05T13:32:59Z</time>
      </trkpt>
      <trkpt lat="44.29395" lon="3.3252">
        <ele>888</ele>
        <time>2017-03-05T13:34:59Z</time>
      </trkpt>
      <trkpt lat="44.29393" lon="3.32501">
        <ele>889</ele>
        <time>2017-03-05T13:36:59Z</time>
      </trkpt>
      <trkpt lat="44.29391" lon="3.32485">
        <ele>890</ele>
        <time>2017-03-05T13:38:59Z</time>
      </trkpt>
      <trkpt lat="44.29392" lon="3.32479">
        <ele>891</ele>
        <time>2017-03-05T13:40:59Z</time>
      </trkpt>
      <trkpt lat="44.29391" lon="3.32475">
        <ele>891</ele>
        <time>2017-03-05T13:42:59Z</time>
      </trkpt>
      <trkpt lat="44.29385" lon="3.32468">
        <ele>892</ele>
        <time>2017-03-05T13:44:59Z</time>
      </trkpt>
      <trkpt lat="44.29372" lon="3.32446">
        <ele>895</ele>
        <time>2017-03-05T13:46:59Z</time>
      </trkpt>
      <trkpt lat="44.29363" lon="3.32425">
        <ele>899</ele>
        <time>2017-03-05T13:48:59Z</time>
      </trkpt>
      <trkpt lat="44.29358" lon="3.32409">
        <ele>901</ele>
        <time>2017-03-05T13:50:59Z</time>
      </trkpt>
      <trkpt lat="44.29351" lon="3.32394">
        <ele>905</ele>
        <time>2017-03-05T13:52:59Z</time>
      </trkpt>
      <trkpt lat="44.29343" lon="3.32378">
        <ele>908</ele>
        <time>2017-03-05T13:54:59Z</time>
      </trkpt>
      <trkpt lat="44.29336" lon="3.32365">
        <ele>911</ele>
        <time>2017-03-05T13:56:59Z</time>
      </trkpt>
      <trkpt lat="44.29329" lon="3.32345">
        <ele>914</ele>
        <time>2017-03-05T13:58:59Z</time>
      </trkpt>
      <trkpt lat="44.29323" lon="3.3233">
        <ele>916</ele>
        <time>2017-03-05T14:00:59Z</time>
      </trkpt>
      <trkpt lat="44.2932" lon="3.32321">
        <ele>917</ele>
        <time>2017-03-05T14:02:59Z</time>
      </trkpt>
      <trkpt lat="44.29317" lon="3.32315">
        <ele>918</ele>
        <time>2017-03-05T14:04:59Z</time>
      </trkpt>
      <trkpt lat="44.29316" lon="3.32308">
        <ele>919</ele>
        <time>2017-03-05T14:06:59Z</time>
      </trkpt>
      <trkpt lat="44.29318" lon="3.32298">
        <ele>920</ele>
        <time>2017-03-05T14:08:59Z</time>
      </trkpt>
      <trkpt lat="44.29319" lon="3.32288">
        <ele>921</ele>
        <time>2017-03-05T14:10:59Z</time>
      </trkpt>
      <trkpt lat="44.29317" lon="3.32277">
        <ele>922</ele>
        <time>2017-03-05T14:12:59Z</time>
      </trkpt>
      <trkpt lat="44.29309" lon="3.32261">
        <ele>924</ele>
        <time>2017-03-05T14:14:59Z</time>
      </trkpt>
      <trkpt lat="44.29285" lon="3.32226">
        <ele>929</ele>
        <time>2017-03-05T14:16:59Z</time>
      </trkpt>
      <trkpt lat="44.29278" lon="3.32215">
        <ele>931</ele>
        <time>2017-03-05T14:18:59Z</time>
      </trkpt>
      <trkpt lat="44.29271" lon="3.32198">
        <ele>933</ele>
        <time>2017-03-05T14:20:59Z</time>
      </trkpt>
      <trkpt lat="44.2927" lon="3.32198">
        <ele>933</ele>
        <time>2017-03-05T14:22:59Z</time>
      </trkpt>
      <trkpt lat="44.29266" lon="3.32188">
        <ele>934</ele>
        <time>2017-03-05T14:24:59Z</time>
      </trkpt>
      <trkpt lat="44.29262" lon="3.3218">
        <ele>935</ele>
        <time>2017-03-05T14:26:59Z</time>
      </trkpt>
      <trkpt lat="44.29256" lon="3.32174">
        <ele>937</ele>
        <time>2017-03-05T14:28:59Z</time>
      </trkpt>
      <trkpt lat="44.2925" lon="3.32167">
        <ele>938</ele>
        <time>2017-03-05T14:30:59Z</time>
      </trkpt>
      <trkpt lat="44.29247" lon="3.3216">
        <ele>938</ele>
        <time>2017-03-05T14:32:59Z</time>
      </trkpt>
      <trkpt lat="44.29245" lon="3.32153">
        <ele>938</ele>
        <time>2017-03-05T14:34:59Z</time>
      </trkpt>
      <trkpt lat="44.29243" lon="3.32138">
        <ele>939</ele>
        <time>2017-03-05T14:36:59Z</time>
      </trkpt>
      <trkpt lat="44.29241" lon="3.32119">
        <ele>940</ele>
        <time>2017-03-05T14:38:59Z</time>
      </trkpt>
      <trkpt lat="44.29239" lon="3.32097">
        <ele>941</ele>
        <time>2017-03-05T14:40:59Z</time>
      </trkpt>
      <trkpt lat="44.29235" lon="3.3208">
        <ele>942</ele>
        <time>2017-03-05T14:42:59Z</time>
      </trkpt>
      <trkpt lat="44.2923" lon="3.32062">
        <ele>942</ele>
        <time>2017-03-05T14:44:59Z</time>
      </trkpt>
      <trkpt lat="44.29228" lon="3.3205">
        <ele>942</ele>
        <time>2017-03-05T14:46:59Z</time>
      </trkpt>
      <trkpt lat="44.29227" lon="3.3204">
        <ele>942</ele>
        <time>2017-03-05T14:48:59Z</time>
      </trkpt>
      <trkpt lat="44.29227" lon="3.32012">
        <ele>942</ele>
        <time>2017-03-05T14:50:59Z</time>
      </trkpt>
      <trkpt lat="44.29228" lon="3.31999">
        <ele>942</ele>
        <time>2017-03-05T14:52:59Z</time>
      </trkpt>
      <trkpt lat="44.29227" lon="3.31988">
        <ele>941</ele>
        <time>2017-03-05T14:54:59Z</time>
      </trkpt>
      <trkpt lat="44.29224" lon="3.31968">
        <ele>940</ele>
        <time>2017-03-05T14:56:59Z</time>
      </trkpt>
      <trkpt lat="44.29217" lon="3.31937">
        <ele>938</ele>
        <time>2017-03-05T14:58:59Z</time>
      </trkpt>
      <trkpt lat="44.29211" lon="3.31913">
        <ele>937</ele>
        <time>2017-03-05T15:00:59Z</time>
      </trkpt>
      <trkpt lat="44.29205" lon="3.31905">
        <ele>938</ele>
        <time>2017-03-05T15:02:59Z</time>
      </trkpt>
      <trkpt lat="44.29198" lon="3.319">
        <ele>939</ele>
        <time>2017-03-05T15:04:59Z</time>
      </trkpt>
      <trkpt lat="44.29188" lon="3.31898">
        <ele>941</ele>
        <time>2017-03-05T15:06:59Z</time>
      </trkpt>
      <trkpt lat="44.29158" lon="3.31898">
        <ele>947</ele>
        <time>2017-03-05T15:08:59Z</time>
      </trkpt>
      <trkpt lat="44.29148" lon="3.31897">
        <ele>947</ele>
        <time>2017-03-05T15:10:59Z</time>
      </trkpt>
      <trkpt lat="44.29134" lon="3.31893">
        <ele>947</ele>
        <time>2017-03-05T15:12:59Z</time>
      </trkpt>
      <trkpt lat="44.29124" lon="3.31892">
        <ele>947</ele>
        <time>2017-03-05T15:14:59Z</time>
      </trkpt>
      <trkpt lat="44.29118" lon="3.31891">
        <ele>947</ele>
        <time>2017-03-05T15:16:59Z</time>
      </trkpt>
      <trkpt lat="44.29105" lon="3.31894">
        <ele>948</ele>
        <time>2017-03-05T15:18:59Z</time>
      </trkpt>
      <trkpt lat="44.2909" lon="3.31899">
        <ele>948</ele>
        <time>2017-03-05T15:20:59Z</time>
      </trkpt>
      <trkpt lat="44.29073" lon="3.31908">
        <ele>948</ele>
        <time>2017-03-05T15:22:59Z</time>
      </trkpt>
      <trkpt lat="44.29059" lon="3.31917">
        <ele>949</ele>
        <time>2017-03-05T15:24:59Z</time>
      </trkpt>
      <trkpt lat="44.29043" lon="3.31928">
        <ele>948</ele>
        <time>2017-03-05T15:26:59Z</time>
      </trkpt>
      <trkpt lat="44.29034" lon="3.31932">
        <ele>948</ele>
        <time>2017-03-05T15:28:59Z</time>
      </trkpt>
      <trkpt lat="44.29022" lon="3.31934">
        <ele>948</ele>
        <time>2017-03-05T15:30:59Z</time>
      </trkpt>
      <trkpt lat="44.29008" lon="3.31934">
        <ele>947</ele>
        <time>2017-03-05T15:32:59Z</time>
      </trkpt>
      <trkpt lat="44.28995" lon="3.31929">
        <ele>947</ele>
        <time>2017-03-05T15:34:59Z</time>
      </trkpt>
      <trkpt lat="44.28986" lon="3.31925">
        <ele>947</ele>
        <time>2017-03-05T15:36:59Z</time>
      </trkpt>
      <trkpt lat="44.28979" lon="3.31917">
        <ele>948</ele>
        <time>2017-03-05T15:38:59Z</time>
      </trkpt>
      <trkpt lat="44.28972" lon="3.31907">
        <ele>947</ele>
        <time>2017-03-05T15:40:59Z</time>
      </trkpt>
      <trkpt lat="44.2895" lon="3.31886">
        <ele>947</ele>
        <time>2017-03-05T15:42:59Z</time>
      </trkpt>
      <trkpt lat="44.28929" lon="3.31867">
        <ele>947</ele>
        <time>2017-03-05T15:44:59Z</time>
      </trkpt>
      <trkpt lat="44.28912" lon="3.3185">
        <ele>948</ele>
        <time>2017-03-05T15:46:59Z</time>
      </trkpt>
      <trkpt lat="44.28893" lon="3.31833">
        <ele>949</ele>
        <time>2017-03-05T15:48:59Z</time>
      </trkpt>
      <trkpt lat="44.28879" lon="3.31822">
        <ele>949</ele>
        <time>2017-03-05T15:50:59Z</time>
      </trkpt>
      <trkpt lat="44.28861" lon="3.31804">
        <ele>950</ele>
        <time>2017-03-05T15:52:59Z</time>
      </trkpt>
      <trkpt lat="44.28842" lon="3.31788">
        <ele>951</ele>
        <time>2017-03-05T15:54:59Z</time>
      </trkpt>
      <trkpt lat="44.2883" lon="3.31776">
        <ele>951</ele>
        <time>2017-03-05T15:56:59Z</time>
      </trkpt>
      <trkpt lat="44.28818" lon="3.31765">
        <ele>952</ele>
        <time>2017-03-05T15:58:59Z</time>
      </trkpt>
      <trkpt lat="44.28774" lon="3.31739">
        <ele>953</ele>
        <time>2017-03-05T16:00:59Z</time>
      </trkpt>
      <trkpt lat="44.28755" lon="3.31734">
        <ele>953</ele>
        <time>2017-03-05T16:02:59Z</time>
      </trkpt>
      <trkpt lat="44.28738" lon="3.31733">
        <ele>953</ele>
        <time>2017-03-05T16:04:59Z</time>
      </trkpt>
      <trkpt lat="44.28724" lon="3.31736">
        <ele>953</ele>
        <time>2017-03-05T16:06:59Z</time>
      </trkpt>
      <trkpt lat="44.28708" lon="3.31742">
        <ele>954</ele>
        <time>2017-03-05T16:08:59Z</time>
      </trkpt>
      <trkpt lat="44.28688" lon="3.31747">
        <ele>953</ele>
        <time>2017-03-05T16:10:59Z</time>
      </trkpt>
      <trkpt lat="44.28681" lon="3.31747">
        <ele>953</ele>
        <time>2017-03-05T16:12:59Z</time>
      </trkpt>
      <trkpt lat="44.28672" lon="3.31744">
        <ele>953</ele>
        <time>2017-03-05T16:14:59Z</time>
      </trkpt>
      <trkpt lat="44.28665" lon="3.31745">
        <ele>953</ele>
        <time>2017-03-05T16:16:59Z</time>
      </trkpt>
      <trkpt lat="44.28653" lon="3.31749">
        <ele>952</ele>
        <time>2017-03-05T16:18:59Z</time>
      </trkpt>
      <trkpt lat="44.28637" lon="3.31757">
        <ele>951</ele>
        <time>2017-03-05T16:20:59Z</time>
      </trkpt>
      <trkpt lat="44.28615" lon="3.31757">
        <ele>949</ele>
        <time>2017-03-05T16:22:59Z</time>
      </trkpt>
      <trkpt lat="44.28605" lon="3.31754">
        <ele>949</ele>
        <time>2017-03-05T16:24:59Z</time>
      </trkpt>
      <trkpt lat="44.28583" lon="3.31746">
        <ele>948</ele>
        <time>2017-03-05T16:26:59Z</time>
      </trkpt>
      <trkpt lat="44.28566" lon="3.31739">
        <ele>947</ele>
        <time>2017-03-05T16:28:59Z</time>
      </trkpt>
      <trkpt lat="44.28547" lon="3.3173">
        <ele>946</ele>
        <time>2017-03-05T16:30:59Z</time>
      </trkpt>
      <trkpt lat="44.28541" lon="3.31726">
        <ele>945</ele>
        <time>2017-03-05T16:32:59Z</time>
      </trkpt>
      <trkpt lat="44.28532" lon="3.31719">
        <ele>945</ele>
        <time>2017-03-05T16:34:59Z</time>
      </trkpt>
      <trkpt lat="44.28526" lon="3.31715">
        <ele>945</ele>
        <time>2017-03-05T16:36:59Z</time>
      </trkpt>
      <trkpt lat="44.28507" lon="3.3171">
        <ele>944</ele>
        <time>2017-03-05T16:38:59Z</time>
      </trkpt>
      <trkpt lat="44.28493" lon="3.31707">
        <ele>944</ele>
        <time>2017-03-05T16:40:59Z</time>
      </trkpt>
      <trkpt lat="44.28487" lon="3.31707">
        <ele>945</ele>
        <time>2017-03-05T16:42:59Z</time>
      </trkpt>
      <trkpt lat="44.28485" lon="3.31694">
        <ele>945</ele>
        <time>2017-03-05T16:44:59Z</time>
      </trkpt>
      <trkpt lat="44.28483" lon="3.31679">
        <ele>946</ele>
        <time>2017-03-05T16:46:59Z</time>
      </trkpt>
      <trkpt lat="44.28481" lon="3.31671">
        <ele>946</ele>
        <time>2017-03-05T16:48:59Z</time>
      </trkpt>
      <trkpt lat="44.28478" lon="3.31662">
        <ele>946</ele>
        <time>2017-03-05T16:50:59Z</time>
      </trkpt>
      <trkpt lat="44.28474" lon="3.31653">
        <ele>946</ele>
        <time>2017-03-05T16:52:59Z</time>
      </trkpt>
      <trkpt lat="44.28468" lon="3.31644">
        <ele>946</ele>
        <time>2017-03-05T16:54:59Z</time>
      </trkpt>
      <trkpt lat="44.28463" lon="3.31638">
        <ele>946</ele>
        <time>2017-03-05T16:56:59Z</time>
      </trkpt>
      <trkpt lat="44.2845" lon="3.31624">
        <ele>945</ele>
        <time>2017-03-05T16:58:59Z</time>
      </trkpt>
      <trkpt lat="44.28441" lon="3.31615">
        <ele>945</ele>
        <time>2017-03-05T17:00:59Z</time>
      </trkpt>
      <trkpt lat="44.28422" lon="3.31597">
        <ele>945</ele>
        <time>2017-03-05T17:02:59Z</time>
      </trkpt>
      <trkpt lat="44.28421" lon="3.31589">
        <ele>944</ele>
        <time>2017-03-05T17:04:59Z</time>
      </trkpt>
      <trkpt lat="44.28419" lon="3.31583">
        <ele>944</ele>
        <time>2017-03-05T17:06:59Z</time>
      </trkpt>
      <trkpt lat="44.28416" lon="3.3158">
        <ele>944</ele>
        <time>2017-03-05T17:08:59Z</time>
      </trkpt>
      <trkpt lat="44.28384" lon="3.31534">
        <ele>944</ele>
        <time>2017-03-05T17:10:59Z</time>
      </trkpt>
      <trkpt lat="44.28373" lon="3.31512">
        <ele>944</ele>
        <time>2017-03-05T17:12:59Z</time>
      </trkpt>
      <trkpt lat="44.28363" lon="3.31488">
        <ele>944</ele>
        <time>2017-03-05T17:14:59Z</time>
      </trkpt>
      <trkpt lat="44.28356" lon="3.31465">
        <ele>943</ele>
        <time>2017-03-05T17:16:59Z</time>
      </trkpt>
      <trkpt lat="44.28353" lon="3.31453">
        <ele>942</ele>
        <time>2017-03-05T17:18:59Z</time>
      </trkpt>
      <trkpt lat="44.28349" lon="3.31431">
        <ele>941</ele>
        <time>2017-03-05T17:20:59Z</time>
      </trkpt>
      <trkpt lat="44.28345" lon="3.31414">
        <ele>940</ele>
        <time>2017-03-05T17:22:59Z</time>
      </trkpt>
      <trkpt lat="44.28332" lon="3.31373">
        <ele>938</ele>
        <time>2017-03-05T17:24:59Z</time>
      </trkpt>
      <trkpt lat="44.28325" lon="3.31342">
        <ele>936</ele>
        <time>2017-03-05T17:26:59Z</time>
      </trkpt>
      <trkpt lat="44.28318" lon="3.31309">
        <ele>936</ele>
        <time>2017-03-05T17:28:59Z</time>
      </trkpt>
      <trkpt lat="44.28315" lon="3.31291">
        <ele>936</ele>
        <time>2017-03-05T17:30:59Z</time>
      </trkpt>
      <trkpt lat="44.28314" lon="3.31277">
        <ele>936</ele>
        <time>2017-03-05T17:32:59Z</time>
      </trkpt>
      <trkpt lat="44.28322" lon="3.31247">
        <ele>934</ele>
        <time>2017-03-05T17:34:59Z</time>
      </trkpt>
      <trkpt lat="44.28335" lon="3.31201">
        <ele>931</ele>
        <time>2017-03-05T17:36:59Z</time>
      </trkpt>
      <trkpt lat="44.28348" lon="3.31162">
        <ele>930</ele>
        <time>2017-03-05T17:38:59Z</time>
      </trkpt>
      <trkpt lat="44.28363" lon="3.3113">
        <ele>930</ele>
        <time>2017-03-05T17:40:59Z</time>
      </trkpt>
      <trkpt lat="44.28373" lon="3.31106">
        <ele>930</ele>
        <time>2017-03-05T17:42:59Z</time>
      </trkpt>
      <trkpt lat="44.28389" lon="3.31041">
        <ele>932</ele>
        <time>2017-03-05T17:44:59Z</time>
      </trkpt>
      <trkpt lat="44.28401" lon="3.30996">
        <ele>932</ele>
        <time>2017-03-05T17:46:59Z</time>
      </trkpt>
      <trkpt lat="44.28404" lon="3.30962">
        <ele>932</ele>
        <time>2017-03-05T17:48:59Z</time>
      </trkpt>
      <trkpt lat="44.28407" lon="3.30918">
        <ele>932</ele>
        <time>2017-03-05T17:50:59Z</time>
      </trkpt>
      <trkpt lat="44.28418" lon="3.30832">
        <ele>925</ele>
        <time>2017-03-05T17:52:59Z</time>
      </trkpt>
      <trkpt lat="44.28418" lon="3.30797">
        <ele>922</ele>
        <time>2017-03-05T17:54:59Z</time>
      </trkpt>
      <trkpt lat="44.28417" lon="3.30754">
        <ele>918</ele>
        <time>2017-03-05T17:56:59Z</time>
      </trkpt>
      <trkpt lat="44.28413" lon="3.3073">
        <ele>917</ele>
        <time>2017-03-05T17:58:59Z</time>
      </trkpt>
      <trkpt lat="44.28401" lon="3.307">
        <ele>917</ele>
        <time>2017-03-05T18:00:59Z</time>
      </trkpt>
      <trkpt lat="44.28353" lon="3.30564">
        <ele>912</ele>
        <time>2017-03-05T18:02:59Z</time>
      </trkpt>
      <trkpt lat="44.28345" lon="3.30538">
        <ele>913</ele>
        <time>2017-03-05T18:04:59Z</time>
      </trkpt>
      <trkpt lat="44.2834" lon="3.30502">
        <ele>912</ele>
        <time>2017-03-05T18:06:59Z</time>
      </trkpt>
      <trkpt lat="44.28339" lon="3.30462">
        <ele>914</ele>
        <time>2017-03-05T18:08:59Z</time>
      </trkpt>
      <trkpt lat="44.28343" lon="3.30444">
        <ele>913</ele>
        <time>2017-03-05T18:10:59Z</time>
      </trkpt>
      <trkpt lat="44.28367" lon="3.30389">
        <ele>913</ele>
        <time>2017-03-05T18:12:59Z</time>
      </trkpt>
      <trkpt lat="44.28397" lon="3.30349">
        <ele>912</ele>
        <time>2017-03-05T18:14:59Z</time>
      </trkpt>
      <trkpt lat="44.2842" lon="3.30326">
        <ele>911</ele>
        <time>2017-03-05T18:16:59Z</time>
      </trkpt>
      <trkpt lat="44.28484" lon="3.30242">
        <ele>910</ele>
        <time>2017-03-05T18:18:59Z</time>
      </trkpt>
      <trkpt lat="44.2849" lon="3.30231">
        <ele>910</ele>
        <time>2017-03-05T18:20:59Z</time>
      </trkpt>
      <trkpt lat="44.28497" lon="3.30208">
        <ele>910</ele>
        <time>2017-03-05T18:22:59Z</time>
      </trkpt>
      <trkpt lat="44.2851" lon="3.30144">
        <ele>911</ele>
        <time>2017-03-05T18:24:59Z</time>
      </trkpt>
      <trkpt lat="44.28514" lon="3.30128">
        <ele>911</ele>
        <time>2017-03-05T18:26:59Z</time>
      </trkpt>
      <trkpt lat="44.2852" lon="3.30121">
        <ele>910</ele>
        <time>2017-03-05T18:28:59Z</time>
      </trkpt>
      <trkpt lat="44.28534" lon="3.30112">
        <ele>909</ele>
        <time>2017-03-05T18:30:59Z</time>
      </trkpt>
      <trkpt lat="44.28544" lon="3.30103">
        <ele>909</ele>
        <time>2017-03-05T18:32:59Z</time>
      </trkpt>
      <trkpt lat="44.28551" lon="3.30093">
        <ele>908</ele>
        <time>2017-03-05T18:34:59Z</time>
      </trkpt>
      <trkpt lat="44.28559" lon="3.30077">
        <ele>908</ele>
        <time>2017-03-05T18:36:59Z</time>
      </trkpt>
      <trkpt lat="44.28572" lon="3.30061">
        <ele>907</ele>
        <time>2017-03-05T18:38:59Z</time>
      </trkpt>
      <trkpt lat="44.28601" lon="3.30034">
        <ele>907</ele>
        <time>2017-03-05T18:40:59Z</time>
      </trkpt>
      <trkpt lat="44.2862" lon="3.30025">
        <ele>908</ele>
        <time>2017-03-05T18:42:59Z</time>
      </trkpt>
      <trkpt lat="44.28636" lon="3.30017">
        <ele>908</ele>
        <time>2017-03-05T18:44:59Z</time>
      </trkpt>
      <trkpt lat="44.28648" lon="3.30014">
        <ele>908</ele>
        <time>2017-03-05T18:46:59Z</time>
      </trkpt>
      <trkpt lat="44.28672" lon="3.30012">
        <ele>909</ele>
        <time>2017-03-05T18:48:59Z</time>
      </trkpt>
      <trkpt lat="44.28678" lon="3.3001">
        <ele>909</ele>
        <time>2017-03-05T18:50:59Z</time>
      </trkpt>
    </trkseg>
  </trk>
</gpx>